<?xml version="1.0" encoding="UTF-8" standalone="no" ?>
<gpx xmlns="http://www.topografix.com/GPX/1/1" xmlns:xsi="http://www.w3.org/2001/XMLSchema-instance" xsi:schemaLocation="http://www.topografix.com/GPX/1/1 http://www.topografix.com/GPX/1/1/gpx.xsd" version="1.1" creator="VisuGPX - https://www.visugpx.com">
  <metadata>
    <name>Lot boucle 2 jour 4</name>
    <desc><![CDATA[Au départ du gîte des Landes : rustique mais bonne table. Chevaux un peu léger manque d'herbes et pas de foin..
Randonnée plutôt pédestre car une jument boitait ? sinon très beaux chemin.
Arrivée à l'hôtel de la Garrissade ]]></desc>
  </metadata>
  <trk>
    <name><![CDATA[SityTrail - Lot 2019-2-4]]></name>
    <trkseg>
      <trkpt lat="44.75599" lon="1.43425">
        <ele>253</ele>
        <time>2019-08-13T08:29:42.140Z</time>
      </trkpt>
      <trkpt lat="44.75598" lon="1.43426">
        <ele>253</ele>
        <time>2019-08-13T08:29:43.158Z</time>
      </trkpt>
      <trkpt lat="44.756" lon="1.4343">
        <ele>253</ele>
        <time>2019-08-13T08:29:48.152Z</time>
      </trkpt>
      <trkpt lat="44.75602" lon="1.43431">
        <ele>253</ele>
        <time>2019-08-13T08:29:52.161Z</time>
      </trkpt>
      <trkpt lat="44.75602" lon="1.43432">
        <ele>253</ele>
        <time>2019-08-13T08:29:56.207Z</time>
      </trkpt>
      <trkpt lat="44.75599" lon="1.43439">
        <ele>253</ele>
        <time>2019-08-13T08:30:01.143Z</time>
      </trkpt>
      <trkpt lat="44.756" lon="1.43448">
        <ele>253</ele>
        <time>2019-08-13T08:30:05.165Z</time>
      </trkpt>
      <trkpt lat="44.756" lon="1.43456">
        <ele>253</ele>
        <time>2019-08-13T08:30:10.169Z</time>
      </trkpt>
      <trkpt lat="44.756" lon="1.43464">
        <ele>254</ele>
        <time>2019-08-13T08:30:15.155Z</time>
      </trkpt>
      <trkpt lat="44.756" lon="1.43469">
        <ele>254</ele>
        <time>2019-08-13T08:30:19.186Z</time>
      </trkpt>
      <trkpt lat="44.75601" lon="1.43474">
        <ele>254</ele>
        <time>2019-08-13T08:30:23.178Z</time>
      </trkpt>
      <trkpt lat="44.75601" lon="1.43481">
        <ele>254</ele>
        <time>2019-08-13T08:30:28.166Z</time>
      </trkpt>
      <trkpt lat="44.75601" lon="1.43487">
        <ele>256</ele>
        <time>2019-08-13T08:30:32.160Z</time>
      </trkpt>
      <trkpt lat="44.75603" lon="1.43493">
        <ele>256</ele>
        <time>2019-08-13T08:30:36.173Z</time>
      </trkpt>
      <trkpt lat="44.75605" lon="1.43502">
        <ele>256</ele>
        <time>2019-08-13T08:30:41.167Z</time>
      </trkpt>
      <trkpt lat="44.75604" lon="1.43509">
        <ele>256</ele>
        <time>2019-08-13T08:30:46.167Z</time>
      </trkpt>
      <trkpt lat="44.75603" lon="1.43514">
        <ele>258</ele>
        <time>2019-08-13T08:30:51.167Z</time>
      </trkpt>
      <trkpt lat="44.75602" lon="1.43521">
        <ele>258</ele>
        <time>2019-08-13T08:30:56.161Z</time>
      </trkpt>
      <trkpt lat="44.756" lon="1.43528">
        <ele>258</ele>
        <time>2019-08-13T08:31:01.173Z</time>
      </trkpt>
      <trkpt lat="44.75598" lon="1.43535">
        <ele>258</ele>
        <time>2019-08-13T08:31:06.172Z</time>
      </trkpt>
      <trkpt lat="44.75596" lon="1.43543">
        <ele>255</ele>
        <time>2019-08-13T08:31:11.170Z</time>
      </trkpt>
      <trkpt lat="44.75596" lon="1.43549">
        <ele>255</ele>
        <time>2019-08-13T08:31:16.155Z</time>
      </trkpt>
      <trkpt lat="44.75598" lon="1.43549">
        <ele>258</ele>
        <time>2019-08-13T08:31:34.171Z</time>
      </trkpt>
      <trkpt lat="44.75598" lon="1.43549">
        <ele>258</ele>
        <time>2019-08-13T08:31:38.179Z</time>
      </trkpt>
      <trkpt lat="44.75598" lon="1.43551">
        <ele>258</ele>
        <time>2019-08-13T08:31:43.169Z</time>
      </trkpt>
      <trkpt lat="44.75598" lon="1.43558">
        <ele>258</ele>
        <time>2019-08-13T08:31:47.189Z</time>
      </trkpt>
      <trkpt lat="44.75596" lon="1.43565">
        <ele>255</ele>
        <time>2019-08-13T08:31:52.157Z</time>
      </trkpt>
      <trkpt lat="44.75595" lon="1.43573">
        <ele>256</ele>
        <time>2019-08-13T08:31:56.164Z</time>
      </trkpt>
      <trkpt lat="44.75595" lon="1.43583">
        <ele>256</ele>
        <time>2019-08-13T08:32:01.164Z</time>
      </trkpt>
      <trkpt lat="44.75594" lon="1.43591">
        <ele>256</ele>
        <time>2019-08-13T08:32:06.146Z</time>
      </trkpt>
      <trkpt lat="44.75594" lon="1.43599">
        <ele>259</ele>
        <time>2019-08-13T08:32:10.167Z</time>
      </trkpt>
      <trkpt lat="44.75595" lon="1.43606">
        <ele>259</ele>
        <time>2019-08-13T08:32:14.165Z</time>
      </trkpt>
      <trkpt lat="44.75595" lon="1.43615">
        <ele>259</ele>
        <time>2019-08-13T08:32:19.175Z</time>
      </trkpt>
      <trkpt lat="44.75595" lon="1.43627">
        <ele>263</ele>
        <time>2019-08-13T08:32:24.160Z</time>
      </trkpt>
      <trkpt lat="44.75594" lon="1.43634">
        <ele>263</ele>
        <time>2019-08-13T08:32:28.181Z</time>
      </trkpt>
      <trkpt lat="44.75592" lon="1.43642">
        <ele>263</ele>
        <time>2019-08-13T08:32:33.149Z</time>
      </trkpt>
      <trkpt lat="44.75591" lon="1.4365">
        <ele>263</ele>
        <time>2019-08-13T08:32:38.174Z</time>
      </trkpt>
      <trkpt lat="44.75589" lon="1.43658">
        <ele>264</ele>
        <time>2019-08-13T08:32:43.169Z</time>
      </trkpt>
      <trkpt lat="44.75589" lon="1.43666">
        <ele>264</ele>
        <time>2019-08-13T08:32:48.157Z</time>
      </trkpt>
      <trkpt lat="44.75589" lon="1.43672">
        <ele>264</ele>
        <time>2019-08-13T08:32:52.155Z</time>
      </trkpt>
      <trkpt lat="44.75586" lon="1.43681">
        <ele>265</ele>
        <time>2019-08-13T08:32:57.177Z</time>
      </trkpt>
      <trkpt lat="44.75582" lon="1.43687">
        <ele>265</ele>
        <time>2019-08-13T08:33:02.158Z</time>
      </trkpt>
      <trkpt lat="44.75575" lon="1.4369">
        <ele>265</ele>
        <time>2019-08-13T08:33:07.167Z</time>
      </trkpt>
      <trkpt lat="44.75569" lon="1.43694">
        <ele>267</ele>
        <time>2019-08-13T08:33:12.175Z</time>
      </trkpt>
      <trkpt lat="44.75566" lon="1.43698">
        <ele>267</ele>
        <time>2019-08-13T08:33:17.171Z</time>
      </trkpt>
      <trkpt lat="44.7556" lon="1.43701">
        <ele>267</ele>
        <time>2019-08-13T08:33:21.165Z</time>
      </trkpt>
      <trkpt lat="44.75553" lon="1.43704">
        <ele>267</ele>
        <time>2019-08-13T08:33:26.156Z</time>
      </trkpt>
      <trkpt lat="44.7555" lon="1.43708">
        <ele>267</ele>
        <time>2019-08-13T08:33:30.171Z</time>
      </trkpt>
      <trkpt lat="44.75545" lon="1.43713">
        <ele>269</ele>
        <time>2019-08-13T08:33:35.164Z</time>
      </trkpt>
      <trkpt lat="44.75541" lon="1.43718">
        <ele>268</ele>
        <time>2019-08-13T08:33:40.155Z</time>
      </trkpt>
      <trkpt lat="44.75537" lon="1.43724">
        <ele>268</ele>
        <time>2019-08-13T08:33:44.151Z</time>
      </trkpt>
      <trkpt lat="44.75532" lon="1.43729">
        <ele>268</ele>
        <time>2019-08-13T08:33:48.165Z</time>
      </trkpt>
      <trkpt lat="44.75528" lon="1.43735">
        <ele>268</ele>
        <time>2019-08-13T08:33:53.157Z</time>
      </trkpt>
      <trkpt lat="44.75526" lon="1.43739">
        <ele>272</ele>
        <time>2019-08-13T08:33:58.159Z</time>
      </trkpt>
      <trkpt lat="44.75521" lon="1.43744">
        <ele>272</ele>
        <time>2019-08-13T08:34:03.153Z</time>
      </trkpt>
      <trkpt lat="44.75518" lon="1.43745">
        <ele>272</ele>
        <time>2019-08-13T08:34:07.182Z</time>
      </trkpt>
      <trkpt lat="44.75511" lon="1.43746">
        <ele>270</ele>
        <time>2019-08-13T08:34:12.170Z</time>
      </trkpt>
      <trkpt lat="44.75505" lon="1.4375">
        <ele>270</ele>
        <time>2019-08-13T08:34:17.172Z</time>
      </trkpt>
      <trkpt lat="44.75501" lon="1.43755">
        <ele>270</ele>
        <time>2019-08-13T08:34:21.170Z</time>
      </trkpt>
      <trkpt lat="44.75499" lon="1.43757">
        <ele>270</ele>
        <time>2019-08-13T08:34:25.178Z</time>
      </trkpt>
      <trkpt lat="44.75499" lon="1.43758">
        <ele>270</ele>
        <time>2019-08-13T08:34:30.170Z</time>
      </trkpt>
      <trkpt lat="44.75497" lon="1.4376">
        <ele>270</ele>
        <time>2019-08-13T08:34:34.165Z</time>
      </trkpt>
      <trkpt lat="44.75491" lon="1.43766">
        <ele>273</ele>
        <time>2019-08-13T08:34:39.172Z</time>
      </trkpt>
      <trkpt lat="44.75485" lon="1.43769">
        <ele>270</ele>
        <time>2019-08-13T08:34:44.153Z</time>
      </trkpt>
      <trkpt lat="44.75482" lon="1.43773">
        <ele>270</ele>
        <time>2019-08-13T08:34:48.172Z</time>
      </trkpt>
      <trkpt lat="44.75476" lon="1.43778">
        <ele>270</ele>
        <time>2019-08-13T08:34:53.160Z</time>
      </trkpt>
      <trkpt lat="44.75471" lon="1.43782">
        <ele>270</ele>
        <time>2019-08-13T08:34:58.157Z</time>
      </trkpt>
      <trkpt lat="44.75465" lon="1.43785">
        <ele>270</ele>
        <time>2019-08-13T08:35:03.179Z</time>
      </trkpt>
      <trkpt lat="44.75461" lon="1.4379">
        <ele>270</ele>
        <time>2019-08-13T08:35:08.159Z</time>
      </trkpt>
      <trkpt lat="44.75456" lon="1.43794">
        <ele>274</ele>
        <time>2019-08-13T08:35:13.168Z</time>
      </trkpt>
      <trkpt lat="44.75448" lon="1.43798">
        <ele>274</ele>
        <time>2019-08-13T08:35:18.148Z</time>
      </trkpt>
      <trkpt lat="44.75443" lon="1.43801">
        <ele>274</ele>
        <time>2019-08-13T08:35:22.165Z</time>
      </trkpt>
      <trkpt lat="44.75437" lon="1.43807">
        <ele>274</ele>
        <time>2019-08-13T08:35:27.165Z</time>
      </trkpt>
      <trkpt lat="44.75431" lon="1.4381">
        <ele>274</ele>
        <time>2019-08-13T08:35:32.168Z</time>
      </trkpt>
      <trkpt lat="44.75425" lon="1.43814">
        <ele>274</ele>
        <time>2019-08-13T08:35:37.164Z</time>
      </trkpt>
      <trkpt lat="44.75421" lon="1.4382">
        <ele>277</ele>
        <time>2019-08-13T08:35:42.167Z</time>
      </trkpt>
      <trkpt lat="44.75416" lon="1.43824">
        <ele>277</ele>
        <time>2019-08-13T08:35:46.166Z</time>
      </trkpt>
      <trkpt lat="44.7541" lon="1.43829">
        <ele>277</ele>
        <time>2019-08-13T08:35:51.180Z</time>
      </trkpt>
      <trkpt lat="44.75404" lon="1.43832">
        <ele>277</ele>
        <time>2019-08-13T08:35:55.176Z</time>
      </trkpt>
      <trkpt lat="44.75398" lon="1.43835">
        <ele>276</ele>
        <time>2019-08-13T08:36:00.163Z</time>
      </trkpt>
      <trkpt lat="44.75393" lon="1.43835">
        <ele>276</ele>
        <time>2019-08-13T08:36:04.165Z</time>
      </trkpt>
      <trkpt lat="44.75386" lon="1.43834">
        <ele>276</ele>
        <time>2019-08-13T08:36:09.165Z</time>
      </trkpt>
      <trkpt lat="44.7538" lon="1.43835">
        <ele>276</ele>
        <time>2019-08-13T08:36:14.170Z</time>
      </trkpt>
      <trkpt lat="44.75375" lon="1.43836">
        <ele>275</ele>
        <time>2019-08-13T08:36:19.159Z</time>
      </trkpt>
      <trkpt lat="44.7537" lon="1.43836">
        <ele>275</ele>
        <time>2019-08-13T08:36:23.162Z</time>
      </trkpt>
      <trkpt lat="44.75365" lon="1.43836">
        <ele>275</ele>
        <time>2019-08-13T08:36:27.175Z</time>
      </trkpt>
      <trkpt lat="44.75359" lon="1.43837">
        <ele>275</ele>
        <time>2019-08-13T08:36:32.160Z</time>
      </trkpt>
      <trkpt lat="44.75354" lon="1.43838">
        <ele>275</ele>
        <time>2019-08-13T08:36:36.165Z</time>
      </trkpt>
      <trkpt lat="44.7535" lon="1.43838">
        <ele>275</ele>
        <time>2019-08-13T08:36:41.159Z</time>
      </trkpt>
      <trkpt lat="44.75346" lon="1.43837">
        <ele>277</ele>
        <time>2019-08-13T08:36:46.158Z</time>
      </trkpt>
      <trkpt lat="44.75341" lon="1.43838">
        <ele>277</ele>
        <time>2019-08-13T08:36:51.168Z</time>
      </trkpt>
      <trkpt lat="44.75336" lon="1.43839">
        <ele>277</ele>
        <time>2019-08-13T08:36:56.154Z</time>
      </trkpt>
      <trkpt lat="44.75329" lon="1.43839">
        <ele>277</ele>
        <time>2019-08-13T08:37:00.167Z</time>
      </trkpt>
      <trkpt lat="44.75323" lon="1.4384">
        <ele>277</ele>
        <time>2019-08-13T08:37:05.164Z</time>
      </trkpt>
      <trkpt lat="44.75316" lon="1.43842">
        <ele>279</ele>
        <time>2019-08-13T08:37:10.169Z</time>
      </trkpt>
      <trkpt lat="44.7531" lon="1.43844">
        <ele>279</ele>
        <time>2019-08-13T08:37:15.165Z</time>
      </trkpt>
      <trkpt lat="44.75304" lon="1.43844">
        <ele>279</ele>
        <time>2019-08-13T08:37:20.160Z</time>
      </trkpt>
      <trkpt lat="44.75299" lon="1.43845">
        <ele>279</ele>
        <time>2019-08-13T08:37:25.175Z</time>
      </trkpt>
      <trkpt lat="44.75293" lon="1.43846">
        <ele>279</ele>
        <time>2019-08-13T08:37:30.163Z</time>
      </trkpt>
      <trkpt lat="44.75288" lon="1.43846">
        <ele>281</ele>
        <time>2019-08-13T08:37:35.166Z</time>
      </trkpt>
      <trkpt lat="44.75282" lon="1.43848">
        <ele>281</ele>
        <time>2019-08-13T08:37:40.152Z</time>
      </trkpt>
      <trkpt lat="44.75277" lon="1.4385">
        <ele>281</ele>
        <time>2019-08-13T08:37:44.162Z</time>
      </trkpt>
      <trkpt lat="44.75272" lon="1.43853">
        <ele>281</ele>
        <time>2019-08-13T08:37:48.160Z</time>
      </trkpt>
      <trkpt lat="44.7527" lon="1.43854">
        <ele>281</ele>
        <time>2019-08-13T08:37:53.157Z</time>
      </trkpt>
      <trkpt lat="44.75267" lon="1.43855">
        <ele>281</ele>
        <time>2019-08-13T08:37:58.168Z</time>
      </trkpt>
      <trkpt lat="44.75262" lon="1.43857">
        <ele>281</ele>
        <time>2019-08-13T08:38:03.143Z</time>
      </trkpt>
      <trkpt lat="44.75256" lon="1.43857">
        <ele>281</ele>
        <time>2019-08-13T08:38:07.156Z</time>
      </trkpt>
      <trkpt lat="44.75251" lon="1.43857">
        <ele>281</ele>
        <time>2019-08-13T08:38:11.165Z</time>
      </trkpt>
      <trkpt lat="44.75244" lon="1.43856">
        <ele>281</ele>
        <time>2019-08-13T08:38:16.145Z</time>
      </trkpt>
      <trkpt lat="44.75238" lon="1.43858">
        <ele>281</ele>
        <time>2019-08-13T08:38:21.153Z</time>
      </trkpt>
      <trkpt lat="44.7523" lon="1.43862">
        <ele>279</ele>
        <time>2019-08-13T08:38:26.131Z</time>
      </trkpt>
      <trkpt lat="44.75223" lon="1.43865">
        <ele>279</ele>
        <time>2019-08-13T08:38:31.156Z</time>
      </trkpt>
      <trkpt lat="44.75219" lon="1.43867">
        <ele>279</ele>
        <time>2019-08-13T08:38:35.159Z</time>
      </trkpt>
      <trkpt lat="44.75214" lon="1.43869">
        <ele>279</ele>
        <time>2019-08-13T08:38:39.162Z</time>
      </trkpt>
      <trkpt lat="44.7521" lon="1.43871">
        <ele>279</ele>
        <time>2019-08-13T08:38:43.173Z</time>
      </trkpt>
      <trkpt lat="44.75202" lon="1.43874">
        <ele>277</ele>
        <time>2019-08-13T08:38:48.154Z</time>
      </trkpt>
      <trkpt lat="44.75196" lon="1.43877">
        <ele>278</ele>
        <time>2019-08-13T08:38:53.178Z</time>
      </trkpt>
      <trkpt lat="44.75191" lon="1.43878">
        <ele>278</ele>
        <time>2019-08-13T08:38:58.164Z</time>
      </trkpt>
      <trkpt lat="44.7519" lon="1.43878">
        <ele>278</ele>
        <time>2019-08-13T08:39:03.162Z</time>
      </trkpt>
      <trkpt lat="44.75189" lon="1.43878">
        <ele>278</ele>
        <time>2019-08-13T08:39:07.165Z</time>
      </trkpt>
      <trkpt lat="44.75189" lon="1.43877">
        <ele>278</ele>
        <time>2019-08-13T08:39:12.160Z</time>
      </trkpt>
      <trkpt lat="44.75186" lon="1.43877">
        <ele>278</ele>
        <time>2019-08-13T08:39:17.161Z</time>
      </trkpt>
      <trkpt lat="44.75179" lon="1.43878">
        <ele>277</ele>
        <time>2019-08-13T08:39:22.170Z</time>
      </trkpt>
      <trkpt lat="44.75168" lon="1.43885">
        <ele>277</ele>
        <time>2019-08-13T08:40:19.155Z</time>
      </trkpt>
      <trkpt lat="44.75168" lon="1.43887">
        <ele>277</ele>
        <time>2019-08-13T08:40:24.128Z</time>
      </trkpt>
      <trkpt lat="44.75167" lon="1.43888">
        <ele>277</ele>
        <time>2019-08-13T08:40:29.157Z</time>
      </trkpt>
      <trkpt lat="44.75165" lon="1.43889">
        <ele>277</ele>
        <time>2019-08-13T08:40:34.158Z</time>
      </trkpt>
      <trkpt lat="44.75159" lon="1.43892">
        <ele>277</ele>
        <time>2019-08-13T08:40:38.161Z</time>
      </trkpt>
      <trkpt lat="44.75152" lon="1.43894">
        <ele>276</ele>
        <time>2019-08-13T08:40:43.176Z</time>
      </trkpt>
      <trkpt lat="44.75147" lon="1.43896">
        <ele>276</ele>
        <time>2019-08-13T08:40:48.156Z</time>
      </trkpt>
      <trkpt lat="44.75142" lon="1.43898">
        <ele>276</ele>
        <time>2019-08-13T08:40:52.168Z</time>
      </trkpt>
      <trkpt lat="44.7514" lon="1.43899">
        <ele>276</ele>
        <time>2019-08-13T08:40:57.172Z</time>
      </trkpt>
      <trkpt lat="44.75139" lon="1.439">
        <ele>276</ele>
        <time>2019-08-13T08:41:02.160Z</time>
      </trkpt>
      <trkpt lat="44.75134" lon="1.43904">
        <ele>279</ele>
        <time>2019-08-13T08:41:07.166Z</time>
      </trkpt>
      <trkpt lat="44.75128" lon="1.43907">
        <ele>279</ele>
        <time>2019-08-13T08:41:11.170Z</time>
      </trkpt>
      <trkpt lat="44.75121" lon="1.43912">
        <ele>276</ele>
        <time>2019-08-13T08:41:16.148Z</time>
      </trkpt>
      <trkpt lat="44.75115" lon="1.43913">
        <ele>276</ele>
        <time>2019-08-13T08:41:20.166Z</time>
      </trkpt>
      <trkpt lat="44.75115" lon="1.4391">
        <ele>276</ele>
        <time>2019-08-13T08:41:25.161Z</time>
      </trkpt>
      <trkpt lat="44.7511" lon="1.4391">
        <ele>276</ele>
        <time>2019-08-13T08:41:30.174Z</time>
      </trkpt>
      <trkpt lat="44.75104" lon="1.43912">
        <ele>276</ele>
        <time>2019-08-13T08:41:35.173Z</time>
      </trkpt>
      <trkpt lat="44.75101" lon="1.43911">
        <ele>276</ele>
        <time>2019-08-13T08:41:40.178Z</time>
      </trkpt>
      <trkpt lat="44.75096" lon="1.43916">
        <ele>276</ele>
        <time>2019-08-13T08:41:45.171Z</time>
      </trkpt>
      <trkpt lat="44.7509" lon="1.4392">
        <ele>276</ele>
        <time>2019-08-13T08:41:50.154Z</time>
      </trkpt>
      <trkpt lat="44.75084" lon="1.43921">
        <ele>276</ele>
        <time>2019-08-13T08:41:54.164Z</time>
      </trkpt>
      <trkpt lat="44.75078" lon="1.43927">
        <ele>276</ele>
        <time>2019-08-13T08:41:59.160Z</time>
      </trkpt>
      <trkpt lat="44.75071" lon="1.4393">
        <ele>276</ele>
        <time>2019-08-13T08:42:04.175Z</time>
      </trkpt>
      <trkpt lat="44.75063" lon="1.4393">
        <ele>277</ele>
        <time>2019-08-13T08:42:09.149Z</time>
      </trkpt>
      <trkpt lat="44.75057" lon="1.43929">
        <ele>277</ele>
        <time>2019-08-13T08:42:13.158Z</time>
      </trkpt>
      <trkpt lat="44.75049" lon="1.43929">
        <ele>277</ele>
        <time>2019-08-13T08:42:18.156Z</time>
      </trkpt>
      <trkpt lat="44.75043" lon="1.43929">
        <ele>277</ele>
        <time>2019-08-13T08:42:22.164Z</time>
      </trkpt>
      <trkpt lat="44.75043" lon="1.43931">
        <ele>277</ele>
        <time>2019-08-13T08:42:27.159Z</time>
      </trkpt>
      <trkpt lat="44.75039" lon="1.43929">
        <ele>277</ele>
        <time>2019-08-13T08:42:32.158Z</time>
      </trkpt>
      <trkpt lat="44.75035" lon="1.43929">
        <ele>277</ele>
        <time>2019-08-13T08:42:36.172Z</time>
      </trkpt>
      <trkpt lat="44.75029" lon="1.43929">
        <ele>277</ele>
        <time>2019-08-13T08:42:40.163Z</time>
      </trkpt>
      <trkpt lat="44.75022" lon="1.43929">
        <ele>277</ele>
        <time>2019-08-13T08:42:45.140Z</time>
      </trkpt>
      <trkpt lat="44.75016" lon="1.4393">
        <ele>277</ele>
        <time>2019-08-13T08:42:49.166Z</time>
      </trkpt>
      <trkpt lat="44.75" lon="1.43937">
        <ele>276</ele>
        <time>2019-08-13T08:43:12.170Z</time>
      </trkpt>
      <trkpt lat="44.74996" lon="1.43936">
        <ele>276</ele>
        <time>2019-08-13T08:43:17.158Z</time>
      </trkpt>
      <trkpt lat="44.74991" lon="1.43938">
        <ele>276</ele>
        <time>2019-08-13T08:43:22.148Z</time>
      </trkpt>
      <trkpt lat="44.74984" lon="1.43937">
        <ele>276</ele>
        <time>2019-08-13T08:43:26.163Z</time>
      </trkpt>
      <trkpt lat="44.7498" lon="1.43939">
        <ele>276</ele>
        <time>2019-08-13T08:43:31.162Z</time>
      </trkpt>
      <trkpt lat="44.74975" lon="1.4394">
        <ele>276</ele>
        <time>2019-08-13T08:43:36.164Z</time>
      </trkpt>
      <trkpt lat="44.74967" lon="1.43941">
        <ele>276</ele>
        <time>2019-08-13T08:43:41.145Z</time>
      </trkpt>
      <trkpt lat="44.74961" lon="1.43941">
        <ele>276</ele>
        <time>2019-08-13T08:43:45.169Z</time>
      </trkpt>
      <trkpt lat="44.74954" lon="1.43942">
        <ele>275</ele>
        <time>2019-08-13T08:43:50.155Z</time>
      </trkpt>
      <trkpt lat="44.74947" lon="1.43943">
        <ele>275</ele>
        <time>2019-08-13T08:43:54.165Z</time>
      </trkpt>
      <trkpt lat="44.7494" lon="1.43946">
        <ele>275</ele>
        <time>2019-08-13T08:43:59.162Z</time>
      </trkpt>
      <trkpt lat="44.74932" lon="1.43948">
        <ele>275</ele>
        <time>2019-08-13T08:44:04.169Z</time>
      </trkpt>
      <trkpt lat="44.74925" lon="1.43949">
        <ele>274</ele>
        <time>2019-08-13T08:44:09.157Z</time>
      </trkpt>
      <trkpt lat="44.74917" lon="1.43951">
        <ele>274</ele>
        <time>2019-08-13T08:44:14.164Z</time>
      </trkpt>
      <trkpt lat="44.7491" lon="1.43954">
        <ele>274</ele>
        <time>2019-08-13T08:44:19.152Z</time>
      </trkpt>
      <trkpt lat="44.74905" lon="1.43955">
        <ele>274</ele>
        <time>2019-08-13T08:44:23.168Z</time>
      </trkpt>
      <trkpt lat="44.74899" lon="1.43956">
        <ele>275</ele>
        <time>2019-08-13T08:44:28.156Z</time>
      </trkpt>
      <trkpt lat="44.74898" lon="1.43956">
        <ele>275</ele>
        <time>2019-08-13T08:44:33.156Z</time>
      </trkpt>
      <trkpt lat="44.74898" lon="1.43957">
        <ele>275</ele>
        <time>2019-08-13T08:44:37.156Z</time>
      </trkpt>
      <trkpt lat="44.74894" lon="1.43958">
        <ele>272</ele>
        <time>2019-08-13T08:44:41.169Z</time>
      </trkpt>
      <trkpt lat="44.74886" lon="1.43958">
        <ele>272</ele>
        <time>2019-08-13T08:44:46.146Z</time>
      </trkpt>
      <trkpt lat="44.74879" lon="1.43959">
        <ele>272</ele>
        <time>2019-08-13T08:44:51.157Z</time>
      </trkpt>
      <trkpt lat="44.74872" lon="1.43961">
        <ele>275</ele>
        <time>2019-08-13T08:44:56.154Z</time>
      </trkpt>
      <trkpt lat="44.74865" lon="1.43964">
        <ele>275</ele>
        <time>2019-08-13T08:45:01.158Z</time>
      </trkpt>
      <trkpt lat="44.74858" lon="1.43966">
        <ele>275</ele>
        <time>2019-08-13T08:45:05.159Z</time>
      </trkpt>
      <trkpt lat="44.7485" lon="1.43968">
        <ele>275</ele>
        <time>2019-08-13T08:45:10.145Z</time>
      </trkpt>
      <trkpt lat="44.74844" lon="1.43971">
        <ele>278</ele>
        <time>2019-08-13T08:45:15.153Z</time>
      </trkpt>
      <trkpt lat="44.74839" lon="1.43971">
        <ele>278</ele>
        <time>2019-08-13T08:45:20.148Z</time>
      </trkpt>
      <trkpt lat="44.74835" lon="1.43972">
        <ele>278</ele>
        <time>2019-08-13T08:45:24.155Z</time>
      </trkpt>
      <trkpt lat="44.74828" lon="1.43974">
        <ele>278</ele>
        <time>2019-08-13T08:45:29.162Z</time>
      </trkpt>
      <trkpt lat="44.74821" lon="1.43975">
        <ele>278</ele>
        <time>2019-08-13T08:45:33.164Z</time>
      </trkpt>
      <trkpt lat="44.74813" lon="1.43976">
        <ele>279</ele>
        <time>2019-08-13T08:45:38.135Z</time>
      </trkpt>
      <trkpt lat="44.74807" lon="1.43978">
        <ele>279</ele>
        <time>2019-08-13T08:45:43.157Z</time>
      </trkpt>
      <trkpt lat="44.74801" lon="1.43981">
        <ele>279</ele>
        <time>2019-08-13T08:45:47.173Z</time>
      </trkpt>
      <trkpt lat="44.74794" lon="1.43984">
        <ele>279</ele>
        <time>2019-08-13T08:45:52.140Z</time>
      </trkpt>
      <trkpt lat="44.74789" lon="1.43985">
        <ele>279</ele>
        <time>2019-08-13T08:45:56.153Z</time>
      </trkpt>
      <trkpt lat="44.74784" lon="1.43985">
        <ele>279</ele>
        <time>2019-08-13T08:46:01.156Z</time>
      </trkpt>
      <trkpt lat="44.7478" lon="1.43983">
        <ele>279</ele>
        <time>2019-08-13T08:46:06.167Z</time>
      </trkpt>
      <trkpt lat="44.74774" lon="1.43981">
        <ele>279</ele>
        <time>2019-08-13T08:46:11.164Z</time>
      </trkpt>
      <trkpt lat="44.74772" lon="1.43979">
        <ele>279</ele>
        <time>2019-08-13T08:46:15.167Z</time>
      </trkpt>
      <trkpt lat="44.74771" lon="1.43978">
        <ele>279</ele>
        <time>2019-08-13T08:46:20.135Z</time>
      </trkpt>
      <trkpt lat="44.74767" lon="1.43977">
        <ele>279</ele>
        <time>2019-08-13T08:46:24.157Z</time>
      </trkpt>
      <trkpt lat="44.74761" lon="1.43976">
        <ele>280</ele>
        <time>2019-08-13T08:46:29.162Z</time>
      </trkpt>
      <trkpt lat="44.74756" lon="1.43974">
        <ele>280</ele>
        <time>2019-08-13T08:46:34.158Z</time>
      </trkpt>
      <trkpt lat="44.74753" lon="1.43976">
        <ele>280</ele>
        <time>2019-08-13T08:46:39.163Z</time>
      </trkpt>
      <trkpt lat="44.74752" lon="1.43975">
        <ele>280</ele>
        <time>2019-08-13T08:46:59.160Z</time>
      </trkpt>
      <trkpt lat="44.74747" lon="1.43976">
        <ele>280</ele>
        <time>2019-08-13T08:47:04.151Z</time>
      </trkpt>
      <trkpt lat="44.7474" lon="1.43972">
        <ele>280</ele>
        <time>2019-08-13T08:47:09.156Z</time>
      </trkpt>
      <trkpt lat="44.74733" lon="1.4397">
        <ele>278</ele>
        <time>2019-08-13T08:47:13.167Z</time>
      </trkpt>
      <trkpt lat="44.74725" lon="1.4397">
        <ele>278</ele>
        <time>2019-08-13T08:47:18.149Z</time>
      </trkpt>
      <trkpt lat="44.74717" lon="1.4397">
        <ele>278</ele>
        <time>2019-08-13T08:47:23.163Z</time>
      </trkpt>
      <trkpt lat="44.74711" lon="1.43971">
        <ele>278</ele>
        <time>2019-08-13T08:47:27.159Z</time>
      </trkpt>
      <trkpt lat="44.74704" lon="1.43971">
        <ele>275</ele>
        <time>2019-08-13T08:47:32.137Z</time>
      </trkpt>
      <trkpt lat="44.74697" lon="1.43969">
        <ele>275</ele>
        <time>2019-08-13T08:47:36.151Z</time>
      </trkpt>
      <trkpt lat="44.74688" lon="1.43966">
        <ele>275</ele>
        <time>2019-08-13T08:47:41.158Z</time>
      </trkpt>
      <trkpt lat="44.74679" lon="1.43962">
        <ele>273</ele>
        <time>2019-08-13T08:47:46.149Z</time>
      </trkpt>
      <trkpt lat="44.74671" lon="1.43955">
        <ele>273</ele>
        <time>2019-08-13T08:47:51.156Z</time>
      </trkpt>
      <trkpt lat="44.74664" lon="1.43952">
        <ele>273</ele>
        <time>2019-08-13T08:47:56.140Z</time>
      </trkpt>
      <trkpt lat="44.74658" lon="1.43951">
        <ele>273</ele>
        <time>2019-08-13T08:48:00.156Z</time>
      </trkpt>
      <trkpt lat="44.7465" lon="1.43949">
        <ele>268</ele>
        <time>2019-08-13T08:48:05.170Z</time>
      </trkpt>
      <trkpt lat="44.74642" lon="1.43945">
        <ele>268</ele>
        <time>2019-08-13T08:48:10.144Z</time>
      </trkpt>
      <trkpt lat="44.74636" lon="1.43942">
        <ele>268</ele>
        <time>2019-08-13T08:48:14.152Z</time>
      </trkpt>
      <trkpt lat="44.74628" lon="1.4394">
        <ele>268</ele>
        <time>2019-08-13T08:48:19.160Z</time>
      </trkpt>
      <trkpt lat="44.7462" lon="1.43938">
        <ele>265</ele>
        <time>2019-08-13T08:48:24.138Z</time>
      </trkpt>
      <trkpt lat="44.74618" lon="1.43936">
        <ele>265</ele>
        <time>2019-08-13T08:48:29.155Z</time>
      </trkpt>
      <trkpt lat="44.74613" lon="1.43934">
        <ele>265</ele>
        <time>2019-08-13T08:48:34.141Z</time>
      </trkpt>
      <trkpt lat="44.74607" lon="1.43933">
        <ele>265</ele>
        <time>2019-08-13T08:48:38.142Z</time>
      </trkpt>
      <trkpt lat="44.74598" lon="1.43931">
        <ele>265</ele>
        <time>2019-08-13T08:48:43.161Z</time>
      </trkpt>
      <trkpt lat="44.74592" lon="1.4393">
        <ele>257</ele>
        <time>2019-08-13T08:48:48.148Z</time>
      </trkpt>
      <trkpt lat="44.74592" lon="1.4393">
        <ele>257</ele>
        <time>2019-08-13T08:48:53.153Z</time>
      </trkpt>
      <trkpt lat="44.74592" lon="1.43926">
        <ele>257</ele>
        <time>2019-08-13T08:49:32.133Z</time>
      </trkpt>
      <trkpt lat="44.74585" lon="1.43928">
        <ele>257</ele>
        <time>2019-08-13T08:49:36.137Z</time>
      </trkpt>
      <trkpt lat="44.74577" lon="1.43928">
        <ele>257</ele>
        <time>2019-08-13T08:49:40.150Z</time>
      </trkpt>
      <trkpt lat="44.74568" lon="1.43927">
        <ele>252</ele>
        <time>2019-08-13T08:49:45.157Z</time>
      </trkpt>
      <trkpt lat="44.74558" lon="1.43929">
        <ele>252</ele>
        <time>2019-08-13T08:49:50.137Z</time>
      </trkpt>
      <trkpt lat="44.74551" lon="1.43929">
        <ele>252</ele>
        <time>2019-08-13T08:49:54.149Z</time>
      </trkpt>
      <trkpt lat="44.74544" lon="1.4393">
        <ele>252</ele>
        <time>2019-08-13T08:49:59.152Z</time>
      </trkpt>
      <trkpt lat="44.74536" lon="1.43929">
        <ele>250</ele>
        <time>2019-08-13T08:50:04.154Z</time>
      </trkpt>
      <trkpt lat="44.74529" lon="1.43928">
        <ele>250</ele>
        <time>2019-08-13T08:50:08.154Z</time>
      </trkpt>
      <trkpt lat="44.74521" lon="1.43927">
        <ele>250</ele>
        <time>2019-08-13T08:50:13.161Z</time>
      </trkpt>
      <trkpt lat="44.74515" lon="1.43928">
        <ele>250</ele>
        <time>2019-08-13T08:50:18.159Z</time>
      </trkpt>
      <trkpt lat="44.74508" lon="1.43929">
        <ele>246</ele>
        <time>2019-08-13T08:50:23.153Z</time>
      </trkpt>
      <trkpt lat="44.74501" lon="1.43927">
        <ele>246</ele>
        <time>2019-08-13T08:50:28.145Z</time>
      </trkpt>
      <trkpt lat="44.74493" lon="1.43927">
        <ele>246</ele>
        <time>2019-08-13T08:50:33.157Z</time>
      </trkpt>
      <trkpt lat="44.74486" lon="1.43926">
        <ele>240</ele>
        <time>2019-08-13T08:50:37.174Z</time>
      </trkpt>
      <trkpt lat="44.74476" lon="1.43927">
        <ele>240</ele>
        <time>2019-08-13T08:50:42.145Z</time>
      </trkpt>
      <trkpt lat="44.74469" lon="1.43925">
        <ele>240</ele>
        <time>2019-08-13T08:50:47.145Z</time>
      </trkpt>
      <trkpt lat="44.74464" lon="1.43923">
        <ele>240</ele>
        <time>2019-08-13T08:50:51.162Z</time>
      </trkpt>
      <trkpt lat="44.74462" lon="1.43919">
        <ele>240</ele>
        <time>2019-08-13T08:50:56.156Z</time>
      </trkpt>
      <trkpt lat="44.74461" lon="1.43917">
        <ele>240</ele>
        <time>2019-08-13T08:51:01.156Z</time>
      </trkpt>
      <trkpt lat="44.74461" lon="1.43917">
        <ele>240</ele>
        <time>2019-08-13T08:51:05.165Z</time>
      </trkpt>
      <trkpt lat="44.74455" lon="1.43916">
        <ele>234</ele>
        <time>2019-08-13T08:51:10.178Z</time>
      </trkpt>
      <trkpt lat="44.74447" lon="1.43913">
        <ele>234</ele>
        <time>2019-08-13T08:51:15.165Z</time>
      </trkpt>
      <trkpt lat="44.7444" lon="1.4391">
        <ele>234</ele>
        <time>2019-08-13T08:51:20.158Z</time>
      </trkpt>
      <trkpt lat="44.74433" lon="1.43904">
        <ele>234</ele>
        <time>2019-08-13T08:51:25.149Z</time>
      </trkpt>
      <trkpt lat="44.74427" lon="1.43897">
        <ele>231</ele>
        <time>2019-08-13T08:51:30.160Z</time>
      </trkpt>
      <trkpt lat="44.74422" lon="1.43893">
        <ele>231</ele>
        <time>2019-08-13T08:51:35.155Z</time>
      </trkpt>
      <trkpt lat="44.74418" lon="1.43888">
        <ele>231</ele>
        <time>2019-08-13T08:51:39.159Z</time>
      </trkpt>
      <trkpt lat="44.74413" lon="1.43883">
        <ele>231</ele>
        <time>2019-08-13T08:51:44.164Z</time>
      </trkpt>
      <trkpt lat="44.74408" lon="1.43876">
        <ele>231</ele>
        <time>2019-08-13T08:51:49.163Z</time>
      </trkpt>
      <trkpt lat="44.74405" lon="1.43872">
        <ele>229</ele>
        <time>2019-08-13T08:53:28.175Z</time>
      </trkpt>
      <trkpt lat="44.74397" lon="1.43875">
        <ele>225</ele>
        <time>2019-08-13T08:53:33.162Z</time>
      </trkpt>
      <trkpt lat="44.74389" lon="1.43879">
        <ele>228</ele>
        <time>2019-08-13T08:53:38.159Z</time>
      </trkpt>
      <trkpt lat="44.74384" lon="1.4388">
        <ele>228</ele>
        <time>2019-08-13T08:53:43.169Z</time>
      </trkpt>
      <trkpt lat="44.74383" lon="1.43879">
        <ele>228</ele>
        <time>2019-08-13T08:53:48.168Z</time>
      </trkpt>
      <trkpt lat="44.74379" lon="1.43875">
        <ele>228</ele>
        <time>2019-08-13T08:54:52.146Z</time>
      </trkpt>
      <trkpt lat="44.74379" lon="1.43875">
        <ele>225</ele>
        <time>2019-08-13T08:54:57.169Z</time>
      </trkpt>
      <trkpt lat="44.74376" lon="1.43874">
        <ele>225</ele>
        <time>2019-08-13T08:55:02.157Z</time>
      </trkpt>
      <trkpt lat="44.74371" lon="1.43875">
        <ele>225</ele>
        <time>2019-08-13T08:55:07.159Z</time>
      </trkpt>
      <trkpt lat="44.74361" lon="1.43875">
        <ele>225</ele>
        <time>2019-08-13T08:55:12.162Z</time>
      </trkpt>
      <trkpt lat="44.74353" lon="1.43876">
        <ele>225</ele>
        <time>2019-08-13T08:55:17.155Z</time>
      </trkpt>
      <trkpt lat="44.74345" lon="1.43876">
        <ele>223</ele>
        <time>2019-08-13T08:55:22.154Z</time>
      </trkpt>
      <trkpt lat="44.74338" lon="1.43876">
        <ele>223</ele>
        <time>2019-08-13T08:55:27.157Z</time>
      </trkpt>
      <trkpt lat="44.7433" lon="1.43878">
        <ele>223</ele>
        <time>2019-08-13T08:55:32.151Z</time>
      </trkpt>
      <trkpt lat="44.74324" lon="1.43883">
        <ele>223</ele>
        <time>2019-08-13T08:55:37.164Z</time>
      </trkpt>
      <trkpt lat="44.74317" lon="1.43886">
        <ele>223</ele>
        <time>2019-08-13T08:55:42.168Z</time>
      </trkpt>
      <trkpt lat="44.74311" lon="1.43888">
        <ele>223</ele>
        <time>2019-08-13T08:55:47.158Z</time>
      </trkpt>
      <trkpt lat="44.74305" lon="1.43888">
        <ele>223</ele>
        <time>2019-08-13T08:55:52.168Z</time>
      </trkpt>
      <trkpt lat="44.74298" lon="1.43888">
        <ele>223</ele>
        <time>2019-08-13T08:55:57.153Z</time>
      </trkpt>
      <trkpt lat="44.74292" lon="1.4389">
        <ele>223</ele>
        <time>2019-08-13T08:56:02.160Z</time>
      </trkpt>
      <trkpt lat="44.74287" lon="1.43889">
        <ele>223</ele>
        <time>2019-08-13T08:56:07.157Z</time>
      </trkpt>
      <trkpt lat="44.74282" lon="1.43887">
        <ele>223</ele>
        <time>2019-08-13T08:56:12.158Z</time>
      </trkpt>
      <trkpt lat="44.74276" lon="1.43885">
        <ele>223</ele>
        <time>2019-08-13T08:56:16.188Z</time>
      </trkpt>
      <trkpt lat="44.74268" lon="1.43882">
        <ele>223</ele>
        <time>2019-08-13T08:56:21.160Z</time>
      </trkpt>
      <trkpt lat="44.74261" lon="1.43883">
        <ele>224</ele>
        <time>2019-08-13T08:56:26.163Z</time>
      </trkpt>
      <trkpt lat="44.74257" lon="1.43884">
        <ele>224</ele>
        <time>2019-08-13T08:56:31.161Z</time>
      </trkpt>
      <trkpt lat="44.7425" lon="1.43883">
        <ele>224</ele>
        <time>2019-08-13T08:56:36.160Z</time>
      </trkpt>
      <trkpt lat="44.74244" lon="1.43883">
        <ele>224</ele>
        <time>2019-08-13T08:56:41.168Z</time>
      </trkpt>
      <trkpt lat="44.7424" lon="1.43882">
        <ele>224</ele>
        <time>2019-08-13T08:56:46.151Z</time>
      </trkpt>
      <trkpt lat="44.74236" lon="1.43883">
        <ele>224</ele>
        <time>2019-08-13T08:56:50.167Z</time>
      </trkpt>
      <trkpt lat="44.74231" lon="1.43882">
        <ele>225</ele>
        <time>2019-08-13T08:56:55.158Z</time>
      </trkpt>
      <trkpt lat="44.74225" lon="1.43883">
        <ele>225</ele>
        <time>2019-08-13T08:57:00.156Z</time>
      </trkpt>
      <trkpt lat="44.74222" lon="1.43883">
        <ele>225</ele>
        <time>2019-08-13T08:57:05.165Z</time>
      </trkpt>
      <trkpt lat="44.74216" lon="1.43882">
        <ele>225</ele>
        <time>2019-08-13T08:57:10.160Z</time>
      </trkpt>
      <trkpt lat="44.7421" lon="1.43882">
        <ele>225</ele>
        <time>2019-08-13T08:57:15.165Z</time>
      </trkpt>
      <trkpt lat="44.74204" lon="1.43879">
        <ele>225</ele>
        <time>2019-08-13T08:57:20.156Z</time>
      </trkpt>
      <trkpt lat="44.74197" lon="1.43877">
        <ele>225</ele>
        <time>2019-08-13T08:57:25.162Z</time>
      </trkpt>
      <trkpt lat="44.7419" lon="1.43872">
        <ele>224</ele>
        <time>2019-08-13T08:57:30.151Z</time>
      </trkpt>
      <trkpt lat="44.74184" lon="1.4387">
        <ele>224</ele>
        <time>2019-08-13T08:57:34.178Z</time>
      </trkpt>
      <trkpt lat="44.74177" lon="1.43869">
        <ele>225</ele>
        <time>2019-08-13T08:57:39.156Z</time>
      </trkpt>
      <trkpt lat="44.74172" lon="1.43865">
        <ele>225</ele>
        <time>2019-08-13T08:57:44.155Z</time>
      </trkpt>
      <trkpt lat="44.74166" lon="1.43863">
        <ele>225</ele>
        <time>2019-08-13T08:57:49.161Z</time>
      </trkpt>
      <trkpt lat="44.74155" lon="1.43856">
        <ele>225</ele>
        <time>2019-08-13T08:57:59.163Z</time>
      </trkpt>
      <trkpt lat="44.74155" lon="1.43856">
        <ele>225</ele>
        <time>2019-08-13T08:58:04.159Z</time>
      </trkpt>
      <trkpt lat="44.74155" lon="1.43856">
        <ele>225</ele>
        <time>2019-08-13T08:58:09.157Z</time>
      </trkpt>
      <trkpt lat="44.74154" lon="1.43855">
        <ele>225</ele>
        <time>2019-08-13T08:58:14.154Z</time>
      </trkpt>
      <trkpt lat="44.74148" lon="1.43854">
        <ele>227</ele>
        <time>2019-08-13T08:58:19.165Z</time>
      </trkpt>
      <trkpt lat="44.74143" lon="1.43855">
        <ele>227</ele>
        <time>2019-08-13T08:58:24.160Z</time>
      </trkpt>
      <trkpt lat="44.74137" lon="1.43857">
        <ele>227</ele>
        <time>2019-08-13T08:58:29.161Z</time>
      </trkpt>
      <trkpt lat="44.7413" lon="1.43857">
        <ele>227</ele>
        <time>2019-08-13T08:58:34.147Z</time>
      </trkpt>
      <trkpt lat="44.74127" lon="1.43856">
        <ele>227</ele>
        <time>2019-08-13T08:58:38.166Z</time>
      </trkpt>
      <trkpt lat="44.74124" lon="1.43856">
        <ele>228</ele>
        <time>2019-08-13T08:58:43.153Z</time>
      </trkpt>
      <trkpt lat="44.7412" lon="1.43856">
        <ele>228</ele>
        <time>2019-08-13T08:58:47.161Z</time>
      </trkpt>
      <trkpt lat="44.74114" lon="1.43855">
        <ele>228</ele>
        <time>2019-08-13T08:58:52.153Z</time>
      </trkpt>
      <trkpt lat="44.74108" lon="1.43854">
        <ele>228</ele>
        <time>2019-08-13T08:58:57.159Z</time>
      </trkpt>
      <trkpt lat="44.74103" lon="1.43857">
        <ele>228</ele>
        <time>2019-08-13T08:59:02.157Z</time>
      </trkpt>
      <trkpt lat="44.74094" lon="1.43859">
        <ele>229</ele>
        <time>2019-08-13T08:59:07.151Z</time>
      </trkpt>
      <trkpt lat="44.7409" lon="1.43862">
        <ele>229</ele>
        <time>2019-08-13T08:59:11.168Z</time>
      </trkpt>
      <trkpt lat="44.74089" lon="1.43868">
        <ele>229</ele>
        <time>2019-08-13T08:59:16.163Z</time>
      </trkpt>
      <trkpt lat="44.74093" lon="1.43874">
        <ele>229</ele>
        <time>2019-08-13T09:02:09.126Z</time>
      </trkpt>
      <trkpt lat="44.73836" lon="1.43981">
        <ele>238</ele>
        <time>2019-08-13T09:24:39.760Z</time>
      </trkpt>
      <trkpt lat="44.73831" lon="1.43983">
        <ele>238</ele>
        <time>2019-08-13T09:24:44.799Z</time>
      </trkpt>
      <trkpt lat="44.7383" lon="1.43983">
        <ele>238</ele>
        <time>2019-08-13T09:24:49.779Z</time>
      </trkpt>
      <trkpt lat="44.73827" lon="1.43987">
        <ele>242</ele>
        <time>2019-08-13T09:24:54.764Z</time>
      </trkpt>
      <trkpt lat="44.73821" lon="1.43988">
        <ele>242</ele>
        <time>2019-08-13T09:24:59.767Z</time>
      </trkpt>
      <trkpt lat="44.73816" lon="1.43992">
        <ele>240</ele>
        <time>2019-08-13T09:25:04.766Z</time>
      </trkpt>
      <trkpt lat="44.73808" lon="1.43994">
        <ele>240</ele>
        <time>2019-08-13T09:25:09.767Z</time>
      </trkpt>
      <trkpt lat="44.73801" lon="1.43995">
        <ele>240</ele>
        <time>2019-08-13T09:25:14.768Z</time>
      </trkpt>
      <trkpt lat="44.73794" lon="1.43998">
        <ele>240</ele>
        <time>2019-08-13T09:25:19.763Z</time>
      </trkpt>
      <trkpt lat="44.73788" lon="1.44002">
        <ele>239</ele>
        <time>2019-08-13T09:25:23.767Z</time>
      </trkpt>
      <trkpt lat="44.73782" lon="1.44003">
        <ele>239</ele>
        <time>2019-08-13T09:25:28.773Z</time>
      </trkpt>
      <trkpt lat="44.73781" lon="1.44004">
        <ele>239</ele>
        <time>2019-08-13T09:25:33.769Z</time>
      </trkpt>
      <trkpt lat="44.73781" lon="1.44004">
        <ele>239</ele>
        <time>2019-08-13T09:25:38.769Z</time>
      </trkpt>
      <trkpt lat="44.73781" lon="1.44004">
        <ele>239</ele>
        <time>2019-08-13T09:25:43.758Z</time>
      </trkpt>
      <trkpt lat="44.73779" lon="1.44005">
        <ele>239</ele>
        <time>2019-08-13T09:25:47.774Z</time>
      </trkpt>
      <trkpt lat="44.73774" lon="1.44007">
        <ele>239</ele>
        <time>2019-08-13T09:25:52.768Z</time>
      </trkpt>
      <trkpt lat="44.73767" lon="1.44013">
        <ele>239</ele>
        <time>2019-08-13T09:25:57.763Z</time>
      </trkpt>
      <trkpt lat="44.73761" lon="1.44016">
        <ele>241</ele>
        <time>2019-08-13T09:26:02.773Z</time>
      </trkpt>
      <trkpt lat="44.73755" lon="1.44019">
        <ele>241</ele>
        <time>2019-08-13T09:26:07.772Z</time>
      </trkpt>
      <trkpt lat="44.73749" lon="1.4402">
        <ele>241</ele>
        <time>2019-08-13T09:26:12.768Z</time>
      </trkpt>
      <trkpt lat="44.73745" lon="1.44023">
        <ele>241</ele>
        <time>2019-08-13T09:26:16.764Z</time>
      </trkpt>
      <trkpt lat="44.73739" lon="1.44025">
        <ele>241</ele>
        <time>2019-08-13T09:26:21.764Z</time>
      </trkpt>
      <trkpt lat="44.73731" lon="1.44024">
        <ele>240</ele>
        <time>2019-08-13T09:26:26.772Z</time>
      </trkpt>
      <trkpt lat="44.73725" lon="1.44025">
        <ele>240</ele>
        <time>2019-08-13T09:26:31.774Z</time>
      </trkpt>
      <trkpt lat="44.73719" lon="1.4403">
        <ele>240</ele>
        <time>2019-08-13T09:26:36.779Z</time>
      </trkpt>
      <trkpt lat="44.73714" lon="1.44033">
        <ele>240</ele>
        <time>2019-08-13T09:26:41.767Z</time>
      </trkpt>
      <trkpt lat="44.73708" lon="1.44034">
        <ele>241</ele>
        <time>2019-08-13T09:26:45.774Z</time>
      </trkpt>
      <trkpt lat="44.73702" lon="1.44035">
        <ele>241</ele>
        <time>2019-08-13T09:26:50.765Z</time>
      </trkpt>
      <trkpt lat="44.73698" lon="1.44036">
        <ele>241</ele>
        <time>2019-08-13T09:26:54.760Z</time>
      </trkpt>
      <trkpt lat="44.73693" lon="1.44036">
        <ele>241</ele>
        <time>2019-08-13T09:26:59.771Z</time>
      </trkpt>
      <trkpt lat="44.73686" lon="1.44035">
        <ele>241</ele>
        <time>2019-08-13T09:27:04.771Z</time>
      </trkpt>
      <trkpt lat="44.73682" lon="1.44036">
        <ele>241</ele>
        <time>2019-08-13T09:27:08.769Z</time>
      </trkpt>
      <trkpt lat="44.73676" lon="1.44038">
        <ele>242</ele>
        <time>2019-08-13T09:27:13.763Z</time>
      </trkpt>
      <trkpt lat="44.7367" lon="1.4404">
        <ele>242</ele>
        <time>2019-08-13T09:27:17.766Z</time>
      </trkpt>
      <trkpt lat="44.73663" lon="1.44043">
        <ele>246</ele>
        <time>2019-08-13T09:27:22.768Z</time>
      </trkpt>
      <trkpt lat="44.73656" lon="1.44045">
        <ele>246</ele>
        <time>2019-08-13T09:27:27.765Z</time>
      </trkpt>
      <trkpt lat="44.73649" lon="1.44048">
        <ele>243</ele>
        <time>2019-08-13T09:27:32.769Z</time>
      </trkpt>
      <trkpt lat="44.73642" lon="1.44047">
        <ele>243</ele>
        <time>2019-08-13T09:27:36.772Z</time>
      </trkpt>
      <trkpt lat="44.73636" lon="1.44045">
        <ele>243</ele>
        <time>2019-08-13T09:27:41.764Z</time>
      </trkpt>
      <trkpt lat="44.7363" lon="1.44048">
        <ele>243</ele>
        <time>2019-08-13T09:27:46.764Z</time>
      </trkpt>
      <trkpt lat="44.73626" lon="1.44049">
        <ele>243</ele>
        <time>2019-08-13T09:27:51.769Z</time>
      </trkpt>
      <trkpt lat="44.73622" lon="1.44051">
        <ele>243</ele>
        <time>2019-08-13T09:27:56.772Z</time>
      </trkpt>
      <trkpt lat="44.73616" lon="1.44051">
        <ele>243</ele>
        <time>2019-08-13T09:28:01.763Z</time>
      </trkpt>
      <trkpt lat="44.7361" lon="1.44053">
        <ele>243</ele>
        <time>2019-08-13T09:28:06.772Z</time>
      </trkpt>
      <trkpt lat="44.73604" lon="1.44052">
        <ele>243</ele>
        <time>2019-08-13T09:28:10.775Z</time>
      </trkpt>
      <trkpt lat="44.73595" lon="1.44055">
        <ele>243</ele>
        <time>2019-08-13T09:28:15.775Z</time>
      </trkpt>
      <trkpt lat="44.73589" lon="1.44057">
        <ele>243</ele>
        <time>2019-08-13T09:28:20.770Z</time>
      </trkpt>
      <trkpt lat="44.73582" lon="1.44059">
        <ele>243</ele>
        <time>2019-08-13T09:28:25.768Z</time>
      </trkpt>
      <trkpt lat="44.73577" lon="1.4406">
        <ele>243</ele>
        <time>2019-08-13T09:28:29.773Z</time>
      </trkpt>
      <trkpt lat="44.73568" lon="1.44058">
        <ele>242</ele>
        <time>2019-08-13T09:28:34.775Z</time>
      </trkpt>
      <trkpt lat="44.73561" lon="1.44058">
        <ele>242</ele>
        <time>2019-08-13T09:28:39.766Z</time>
      </trkpt>
      <trkpt lat="44.73554" lon="1.4406">
        <ele>242</ele>
        <time>2019-08-13T09:28:44.765Z</time>
      </trkpt>
      <trkpt lat="44.73548" lon="1.44062">
        <ele>242</ele>
        <time>2019-08-13T09:28:48.773Z</time>
      </trkpt>
      <trkpt lat="44.73542" lon="1.44064">
        <ele>242</ele>
        <time>2019-08-13T09:28:53.776Z</time>
      </trkpt>
      <trkpt lat="44.73536" lon="1.44065">
        <ele>241</ele>
        <time>2019-08-13T09:28:58.778Z</time>
      </trkpt>
      <trkpt lat="44.7353" lon="1.44067">
        <ele>241</ele>
        <time>2019-08-13T09:29:03.768Z</time>
      </trkpt>
      <trkpt lat="44.73524" lon="1.44068">
        <ele>241</ele>
        <time>2019-08-13T09:29:08.779Z</time>
      </trkpt>
      <trkpt lat="44.73517" lon="1.44068">
        <ele>241</ele>
        <time>2019-08-13T09:29:13.775Z</time>
      </trkpt>
      <trkpt lat="44.73512" lon="1.4407">
        <ele>241</ele>
        <time>2019-08-13T09:29:17.766Z</time>
      </trkpt>
      <trkpt lat="44.73505" lon="1.44073">
        <ele>241</ele>
        <time>2019-08-13T09:29:22.769Z</time>
      </trkpt>
      <trkpt lat="44.73499" lon="1.44074">
        <ele>241</ele>
        <time>2019-08-13T09:29:26.772Z</time>
      </trkpt>
      <trkpt lat="44.73493" lon="1.44076">
        <ele>241</ele>
        <time>2019-08-13T09:29:31.781Z</time>
      </trkpt>
      <trkpt lat="44.73486" lon="1.44076">
        <ele>240</ele>
        <time>2019-08-13T09:29:36.758Z</time>
      </trkpt>
      <trkpt lat="44.7348" lon="1.44077">
        <ele>240</ele>
        <time>2019-08-13T09:29:41.760Z</time>
      </trkpt>
      <trkpt lat="44.73475" lon="1.44078">
        <ele>240</ele>
        <time>2019-08-13T09:29:45.768Z</time>
      </trkpt>
      <trkpt lat="44.73468" lon="1.4408">
        <ele>240</ele>
        <time>2019-08-13T09:29:50.774Z</time>
      </trkpt>
      <trkpt lat="44.73462" lon="1.44082">
        <ele>240</ele>
        <time>2019-08-13T09:29:55.764Z</time>
      </trkpt>
      <trkpt lat="44.73457" lon="1.44086">
        <ele>239</ele>
        <time>2019-08-13T09:30:00.768Z</time>
      </trkpt>
      <trkpt lat="44.73452" lon="1.44089">
        <ele>239</ele>
        <time>2019-08-13T09:30:04.767Z</time>
      </trkpt>
      <trkpt lat="44.7345" lon="1.44091">
        <ele>239</ele>
        <time>2019-08-13T09:30:09.778Z</time>
      </trkpt>
      <trkpt lat="44.73449" lon="1.44091">
        <ele>239</ele>
        <time>2019-08-13T09:30:14.769Z</time>
      </trkpt>
      <trkpt lat="44.73445" lon="1.44091">
        <ele>239</ele>
        <time>2019-08-13T09:30:18.773Z</time>
      </trkpt>
      <trkpt lat="44.73438" lon="1.44091">
        <ele>239</ele>
        <time>2019-08-13T09:30:23.774Z</time>
      </trkpt>
      <trkpt lat="44.7343" lon="1.44091">
        <ele>240</ele>
        <time>2019-08-13T09:30:28.771Z</time>
      </trkpt>
      <trkpt lat="44.73421" lon="1.44092">
        <ele>240</ele>
        <time>2019-08-13T09:30:33.770Z</time>
      </trkpt>
      <trkpt lat="44.73414" lon="1.44094">
        <ele>240</ele>
        <time>2019-08-13T09:30:38.763Z</time>
      </trkpt>
      <trkpt lat="44.73409" lon="1.44097">
        <ele>240</ele>
        <time>2019-08-13T09:30:42.768Z</time>
      </trkpt>
      <trkpt lat="44.73403" lon="1.44098">
        <ele>241</ele>
        <time>2019-08-13T09:30:47.766Z</time>
      </trkpt>
      <trkpt lat="44.734" lon="1.44098">
        <ele>241</ele>
        <time>2019-08-13T09:30:51.777Z</time>
      </trkpt>
      <trkpt lat="44.73393" lon="1.44101">
        <ele>241</ele>
        <time>2019-08-13T09:30:56.760Z</time>
      </trkpt>
      <trkpt lat="44.73388" lon="1.44105">
        <ele>241</ele>
        <time>2019-08-13T09:31:00.776Z</time>
      </trkpt>
      <trkpt lat="44.73382" lon="1.4411">
        <ele>241</ele>
        <time>2019-08-13T09:31:05.754Z</time>
      </trkpt>
      <trkpt lat="44.7338" lon="1.44112">
        <ele>241</ele>
        <time>2019-08-13T09:31:09.761Z</time>
      </trkpt>
      <trkpt lat="44.73377" lon="1.44115">
        <ele>241</ele>
        <time>2019-08-13T09:31:13.770Z</time>
      </trkpt>
      <trkpt lat="44.73373" lon="1.44122">
        <ele>240</ele>
        <time>2019-08-13T09:31:18.766Z</time>
      </trkpt>
      <trkpt lat="44.73372" lon="1.44124">
        <ele>240</ele>
        <time>2019-08-13T09:31:23.773Z</time>
      </trkpt>
      <trkpt lat="44.73367" lon="1.44127">
        <ele>240</ele>
        <time>2019-08-13T09:31:28.761Z</time>
      </trkpt>
      <trkpt lat="44.73362" lon="1.44134">
        <ele>240</ele>
        <time>2019-08-13T09:31:32.773Z</time>
      </trkpt>
      <trkpt lat="44.73358" lon="1.4414">
        <ele>240</ele>
        <time>2019-08-13T09:31:36.779Z</time>
      </trkpt>
      <trkpt lat="44.73353" lon="1.44149">
        <ele>240</ele>
        <time>2019-08-13T09:31:41.759Z</time>
      </trkpt>
      <trkpt lat="44.73348" lon="1.44157">
        <ele>240</ele>
        <time>2019-08-13T09:31:46.766Z</time>
      </trkpt>
      <trkpt lat="44.73344" lon="1.44165">
        <ele>239</ele>
        <time>2019-08-13T09:31:51.769Z</time>
      </trkpt>
      <trkpt lat="44.73339" lon="1.44174">
        <ele>239</ele>
        <time>2019-08-13T09:31:56.775Z</time>
      </trkpt>
      <trkpt lat="44.73336" lon="1.4418">
        <ele>239</ele>
        <time>2019-08-13T09:32:01.761Z</time>
      </trkpt>
      <trkpt lat="44.73336" lon="1.44181">
        <ele>239</ele>
        <time>2019-08-13T09:32:05.769Z</time>
      </trkpt>
      <trkpt lat="44.73334" lon="1.44186">
        <ele>239</ele>
        <time>2019-08-13T09:32:10.762Z</time>
      </trkpt>
      <trkpt lat="44.7333" lon="1.44191">
        <ele>239</ele>
        <time>2019-08-13T09:32:14.773Z</time>
      </trkpt>
      <trkpt lat="44.73326" lon="1.44198">
        <ele>239</ele>
        <time>2019-08-13T09:32:19.772Z</time>
      </trkpt>
      <trkpt lat="44.73323" lon="1.44205">
        <ele>239</ele>
        <time>2019-08-13T09:32:24.766Z</time>
      </trkpt>
      <trkpt lat="44.7332" lon="1.44212">
        <ele>241</ele>
        <time>2019-08-13T09:32:28.779Z</time>
      </trkpt>
      <trkpt lat="44.73316" lon="1.44221">
        <ele>241</ele>
        <time>2019-08-13T09:32:33.770Z</time>
      </trkpt>
      <trkpt lat="44.73312" lon="1.44231">
        <ele>241</ele>
        <time>2019-08-13T09:32:38.757Z</time>
      </trkpt>
      <trkpt lat="44.73309" lon="1.44239">
        <ele>243</ele>
        <time>2019-08-13T09:32:42.766Z</time>
      </trkpt>
      <trkpt lat="44.73304" lon="1.44249">
        <ele>243</ele>
        <time>2019-08-13T09:32:47.765Z</time>
      </trkpt>
      <trkpt lat="44.73301" lon="1.44258">
        <ele>243</ele>
        <time>2019-08-13T09:32:52.764Z</time>
      </trkpt>
      <trkpt lat="44.73297" lon="1.44267">
        <ele>245</ele>
        <time>2019-08-13T09:32:57.768Z</time>
      </trkpt>
      <trkpt lat="44.73294" lon="1.44274">
        <ele>245</ele>
        <time>2019-08-13T09:33:01.768Z</time>
      </trkpt>
      <trkpt lat="44.73291" lon="1.44282">
        <ele>243</ele>
        <time>2019-08-13T09:33:06.772Z</time>
      </trkpt>
      <trkpt lat="44.73288" lon="1.4429">
        <ele>243</ele>
        <time>2019-08-13T09:33:11.779Z</time>
      </trkpt>
      <trkpt lat="44.73285" lon="1.44299">
        <ele>245</ele>
        <time>2019-08-13T09:33:16.768Z</time>
      </trkpt>
      <trkpt lat="44.73281" lon="1.44307">
        <ele>245</ele>
        <time>2019-08-13T09:33:21.768Z</time>
      </trkpt>
      <trkpt lat="44.73276" lon="1.44313">
        <ele>245</ele>
        <time>2019-08-13T09:33:26.756Z</time>
      </trkpt>
      <trkpt lat="44.73271" lon="1.44317">
        <ele>245</ele>
        <time>2019-08-13T09:33:31.777Z</time>
      </trkpt>
      <trkpt lat="44.73266" lon="1.44324">
        <ele>246</ele>
        <time>2019-08-13T09:33:36.776Z</time>
      </trkpt>
      <trkpt lat="44.73261" lon="1.44331">
        <ele>245</ele>
        <time>2019-08-13T09:33:41.774Z</time>
      </trkpt>
      <trkpt lat="44.73255" lon="1.44338">
        <ele>245</ele>
        <time>2019-08-13T09:33:46.772Z</time>
      </trkpt>
      <trkpt lat="44.7325" lon="1.44345">
        <ele>245</ele>
        <time>2019-08-13T09:33:51.766Z</time>
      </trkpt>
      <trkpt lat="44.73245" lon="1.44352">
        <ele>246</ele>
        <time>2019-08-13T09:33:55.763Z</time>
      </trkpt>
      <trkpt lat="44.7324" lon="1.44362">
        <ele>246</ele>
        <time>2019-08-13T09:34:00.768Z</time>
      </trkpt>
      <trkpt lat="44.73235" lon="1.44368">
        <ele>245</ele>
        <time>2019-08-13T09:34:04.767Z</time>
      </trkpt>
      <trkpt lat="44.73229" lon="1.44379">
        <ele>247</ele>
        <time>2019-08-13T09:34:09.767Z</time>
      </trkpt>
      <trkpt lat="44.73224" lon="1.44385">
        <ele>247</ele>
        <time>2019-08-13T09:34:14.771Z</time>
      </trkpt>
      <trkpt lat="44.73219" lon="1.4439">
        <ele>247</ele>
        <time>2019-08-13T09:34:19.774Z</time>
      </trkpt>
      <trkpt lat="44.73215" lon="1.44391">
        <ele>247</ele>
        <time>2019-08-13T09:34:24.768Z</time>
      </trkpt>
      <trkpt lat="44.73207" lon="1.44394">
        <ele>247</ele>
        <time>2019-08-13T09:34:29.766Z</time>
      </trkpt>
      <trkpt lat="44.73201" lon="1.44396">
        <ele>247</ele>
        <time>2019-08-13T09:34:34.764Z</time>
      </trkpt>
      <trkpt lat="44.73196" lon="1.44398">
        <ele>247</ele>
        <time>2019-08-13T09:34:38.768Z</time>
      </trkpt>
      <trkpt lat="44.73184" lon="1.44408">
        <ele>249</ele>
        <time>2019-08-13T09:34:43.769Z</time>
      </trkpt>
      <trkpt lat="44.73157" lon="1.44422">
        <ele>250</ele>
        <time>2019-08-13T09:34:48.771Z</time>
      </trkpt>
      <trkpt lat="44.73126" lon="1.44431">
        <ele>251</ele>
        <time>2019-08-13T09:34:53.774Z</time>
      </trkpt>
      <trkpt lat="44.73094" lon="1.44439">
        <ele>246</ele>
        <time>2019-08-13T09:34:58.759Z</time>
      </trkpt>
      <trkpt lat="44.73065" lon="1.44445">
        <ele>246</ele>
        <time>2019-08-13T09:35:03.769Z</time>
      </trkpt>
      <trkpt lat="44.73057" lon="1.44446">
        <ele>246</ele>
        <time>2019-08-13T09:35:08.766Z</time>
      </trkpt>
      <trkpt lat="44.73051" lon="1.44447">
        <ele>246</ele>
        <time>2019-08-13T09:35:13.763Z</time>
      </trkpt>
      <trkpt lat="44.73043" lon="1.44446">
        <ele>246</ele>
        <time>2019-08-13T09:35:18.768Z</time>
      </trkpt>
      <trkpt lat="44.73035" lon="1.44446">
        <ele>249</ele>
        <time>2019-08-13T09:35:23.771Z</time>
      </trkpt>
      <trkpt lat="44.73028" lon="1.44447">
        <ele>249</ele>
        <time>2019-08-13T09:35:28.763Z</time>
      </trkpt>
      <trkpt lat="44.7302" lon="1.44452">
        <ele>249</ele>
        <time>2019-08-13T09:35:33.769Z</time>
      </trkpt>
      <trkpt lat="44.73012" lon="1.44453">
        <ele>252</ele>
        <time>2019-08-13T09:35:38.775Z</time>
      </trkpt>
      <trkpt lat="44.73006" lon="1.44453">
        <ele>252</ele>
        <time>2019-08-13T09:35:43.764Z</time>
      </trkpt>
      <trkpt lat="44.73" lon="1.44452">
        <ele>252</ele>
        <time>2019-08-13T09:35:48.769Z</time>
      </trkpt>
      <trkpt lat="44.72995" lon="1.44451">
        <ele>252</ele>
        <time>2019-08-13T09:35:52.762Z</time>
      </trkpt>
      <trkpt lat="44.72986" lon="1.44447">
        <ele>252</ele>
        <time>2019-08-13T09:35:57.766Z</time>
      </trkpt>
      <trkpt lat="44.72978" lon="1.44446">
        <ele>252</ele>
        <time>2019-08-13T09:36:02.761Z</time>
      </trkpt>
      <trkpt lat="44.72972" lon="1.44444">
        <ele>252</ele>
        <time>2019-08-13T09:36:07.760Z</time>
      </trkpt>
      <trkpt lat="44.72966" lon="1.44443">
        <ele>252</ele>
        <time>2019-08-13T09:36:11.773Z</time>
      </trkpt>
      <trkpt lat="44.72959" lon="1.44443">
        <ele>252</ele>
        <time>2019-08-13T09:36:16.762Z</time>
      </trkpt>
      <trkpt lat="44.72951" lon="1.4444">
        <ele>251</ele>
        <time>2019-08-13T09:36:21.763Z</time>
      </trkpt>
      <trkpt lat="44.72947" lon="1.4444">
        <ele>251</ele>
        <time>2019-08-13T09:36:25.765Z</time>
      </trkpt>
      <trkpt lat="44.72942" lon="1.4444">
        <ele>251</ele>
        <time>2019-08-13T09:36:30.769Z</time>
      </trkpt>
      <trkpt lat="44.72935" lon="1.44438">
        <ele>251</ele>
        <time>2019-08-13T09:36:35.765Z</time>
      </trkpt>
      <trkpt lat="44.72926" lon="1.44438">
        <ele>252</ele>
        <time>2019-08-13T09:36:40.768Z</time>
      </trkpt>
      <trkpt lat="44.72917" lon="1.44437">
        <ele>252</ele>
        <time>2019-08-13T09:36:45.775Z</time>
      </trkpt>
      <trkpt lat="44.72909" lon="1.44437">
        <ele>252</ele>
        <time>2019-08-13T09:36:50.776Z</time>
      </trkpt>
      <trkpt lat="44.72903" lon="1.44437">
        <ele>254</ele>
        <time>2019-08-13T09:36:55.771Z</time>
      </trkpt>
      <trkpt lat="44.72899" lon="1.44438">
        <ele>254</ele>
        <time>2019-08-13T09:37:00.776Z</time>
      </trkpt>
      <trkpt lat="44.72891" lon="1.4444">
        <ele>254</ele>
        <time>2019-08-13T09:37:05.768Z</time>
      </trkpt>
      <trkpt lat="44.72882" lon="1.44442">
        <ele>254</ele>
        <time>2019-08-13T09:37:10.772Z</time>
      </trkpt>
      <trkpt lat="44.72872" lon="1.44441">
        <ele>256</ele>
        <time>2019-08-13T09:37:15.760Z</time>
      </trkpt>
      <trkpt lat="44.72866" lon="1.44442">
        <ele>256</ele>
        <time>2019-08-13T09:37:19.773Z</time>
      </trkpt>
      <trkpt lat="44.72865" lon="1.44443">
        <ele>256</ele>
        <time>2019-08-13T09:37:24.775Z</time>
      </trkpt>
      <trkpt lat="44.72861" lon="1.44444">
        <ele>256</ele>
        <time>2019-08-13T09:37:29.770Z</time>
      </trkpt>
      <trkpt lat="44.72858" lon="1.44444">
        <ele>256</ele>
        <time>2019-08-13T09:37:34.758Z</time>
      </trkpt>
      <trkpt lat="44.72858" lon="1.44444">
        <ele>256</ele>
        <time>2019-08-13T09:37:38.766Z</time>
      </trkpt>
      <trkpt lat="44.72853" lon="1.44446">
        <ele>256</ele>
        <time>2019-08-13T09:37:43.773Z</time>
      </trkpt>
      <trkpt lat="44.72848" lon="1.44446">
        <ele>256</ele>
        <time>2019-08-13T09:37:48.772Z</time>
      </trkpt>
      <trkpt lat="44.72847" lon="1.44446">
        <ele>256</ele>
        <time>2019-08-13T09:37:53.762Z</time>
      </trkpt>
      <trkpt lat="44.72847" lon="1.44446">
        <ele>256</ele>
        <time>2019-08-13T09:37:57.765Z</time>
      </trkpt>
      <trkpt lat="44.72844" lon="1.44446">
        <ele>256</ele>
        <time>2019-08-13T09:38:02.758Z</time>
      </trkpt>
      <trkpt lat="44.72839" lon="1.44447">
        <ele>256</ele>
        <time>2019-08-13T09:38:07.764Z</time>
      </trkpt>
      <trkpt lat="44.72832" lon="1.44447">
        <ele>256</ele>
        <time>2019-08-13T09:38:12.766Z</time>
      </trkpt>
      <trkpt lat="44.72827" lon="1.44447">
        <ele>256</ele>
        <time>2019-08-13T09:38:17.761Z</time>
      </trkpt>
      <trkpt lat="44.72823" lon="1.44448">
        <ele>256</ele>
        <time>2019-08-13T09:38:21.763Z</time>
      </trkpt>
      <trkpt lat="44.72817" lon="1.44448">
        <ele>254</ele>
        <time>2019-08-13T09:38:26.764Z</time>
      </trkpt>
      <trkpt lat="44.72811" lon="1.44453">
        <ele>254</ele>
        <time>2019-08-13T09:38:30.766Z</time>
      </trkpt>
      <trkpt lat="44.72805" lon="1.44458">
        <ele>254</ele>
        <time>2019-08-13T09:38:34.773Z</time>
      </trkpt>
      <trkpt lat="44.72798" lon="1.44463">
        <ele>256</ele>
        <time>2019-08-13T09:38:39.760Z</time>
      </trkpt>
      <trkpt lat="44.72796" lon="1.44464">
        <ele>256</ele>
        <time>2019-08-13T09:38:43.771Z</time>
      </trkpt>
      <trkpt lat="44.72788" lon="1.44464">
        <ele>257</ele>
        <time>2019-08-13T09:38:48.780Z</time>
      </trkpt>
      <trkpt lat="44.7278" lon="1.44465">
        <ele>257</ele>
        <time>2019-08-13T09:38:53.767Z</time>
      </trkpt>
      <trkpt lat="44.72775" lon="1.44466">
        <ele>257</ele>
        <time>2019-08-13T09:38:58.772Z</time>
      </trkpt>
      <trkpt lat="44.72766" lon="1.44468">
        <ele>257</ele>
        <time>2019-08-13T09:39:03.769Z</time>
      </trkpt>
      <trkpt lat="44.72756" lon="1.44476">
        <ele>258</ele>
        <time>2019-08-13T09:39:08.773Z</time>
      </trkpt>
      <trkpt lat="44.72748" lon="1.4448">
        <ele>258</ele>
        <time>2019-08-13T09:39:12.772Z</time>
      </trkpt>
      <trkpt lat="44.7274" lon="1.44482">
        <ele>258</ele>
        <time>2019-08-13T09:39:16.761Z</time>
      </trkpt>
      <trkpt lat="44.72733" lon="1.44482">
        <ele>258</ele>
        <time>2019-08-13T09:39:21.771Z</time>
      </trkpt>
      <trkpt lat="44.72728" lon="1.44483">
        <ele>258</ele>
        <time>2019-08-13T09:39:26.769Z</time>
      </trkpt>
      <trkpt lat="44.72722" lon="1.44483">
        <ele>258</ele>
        <time>2019-08-13T09:39:30.778Z</time>
      </trkpt>
      <trkpt lat="44.72714" lon="1.44488">
        <ele>261</ele>
        <time>2019-08-13T09:39:35.761Z</time>
      </trkpt>
      <trkpt lat="44.72707" lon="1.44488">
        <ele>260</ele>
        <time>2019-08-13T09:39:39.764Z</time>
      </trkpt>
      <trkpt lat="44.727" lon="1.4449">
        <ele>260</ele>
        <time>2019-08-13T09:39:43.758Z</time>
      </trkpt>
      <trkpt lat="44.72693" lon="1.44493">
        <ele>260</ele>
        <time>2019-08-13T09:39:48.781Z</time>
      </trkpt>
      <trkpt lat="44.72688" lon="1.44494">
        <ele>260</ele>
        <time>2019-08-13T09:39:52.772Z</time>
      </trkpt>
      <trkpt lat="44.72681" lon="1.44495">
        <ele>260</ele>
        <time>2019-08-13T09:39:57.763Z</time>
      </trkpt>
      <trkpt lat="44.72676" lon="1.44496">
        <ele>259</ele>
        <time>2019-08-13T09:40:01.768Z</time>
      </trkpt>
      <trkpt lat="44.72669" lon="1.44497">
        <ele>259</ele>
        <time>2019-08-13T09:40:06.759Z</time>
      </trkpt>
      <trkpt lat="44.72663" lon="1.44498">
        <ele>259</ele>
        <time>2019-08-13T09:40:10.775Z</time>
      </trkpt>
      <trkpt lat="44.72655" lon="1.445">
        <ele>259</ele>
        <time>2019-08-13T09:40:15.756Z</time>
      </trkpt>
      <trkpt lat="44.72647" lon="1.44502">
        <ele>257</ele>
        <time>2019-08-13T09:40:20.772Z</time>
      </trkpt>
      <trkpt lat="44.72636" lon="1.4451">
        <ele>257</ele>
        <time>2019-08-13T09:40:39.769Z</time>
      </trkpt>
      <trkpt lat="44.72636" lon="1.4451">
        <ele>257</ele>
        <time>2019-08-13T09:40:44.765Z</time>
      </trkpt>
      <trkpt lat="44.72636" lon="1.4451">
        <ele>257</ele>
        <time>2019-08-13T09:40:49.764Z</time>
      </trkpt>
      <trkpt lat="44.72635" lon="1.4451">
        <ele>257</ele>
        <time>2019-08-13T09:40:54.767Z</time>
      </trkpt>
      <trkpt lat="44.72632" lon="1.4451">
        <ele>257</ele>
        <time>2019-08-13T09:40:59.747Z</time>
      </trkpt>
      <trkpt lat="44.72629" lon="1.44509">
        <ele>257</ele>
        <time>2019-08-13T09:41:03.762Z</time>
      </trkpt>
      <trkpt lat="44.72627" lon="1.44509">
        <ele>257</ele>
        <time>2019-08-13T09:41:08.770Z</time>
      </trkpt>
      <trkpt lat="44.72624" lon="1.4451">
        <ele>256</ele>
        <time>2019-08-13T09:41:12.767Z</time>
      </trkpt>
      <trkpt lat="44.72619" lon="1.44514">
        <ele>256</ele>
        <time>2019-08-13T09:41:17.759Z</time>
      </trkpt>
      <trkpt lat="44.72611" lon="1.44515">
        <ele>259</ele>
        <time>2019-08-13T09:42:20.770Z</time>
      </trkpt>
      <trkpt lat="44.7261" lon="1.44515">
        <ele>259</ele>
        <time>2019-08-13T09:42:25.748Z</time>
      </trkpt>
      <trkpt lat="44.7261" lon="1.44515">
        <ele>259</ele>
        <time>2019-08-13T09:42:29.753Z</time>
      </trkpt>
      <trkpt lat="44.72609" lon="1.44515">
        <ele>259</ele>
        <time>2019-08-13T09:42:34.754Z</time>
      </trkpt>
      <trkpt lat="44.72604" lon="1.44516">
        <ele>259</ele>
        <time>2019-08-13T09:42:38.757Z</time>
      </trkpt>
      <trkpt lat="44.72597" lon="1.44521">
        <ele>259</ele>
        <time>2019-08-13T09:42:43.766Z</time>
      </trkpt>
      <trkpt lat="44.7259" lon="1.44525">
        <ele>259</ele>
        <time>2019-08-13T09:42:48.766Z</time>
      </trkpt>
      <trkpt lat="44.72585" lon="1.44531">
        <ele>259</ele>
        <time>2019-08-13T09:42:53.769Z</time>
      </trkpt>
      <trkpt lat="44.72579" lon="1.44537">
        <ele>259</ele>
        <time>2019-08-13T09:42:58.755Z</time>
      </trkpt>
      <trkpt lat="44.72574" lon="1.44541">
        <ele>259</ele>
        <time>2019-08-13T09:43:03.758Z</time>
      </trkpt>
      <trkpt lat="44.72569" lon="1.44544">
        <ele>262</ele>
        <time>2019-08-13T09:43:08.766Z</time>
      </trkpt>
      <trkpt lat="44.72563" lon="1.44547">
        <ele>262</ele>
        <time>2019-08-13T09:43:13.757Z</time>
      </trkpt>
      <trkpt lat="44.7256" lon="1.4455">
        <ele>262</ele>
        <time>2019-08-13T09:43:17.765Z</time>
      </trkpt>
      <trkpt lat="44.72556" lon="1.44554">
        <ele>262</ele>
        <time>2019-08-13T09:43:22.762Z</time>
      </trkpt>
      <trkpt lat="44.72551" lon="1.44558">
        <ele>262</ele>
        <time>2019-08-13T09:43:27.767Z</time>
      </trkpt>
      <trkpt lat="44.72546" lon="1.44562">
        <ele>262</ele>
        <time>2019-08-13T09:43:32.765Z</time>
      </trkpt>
      <trkpt lat="44.72542" lon="1.44566">
        <ele>262</ele>
        <time>2019-08-13T09:43:36.761Z</time>
      </trkpt>
      <trkpt lat="44.72536" lon="1.44575">
        <ele>261</ele>
        <time>2019-08-13T09:43:41.732Z</time>
      </trkpt>
      <trkpt lat="44.72531" lon="1.44581">
        <ele>261</ele>
        <time>2019-08-13T09:43:45.757Z</time>
      </trkpt>
      <trkpt lat="44.72526" lon="1.44585">
        <ele>261</ele>
        <time>2019-08-13T09:43:50.759Z</time>
      </trkpt>
      <trkpt lat="44.72522" lon="1.4459">
        <ele>261</ele>
        <time>2019-08-13T09:43:55.761Z</time>
      </trkpt>
      <trkpt lat="44.72518" lon="1.44595">
        <ele>261</ele>
        <time>2019-08-13T09:44:00.764Z</time>
      </trkpt>
      <trkpt lat="44.72514" lon="1.44602">
        <ele>260</ele>
        <time>2019-08-13T09:44:05.758Z</time>
      </trkpt>
      <trkpt lat="44.72511" lon="1.4461">
        <ele>260</ele>
        <time>2019-08-13T09:44:10.759Z</time>
      </trkpt>
      <trkpt lat="44.72508" lon="1.44618">
        <ele>260</ele>
        <time>2019-08-13T09:44:15.768Z</time>
      </trkpt>
      <trkpt lat="44.72504" lon="1.44624">
        <ele>260</ele>
        <time>2019-08-13T09:44:20.767Z</time>
      </trkpt>
      <trkpt lat="44.72499" lon="1.44631">
        <ele>263</ele>
        <time>2019-08-13T09:44:25.766Z</time>
      </trkpt>
      <trkpt lat="44.72494" lon="1.44637">
        <ele>263</ele>
        <time>2019-08-13T09:44:30.766Z</time>
      </trkpt>
      <trkpt lat="44.72491" lon="1.44641">
        <ele>263</ele>
        <time>2019-08-13T09:44:35.756Z</time>
      </trkpt>
      <trkpt lat="44.72487" lon="1.44645">
        <ele>263</ele>
        <time>2019-08-13T09:44:40.750Z</time>
      </trkpt>
      <trkpt lat="44.72484" lon="1.44649">
        <ele>261</ele>
        <time>2019-08-13T09:44:44.773Z</time>
      </trkpt>
      <trkpt lat="44.72479" lon="1.44653">
        <ele>263</ele>
        <time>2019-08-13T09:44:49.774Z</time>
      </trkpt>
      <trkpt lat="44.72476" lon="1.44657">
        <ele>263</ele>
        <time>2019-08-13T09:44:54.772Z</time>
      </trkpt>
      <trkpt lat="44.72471" lon="1.44663">
        <ele>263</ele>
        <time>2019-08-13T09:44:59.769Z</time>
      </trkpt>
      <trkpt lat="44.72466" lon="1.44671">
        <ele>263</ele>
        <time>2019-08-13T09:45:04.761Z</time>
      </trkpt>
      <trkpt lat="44.72462" lon="1.44676">
        <ele>263</ele>
        <time>2019-08-13T09:45:09.767Z</time>
      </trkpt>
      <trkpt lat="44.72458" lon="1.44682">
        <ele>262</ele>
        <time>2019-08-13T09:45:14.773Z</time>
      </trkpt>
      <trkpt lat="44.72453" lon="1.44687">
        <ele>262</ele>
        <time>2019-08-13T09:45:19.760Z</time>
      </trkpt>
      <trkpt lat="44.72448" lon="1.44695">
        <ele>262</ele>
        <time>2019-08-13T09:45:24.771Z</time>
      </trkpt>
      <trkpt lat="44.72442" lon="1.44703">
        <ele>262</ele>
        <time>2019-08-13T09:45:29.771Z</time>
      </trkpt>
      <trkpt lat="44.72438" lon="1.44708">
        <ele>262</ele>
        <time>2019-08-13T09:45:34.770Z</time>
      </trkpt>
      <trkpt lat="44.72433" lon="1.44714">
        <ele>264</ele>
        <time>2019-08-13T09:45:39.769Z</time>
      </trkpt>
      <trkpt lat="44.7243" lon="1.44719">
        <ele>262</ele>
        <time>2019-08-13T09:45:43.767Z</time>
      </trkpt>
      <trkpt lat="44.72426" lon="1.44725">
        <ele>262</ele>
        <time>2019-08-13T09:45:48.772Z</time>
      </trkpt>
      <trkpt lat="44.72422" lon="1.44734">
        <ele>262</ele>
        <time>2019-08-13T09:45:53.764Z</time>
      </trkpt>
      <trkpt lat="44.72417" lon="1.4474">
        <ele>264</ele>
        <time>2019-08-13T09:45:58.764Z</time>
      </trkpt>
      <trkpt lat="44.72413" lon="1.44745">
        <ele>264</ele>
        <time>2019-08-13T09:46:02.766Z</time>
      </trkpt>
      <trkpt lat="44.7241" lon="1.4475">
        <ele>264</ele>
        <time>2019-08-13T09:46:07.761Z</time>
      </trkpt>
      <trkpt lat="44.72404" lon="1.44758">
        <ele>264</ele>
        <time>2019-08-13T09:46:12.763Z</time>
      </trkpt>
      <trkpt lat="44.72399" lon="1.44764">
        <ele>264</ele>
        <time>2019-08-13T09:46:17.765Z</time>
      </trkpt>
      <trkpt lat="44.72395" lon="1.44769">
        <ele>264</ele>
        <time>2019-08-13T09:46:22.765Z</time>
      </trkpt>
      <trkpt lat="44.7239" lon="1.44774">
        <ele>264</ele>
        <time>2019-08-13T09:46:27.756Z</time>
      </trkpt>
      <trkpt lat="44.72385" lon="1.44782">
        <ele>264</ele>
        <time>2019-08-13T09:46:31.769Z</time>
      </trkpt>
      <trkpt lat="44.72379" lon="1.44787">
        <ele>264</ele>
        <time>2019-08-13T09:46:36.765Z</time>
      </trkpt>
      <trkpt lat="44.72372" lon="1.44796">
        <ele>264</ele>
        <time>2019-08-13T09:46:41.777Z</time>
      </trkpt>
      <trkpt lat="44.72366" lon="1.44801">
        <ele>264</ele>
        <time>2019-08-13T09:46:46.758Z</time>
      </trkpt>
      <trkpt lat="44.7236" lon="1.44807">
        <ele>264</ele>
        <time>2019-08-13T09:46:51.768Z</time>
      </trkpt>
      <trkpt lat="44.72356" lon="1.44812">
        <ele>264</ele>
        <time>2019-08-13T09:46:55.766Z</time>
      </trkpt>
      <trkpt lat="44.7235" lon="1.44816">
        <ele>264</ele>
        <time>2019-08-13T09:47:00.766Z</time>
      </trkpt>
      <trkpt lat="44.72347" lon="1.44818">
        <ele>264</ele>
        <time>2019-08-13T09:47:05.765Z</time>
      </trkpt>
      <trkpt lat="44.72346" lon="1.44819">
        <ele>264</ele>
        <time>2019-08-13T09:47:10.761Z</time>
      </trkpt>
      <trkpt lat="44.72344" lon="1.4482">
        <ele>265</ele>
        <time>2019-08-13T09:47:48.757Z</time>
      </trkpt>
      <trkpt lat="44.72344" lon="1.44821">
        <ele>265</ele>
        <time>2019-08-13T09:47:52.768Z</time>
      </trkpt>
      <trkpt lat="44.72342" lon="1.44822">
        <ele>265</ele>
        <time>2019-08-13T09:47:57.751Z</time>
      </trkpt>
      <trkpt lat="44.7234" lon="1.44825">
        <ele>265</ele>
        <time>2019-08-13T09:48:02.757Z</time>
      </trkpt>
      <trkpt lat="44.72335" lon="1.44828">
        <ele>265</ele>
        <time>2019-08-13T09:48:07.770Z</time>
      </trkpt>
      <trkpt lat="44.7233" lon="1.44832">
        <ele>265</ele>
        <time>2019-08-13T09:48:12.766Z</time>
      </trkpt>
      <trkpt lat="44.72325" lon="1.44835">
        <ele>265</ele>
        <time>2019-08-13T09:48:17.774Z</time>
      </trkpt>
      <trkpt lat="44.7232" lon="1.44837">
        <ele>265</ele>
        <time>2019-08-13T09:48:22.461Z</time>
      </trkpt>
      <trkpt lat="44.72315" lon="1.44842">
        <ele>264</ele>
        <time>2019-08-13T09:48:26.767Z</time>
      </trkpt>
      <trkpt lat="44.72311" lon="1.44846">
        <ele>264</ele>
        <time>2019-08-13T09:48:31.763Z</time>
      </trkpt>
      <trkpt lat="44.72306" lon="1.44849">
        <ele>267</ele>
        <time>2019-08-13T09:48:35.771Z</time>
      </trkpt>
      <trkpt lat="44.72302" lon="1.44853">
        <ele>267</ele>
        <time>2019-08-13T09:48:40.769Z</time>
      </trkpt>
      <trkpt lat="44.72298" lon="1.44858">
        <ele>267</ele>
        <time>2019-08-13T09:48:45.777Z</time>
      </trkpt>
      <trkpt lat="44.72294" lon="1.44864">
        <ele>267</ele>
        <time>2019-08-13T09:48:50.768Z</time>
      </trkpt>
      <trkpt lat="44.7229" lon="1.44868">
        <ele>266</ele>
        <time>2019-08-13T09:48:55.766Z</time>
      </trkpt>
      <trkpt lat="44.72287" lon="1.44874">
        <ele>266</ele>
        <time>2019-08-13T09:49:00.781Z</time>
      </trkpt>
      <trkpt lat="44.72284" lon="1.44881">
        <ele>268</ele>
        <time>2019-08-13T09:49:05.765Z</time>
      </trkpt>
      <trkpt lat="44.7228" lon="1.44887">
        <ele>268</ele>
        <time>2019-08-13T09:49:10.772Z</time>
      </trkpt>
      <trkpt lat="44.72277" lon="1.44893">
        <ele>268</ele>
        <time>2019-08-13T09:49:14.772Z</time>
      </trkpt>
      <trkpt lat="44.72273" lon="1.44902">
        <ele>268</ele>
        <time>2019-08-13T09:49:19.764Z</time>
      </trkpt>
      <trkpt lat="44.72269" lon="1.44907">
        <ele>270</ele>
        <time>2019-08-13T09:49:23.776Z</time>
      </trkpt>
      <trkpt lat="44.72264" lon="1.4491">
        <ele>270</ele>
        <time>2019-08-13T09:49:28.770Z</time>
      </trkpt>
      <trkpt lat="44.72262" lon="1.44912">
        <ele>269</ele>
        <time>2019-08-13T09:49:32.776Z</time>
      </trkpt>
      <trkpt lat="44.72258" lon="1.44913">
        <ele>269</ele>
        <time>2019-08-13T09:49:37.768Z</time>
      </trkpt>
      <trkpt lat="44.72253" lon="1.44917">
        <ele>269</ele>
        <time>2019-08-13T09:49:42.768Z</time>
      </trkpt>
      <trkpt lat="44.72246" lon="1.44919">
        <ele>269</ele>
        <time>2019-08-13T09:49:47.762Z</time>
      </trkpt>
      <trkpt lat="44.72241" lon="1.44921">
        <ele>269</ele>
        <time>2019-08-13T09:49:51.758Z</time>
      </trkpt>
      <trkpt lat="44.72237" lon="1.44922">
        <ele>269</ele>
        <time>2019-08-13T09:49:55.777Z</time>
      </trkpt>
      <trkpt lat="44.7223" lon="1.44923">
        <ele>268</ele>
        <time>2019-08-13T09:50:00.769Z</time>
      </trkpt>
      <trkpt lat="44.72223" lon="1.44924">
        <ele>268</ele>
        <time>2019-08-13T09:50:05.752Z</time>
      </trkpt>
      <trkpt lat="44.72221" lon="1.44925">
        <ele>268</ele>
        <time>2019-08-13T09:50:10.760Z</time>
      </trkpt>
      <trkpt lat="44.7222" lon="1.44926">
        <ele>268</ele>
        <time>2019-08-13T09:50:15.773Z</time>
      </trkpt>
      <trkpt lat="44.72212" lon="1.44926">
        <ele>268</ele>
        <time>2019-08-13T09:50:20.758Z</time>
      </trkpt>
      <trkpt lat="44.72207" lon="1.44926">
        <ele>268</ele>
        <time>2019-08-13T09:50:25.760Z</time>
      </trkpt>
      <trkpt lat="44.72206" lon="1.44926">
        <ele>268</ele>
        <time>2019-08-13T09:50:29.770Z</time>
      </trkpt>
      <trkpt lat="44.72199" lon="1.44924">
        <ele>268</ele>
        <time>2019-08-13T09:50:34.771Z</time>
      </trkpt>
      <trkpt lat="44.7219" lon="1.44928">
        <ele>268</ele>
        <time>2019-08-13T09:50:39.763Z</time>
      </trkpt>
      <trkpt lat="44.72185" lon="1.44932">
        <ele>271</ele>
        <time>2019-08-13T09:50:43.769Z</time>
      </trkpt>
      <trkpt lat="44.72179" lon="1.44934">
        <ele>273</ele>
        <time>2019-08-13T09:50:47.781Z</time>
      </trkpt>
      <trkpt lat="44.72173" lon="1.44937">
        <ele>273</ele>
        <time>2019-08-13T09:50:52.769Z</time>
      </trkpt>
      <trkpt lat="44.72167" lon="1.44939">
        <ele>273</ele>
        <time>2019-08-13T09:50:57.777Z</time>
      </trkpt>
      <trkpt lat="44.72162" lon="1.4494">
        <ele>273</ele>
        <time>2019-08-13T09:51:02.761Z</time>
      </trkpt>
      <trkpt lat="44.72157" lon="1.44944">
        <ele>273</ele>
        <time>2019-08-13T09:51:07.767Z</time>
      </trkpt>
      <trkpt lat="44.7215" lon="1.44945">
        <ele>272</ele>
        <time>2019-08-13T09:51:12.765Z</time>
      </trkpt>
      <trkpt lat="44.72144" lon="1.44947">
        <ele>272</ele>
        <time>2019-08-13T09:51:17.748Z</time>
      </trkpt>
      <trkpt lat="44.7214" lon="1.44947">
        <ele>272</ele>
        <time>2019-08-13T09:51:21.776Z</time>
      </trkpt>
      <trkpt lat="44.72134" lon="1.4495">
        <ele>272</ele>
        <time>2019-08-13T09:51:26.772Z</time>
      </trkpt>
      <trkpt lat="44.72129" lon="1.44953">
        <ele>272</ele>
        <time>2019-08-13T09:51:31.776Z</time>
      </trkpt>
      <trkpt lat="44.72123" lon="1.44956">
        <ele>274</ele>
        <time>2019-08-13T09:51:36.771Z</time>
      </trkpt>
      <trkpt lat="44.72117" lon="1.4496">
        <ele>274</ele>
        <time>2019-08-13T09:51:41.771Z</time>
      </trkpt>
      <trkpt lat="44.72113" lon="1.44961">
        <ele>274</ele>
        <time>2019-08-13T09:51:45.777Z</time>
      </trkpt>
      <trkpt lat="44.72107" lon="1.44966">
        <ele>274</ele>
        <time>2019-08-13T09:51:50.768Z</time>
      </trkpt>
      <trkpt lat="44.72103" lon="1.44969">
        <ele>274</ele>
        <time>2019-08-13T09:51:55.778Z</time>
      </trkpt>
      <trkpt lat="44.72096" lon="1.44974">
        <ele>277</ele>
        <time>2019-08-13T09:52:00.766Z</time>
      </trkpt>
      <trkpt lat="44.72092" lon="1.44978">
        <ele>277</ele>
        <time>2019-08-13T09:52:04.778Z</time>
      </trkpt>
      <trkpt lat="44.72086" lon="1.44985">
        <ele>277</ele>
        <time>2019-08-13T09:52:09.758Z</time>
      </trkpt>
      <trkpt lat="44.72078" lon="1.44994">
        <ele>275</ele>
        <time>2019-08-13T09:52:14.764Z</time>
      </trkpt>
      <trkpt lat="44.72072" lon="1.44999">
        <ele>275</ele>
        <time>2019-08-13T09:52:19.777Z</time>
      </trkpt>
      <trkpt lat="44.72069" lon="1.45002">
        <ele>277</ele>
        <time>2019-08-13T09:52:23.766Z</time>
      </trkpt>
      <trkpt lat="44.72063" lon="1.45007">
        <ele>277</ele>
        <time>2019-08-13T09:52:28.765Z</time>
      </trkpt>
      <trkpt lat="44.72059" lon="1.4501">
        <ele>277</ele>
        <time>2019-08-13T09:52:32.765Z</time>
      </trkpt>
      <trkpt lat="44.72054" lon="1.45015">
        <ele>278</ele>
        <time>2019-08-13T09:52:37.764Z</time>
      </trkpt>
      <trkpt lat="44.7205" lon="1.4502">
        <ele>278</ele>
        <time>2019-08-13T09:52:42.773Z</time>
      </trkpt>
      <trkpt lat="44.72045" lon="1.45026">
        <ele>278</ele>
        <time>2019-08-13T09:52:47.773Z</time>
      </trkpt>
      <trkpt lat="44.7204" lon="1.45031">
        <ele>279</ele>
        <time>2019-08-13T09:52:52.763Z</time>
      </trkpt>
      <trkpt lat="44.72035" lon="1.45037">
        <ele>279</ele>
        <time>2019-08-13T09:52:57.778Z</time>
      </trkpt>
      <trkpt lat="44.72029" lon="1.45043">
        <ele>279</ele>
        <time>2019-08-13T09:53:02.776Z</time>
      </trkpt>
      <trkpt lat="44.72024" lon="1.45051">
        <ele>279</ele>
        <time>2019-08-13T09:53:07.766Z</time>
      </trkpt>
      <trkpt lat="44.72019" lon="1.45057">
        <ele>279</ele>
        <time>2019-08-13T09:53:12.772Z</time>
      </trkpt>
      <trkpt lat="44.72014" lon="1.45064">
        <ele>279</ele>
        <time>2019-08-13T09:53:17.760Z</time>
      </trkpt>
      <trkpt lat="44.7201" lon="1.45069">
        <ele>279</ele>
        <time>2019-08-13T09:53:22.740Z</time>
      </trkpt>
      <trkpt lat="44.72006" lon="1.45074">
        <ele>278</ele>
        <time>2019-08-13T09:53:26.774Z</time>
      </trkpt>
      <trkpt lat="44.72002" lon="1.4508">
        <ele>278</ele>
        <time>2019-08-13T09:53:31.760Z</time>
      </trkpt>
      <trkpt lat="44.71998" lon="1.45085">
        <ele>278</ele>
        <time>2019-08-13T09:53:36.763Z</time>
      </trkpt>
      <trkpt lat="44.71995" lon="1.45088">
        <ele>278</ele>
        <time>2019-08-13T09:53:40.775Z</time>
      </trkpt>
      <trkpt lat="44.71991" lon="1.45095">
        <ele>278</ele>
        <time>2019-08-13T09:53:45.768Z</time>
      </trkpt>
      <trkpt lat="44.71985" lon="1.45103">
        <ele>279</ele>
        <time>2019-08-13T09:53:50.768Z</time>
      </trkpt>
      <trkpt lat="44.71979" lon="1.45113">
        <ele>279</ele>
        <time>2019-08-13T09:53:55.763Z</time>
      </trkpt>
      <trkpt lat="44.71976" lon="1.45118">
        <ele>279</ele>
        <time>2019-08-13T09:53:59.775Z</time>
      </trkpt>
      <trkpt lat="44.71972" lon="1.45124">
        <ele>279</ele>
        <time>2019-08-13T09:54:04.757Z</time>
      </trkpt>
      <trkpt lat="44.71969" lon="1.45129">
        <ele>283</ele>
        <time>2019-08-13T09:54:08.777Z</time>
      </trkpt>
      <trkpt lat="44.71964" lon="1.45134">
        <ele>283</ele>
        <time>2019-08-13T09:54:13.757Z</time>
      </trkpt>
      <trkpt lat="44.7196" lon="1.45139">
        <ele>283</ele>
        <time>2019-08-13T09:54:18.764Z</time>
      </trkpt>
      <trkpt lat="44.71955" lon="1.45144">
        <ele>283</ele>
        <time>2019-08-13T09:54:23.747Z</time>
      </trkpt>
      <trkpt lat="44.71951" lon="1.45147">
        <ele>283</ele>
        <time>2019-08-13T09:54:27.775Z</time>
      </trkpt>
      <trkpt lat="44.71946" lon="1.45153">
        <ele>287</ele>
        <time>2019-08-13T09:54:32.773Z</time>
      </trkpt>
      <trkpt lat="44.7194" lon="1.45157">
        <ele>287</ele>
        <time>2019-08-13T09:54:37.766Z</time>
      </trkpt>
      <trkpt lat="44.71934" lon="1.45163">
        <ele>287</ele>
        <time>2019-08-13T09:54:42.773Z</time>
      </trkpt>
      <trkpt lat="44.7193" lon="1.45168">
        <ele>285</ele>
        <time>2019-08-13T09:54:46.777Z</time>
      </trkpt>
      <trkpt lat="44.71927" lon="1.45169">
        <ele>285</ele>
        <time>2019-08-13T09:54:51.778Z</time>
      </trkpt>
      <trkpt lat="44.71922" lon="1.45173">
        <ele>285</ele>
        <time>2019-08-13T09:54:55.784Z</time>
      </trkpt>
      <trkpt lat="44.71917" lon="1.45177">
        <ele>285</ele>
        <time>2019-08-13T09:55:00.771Z</time>
      </trkpt>
      <trkpt lat="44.71912" lon="1.45181">
        <ele>285</ele>
        <time>2019-08-13T09:55:05.767Z</time>
      </trkpt>
      <trkpt lat="44.71906" lon="1.45185">
        <ele>288</ele>
        <time>2019-08-13T09:55:10.763Z</time>
      </trkpt>
      <trkpt lat="44.71899" lon="1.45191">
        <ele>286</ele>
        <time>2019-08-13T09:55:15.779Z</time>
      </trkpt>
      <trkpt lat="44.71893" lon="1.45194">
        <ele>286</ele>
        <time>2019-08-13T09:55:20.758Z</time>
      </trkpt>
      <trkpt lat="44.71887" lon="1.45199">
        <ele>286</ele>
        <time>2019-08-13T09:55:25.775Z</time>
      </trkpt>
      <trkpt lat="44.7188" lon="1.45203">
        <ele>286</ele>
        <time>2019-08-13T09:55:30.763Z</time>
      </trkpt>
      <trkpt lat="44.71875" lon="1.45205">
        <ele>285</ele>
        <time>2019-08-13T09:55:35.767Z</time>
      </trkpt>
      <trkpt lat="44.71871" lon="1.45206">
        <ele>285</ele>
        <time>2019-08-13T09:55:39.767Z</time>
      </trkpt>
      <trkpt lat="44.71867" lon="1.45207">
        <ele>285</ele>
        <time>2019-08-13T09:55:44.767Z</time>
      </trkpt>
      <trkpt lat="44.7186" lon="1.4521">
        <ele>289</ele>
        <time>2019-08-13T09:55:49.770Z</time>
      </trkpt>
      <trkpt lat="44.71853" lon="1.45213">
        <ele>289</ele>
        <time>2019-08-13T09:55:54.771Z</time>
      </trkpt>
      <trkpt lat="44.71847" lon="1.45211">
        <ele>285</ele>
        <time>2019-08-13T09:55:59.765Z</time>
      </trkpt>
      <trkpt lat="44.71841" lon="1.45212">
        <ele>285</ele>
        <time>2019-08-13T09:56:04.764Z</time>
      </trkpt>
      <trkpt lat="44.71829" lon="1.45211">
        <ele>285</ele>
        <time>2019-08-13T10:00:46.762Z</time>
      </trkpt>
      <trkpt lat="44.71828" lon="1.45212">
        <ele>285</ele>
        <time>2019-08-13T10:00:50.765Z</time>
      </trkpt>
      <trkpt lat="44.71828" lon="1.45212">
        <ele>285</ele>
        <time>2019-08-13T10:00:55.750Z</time>
      </trkpt>
      <trkpt lat="44.71827" lon="1.45212">
        <ele>285</ele>
        <time>2019-08-13T10:01:00.756Z</time>
      </trkpt>
      <trkpt lat="44.71824" lon="1.45209">
        <ele>285</ele>
        <time>2019-08-13T10:01:05.751Z</time>
      </trkpt>
      <trkpt lat="44.71818" lon="1.45204">
        <ele>281</ele>
        <time>2019-08-13T10:01:09.761Z</time>
      </trkpt>
      <trkpt lat="44.71813" lon="1.45198">
        <ele>281</ele>
        <time>2019-08-13T10:01:14.761Z</time>
      </trkpt>
      <trkpt lat="44.71809" lon="1.45194">
        <ele>281</ele>
        <time>2019-08-13T10:01:18.768Z</time>
      </trkpt>
      <trkpt lat="44.71803" lon="1.45191">
        <ele>281</ele>
        <time>2019-08-13T10:01:23.771Z</time>
      </trkpt>
      <trkpt lat="44.71799" lon="1.4519">
        <ele>281</ele>
        <time>2019-08-13T10:01:28.754Z</time>
      </trkpt>
      <trkpt lat="44.71797" lon="1.45189">
        <ele>281</ele>
        <time>2019-08-13T10:01:32.762Z</time>
      </trkpt>
      <trkpt lat="44.71796" lon="1.45189">
        <ele>281</ele>
        <time>2019-08-13T10:01:37.781Z</time>
      </trkpt>
      <trkpt lat="44.71794" lon="1.45191">
        <ele>281</ele>
        <time>2019-08-13T10:01:42.761Z</time>
      </trkpt>
      <trkpt lat="44.71787" lon="1.45198">
        <ele>284</ele>
        <time>2019-08-13T10:01:47.766Z</time>
      </trkpt>
      <trkpt lat="44.71781" lon="1.45202">
        <ele>284</ele>
        <time>2019-08-13T10:01:52.771Z</time>
      </trkpt>
      <trkpt lat="44.71774" lon="1.45202">
        <ele>284</ele>
        <time>2019-08-13T10:01:57.769Z</time>
      </trkpt>
      <trkpt lat="44.71769" lon="1.45204">
        <ele>284</ele>
        <time>2019-08-13T10:02:02.764Z</time>
      </trkpt>
      <trkpt lat="44.71765" lon="1.45206">
        <ele>284</ele>
        <time>2019-08-13T10:02:07.763Z</time>
      </trkpt>
      <trkpt lat="44.7176" lon="1.45208">
        <ele>290</ele>
        <time>2019-08-13T10:02:12.771Z</time>
      </trkpt>
      <trkpt lat="44.71753" lon="1.45211">
        <ele>290</ele>
        <time>2019-08-13T10:02:17.772Z</time>
      </trkpt>
      <trkpt lat="44.71749" lon="1.45214">
        <ele>290</ele>
        <time>2019-08-13T10:02:22.757Z</time>
      </trkpt>
      <trkpt lat="44.71745" lon="1.45216">
        <ele>290</ele>
        <time>2019-08-13T10:02:26.781Z</time>
      </trkpt>
      <trkpt lat="44.7174" lon="1.45219">
        <ele>290</ele>
        <time>2019-08-13T10:02:31.767Z</time>
      </trkpt>
      <trkpt lat="44.71735" lon="1.4522">
        <ele>296</ele>
        <time>2019-08-13T10:02:36.772Z</time>
      </trkpt>
      <trkpt lat="44.71729" lon="1.45223">
        <ele>296</ele>
        <time>2019-08-13T10:02:41.757Z</time>
      </trkpt>
      <trkpt lat="44.71725" lon="1.45227">
        <ele>296</ele>
        <time>2019-08-13T10:02:45.769Z</time>
      </trkpt>
      <trkpt lat="44.71721" lon="1.45229">
        <ele>296</ele>
        <time>2019-08-13T10:02:50.763Z</time>
      </trkpt>
      <trkpt lat="44.71717" lon="1.4523">
        <ele>296</ele>
        <time>2019-08-13T10:02:54.774Z</time>
      </trkpt>
      <trkpt lat="44.71713" lon="1.45232">
        <ele>296</ele>
        <time>2019-08-13T10:02:59.777Z</time>
      </trkpt>
      <trkpt lat="44.71709" lon="1.45235">
        <ele>296</ele>
        <time>2019-08-13T10:03:04.758Z</time>
      </trkpt>
      <trkpt lat="44.71706" lon="1.45236">
        <ele>301</ele>
        <time>2019-08-13T10:03:09.769Z</time>
      </trkpt>
      <trkpt lat="44.71705" lon="1.45237">
        <ele>301</ele>
        <time>2019-08-13T10:03:14.758Z</time>
      </trkpt>
      <trkpt lat="44.71702" lon="1.45239">
        <ele>301</ele>
        <time>2019-08-13T10:03:18.777Z</time>
      </trkpt>
      <trkpt lat="44.71696" lon="1.45245">
        <ele>301</ele>
        <time>2019-08-13T10:03:23.773Z</time>
      </trkpt>
      <trkpt lat="44.7169" lon="1.45248">
        <ele>301</ele>
        <time>2019-08-13T10:03:28.759Z</time>
      </trkpt>
      <trkpt lat="44.71686" lon="1.45253">
        <ele>301</ele>
        <time>2019-08-13T10:03:32.772Z</time>
      </trkpt>
      <trkpt lat="44.71685" lon="1.45256">
        <ele>301</ele>
        <time>2019-08-13T10:03:37.762Z</time>
      </trkpt>
      <trkpt lat="44.71683" lon="1.45259">
        <ele>301</ele>
        <time>2019-08-13T10:03:42.773Z</time>
      </trkpt>
      <trkpt lat="44.71682" lon="1.4526">
        <ele>301</ele>
        <time>2019-08-13T10:03:47.764Z</time>
      </trkpt>
      <trkpt lat="44.71678" lon="1.45264">
        <ele>309</ele>
        <time>2019-08-13T10:03:52.765Z</time>
      </trkpt>
      <trkpt lat="44.71673" lon="1.45266">
        <ele>309</ele>
        <time>2019-08-13T10:03:57.772Z</time>
      </trkpt>
      <trkpt lat="44.71671" lon="1.45271">
        <ele>309</ele>
        <time>2019-08-13T10:04:02.775Z</time>
      </trkpt>
      <trkpt lat="44.71669" lon="1.45273">
        <ele>309</ele>
        <time>2019-08-13T10:04:07.764Z</time>
      </trkpt>
      <trkpt lat="44.71663" lon="1.45276">
        <ele>309</ele>
        <time>2019-08-13T10:04:12.768Z</time>
      </trkpt>
      <trkpt lat="44.71658" lon="1.45281">
        <ele>309</ele>
        <time>2019-08-13T10:04:17.770Z</time>
      </trkpt>
      <trkpt lat="44.71654" lon="1.45284">
        <ele>309</ele>
        <time>2019-08-13T10:04:22.760Z</time>
      </trkpt>
      <trkpt lat="44.71649" lon="1.45289">
        <ele>312</ele>
        <time>2019-08-13T10:04:27.774Z</time>
      </trkpt>
      <trkpt lat="44.71643" lon="1.45292">
        <ele>314</ele>
        <time>2019-08-13T10:04:32.778Z</time>
      </trkpt>
      <trkpt lat="44.71638" lon="1.45296">
        <ele>314</ele>
        <time>2019-08-13T10:04:37.770Z</time>
      </trkpt>
      <trkpt lat="44.71631" lon="1.45298">
        <ele>314</ele>
        <time>2019-08-13T10:04:42.767Z</time>
      </trkpt>
      <trkpt lat="44.71626" lon="1.45301">
        <ele>314</ele>
        <time>2019-08-13T10:04:47.781Z</time>
      </trkpt>
      <trkpt lat="44.71621" lon="1.45303">
        <ele>318</ele>
        <time>2019-08-13T10:04:52.765Z</time>
      </trkpt>
      <trkpt lat="44.71615" lon="1.45305">
        <ele>318</ele>
        <time>2019-08-13T10:04:57.777Z</time>
      </trkpt>
      <trkpt lat="44.7161" lon="1.45306">
        <ele>318</ele>
        <time>2019-08-13T10:05:01.769Z</time>
      </trkpt>
      <trkpt lat="44.71604" lon="1.45307">
        <ele>318</ele>
        <time>2019-08-13T10:05:06.767Z</time>
      </trkpt>
      <trkpt lat="44.71599" lon="1.45309">
        <ele>318</ele>
        <time>2019-08-13T10:05:11.772Z</time>
      </trkpt>
      <trkpt lat="44.71596" lon="1.45311">
        <ele>321</ele>
        <time>2019-08-13T10:05:15.772Z</time>
      </trkpt>
      <trkpt lat="44.71591" lon="1.45315">
        <ele>321</ele>
        <time>2019-08-13T10:05:20.770Z</time>
      </trkpt>
      <trkpt lat="44.71585" lon="1.4532">
        <ele>321</ele>
        <time>2019-08-13T10:05:25.771Z</time>
      </trkpt>
      <trkpt lat="44.71581" lon="1.45324">
        <ele>321</ele>
        <time>2019-08-13T10:05:30.776Z</time>
      </trkpt>
      <trkpt lat="44.71576" lon="1.4533">
        <ele>321</ele>
        <time>2019-08-13T10:05:35.756Z</time>
      </trkpt>
      <trkpt lat="44.71571" lon="1.45338">
        <ele>321</ele>
        <time>2019-08-13T10:05:40.762Z</time>
      </trkpt>
      <trkpt lat="44.71566" lon="1.45344">
        <ele>324</ele>
        <time>2019-08-13T10:05:45.773Z</time>
      </trkpt>
      <trkpt lat="44.71561" lon="1.45349">
        <ele>324</ele>
        <time>2019-08-13T10:05:50.774Z</time>
      </trkpt>
      <trkpt lat="44.71558" lon="1.45353">
        <ele>324</ele>
        <time>2019-08-13T10:05:54.777Z</time>
      </trkpt>
      <trkpt lat="44.71553" lon="1.45357">
        <ele>324</ele>
        <time>2019-08-13T10:05:59.780Z</time>
      </trkpt>
      <trkpt lat="44.71549" lon="1.45362">
        <ele>324</ele>
        <time>2019-08-13T10:06:04.772Z</time>
      </trkpt>
      <trkpt lat="44.71544" lon="1.45367">
        <ele>324</ele>
        <time>2019-08-13T10:06:09.770Z</time>
      </trkpt>
      <trkpt lat="44.7154" lon="1.45371">
        <ele>324</ele>
        <time>2019-08-13T10:06:14.781Z</time>
      </trkpt>
      <trkpt lat="44.71535" lon="1.45375">
        <ele>325</ele>
        <time>2019-08-13T10:06:19.768Z</time>
      </trkpt>
      <trkpt lat="44.71529" lon="1.45381">
        <ele>325</ele>
        <time>2019-08-13T10:06:24.768Z</time>
      </trkpt>
      <trkpt lat="44.71524" lon="1.45386">
        <ele>325</ele>
        <time>2019-08-13T10:06:29.759Z</time>
      </trkpt>
      <trkpt lat="44.7152" lon="1.4539">
        <ele>325</ele>
        <time>2019-08-13T10:06:33.773Z</time>
      </trkpt>
      <trkpt lat="44.71515" lon="1.45395">
        <ele>325</ele>
        <time>2019-08-13T10:06:38.761Z</time>
      </trkpt>
      <trkpt lat="44.71511" lon="1.454">
        <ele>325</ele>
        <time>2019-08-13T10:06:42.766Z</time>
      </trkpt>
      <trkpt lat="44.71505" lon="1.45407">
        <ele>327</ele>
        <time>2019-08-13T10:06:47.769Z</time>
      </trkpt>
      <trkpt lat="44.71501" lon="1.45413">
        <ele>327</ele>
        <time>2019-08-13T10:06:51.765Z</time>
      </trkpt>
      <trkpt lat="44.71498" lon="1.45419">
        <ele>327</ele>
        <time>2019-08-13T10:06:56.764Z</time>
      </trkpt>
      <trkpt lat="44.71496" lon="1.45424">
        <ele>327</ele>
        <time>2019-08-13T10:07:00.759Z</time>
      </trkpt>
      <trkpt lat="44.71492" lon="1.4543">
        <ele>327</ele>
        <time>2019-08-13T10:07:05.778Z</time>
      </trkpt>
      <trkpt lat="44.71489" lon="1.45437">
        <ele>328</ele>
        <time>2019-08-13T10:07:10.769Z</time>
      </trkpt>
      <trkpt lat="44.71485" lon="1.45442">
        <ele>328</ele>
        <time>2019-08-13T10:07:15.771Z</time>
      </trkpt>
      <trkpt lat="44.71482" lon="1.45448">
        <ele>328</ele>
        <time>2019-08-13T10:07:19.779Z</time>
      </trkpt>
      <trkpt lat="44.71479" lon="1.45455">
        <ele>328</ele>
        <time>2019-08-13T10:07:24.771Z</time>
      </trkpt>
      <trkpt lat="44.71477" lon="1.45462">
        <ele>328</ele>
        <time>2019-08-13T10:07:29.768Z</time>
      </trkpt>
      <trkpt lat="44.71475" lon="1.45469">
        <ele>328</ele>
        <time>2019-08-13T10:07:33.764Z</time>
      </trkpt>
      <trkpt lat="44.71473" lon="1.45478">
        <ele>328</ele>
        <time>2019-08-13T10:07:38.755Z</time>
      </trkpt>
      <trkpt lat="44.7147" lon="1.45487">
        <ele>328</ele>
        <time>2019-08-13T10:07:43.770Z</time>
      </trkpt>
      <trkpt lat="44.71468" lon="1.45495">
        <ele>328</ele>
        <time>2019-08-13T10:07:48.762Z</time>
      </trkpt>
      <trkpt lat="44.71467" lon="1.45497">
        <ele>328</ele>
        <time>2019-08-13T10:07:53.754Z</time>
      </trkpt>
      <trkpt lat="44.71467" lon="1.45498">
        <ele>328</ele>
        <time>2019-08-13T10:07:57.773Z</time>
      </trkpt>
      <trkpt lat="44.71467" lon="1.45499">
        <ele>328</ele>
        <time>2019-08-13T10:08:01.768Z</time>
      </trkpt>
      <trkpt lat="44.71462" lon="1.45507">
        <ele>328</ele>
        <time>2019-08-13T10:08:06.773Z</time>
      </trkpt>
      <trkpt lat="44.71456" lon="1.45517">
        <ele>329</ele>
        <time>2019-08-13T10:08:11.769Z</time>
      </trkpt>
      <trkpt lat="44.71452" lon="1.45526">
        <ele>329</ele>
        <time>2019-08-13T10:08:16.771Z</time>
      </trkpt>
      <trkpt lat="44.71448" lon="1.45534">
        <ele>329</ele>
        <time>2019-08-13T10:08:21.774Z</time>
      </trkpt>
      <trkpt lat="44.71443" lon="1.4554">
        <ele>329</ele>
        <time>2019-08-13T10:08:26.758Z</time>
      </trkpt>
      <trkpt lat="44.71439" lon="1.45548">
        <ele>328</ele>
        <time>2019-08-13T10:08:31.754Z</time>
      </trkpt>
      <trkpt lat="44.71437" lon="1.45553">
        <ele>328</ele>
        <time>2019-08-13T10:08:35.762Z</time>
      </trkpt>
      <trkpt lat="44.71433" lon="1.4556">
        <ele>328</ele>
        <time>2019-08-13T10:08:39.776Z</time>
      </trkpt>
      <trkpt lat="44.7143" lon="1.45567">
        <ele>330</ele>
        <time>2019-08-13T10:08:44.760Z</time>
      </trkpt>
      <trkpt lat="44.71427" lon="1.45572">
        <ele>331</ele>
        <time>2019-08-13T10:08:48.767Z</time>
      </trkpt>
      <trkpt lat="44.71422" lon="1.45578">
        <ele>331</ele>
        <time>2019-08-13T10:08:53.777Z</time>
      </trkpt>
      <trkpt lat="44.71418" lon="1.45583">
        <ele>331</ele>
        <time>2019-08-13T10:08:58.769Z</time>
      </trkpt>
      <trkpt lat="44.71413" lon="1.45591">
        <ele>331</ele>
        <time>2019-08-13T10:09:03.774Z</time>
      </trkpt>
      <trkpt lat="44.71408" lon="1.45598">
        <ele>331</ele>
        <time>2019-08-13T10:09:08.758Z</time>
      </trkpt>
      <trkpt lat="44.71404" lon="1.45604">
        <ele>331</ele>
        <time>2019-08-13T10:09:13.775Z</time>
      </trkpt>
      <trkpt lat="44.714" lon="1.4561">
        <ele>333</ele>
        <time>2019-08-13T10:09:18.757Z</time>
      </trkpt>
      <trkpt lat="44.71397" lon="1.45616">
        <ele>333</ele>
        <time>2019-08-13T10:09:23.759Z</time>
      </trkpt>
      <trkpt lat="44.71392" lon="1.45622">
        <ele>333</ele>
        <time>2019-08-13T10:09:28.759Z</time>
      </trkpt>
      <trkpt lat="44.71387" lon="1.45627">
        <ele>334</ele>
        <time>2019-08-13T10:09:33.782Z</time>
      </trkpt>
      <trkpt lat="44.71382" lon="1.45634">
        <ele>334</ele>
        <time>2019-08-13T10:09:38.765Z</time>
      </trkpt>
      <trkpt lat="44.71378" lon="1.45636">
        <ele>334</ele>
        <time>2019-08-13T10:09:43.779Z</time>
      </trkpt>
      <trkpt lat="44.71374" lon="1.45641">
        <ele>334</ele>
        <time>2019-08-13T10:09:48.759Z</time>
      </trkpt>
      <trkpt lat="44.7137" lon="1.45644">
        <ele>334</ele>
        <time>2019-08-13T10:09:52.754Z</time>
      </trkpt>
      <trkpt lat="44.71366" lon="1.45649">
        <ele>334</ele>
        <time>2019-08-13T10:09:57.774Z</time>
      </trkpt>
      <trkpt lat="44.71363" lon="1.45657">
        <ele>335</ele>
        <time>2019-08-13T10:10:01.766Z</time>
      </trkpt>
      <trkpt lat="44.71358" lon="1.45663">
        <ele>335</ele>
        <time>2019-08-13T10:10:06.755Z</time>
      </trkpt>
      <trkpt lat="44.71354" lon="1.45667">
        <ele>335</ele>
        <time>2019-08-13T10:10:10.752Z</time>
      </trkpt>
      <trkpt lat="44.71349" lon="1.45673">
        <ele>335</ele>
        <time>2019-08-13T10:10:15.772Z</time>
      </trkpt>
      <trkpt lat="44.71345" lon="1.45677">
        <ele>336</ele>
        <time>2019-08-13T10:10:20.762Z</time>
      </trkpt>
      <trkpt lat="44.71339" lon="1.45682">
        <ele>338</ele>
        <time>2019-08-13T10:10:25.755Z</time>
      </trkpt>
      <trkpt lat="44.71334" lon="1.45686">
        <ele>338</ele>
        <time>2019-08-13T10:10:30.761Z</time>
      </trkpt>
      <trkpt lat="44.71329" lon="1.45692">
        <ele>338</ele>
        <time>2019-08-13T10:10:35.777Z</time>
      </trkpt>
      <trkpt lat="44.71324" lon="1.45696">
        <ele>338</ele>
        <time>2019-08-13T10:10:40.764Z</time>
      </trkpt>
      <trkpt lat="44.71318" lon="1.457">
        <ele>340</ele>
        <time>2019-08-13T10:10:45.775Z</time>
      </trkpt>
      <trkpt lat="44.71312" lon="1.45703">
        <ele>340</ele>
        <time>2019-08-13T10:10:50.760Z</time>
      </trkpt>
      <trkpt lat="44.71307" lon="1.45706">
        <ele>340</ele>
        <time>2019-08-13T10:10:54.760Z</time>
      </trkpt>
      <trkpt lat="44.71302" lon="1.45711">
        <ele>341</ele>
        <time>2019-08-13T10:10:59.763Z</time>
      </trkpt>
      <trkpt lat="44.71299" lon="1.45714">
        <ele>341</ele>
        <time>2019-08-13T10:11:03.792Z</time>
      </trkpt>
      <trkpt lat="44.71294" lon="1.4572">
        <ele>341</ele>
        <time>2019-08-13T10:11:08.751Z</time>
      </trkpt>
      <trkpt lat="44.71289" lon="1.45725">
        <ele>342</ele>
        <time>2019-08-13T10:11:13.758Z</time>
      </trkpt>
      <trkpt lat="44.71287" lon="1.45728">
        <ele>342</ele>
        <time>2019-08-13T10:11:17.773Z</time>
      </trkpt>
      <trkpt lat="44.71282" lon="1.45732">
        <ele>342</ele>
        <time>2019-08-13T10:11:22.778Z</time>
      </trkpt>
      <trkpt lat="44.71276" lon="1.45736">
        <ele>342</ele>
        <time>2019-08-13T10:11:27.779Z</time>
      </trkpt>
      <trkpt lat="44.7127" lon="1.45739">
        <ele>342</ele>
        <time>2019-08-13T10:11:32.760Z</time>
      </trkpt>
      <trkpt lat="44.71266" lon="1.45745">
        <ele>342</ele>
        <time>2019-08-13T10:11:36.768Z</time>
      </trkpt>
      <trkpt lat="44.7126" lon="1.45752">
        <ele>342</ele>
        <time>2019-08-13T10:11:41.761Z</time>
      </trkpt>
      <trkpt lat="44.71257" lon="1.45755">
        <ele>342</ele>
        <time>2019-08-13T10:11:46.759Z</time>
      </trkpt>
      <trkpt lat="44.71252" lon="1.45757">
        <ele>342</ele>
        <time>2019-08-13T10:11:51.773Z</time>
      </trkpt>
      <trkpt lat="44.71247" lon="1.4576">
        <ele>342</ele>
        <time>2019-08-13T10:11:56.758Z</time>
      </trkpt>
      <trkpt lat="44.71242" lon="1.45765">
        <ele>343</ele>
        <time>2019-08-13T10:12:01.767Z</time>
      </trkpt>
      <trkpt lat="44.71239" lon="1.45768">
        <ele>343</ele>
        <time>2019-08-13T10:12:05.772Z</time>
      </trkpt>
      <trkpt lat="44.71233" lon="1.45772">
        <ele>344</ele>
        <time>2019-08-13T10:12:10.755Z</time>
      </trkpt>
      <trkpt lat="44.71229" lon="1.45776">
        <ele>344</ele>
        <time>2019-08-13T10:12:14.756Z</time>
      </trkpt>
      <trkpt lat="44.71225" lon="1.45781">
        <ele>344</ele>
        <time>2019-08-13T10:12:19.766Z</time>
      </trkpt>
      <trkpt lat="44.71223" lon="1.45783">
        <ele>344</ele>
        <time>2019-08-13T10:12:23.780Z</time>
      </trkpt>
      <trkpt lat="44.71217" lon="1.45786">
        <ele>344</ele>
        <time>2019-08-13T10:12:28.757Z</time>
      </trkpt>
      <trkpt lat="44.71213" lon="1.4579">
        <ele>344</ele>
        <time>2019-08-13T10:12:33.773Z</time>
      </trkpt>
      <trkpt lat="44.71209" lon="1.45795">
        <ele>342</ele>
        <time>2019-08-13T10:12:37.764Z</time>
      </trkpt>
      <trkpt lat="44.71205" lon="1.458">
        <ele>344</ele>
        <time>2019-08-13T10:12:42.748Z</time>
      </trkpt>
      <trkpt lat="44.71201" lon="1.45805">
        <ele>344</ele>
        <time>2019-08-13T10:12:46.757Z</time>
      </trkpt>
      <trkpt lat="44.71195" lon="1.45813">
        <ele>344</ele>
        <time>2019-08-13T10:12:51.745Z</time>
      </trkpt>
      <trkpt lat="44.7119" lon="1.4582">
        <ele>342</ele>
        <time>2019-08-13T10:12:55.762Z</time>
      </trkpt>
      <trkpt lat="44.71184" lon="1.45825">
        <ele>342</ele>
        <time>2019-08-13T10:13:00.772Z</time>
      </trkpt>
      <trkpt lat="44.71179" lon="1.4583">
        <ele>346</ele>
        <time>2019-08-13T10:13:05.768Z</time>
      </trkpt>
      <trkpt lat="44.71175" lon="1.45833">
        <ele>346</ele>
        <time>2019-08-13T10:13:09.774Z</time>
      </trkpt>
      <trkpt lat="44.7117" lon="1.45837">
        <ele>346</ele>
        <time>2019-08-13T10:13:14.763Z</time>
      </trkpt>
      <trkpt lat="44.71166" lon="1.45842">
        <ele>346</ele>
        <time>2019-08-13T10:13:19.773Z</time>
      </trkpt>
      <trkpt lat="44.71162" lon="1.45851">
        <ele>346</ele>
        <time>2019-08-13T10:13:24.773Z</time>
      </trkpt>
      <trkpt lat="44.71157" lon="1.45857">
        <ele>346</ele>
        <time>2019-08-13T10:13:29.761Z</time>
      </trkpt>
      <trkpt lat="44.71154" lon="1.45861">
        <ele>346</ele>
        <time>2019-08-13T10:13:34.759Z</time>
      </trkpt>
      <trkpt lat="44.7115" lon="1.45865">
        <ele>347</ele>
        <time>2019-08-13T10:13:39.771Z</time>
      </trkpt>
      <trkpt lat="44.71144" lon="1.45871">
        <ele>347</ele>
        <time>2019-08-13T10:13:44.755Z</time>
      </trkpt>
      <trkpt lat="44.71141" lon="1.45877">
        <ele>346</ele>
        <time>2019-08-13T10:13:49.762Z</time>
      </trkpt>
      <trkpt lat="44.71137" lon="1.45881">
        <ele>346</ele>
        <time>2019-08-13T10:13:54.748Z</time>
      </trkpt>
      <trkpt lat="44.71133" lon="1.45885">
        <ele>346</ele>
        <time>2019-08-13T10:13:58.754Z</time>
      </trkpt>
      <trkpt lat="44.71127" lon="1.45891">
        <ele>346</ele>
        <time>2019-08-13T10:14:03.758Z</time>
      </trkpt>
      <trkpt lat="44.71123" lon="1.45897">
        <ele>347</ele>
        <time>2019-08-13T10:14:07.766Z</time>
      </trkpt>
      <trkpt lat="44.71118" lon="1.45906">
        <ele>347</ele>
        <time>2019-08-13T10:14:12.752Z</time>
      </trkpt>
      <trkpt lat="44.71114" lon="1.45915">
        <ele>347</ele>
        <time>2019-08-13T10:14:17.758Z</time>
      </trkpt>
      <trkpt lat="44.7111" lon="1.45922">
        <ele>347</ele>
        <time>2019-08-13T10:14:21.768Z</time>
      </trkpt>
      <trkpt lat="44.71106" lon="1.45928">
        <ele>347</ele>
        <time>2019-08-13T10:14:26.753Z</time>
      </trkpt>
      <trkpt lat="44.71103" lon="1.45932">
        <ele>345</ele>
        <time>2019-08-13T10:14:30.779Z</time>
      </trkpt>
      <trkpt lat="44.71098" lon="1.45936">
        <ele>345</ele>
        <time>2019-08-13T10:14:34.772Z</time>
      </trkpt>
      <trkpt lat="44.71093" lon="1.45943">
        <ele>349</ele>
        <time>2019-08-13T10:14:39.777Z</time>
      </trkpt>
      <trkpt lat="44.71088" lon="1.4595">
        <ele>349</ele>
        <time>2019-08-13T10:14:44.760Z</time>
      </trkpt>
      <trkpt lat="44.71082" lon="1.45953">
        <ele>349</ele>
        <time>2019-08-13T10:14:49.776Z</time>
      </trkpt>
      <trkpt lat="44.71076" lon="1.45956">
        <ele>349</ele>
        <time>2019-08-13T10:14:54.805Z</time>
      </trkpt>
      <trkpt lat="44.71071" lon="1.4596">
        <ele>349</ele>
        <time>2019-08-13T10:14:59.766Z</time>
      </trkpt>
      <trkpt lat="44.71068" lon="1.45962">
        <ele>355</ele>
        <time>2019-08-13T10:15:03.771Z</time>
      </trkpt>
      <trkpt lat="44.71064" lon="1.45963">
        <ele>355</ele>
        <time>2019-08-13T10:15:08.754Z</time>
      </trkpt>
      <trkpt lat="44.71058" lon="1.45963">
        <ele>355</ele>
        <time>2019-08-13T10:15:13.759Z</time>
      </trkpt>
      <trkpt lat="44.71052" lon="1.45969">
        <ele>355</ele>
        <time>2019-08-13T10:15:17.762Z</time>
      </trkpt>
      <trkpt lat="44.71046" lon="1.45972">
        <ele>355</ele>
        <time>2019-08-13T10:15:22.761Z</time>
      </trkpt>
      <trkpt lat="44.71038" lon="1.45973">
        <ele>361</ele>
        <time>2019-08-13T10:15:27.770Z</time>
      </trkpt>
      <trkpt lat="44.71032" lon="1.45973">
        <ele>361</ele>
        <time>2019-08-13T10:15:32.769Z</time>
      </trkpt>
      <trkpt lat="44.71026" lon="1.45975">
        <ele>361</ele>
        <time>2019-08-13T10:15:37.766Z</time>
      </trkpt>
      <trkpt lat="44.7102" lon="1.45981">
        <ele>361</ele>
        <time>2019-08-13T10:15:42.758Z</time>
      </trkpt>
      <trkpt lat="44.71014" lon="1.45986">
        <ele>361</ele>
        <time>2019-08-13T10:15:47.764Z</time>
      </trkpt>
      <trkpt lat="44.71011" lon="1.45989">
        <ele>362</ele>
        <time>2019-08-13T10:15:51.770Z</time>
      </trkpt>
      <trkpt lat="44.71008" lon="1.4599">
        <ele>362</ele>
        <time>2019-08-13T10:15:55.763Z</time>
      </trkpt>
      <trkpt lat="44.71005" lon="1.45993">
        <ele>362</ele>
        <time>2019-08-13T10:16:00.782Z</time>
      </trkpt>
      <trkpt lat="44.71001" lon="1.46">
        <ele>362</ele>
        <time>2019-08-13T10:16:05.767Z</time>
      </trkpt>
      <trkpt lat="44.70997" lon="1.46006">
        <ele>362</ele>
        <time>2019-08-13T10:16:10.757Z</time>
      </trkpt>
      <trkpt lat="44.70992" lon="1.46012">
        <ele>362</ele>
        <time>2019-08-13T10:16:14.779Z</time>
      </trkpt>
      <trkpt lat="44.70988" lon="1.46016">
        <ele>360</ele>
        <time>2019-08-13T10:16:19.765Z</time>
      </trkpt>
      <trkpt lat="44.70985" lon="1.46019">
        <ele>361</ele>
        <time>2019-08-13T10:16:23.768Z</time>
      </trkpt>
      <trkpt lat="44.70981" lon="1.46024">
        <ele>361</ele>
        <time>2019-08-13T10:16:28.772Z</time>
      </trkpt>
      <trkpt lat="44.70976" lon="1.46032">
        <ele>361</ele>
        <time>2019-08-13T10:16:33.763Z</time>
      </trkpt>
      <trkpt lat="44.70971" lon="1.46037">
        <ele>361</ele>
        <time>2019-08-13T10:16:38.764Z</time>
      </trkpt>
      <trkpt lat="44.70968" lon="1.46042">
        <ele>359</ele>
        <time>2019-08-13T10:16:43.772Z</time>
      </trkpt>
      <trkpt lat="44.70964" lon="1.4605">
        <ele>359</ele>
        <time>2019-08-13T10:16:48.758Z</time>
      </trkpt>
      <trkpt lat="44.70961" lon="1.46059">
        <ele>359</ele>
        <time>2019-08-13T10:16:53.767Z</time>
      </trkpt>
      <trkpt lat="44.70962" lon="1.4606">
        <ele>359</ele>
        <time>2019-08-13T10:16:58.781Z</time>
      </trkpt>
      <trkpt lat="44.70958" lon="1.46068">
        <ele>360</ele>
        <time>2019-08-13T10:17:03.777Z</time>
      </trkpt>
      <trkpt lat="44.70953" lon="1.46076">
        <ele>361</ele>
        <time>2019-08-13T10:17:08.748Z</time>
      </trkpt>
      <trkpt lat="44.70951" lon="1.46082">
        <ele>361</ele>
        <time>2019-08-13T10:17:12.772Z</time>
      </trkpt>
      <trkpt lat="44.70947" lon="1.46088">
        <ele>361</ele>
        <time>2019-08-13T10:17:17.781Z</time>
      </trkpt>
      <trkpt lat="44.70943" lon="1.46096">
        <ele>361</ele>
        <time>2019-08-13T10:17:22.781Z</time>
      </trkpt>
      <trkpt lat="44.7094" lon="1.46103">
        <ele>361</ele>
        <time>2019-08-13T10:17:27.769Z</time>
      </trkpt>
      <trkpt lat="44.70936" lon="1.46109">
        <ele>361</ele>
        <time>2019-08-13T10:17:32.763Z</time>
      </trkpt>
      <trkpt lat="44.70933" lon="1.46115">
        <ele>361</ele>
        <time>2019-08-13T10:17:36.778Z</time>
      </trkpt>
      <trkpt lat="44.70929" lon="1.46122">
        <ele>363</ele>
        <time>2019-08-13T10:17:41.761Z</time>
      </trkpt>
      <trkpt lat="44.70926" lon="1.46127">
        <ele>364</ele>
        <time>2019-08-13T10:17:46.794Z</time>
      </trkpt>
      <trkpt lat="44.70922" lon="1.46132">
        <ele>364</ele>
        <time>2019-08-13T10:17:51.761Z</time>
      </trkpt>
      <trkpt lat="44.70919" lon="1.46136">
        <ele>364</ele>
        <time>2019-08-13T10:17:55.768Z</time>
      </trkpt>
      <trkpt lat="44.70915" lon="1.46141">
        <ele>364</ele>
        <time>2019-08-13T10:18:00.759Z</time>
      </trkpt>
      <trkpt lat="44.70909" lon="1.4615">
        <ele>364</ele>
        <time>2019-08-13T10:18:05.780Z</time>
      </trkpt>
      <trkpt lat="44.70907" lon="1.46153">
        <ele>363</ele>
        <time>2019-08-13T10:18:10.753Z</time>
      </trkpt>
      <trkpt lat="44.70904" lon="1.46159">
        <ele>363</ele>
        <time>2019-08-13T10:18:14.766Z</time>
      </trkpt>
      <trkpt lat="44.709" lon="1.46168">
        <ele>364</ele>
        <time>2019-08-13T10:18:19.766Z</time>
      </trkpt>
      <trkpt lat="44.70896" lon="1.46177">
        <ele>364</ele>
        <time>2019-08-13T10:18:24.759Z</time>
      </trkpt>
      <trkpt lat="44.70892" lon="1.46185">
        <ele>364</ele>
        <time>2019-08-13T10:18:29.763Z</time>
      </trkpt>
      <trkpt lat="44.70889" lon="1.46192">
        <ele>364</ele>
        <time>2019-08-13T10:18:34.788Z</time>
      </trkpt>
      <trkpt lat="44.70888" lon="1.462">
        <ele>364</ele>
        <time>2019-08-13T10:18:39.773Z</time>
      </trkpt>
      <trkpt lat="44.70889" lon="1.46207">
        <ele>364</ele>
        <time>2019-08-13T10:18:43.777Z</time>
      </trkpt>
      <trkpt lat="44.7089" lon="1.46217">
        <ele>365</ele>
        <time>2019-08-13T10:18:48.790Z</time>
      </trkpt>
      <trkpt lat="44.70891" lon="1.46224">
        <ele>365</ele>
        <time>2019-08-13T10:18:53.765Z</time>
      </trkpt>
      <trkpt lat="44.70892" lon="1.46232">
        <ele>365</ele>
        <time>2019-08-13T10:18:58.772Z</time>
      </trkpt>
      <trkpt lat="44.70895" lon="1.4624">
        <ele>366</ele>
        <time>2019-08-13T10:19:03.768Z</time>
      </trkpt>
      <trkpt lat="44.70894" lon="1.46249">
        <ele>366</ele>
        <time>2019-08-13T10:19:07.766Z</time>
      </trkpt>
      <trkpt lat="44.70893" lon="1.46258">
        <ele>366</ele>
        <time>2019-08-13T10:19:12.767Z</time>
      </trkpt>
      <trkpt lat="44.70893" lon="1.46265">
        <ele>366</ele>
        <time>2019-08-13T10:19:17.769Z</time>
      </trkpt>
      <trkpt lat="44.70894" lon="1.46273">
        <ele>366</ele>
        <time>2019-08-13T10:19:22.760Z</time>
      </trkpt>
      <trkpt lat="44.70896" lon="1.46281">
        <ele>366</ele>
        <time>2019-08-13T10:19:27.763Z</time>
      </trkpt>
      <trkpt lat="44.709" lon="1.4629">
        <ele>366</ele>
        <time>2019-08-13T10:19:32.794Z</time>
      </trkpt>
      <trkpt lat="44.70902" lon="1.46298">
        <ele>367</ele>
        <time>2019-08-13T10:19:37.770Z</time>
      </trkpt>
      <trkpt lat="44.70903" lon="1.46305">
        <ele>366</ele>
        <time>2019-08-13T10:19:42.764Z</time>
      </trkpt>
      <trkpt lat="44.70904" lon="1.46311">
        <ele>366</ele>
        <time>2019-08-13T10:19:46.767Z</time>
      </trkpt>
      <trkpt lat="44.70904" lon="1.46315">
        <ele>366</ele>
        <time>2019-08-13T10:19:50.759Z</time>
      </trkpt>
      <trkpt lat="44.70905" lon="1.4632">
        <ele>366</ele>
        <time>2019-08-13T10:19:54.808Z</time>
      </trkpt>
      <trkpt lat="44.70904" lon="1.46328">
        <ele>366</ele>
        <time>2019-08-13T10:19:59.769Z</time>
      </trkpt>
      <trkpt lat="44.709" lon="1.46331">
        <ele>366</ele>
        <time>2019-08-13T10:20:03.756Z</time>
      </trkpt>
      <trkpt lat="44.70896" lon="1.46332">
        <ele>366</ele>
        <time>2019-08-13T10:20:07.770Z</time>
      </trkpt>
      <trkpt lat="44.7089" lon="1.46331">
        <ele>366</ele>
        <time>2019-08-13T10:20:12.787Z</time>
      </trkpt>
      <trkpt lat="44.70886" lon="1.4633">
        <ele>366</ele>
        <time>2019-08-13T10:20:16.780Z</time>
      </trkpt>
      <trkpt lat="44.70883" lon="1.46328">
        <ele>366</ele>
        <time>2019-08-13T10:20:20.839Z</time>
      </trkpt>
      <trkpt lat="44.7088" lon="1.46322">
        <ele>366</ele>
        <time>2019-08-13T10:20:25.774Z</time>
      </trkpt>
      <trkpt lat="44.70875" lon="1.46316">
        <ele>367</ele>
        <time>2019-08-13T10:20:30.770Z</time>
      </trkpt>
      <trkpt lat="44.7087" lon="1.4631">
        <ele>367</ele>
        <time>2019-08-13T10:20:35.772Z</time>
      </trkpt>
      <trkpt lat="44.70865" lon="1.46305">
        <ele>367</ele>
        <time>2019-08-13T10:20:40.783Z</time>
      </trkpt>
      <trkpt lat="44.70859" lon="1.463">
        <ele>367</ele>
        <time>2019-08-13T10:20:45.772Z</time>
      </trkpt>
      <trkpt lat="44.70852" lon="1.46296">
        <ele>367</ele>
        <time>2019-08-13T10:20:50.767Z</time>
      </trkpt>
      <trkpt lat="44.70846" lon="1.46294">
        <ele>365</ele>
        <time>2019-08-13T10:20:55.768Z</time>
      </trkpt>
      <trkpt lat="44.70841" lon="1.46292">
        <ele>366</ele>
        <time>2019-08-13T10:21:00.760Z</time>
      </trkpt>
      <trkpt lat="44.70837" lon="1.46289">
        <ele>366</ele>
        <time>2019-08-13T10:21:05.786Z</time>
      </trkpt>
      <trkpt lat="44.70832" lon="1.46285">
        <ele>366</ele>
        <time>2019-08-13T10:21:10.771Z</time>
      </trkpt>
      <trkpt lat="44.70827" lon="1.46281">
        <ele>366</ele>
        <time>2019-08-13T10:21:14.773Z</time>
      </trkpt>
      <trkpt lat="44.7082" lon="1.46274">
        <ele>366</ele>
        <time>2019-08-13T10:21:19.767Z</time>
      </trkpt>
      <trkpt lat="44.70816" lon="1.46271">
        <ele>365</ele>
        <time>2019-08-13T10:21:23.773Z</time>
      </trkpt>
      <trkpt lat="44.7081" lon="1.46267">
        <ele>365</ele>
        <time>2019-08-13T10:21:28.773Z</time>
      </trkpt>
      <trkpt lat="44.70804" lon="1.46265">
        <ele>365</ele>
        <time>2019-08-13T10:21:33.756Z</time>
      </trkpt>
      <trkpt lat="44.70797" lon="1.46262">
        <ele>365</ele>
        <time>2019-08-13T10:21:38.805Z</time>
      </trkpt>
      <trkpt lat="44.70791" lon="1.46259">
        <ele>363</ele>
        <time>2019-08-13T10:21:43.763Z</time>
      </trkpt>
      <trkpt lat="44.70787" lon="1.46259">
        <ele>363</ele>
        <time>2019-08-13T10:21:47.775Z</time>
      </trkpt>
      <trkpt lat="44.70783" lon="1.46257">
        <ele>363</ele>
        <time>2019-08-13T10:21:52.757Z</time>
      </trkpt>
      <trkpt lat="44.7078" lon="1.46256">
        <ele>363</ele>
        <time>2019-08-13T10:21:56.768Z</time>
      </trkpt>
      <trkpt lat="44.70776" lon="1.46253">
        <ele>363</ele>
        <time>2019-08-13T10:22:01.763Z</time>
      </trkpt>
      <trkpt lat="44.70772" lon="1.46252">
        <ele>363</ele>
        <time>2019-08-13T10:22:05.775Z</time>
      </trkpt>
      <trkpt lat="44.70768" lon="1.46252">
        <ele>363</ele>
        <time>2019-08-13T10:22:09.775Z</time>
      </trkpt>
      <trkpt lat="44.70762" lon="1.46254">
        <ele>364</ele>
        <time>2019-08-13T10:22:14.841Z</time>
      </trkpt>
      <trkpt lat="44.70756" lon="1.46254">
        <ele>364</ele>
        <time>2019-08-13T10:22:19.769Z</time>
      </trkpt>
      <trkpt lat="44.70753" lon="1.46253">
        <ele>364</ele>
        <time>2019-08-13T10:22:24.784Z</time>
      </trkpt>
      <trkpt lat="44.70748" lon="1.46253">
        <ele>364</ele>
        <time>2019-08-13T10:22:29.765Z</time>
      </trkpt>
      <trkpt lat="44.70743" lon="1.46255">
        <ele>364</ele>
        <time>2019-08-13T10:22:33.762Z</time>
      </trkpt>
      <trkpt lat="44.70737" lon="1.46253">
        <ele>364</ele>
        <time>2019-08-13T10:22:37.774Z</time>
      </trkpt>
      <trkpt lat="44.70731" lon="1.46252">
        <ele>366</ele>
        <time>2019-08-13T10:22:42.773Z</time>
      </trkpt>
      <trkpt lat="44.70724" lon="1.46253">
        <ele>366</ele>
        <time>2019-08-13T10:22:47.767Z</time>
      </trkpt>
      <trkpt lat="44.70717" lon="1.46253">
        <ele>366</ele>
        <time>2019-08-13T10:22:52.771Z</time>
      </trkpt>
      <trkpt lat="44.70711" lon="1.46254">
        <ele>366</ele>
        <time>2019-08-13T10:22:56.768Z</time>
      </trkpt>
      <trkpt lat="44.70705" lon="1.46254">
        <ele>366</ele>
        <time>2019-08-13T10:23:01.780Z</time>
      </trkpt>
      <trkpt lat="44.70699" lon="1.46252">
        <ele>366</ele>
        <time>2019-08-13T10:23:06.781Z</time>
      </trkpt>
      <trkpt lat="44.70693" lon="1.46251">
        <ele>366</ele>
        <time>2019-08-13T10:23:11.772Z</time>
      </trkpt>
      <trkpt lat="44.70688" lon="1.46249">
        <ele>366</ele>
        <time>2019-08-13T10:23:15.775Z</time>
      </trkpt>
      <trkpt lat="44.70682" lon="1.46248">
        <ele>366</ele>
        <time>2019-08-13T10:23:20.765Z</time>
      </trkpt>
      <trkpt lat="44.70676" lon="1.46244">
        <ele>365</ele>
        <time>2019-08-13T10:23:24.785Z</time>
      </trkpt>
      <trkpt lat="44.70672" lon="1.46241">
        <ele>365</ele>
        <time>2019-08-13T10:23:29.779Z</time>
      </trkpt>
      <trkpt lat="44.70667" lon="1.46237">
        <ele>365</ele>
        <time>2019-08-13T10:23:34.766Z</time>
      </trkpt>
      <trkpt lat="44.70661" lon="1.46232">
        <ele>364</ele>
        <time>2019-08-13T10:23:39.768Z</time>
      </trkpt>
      <trkpt lat="44.70656" lon="1.46226">
        <ele>364</ele>
        <time>2019-08-13T10:23:43.768Z</time>
      </trkpt>
      <trkpt lat="44.70651" lon="1.46221">
        <ele>365</ele>
        <time>2019-08-13T10:23:48.763Z</time>
      </trkpt>
      <trkpt lat="44.70647" lon="1.46214">
        <ele>365</ele>
        <time>2019-08-13T10:23:52.770Z</time>
      </trkpt>
      <trkpt lat="44.70642" lon="1.46207">
        <ele>366</ele>
        <time>2019-08-13T10:23:57.781Z</time>
      </trkpt>
      <trkpt lat="44.70636" lon="1.46202">
        <ele>366</ele>
        <time>2019-08-13T10:24:02.788Z</time>
      </trkpt>
      <trkpt lat="44.70633" lon="1.46198">
        <ele>366</ele>
        <time>2019-08-13T10:24:06.770Z</time>
      </trkpt>
      <trkpt lat="44.70629" lon="1.4619">
        <ele>366</ele>
        <time>2019-08-13T10:24:11.765Z</time>
      </trkpt>
      <trkpt lat="44.70625" lon="1.46182">
        <ele>367</ele>
        <time>2019-08-13T10:24:16.770Z</time>
      </trkpt>
      <trkpt lat="44.70622" lon="1.46175">
        <ele>369</ele>
        <time>2019-08-13T10:24:20.776Z</time>
      </trkpt>
      <trkpt lat="44.7062" lon="1.46174">
        <ele>369</ele>
        <time>2019-08-13T10:24:25.766Z</time>
      </trkpt>
      <trkpt lat="44.70619" lon="1.46172">
        <ele>369</ele>
        <time>2019-08-13T10:24:29.770Z</time>
      </trkpt>
      <trkpt lat="44.70618" lon="1.46171">
        <ele>369</ele>
        <time>2019-08-13T10:24:34.770Z</time>
      </trkpt>
      <trkpt lat="44.70613" lon="1.46166">
        <ele>369</ele>
        <time>2019-08-13T10:24:39.775Z</time>
      </trkpt>
      <trkpt lat="44.70608" lon="1.46156">
        <ele>369</ele>
        <time>2019-08-13T10:24:44.770Z</time>
      </trkpt>
      <trkpt lat="44.70603" lon="1.46149">
        <ele>370</ele>
        <time>2019-08-13T10:24:49.768Z</time>
      </trkpt>
      <trkpt lat="44.70599" lon="1.46144">
        <ele>370</ele>
        <time>2019-08-13T10:24:53.767Z</time>
      </trkpt>
      <trkpt lat="44.70592" lon="1.4614">
        <ele>373</ele>
        <time>2019-08-13T10:24:58.776Z</time>
      </trkpt>
      <trkpt lat="44.70587" lon="1.46139">
        <ele>373</ele>
        <time>2019-08-13T10:25:02.780Z</time>
      </trkpt>
      <trkpt lat="44.7058" lon="1.46137">
        <ele>373</ele>
        <time>2019-08-13T10:25:07.773Z</time>
      </trkpt>
      <trkpt lat="44.70574" lon="1.46135">
        <ele>373</ele>
        <time>2019-08-13T10:25:12.774Z</time>
      </trkpt>
      <trkpt lat="44.70568" lon="1.46132">
        <ele>373</ele>
        <time>2019-08-13T10:25:17.772Z</time>
      </trkpt>
      <trkpt lat="44.70562" lon="1.4613">
        <ele>373</ele>
        <time>2019-08-13T10:25:22.759Z</time>
      </trkpt>
      <trkpt lat="44.70559" lon="1.46128">
        <ele>373</ele>
        <time>2019-08-13T10:25:26.766Z</time>
      </trkpt>
      <trkpt lat="44.70556" lon="1.46126">
        <ele>373</ele>
        <time>2019-08-13T10:25:31.773Z</time>
      </trkpt>
      <trkpt lat="44.70551" lon="1.46125">
        <ele>373</ele>
        <time>2019-08-13T10:25:35.787Z</time>
      </trkpt>
      <trkpt lat="44.70544" lon="1.4612">
        <ele>373</ele>
        <time>2019-08-13T10:25:40.777Z</time>
      </trkpt>
      <trkpt lat="44.70535" lon="1.46118">
        <ele>374</ele>
        <time>2019-08-13T10:25:45.768Z</time>
      </trkpt>
      <trkpt lat="44.70529" lon="1.46115">
        <ele>374</ele>
        <time>2019-08-13T10:25:49.771Z</time>
      </trkpt>
      <trkpt lat="44.70524" lon="1.46112">
        <ele>374</ele>
        <time>2019-08-13T10:25:54.768Z</time>
      </trkpt>
      <trkpt lat="44.70519" lon="1.46111">
        <ele>374</ele>
        <time>2019-08-13T10:25:59.767Z</time>
      </trkpt>
      <trkpt lat="44.70515" lon="1.4611">
        <ele>374</ele>
        <time>2019-08-13T10:26:03.767Z</time>
      </trkpt>
      <trkpt lat="44.70507" lon="1.46109">
        <ele>373</ele>
        <time>2019-08-13T10:26:08.778Z</time>
      </trkpt>
      <trkpt lat="44.70503" lon="1.46111">
        <ele>373</ele>
        <time>2019-08-13T10:26:13.774Z</time>
      </trkpt>
      <trkpt lat="44.70496" lon="1.46115">
        <ele>373</ele>
        <time>2019-08-13T10:26:18.764Z</time>
      </trkpt>
      <trkpt lat="44.70493" lon="1.46117">
        <ele>373</ele>
        <time>2019-08-13T10:26:23.762Z</time>
      </trkpt>
      <trkpt lat="44.7049" lon="1.46118">
        <ele>373</ele>
        <time>2019-08-13T10:26:28.776Z</time>
      </trkpt>
      <trkpt lat="44.70483" lon="1.46119">
        <ele>370</ele>
        <time>2019-08-13T10:26:33.760Z</time>
      </trkpt>
      <trkpt lat="44.70477" lon="1.46114">
        <ele>370</ele>
        <time>2019-08-13T10:26:38.764Z</time>
      </trkpt>
      <trkpt lat="44.70476" lon="1.46111">
        <ele>370</ele>
        <time>2019-08-13T10:26:43.777Z</time>
      </trkpt>
      <trkpt lat="44.70475" lon="1.46109">
        <ele>370</ele>
        <time>2019-08-13T10:26:48.782Z</time>
      </trkpt>
      <trkpt lat="44.70473" lon="1.46102">
        <ele>370</ele>
        <time>2019-08-13T10:26:53.771Z</time>
      </trkpt>
      <trkpt lat="44.70471" lon="1.46094">
        <ele>370</ele>
        <time>2019-08-13T10:26:57.768Z</time>
      </trkpt>
      <trkpt lat="44.70471" lon="1.46085">
        <ele>370</ele>
        <time>2019-08-13T10:27:01.770Z</time>
      </trkpt>
      <trkpt lat="44.70469" lon="1.46075">
        <ele>370</ele>
        <time>2019-08-13T10:27:06.762Z</time>
      </trkpt>
      <trkpt lat="44.7047" lon="1.46068">
        <ele>370</ele>
        <time>2019-08-13T10:27:11.763Z</time>
      </trkpt>
      <trkpt lat="44.70471" lon="1.4606">
        <ele>370</ele>
        <time>2019-08-13T10:27:15.776Z</time>
      </trkpt>
      <trkpt lat="44.7047" lon="1.4605">
        <ele>370</ele>
        <time>2019-08-13T10:27:20.761Z</time>
      </trkpt>
      <trkpt lat="44.70469" lon="1.46041">
        <ele>369</ele>
        <time>2019-08-13T10:27:25.766Z</time>
      </trkpt>
      <trkpt lat="44.70465" lon="1.46034">
        <ele>369</ele>
        <time>2019-08-13T10:27:30.781Z</time>
      </trkpt>
      <trkpt lat="44.70464" lon="1.46034">
        <ele>369</ele>
        <time>2019-08-13T10:27:35.770Z</time>
      </trkpt>
      <trkpt lat="44.70463" lon="1.46033">
        <ele>369</ele>
        <time>2019-08-13T10:27:40.774Z</time>
      </trkpt>
      <trkpt lat="44.70458" lon="1.46034">
        <ele>369</ele>
        <time>2019-08-13T10:27:45.768Z</time>
      </trkpt>
      <trkpt lat="44.70456" lon="1.46034">
        <ele>364</ele>
        <time>2019-08-13T10:27:50.765Z</time>
      </trkpt>
      <trkpt lat="44.70447" lon="1.46035">
        <ele>364</ele>
        <time>2019-08-13T10:27:55.778Z</time>
      </trkpt>
      <trkpt lat="44.70439" lon="1.46036">
        <ele>364</ele>
        <time>2019-08-13T10:28:00.764Z</time>
      </trkpt>
      <trkpt lat="44.70433" lon="1.46039">
        <ele>364</ele>
        <time>2019-08-13T10:28:05.765Z</time>
      </trkpt>
      <trkpt lat="44.70428" lon="1.46043">
        <ele>359</ele>
        <time>2019-08-13T10:28:10.776Z</time>
      </trkpt>
      <trkpt lat="44.7042" lon="1.46047">
        <ele>359</ele>
        <time>2019-08-13T10:28:15.775Z</time>
      </trkpt>
      <trkpt lat="44.70413" lon="1.46051">
        <ele>359</ele>
        <time>2019-08-13T10:28:20.773Z</time>
      </trkpt>
      <trkpt lat="44.70407" lon="1.46056">
        <ele>359</ele>
        <time>2019-08-13T10:28:24.773Z</time>
      </trkpt>
      <trkpt lat="44.70401" lon="1.46058">
        <ele>356</ele>
        <time>2019-08-13T10:28:29.769Z</time>
      </trkpt>
      <trkpt lat="44.70399" lon="1.46059">
        <ele>356</ele>
        <time>2019-08-13T10:28:34.766Z</time>
      </trkpt>
      <trkpt lat="44.70393" lon="1.4606">
        <ele>356</ele>
        <time>2019-08-13T10:29:40.761Z</time>
      </trkpt>
      <trkpt lat="44.70393" lon="1.46059">
        <ele>356</ele>
        <time>2019-08-13T10:29:45.766Z</time>
      </trkpt>
      <trkpt lat="44.70392" lon="1.4606">
        <ele>356</ele>
        <time>2019-08-13T10:29:50.765Z</time>
      </trkpt>
      <trkpt lat="44.70391" lon="1.46059">
        <ele>356</ele>
        <time>2019-08-13T10:29:54.757Z</time>
      </trkpt>
      <trkpt lat="44.70388" lon="1.46061">
        <ele>356</ele>
        <time>2019-08-13T10:29:59.740Z</time>
      </trkpt>
      <trkpt lat="44.70383" lon="1.46064">
        <ele>356</ele>
        <time>2019-08-13T10:30:03.752Z</time>
      </trkpt>
      <trkpt lat="44.70375" lon="1.46069">
        <ele>356</ele>
        <time>2019-08-13T10:30:08.768Z</time>
      </trkpt>
      <trkpt lat="44.70369" lon="1.46072">
        <ele>357</ele>
        <time>2019-08-13T10:30:12.759Z</time>
      </trkpt>
      <trkpt lat="44.70363" lon="1.46076">
        <ele>357</ele>
        <time>2019-08-13T10:30:17.769Z</time>
      </trkpt>
      <trkpt lat="44.70357" lon="1.46079">
        <ele>357</ele>
        <time>2019-08-13T10:30:22.786Z</time>
      </trkpt>
      <trkpt lat="44.7035" lon="1.46085">
        <ele>357</ele>
        <time>2019-08-13T10:30:27.765Z</time>
      </trkpt>
      <trkpt lat="44.70345" lon="1.46088">
        <ele>354</ele>
        <time>2019-08-13T10:30:32.775Z</time>
      </trkpt>
      <trkpt lat="44.70341" lon="1.46091">
        <ele>354</ele>
        <time>2019-08-13T10:30:37.772Z</time>
      </trkpt>
      <trkpt lat="44.70336" lon="1.46093">
        <ele>354</ele>
        <time>2019-08-13T10:30:42.772Z</time>
      </trkpt>
      <trkpt lat="44.70329" lon="1.46096">
        <ele>354</ele>
        <time>2019-08-13T10:30:47.771Z</time>
      </trkpt>
      <trkpt lat="44.70321" lon="1.461">
        <ele>356</ele>
        <time>2019-08-13T10:30:52.771Z</time>
      </trkpt>
      <trkpt lat="44.70315" lon="1.46104">
        <ele>352</ele>
        <time>2019-08-13T10:30:56.767Z</time>
      </trkpt>
      <trkpt lat="44.70312" lon="1.46106">
        <ele>352</ele>
        <time>2019-08-13T10:31:01.775Z</time>
      </trkpt>
      <trkpt lat="44.70312" lon="1.46107">
        <ele>352</ele>
        <time>2019-08-13T10:31:06.765Z</time>
      </trkpt>
      <trkpt lat="44.70311" lon="1.46107">
        <ele>352</ele>
        <time>2019-08-13T10:31:10.772Z</time>
      </trkpt>
      <trkpt lat="44.70308" lon="1.46108">
        <ele>352</ele>
        <time>2019-08-13T10:31:15.769Z</time>
      </trkpt>
      <trkpt lat="44.70303" lon="1.46109">
        <ele>352</ele>
        <time>2019-08-13T10:31:19.776Z</time>
      </trkpt>
      <trkpt lat="44.70298" lon="1.46111">
        <ele>352</ele>
        <time>2019-08-13T10:31:24.763Z</time>
      </trkpt>
      <trkpt lat="44.70293" lon="1.46116">
        <ele>352</ele>
        <time>2019-08-13T10:31:28.770Z</time>
      </trkpt>
      <trkpt lat="44.70292" lon="1.46116">
        <ele>352</ele>
        <time>2019-08-13T10:31:33.769Z</time>
      </trkpt>
      <trkpt lat="44.70287" lon="1.46117">
        <ele>347</ele>
        <time>2019-08-13T10:31:38.773Z</time>
      </trkpt>
      <trkpt lat="44.7028" lon="1.46117">
        <ele>347</ele>
        <time>2019-08-13T10:31:43.780Z</time>
      </trkpt>
      <trkpt lat="44.70273" lon="1.46121">
        <ele>347</ele>
        <time>2019-08-13T10:31:48.769Z</time>
      </trkpt>
      <trkpt lat="44.70267" lon="1.46126">
        <ele>347</ele>
        <time>2019-08-13T10:31:52.774Z</time>
      </trkpt>
      <trkpt lat="44.70258" lon="1.4613">
        <ele>346</ele>
        <time>2019-08-13T10:31:57.764Z</time>
      </trkpt>
      <trkpt lat="44.70251" lon="1.46133">
        <ele>346</ele>
        <time>2019-08-13T10:32:01.774Z</time>
      </trkpt>
      <trkpt lat="44.70246" lon="1.46136">
        <ele>346</ele>
        <time>2019-08-13T10:32:06.760Z</time>
      </trkpt>
      <trkpt lat="44.70238" lon="1.46139">
        <ele>346</ele>
        <time>2019-08-13T10:32:11.772Z</time>
      </trkpt>
      <trkpt lat="44.70233" lon="1.4614">
        <ele>344</ele>
        <time>2019-08-13T10:32:16.758Z</time>
      </trkpt>
      <trkpt lat="44.70228" lon="1.46141">
        <ele>344</ele>
        <time>2019-08-13T10:32:21.764Z</time>
      </trkpt>
      <trkpt lat="44.70224" lon="1.46141">
        <ele>344</ele>
        <time>2019-08-13T10:32:25.773Z</time>
      </trkpt>
      <trkpt lat="44.70221" lon="1.46143">
        <ele>344</ele>
        <time>2019-08-13T10:32:30.778Z</time>
      </trkpt>
      <trkpt lat="44.70217" lon="1.46145">
        <ele>344</ele>
        <time>2019-08-13T10:32:35.771Z</time>
      </trkpt>
      <trkpt lat="44.70212" lon="1.46147">
        <ele>344</ele>
        <time>2019-08-13T10:32:40.770Z</time>
      </trkpt>
      <trkpt lat="44.70205" lon="1.46149">
        <ele>342</ele>
        <time>2019-08-13T10:32:45.771Z</time>
      </trkpt>
      <trkpt lat="44.70198" lon="1.4615">
        <ele>342</ele>
        <time>2019-08-13T10:32:50.761Z</time>
      </trkpt>
      <trkpt lat="44.70191" lon="1.46152">
        <ele>342</ele>
        <time>2019-08-13T10:32:55.769Z</time>
      </trkpt>
      <trkpt lat="44.70185" lon="1.46156">
        <ele>340</ele>
        <time>2019-08-13T10:33:00.767Z</time>
      </trkpt>
      <trkpt lat="44.7018" lon="1.46165">
        <ele>340</ele>
        <time>2019-08-13T10:33:05.766Z</time>
      </trkpt>
      <trkpt lat="44.70178" lon="1.46174">
        <ele>340</ele>
        <time>2019-08-13T10:33:09.763Z</time>
      </trkpt>
      <trkpt lat="44.70175" lon="1.46185">
        <ele>338</ele>
        <time>2019-08-13T10:33:14.776Z</time>
      </trkpt>
      <trkpt lat="44.70171" lon="1.46195">
        <ele>338</ele>
        <time>2019-08-13T10:33:19.778Z</time>
      </trkpt>
      <trkpt lat="44.70168" lon="1.46204">
        <ele>338</ele>
        <time>2019-08-13T10:33:24.766Z</time>
      </trkpt>
      <trkpt lat="44.70166" lon="1.46211">
        <ele>340</ele>
        <time>2019-08-13T10:33:28.787Z</time>
      </trkpt>
      <trkpt lat="44.70163" lon="1.46216">
        <ele>340</ele>
        <time>2019-08-13T10:33:33.778Z</time>
      </trkpt>
      <trkpt lat="44.70161" lon="1.46217">
        <ele>340</ele>
        <time>2019-08-13T10:33:38.775Z</time>
      </trkpt>
      <trkpt lat="44.70158" lon="1.46222">
        <ele>340</ele>
        <time>2019-08-13T10:33:43.769Z</time>
      </trkpt>
      <trkpt lat="44.70151" lon="1.46228">
        <ele>341</ele>
        <time>2019-08-13T10:33:48.768Z</time>
      </trkpt>
      <trkpt lat="44.70145" lon="1.46235">
        <ele>341</ele>
        <time>2019-08-13T10:33:53.762Z</time>
      </trkpt>
      <trkpt lat="44.70142" lon="1.46239">
        <ele>339</ele>
        <time>2019-08-13T10:33:58.775Z</time>
      </trkpt>
      <trkpt lat="44.70139" lon="1.46243">
        <ele>339</ele>
        <time>2019-08-13T10:34:03.771Z</time>
      </trkpt>
      <trkpt lat="44.70136" lon="1.46247">
        <ele>339</ele>
        <time>2019-08-13T10:34:07.773Z</time>
      </trkpt>
      <trkpt lat="44.70131" lon="1.46257">
        <ele>339</ele>
        <time>2019-08-13T10:34:12.751Z</time>
      </trkpt>
      <trkpt lat="44.7013" lon="1.46259">
        <ele>339</ele>
        <time>2019-08-13T10:34:16.782Z</time>
      </trkpt>
      <trkpt lat="44.70128" lon="1.46269">
        <ele>337</ele>
        <time>2019-08-13T10:34:21.754Z</time>
      </trkpt>
      <trkpt lat="44.70125" lon="1.46279">
        <ele>337</ele>
        <time>2019-08-13T10:34:26.770Z</time>
      </trkpt>
      <trkpt lat="44.70123" lon="1.46287">
        <ele>337</ele>
        <time>2019-08-13T10:34:31.769Z</time>
      </trkpt>
      <trkpt lat="44.7012" lon="1.46296">
        <ele>335</ele>
        <time>2019-08-13T10:34:36.771Z</time>
      </trkpt>
      <trkpt lat="44.70119" lon="1.46302">
        <ele>335</ele>
        <time>2019-08-13T10:34:41.758Z</time>
      </trkpt>
      <trkpt lat="44.70119" lon="1.46307">
        <ele>335</ele>
        <time>2019-08-13T10:34:45.782Z</time>
      </trkpt>
      <trkpt lat="44.70117" lon="1.46317">
        <ele>335</ele>
        <time>2019-08-13T10:34:50.768Z</time>
      </trkpt>
      <trkpt lat="44.70116" lon="1.46323">
        <ele>333</ele>
        <time>2019-08-13T10:34:55.766Z</time>
      </trkpt>
      <trkpt lat="44.70116" lon="1.4633">
        <ele>333</ele>
        <time>2019-08-13T10:35:00.763Z</time>
      </trkpt>
      <trkpt lat="44.70117" lon="1.46335">
        <ele>333</ele>
        <time>2019-08-13T10:35:04.777Z</time>
      </trkpt>
      <trkpt lat="44.70116" lon="1.4634">
        <ele>333</ele>
        <time>2019-08-13T10:35:08.765Z</time>
      </trkpt>
      <trkpt lat="44.70114" lon="1.46347">
        <ele>333</ele>
        <time>2019-08-13T10:35:13.761Z</time>
      </trkpt>
      <trkpt lat="44.70113" lon="1.46354">
        <ele>330</ele>
        <time>2019-08-13T10:35:18.772Z</time>
      </trkpt>
      <trkpt lat="44.70111" lon="1.46362">
        <ele>330</ele>
        <time>2019-08-13T10:35:23.771Z</time>
      </trkpt>
      <trkpt lat="44.70109" lon="1.46371">
        <ele>330</ele>
        <time>2019-08-13T10:35:28.769Z</time>
      </trkpt>
      <trkpt lat="44.70106" lon="1.46379">
        <ele>327</ele>
        <time>2019-08-13T10:35:33.765Z</time>
      </trkpt>
      <trkpt lat="44.70107" lon="1.46383">
        <ele>327</ele>
        <time>2019-08-13T10:35:38.763Z</time>
      </trkpt>
      <trkpt lat="44.70106" lon="1.46393">
        <ele>327</ele>
        <time>2019-08-13T10:35:43.761Z</time>
      </trkpt>
      <trkpt lat="44.70105" lon="1.464">
        <ele>327</ele>
        <time>2019-08-13T10:35:47.770Z</time>
      </trkpt>
      <trkpt lat="44.70103" lon="1.46406">
        <ele>325</ele>
        <time>2019-08-13T10:35:52.774Z</time>
      </trkpt>
      <trkpt lat="44.70099" lon="1.46415">
        <ele>325</ele>
        <time>2019-08-13T10:35:57.781Z</time>
      </trkpt>
      <trkpt lat="44.70096" lon="1.46426">
        <ele>326</ele>
        <time>2019-08-13T10:36:02.767Z</time>
      </trkpt>
      <trkpt lat="44.70094" lon="1.46433">
        <ele>324</ele>
        <time>2019-08-13T10:36:06.771Z</time>
      </trkpt>
      <trkpt lat="44.70091" lon="1.4644">
        <ele>324</ele>
        <time>2019-08-13T10:36:11.775Z</time>
      </trkpt>
      <trkpt lat="44.70089" lon="1.46445">
        <ele>324</ele>
        <time>2019-08-13T10:36:16.763Z</time>
      </trkpt>
      <trkpt lat="44.70087" lon="1.4645">
        <ele>324</ele>
        <time>2019-08-13T10:36:20.769Z</time>
      </trkpt>
      <trkpt lat="44.70082" lon="1.4646">
        <ele>322</ele>
        <time>2019-08-13T10:36:25.767Z</time>
      </trkpt>
      <trkpt lat="44.7008" lon="1.46471">
        <ele>322</ele>
        <time>2019-08-13T10:36:30.767Z</time>
      </trkpt>
      <trkpt lat="44.70077" lon="1.46479">
        <ele>322</ele>
        <time>2019-08-13T10:36:35.775Z</time>
      </trkpt>
      <trkpt lat="44.70074" lon="1.46487">
        <ele>322</ele>
        <time>2019-08-13T10:36:40.741Z</time>
      </trkpt>
      <trkpt lat="44.70072" lon="1.4649">
        <ele>322</ele>
        <time>2019-08-13T10:36:44.759Z</time>
      </trkpt>
      <trkpt lat="44.70069" lon="1.46495">
        <ele>322</ele>
        <time>2019-08-13T10:36:48.770Z</time>
      </trkpt>
      <trkpt lat="44.70065" lon="1.46502">
        <ele>322</ele>
        <time>2019-08-13T10:36:53.769Z</time>
      </trkpt>
      <trkpt lat="44.70062" lon="1.46508">
        <ele>322</ele>
        <time>2019-08-13T10:36:58.765Z</time>
      </trkpt>
      <trkpt lat="44.70059" lon="1.46513">
        <ele>322</ele>
        <time>2019-08-13T10:37:02.775Z</time>
      </trkpt>
      <trkpt lat="44.70055" lon="1.4652">
        <ele>321</ele>
        <time>2019-08-13T10:37:07.767Z</time>
      </trkpt>
      <trkpt lat="44.70053" lon="1.46527">
        <ele>321</ele>
        <time>2019-08-13T10:37:12.769Z</time>
      </trkpt>
      <trkpt lat="44.70053" lon="1.46536">
        <ele>321</ele>
        <time>2019-08-13T10:37:17.768Z</time>
      </trkpt>
      <trkpt lat="44.70052" lon="1.46542">
        <ele>322</ele>
        <time>2019-08-13T10:37:22.768Z</time>
      </trkpt>
      <trkpt lat="44.7005" lon="1.46548">
        <ele>322</ele>
        <time>2019-08-13T10:37:26.758Z</time>
      </trkpt>
      <trkpt lat="44.70048" lon="1.46557">
        <ele>322</ele>
        <time>2019-08-13T10:37:31.768Z</time>
      </trkpt>
      <trkpt lat="44.70044" lon="1.46564">
        <ele>322</ele>
        <time>2019-08-13T10:37:36.760Z</time>
      </trkpt>
      <trkpt lat="44.70039" lon="1.46574">
        <ele>319</ele>
        <time>2019-08-13T10:37:41.765Z</time>
      </trkpt>
      <trkpt lat="44.70034" lon="1.46584">
        <ele>319</ele>
        <time>2019-08-13T10:37:46.764Z</time>
      </trkpt>
      <trkpt lat="44.70031" lon="1.46589">
        <ele>319</ele>
        <time>2019-08-13T10:37:50.768Z</time>
      </trkpt>
      <trkpt lat="44.70027" lon="1.46595">
        <ele>319</ele>
        <time>2019-08-13T10:37:55.765Z</time>
      </trkpt>
      <trkpt lat="44.70024" lon="1.466">
        <ele>322</ele>
        <time>2019-08-13T10:38:00.774Z</time>
      </trkpt>
      <trkpt lat="44.70021" lon="1.46604">
        <ele>322</ele>
        <time>2019-08-13T10:38:05.761Z</time>
      </trkpt>
      <trkpt lat="44.70017" lon="1.4661">
        <ele>322</ele>
        <time>2019-08-13T10:38:10.767Z</time>
      </trkpt>
      <trkpt lat="44.70013" lon="1.46612">
        <ele>318</ele>
        <time>2019-08-13T10:38:14.764Z</time>
      </trkpt>
      <trkpt lat="44.70009" lon="1.46615">
        <ele>318</ele>
        <time>2019-08-13T10:38:19.760Z</time>
      </trkpt>
      <trkpt lat="44.70005" lon="1.46618">
        <ele>318</ele>
        <time>2019-08-13T10:38:24.764Z</time>
      </trkpt>
      <trkpt lat="44.7" lon="1.46625">
        <ele>318</ele>
        <time>2019-08-13T10:38:28.758Z</time>
      </trkpt>
      <trkpt lat="44.69995" lon="1.4663">
        <ele>321</ele>
        <time>2019-08-13T10:38:33.763Z</time>
      </trkpt>
      <trkpt lat="44.69991" lon="1.46634">
        <ele>321</ele>
        <time>2019-08-13T10:38:38.761Z</time>
      </trkpt>
      <trkpt lat="44.69986" lon="1.46637">
        <ele>321</ele>
        <time>2019-08-13T10:38:43.750Z</time>
      </trkpt>
      <trkpt lat="44.69982" lon="1.46641">
        <ele>318</ele>
        <time>2019-08-13T10:38:47.762Z</time>
      </trkpt>
      <trkpt lat="44.69977" lon="1.46645">
        <ele>318</ele>
        <time>2019-08-13T10:38:52.770Z</time>
      </trkpt>
      <trkpt lat="44.69971" lon="1.4665">
        <ele>318</ele>
        <time>2019-08-13T10:38:57.758Z</time>
      </trkpt>
      <trkpt lat="44.69966" lon="1.46656">
        <ele>321</ele>
        <time>2019-08-13T10:39:02.758Z</time>
      </trkpt>
      <trkpt lat="44.69962" lon="1.46658">
        <ele>321</ele>
        <time>2019-08-13T10:39:06.774Z</time>
      </trkpt>
      <trkpt lat="44.69956" lon="1.46665">
        <ele>317</ele>
        <time>2019-08-13T10:39:11.760Z</time>
      </trkpt>
      <trkpt lat="44.69952" lon="1.46671">
        <ele>317</ele>
        <time>2019-08-13T10:39:16.758Z</time>
      </trkpt>
      <trkpt lat="44.69948" lon="1.46675">
        <ele>317</ele>
        <time>2019-08-13T10:39:21.757Z</time>
      </trkpt>
      <trkpt lat="44.69943" lon="1.46679">
        <ele>317</ele>
        <time>2019-08-13T10:39:26.764Z</time>
      </trkpt>
      <trkpt lat="44.69938" lon="1.46684">
        <ele>318</ele>
        <time>2019-08-13T10:39:31.749Z</time>
      </trkpt>
      <trkpt lat="44.69933" lon="1.46689">
        <ele>318</ele>
        <time>2019-08-13T10:39:36.763Z</time>
      </trkpt>
      <trkpt lat="44.6993" lon="1.4669">
        <ele>313</ele>
        <time>2019-08-13T10:39:40.769Z</time>
      </trkpt>
      <trkpt lat="44.69928" lon="1.46694">
        <ele>313</ele>
        <time>2019-08-13T10:39:45.757Z</time>
      </trkpt>
      <trkpt lat="44.69926" lon="1.467">
        <ele>313</ele>
        <time>2019-08-13T10:39:50.760Z</time>
      </trkpt>
      <trkpt lat="44.69922" lon="1.46711">
        <ele>313</ele>
        <time>2019-08-13T10:39:54.759Z</time>
      </trkpt>
      <trkpt lat="44.6992" lon="1.4672">
        <ele>313</ele>
        <time>2019-08-13T10:39:58.771Z</time>
      </trkpt>
      <trkpt lat="44.69917" lon="1.46731">
        <ele>313</ele>
        <time>2019-08-13T10:40:03.762Z</time>
      </trkpt>
      <trkpt lat="44.69915" lon="1.4674">
        <ele>314</ele>
        <time>2019-08-13T10:40:08.771Z</time>
      </trkpt>
      <trkpt lat="44.69912" lon="1.4675">
        <ele>314</ele>
        <time>2019-08-13T10:40:13.769Z</time>
      </trkpt>
      <trkpt lat="44.69911" lon="1.46756">
        <ele>314</ele>
        <time>2019-08-13T10:40:18.765Z</time>
      </trkpt>
      <trkpt lat="44.6991" lon="1.46763">
        <ele>314</ele>
        <time>2019-08-13T10:40:23.768Z</time>
      </trkpt>
      <trkpt lat="44.69907" lon="1.46771">
        <ele>314</ele>
        <time>2019-08-13T10:40:28.775Z</time>
      </trkpt>
      <trkpt lat="44.69903" lon="1.46777">
        <ele>314</ele>
        <time>2019-08-13T10:40:33.760Z</time>
      </trkpt>
      <trkpt lat="44.69899" lon="1.46784">
        <ele>309</ele>
        <time>2019-08-13T10:40:38.755Z</time>
      </trkpt>
      <trkpt lat="44.69895" lon="1.46793">
        <ele>308</ele>
        <time>2019-08-13T10:40:43.770Z</time>
      </trkpt>
      <trkpt lat="44.69892" lon="1.46799">
        <ele>308</ele>
        <time>2019-08-13T10:40:48.763Z</time>
      </trkpt>
      <trkpt lat="44.69889" lon="1.46805">
        <ele>308</ele>
        <time>2019-08-13T10:40:53.746Z</time>
      </trkpt>
      <trkpt lat="44.69887" lon="1.46807">
        <ele>308</ele>
        <time>2019-08-13T10:40:57.755Z</time>
      </trkpt>
      <trkpt lat="44.69881" lon="1.46814">
        <ele>308</ele>
        <time>2019-08-13T10:41:02.764Z</time>
      </trkpt>
      <trkpt lat="44.69874" lon="1.46819">
        <ele>305</ele>
        <time>2019-08-13T10:41:07.757Z</time>
      </trkpt>
      <trkpt lat="44.69873" lon="1.46822">
        <ele>304</ele>
        <time>2019-08-13T10:41:11.755Z</time>
      </trkpt>
      <trkpt lat="44.69866" lon="1.46824">
        <ele>304</ele>
        <time>2019-08-13T10:41:16.762Z</time>
      </trkpt>
      <trkpt lat="44.69861" lon="1.4683">
        <ele>304</ele>
        <time>2019-08-13T10:41:21.754Z</time>
      </trkpt>
      <trkpt lat="44.69852" lon="1.46833">
        <ele>304</ele>
        <time>2019-08-13T10:41:26.768Z</time>
      </trkpt>
      <trkpt lat="44.69845" lon="1.46836">
        <ele>302</ele>
        <time>2019-08-13T10:41:31.745Z</time>
      </trkpt>
      <trkpt lat="44.69841" lon="1.46839">
        <ele>302</ele>
        <time>2019-08-13T10:41:35.758Z</time>
      </trkpt>
      <trkpt lat="44.69839" lon="1.46841">
        <ele>302</ele>
        <time>2019-08-13T10:41:40.765Z</time>
      </trkpt>
      <trkpt lat="44.69833" lon="1.46846">
        <ele>302</ele>
        <time>2019-08-13T10:41:45.761Z</time>
      </trkpt>
      <trkpt lat="44.69827" lon="1.46855">
        <ele>304</ele>
        <time>2019-08-13T10:41:50.768Z</time>
      </trkpt>
      <trkpt lat="44.69822" lon="1.46859">
        <ele>304</ele>
        <time>2019-08-13T10:41:54.772Z</time>
      </trkpt>
      <trkpt lat="44.69815" lon="1.46862">
        <ele>304</ele>
        <time>2019-08-13T10:41:59.744Z</time>
      </trkpt>
      <trkpt lat="44.6981" lon="1.46864">
        <ele>304</ele>
        <time>2019-08-13T10:42:04.771Z</time>
      </trkpt>
      <trkpt lat="44.69805" lon="1.46868">
        <ele>304</ele>
        <time>2019-08-13T10:42:09.754Z</time>
      </trkpt>
      <trkpt lat="44.69799" lon="1.4687">
        <ele>304</ele>
        <time>2019-08-13T10:42:14.767Z</time>
      </trkpt>
      <trkpt lat="44.69797" lon="1.46871">
        <ele>304</ele>
        <time>2019-08-13T10:42:19.745Z</time>
      </trkpt>
      <trkpt lat="44.69792" lon="1.46873">
        <ele>304</ele>
        <time>2019-08-13T10:42:23.761Z</time>
      </trkpt>
      <trkpt lat="44.69785" lon="1.46875">
        <ele>305</ele>
        <time>2019-08-13T10:42:28.776Z</time>
      </trkpt>
      <trkpt lat="44.69778" lon="1.46876">
        <ele>305</ele>
        <time>2019-08-13T10:42:33.756Z</time>
      </trkpt>
      <trkpt lat="44.69772" lon="1.46879">
        <ele>305</ele>
        <time>2019-08-13T10:42:38.766Z</time>
      </trkpt>
      <trkpt lat="44.69766" lon="1.46882">
        <ele>305</ele>
        <time>2019-08-13T10:42:43.752Z</time>
      </trkpt>
      <trkpt lat="44.69762" lon="1.46883">
        <ele>303</ele>
        <time>2019-08-13T10:42:48.769Z</time>
      </trkpt>
      <trkpt lat="44.6976" lon="1.46885">
        <ele>303</ele>
        <time>2019-08-13T10:42:53.758Z</time>
      </trkpt>
      <trkpt lat="44.69755" lon="1.46887">
        <ele>303</ele>
        <time>2019-08-13T10:42:57.750Z</time>
      </trkpt>
      <trkpt lat="44.6975" lon="1.46888">
        <ele>303</ele>
        <time>2019-08-13T10:43:02.765Z</time>
      </trkpt>
      <trkpt lat="44.69745" lon="1.4689">
        <ele>303</ele>
        <time>2019-08-13T10:43:07.745Z</time>
      </trkpt>
      <trkpt lat="44.69742" lon="1.46891">
        <ele>303</ele>
        <time>2019-08-13T10:43:12.770Z</time>
      </trkpt>
      <trkpt lat="44.6974" lon="1.46892">
        <ele>303</ele>
        <time>2019-08-13T10:43:17.754Z</time>
      </trkpt>
      <trkpt lat="44.69734" lon="1.46896">
        <ele>301</ele>
        <time>2019-08-13T10:43:22.756Z</time>
      </trkpt>
      <trkpt lat="44.69729" lon="1.46901">
        <ele>301</ele>
        <time>2019-08-13T10:43:26.757Z</time>
      </trkpt>
      <trkpt lat="44.69721" lon="1.46912">
        <ele>301</ele>
        <time>2019-08-13T10:43:31.770Z</time>
      </trkpt>
      <trkpt lat="44.69714" lon="1.46919">
        <ele>301</ele>
        <time>2019-08-13T10:43:36.761Z</time>
      </trkpt>
      <trkpt lat="44.69707" lon="1.4693">
        <ele>299</ele>
        <time>2019-08-13T10:43:41.747Z</time>
      </trkpt>
      <trkpt lat="44.69701" lon="1.46938">
        <ele>301</ele>
        <time>2019-08-13T10:43:45.752Z</time>
      </trkpt>
      <trkpt lat="44.69696" lon="1.46947">
        <ele>301</ele>
        <time>2019-08-13T10:43:49.762Z</time>
      </trkpt>
      <trkpt lat="44.69693" lon="1.46952">
        <ele>301</ele>
        <time>2019-08-13T10:43:53.754Z</time>
      </trkpt>
      <trkpt lat="44.69688" lon="1.46959">
        <ele>303</ele>
        <time>2019-08-13T10:43:58.771Z</time>
      </trkpt>
      <trkpt lat="44.69684" lon="1.46968">
        <ele>303</ele>
        <time>2019-08-13T10:44:03.782Z</time>
      </trkpt>
      <trkpt lat="44.69681" lon="1.46977">
        <ele>303</ele>
        <time>2019-08-13T10:44:08.764Z</time>
      </trkpt>
      <trkpt lat="44.69679" lon="1.46987">
        <ele>299</ele>
        <time>2019-08-13T10:44:13.792Z</time>
      </trkpt>
      <trkpt lat="44.69677" lon="1.46991">
        <ele>299</ele>
        <time>2019-08-13T10:44:17.829Z</time>
      </trkpt>
      <trkpt lat="44.69676" lon="1.46996">
        <ele>299</ele>
        <time>2019-08-13T10:44:22.761Z</time>
      </trkpt>
      <trkpt lat="44.69676" lon="1.47">
        <ele>299</ele>
        <time>2019-08-13T10:44:26.772Z</time>
      </trkpt>
      <trkpt lat="44.69674" lon="1.47008">
        <ele>299</ele>
        <time>2019-08-13T10:44:31.760Z</time>
      </trkpt>
      <trkpt lat="44.69674" lon="1.47017">
        <ele>300</ele>
        <time>2019-08-13T10:44:36.767Z</time>
      </trkpt>
      <trkpt lat="44.69673" lon="1.47018">
        <ele>300</ele>
        <time>2019-08-13T10:44:41.794Z</time>
      </trkpt>
      <trkpt lat="44.69671" lon="1.47021">
        <ele>300</ele>
        <time>2019-08-13T10:44:46.753Z</time>
      </trkpt>
      <trkpt lat="44.69668" lon="1.47022">
        <ele>300</ele>
        <time>2019-08-13T10:44:51.751Z</time>
      </trkpt>
      <trkpt lat="44.69659" lon="1.4703">
        <ele>300</ele>
        <time>2019-08-13T10:44:55.774Z</time>
      </trkpt>
      <trkpt lat="44.69649" lon="1.47037">
        <ele>295</ele>
        <time>2019-08-13T10:45:00.769Z</time>
      </trkpt>
      <trkpt lat="44.69644" lon="1.47042">
        <ele>296</ele>
        <time>2019-08-13T10:45:05.762Z</time>
      </trkpt>
      <trkpt lat="44.6964" lon="1.47049">
        <ele>296</ele>
        <time>2019-08-13T10:45:09.765Z</time>
      </trkpt>
      <trkpt lat="44.69636" lon="1.47053">
        <ele>296</ele>
        <time>2019-08-13T10:45:14.764Z</time>
      </trkpt>
      <trkpt lat="44.69629" lon="1.4706">
        <ele>296</ele>
        <time>2019-08-13T10:45:19.756Z</time>
      </trkpt>
      <trkpt lat="44.69624" lon="1.47066">
        <ele>294</ele>
        <time>2019-08-13T10:45:23.763Z</time>
      </trkpt>
      <trkpt lat="44.69621" lon="1.47071">
        <ele>294</ele>
        <time>2019-08-13T10:45:27.815Z</time>
      </trkpt>
      <trkpt lat="44.69614" lon="1.47077">
        <ele>294</ele>
        <time>2019-08-13T10:45:32.758Z</time>
      </trkpt>
      <trkpt lat="44.6961" lon="1.47081">
        <ele>294</ele>
        <time>2019-08-13T10:45:36.758Z</time>
      </trkpt>
      <trkpt lat="44.69604" lon="1.47084">
        <ele>294</ele>
        <time>2019-08-13T10:45:41.764Z</time>
      </trkpt>
      <trkpt lat="44.69598" lon="1.47092">
        <ele>294</ele>
        <time>2019-08-13T10:45:46.751Z</time>
      </trkpt>
      <trkpt lat="44.69594" lon="1.47097">
        <ele>294</ele>
        <time>2019-08-13T10:45:50.765Z</time>
      </trkpt>
      <trkpt lat="44.69588" lon="1.47106">
        <ele>294</ele>
        <time>2019-08-13T10:45:55.748Z</time>
      </trkpt>
      <trkpt lat="44.69586" lon="1.47108">
        <ele>294</ele>
        <time>2019-08-13T10:46:00.766Z</time>
      </trkpt>
      <trkpt lat="44.69583" lon="1.47112">
        <ele>294</ele>
        <time>2019-08-13T10:46:05.761Z</time>
      </trkpt>
      <trkpt lat="44.6958" lon="1.47118">
        <ele>294</ele>
        <time>2019-08-13T10:46:10.757Z</time>
      </trkpt>
      <trkpt lat="44.69579" lon="1.47122">
        <ele>294</ele>
        <time>2019-08-13T10:46:14.764Z</time>
      </trkpt>
      <trkpt lat="44.69577" lon="1.47126">
        <ele>297</ele>
        <time>2019-08-13T10:46:19.751Z</time>
      </trkpt>
      <trkpt lat="44.69573" lon="1.47131">
        <ele>297</ele>
        <time>2019-08-13T10:46:23.756Z</time>
      </trkpt>
      <trkpt lat="44.6957" lon="1.47139">
        <ele>297</ele>
        <time>2019-08-13T10:46:28.767Z</time>
      </trkpt>
      <trkpt lat="44.69566" lon="1.47145">
        <ele>291</ele>
        <time>2019-08-13T10:46:33.826Z</time>
      </trkpt>
      <trkpt lat="44.69563" lon="1.47155">
        <ele>292</ele>
        <time>2019-08-13T10:46:38.758Z</time>
      </trkpt>
      <trkpt lat="44.6956" lon="1.47163">
        <ele>292</ele>
        <time>2019-08-13T10:46:42.757Z</time>
      </trkpt>
      <trkpt lat="44.69558" lon="1.47172">
        <ele>292</ele>
        <time>2019-08-13T10:46:47.754Z</time>
      </trkpt>
      <trkpt lat="44.69553" lon="1.4718">
        <ele>292</ele>
        <time>2019-08-13T10:46:52.740Z</time>
      </trkpt>
      <trkpt lat="44.69551" lon="1.47187">
        <ele>297</ele>
        <time>2019-08-13T10:46:56.770Z</time>
      </trkpt>
      <trkpt lat="44.69547" lon="1.47193">
        <ele>297</ele>
        <time>2019-08-13T10:47:01.760Z</time>
      </trkpt>
      <trkpt lat="44.69544" lon="1.472">
        <ele>297</ele>
        <time>2019-08-13T10:47:06.783Z</time>
      </trkpt>
      <trkpt lat="44.69539" lon="1.47207">
        <ele>290</ele>
        <time>2019-08-13T10:47:11.781Z</time>
      </trkpt>
      <trkpt lat="44.69534" lon="1.47215">
        <ele>292</ele>
        <time>2019-08-13T10:47:16.770Z</time>
      </trkpt>
      <trkpt lat="44.6953" lon="1.47222">
        <ele>292</ele>
        <time>2019-08-13T10:47:21.780Z</time>
      </trkpt>
      <trkpt lat="44.69526" lon="1.47228">
        <ele>292</ele>
        <time>2019-08-13T10:47:26.761Z</time>
      </trkpt>
      <trkpt lat="44.69523" lon="1.47234">
        <ele>292</ele>
        <time>2019-08-13T10:47:31.775Z</time>
      </trkpt>
      <trkpt lat="44.69517" lon="1.47241">
        <ele>297</ele>
        <time>2019-08-13T10:47:36.768Z</time>
      </trkpt>
      <trkpt lat="44.69512" lon="1.47246">
        <ele>288</ele>
        <time>2019-08-13T10:47:41.793Z</time>
      </trkpt>
      <trkpt lat="44.69505" lon="1.47256">
        <ele>288</ele>
        <time>2019-08-13T10:47:46.783Z</time>
      </trkpt>
      <trkpt lat="44.69499" lon="1.47264">
        <ele>288</ele>
        <time>2019-08-13T10:47:51.772Z</time>
      </trkpt>
      <trkpt lat="44.69496" lon="1.47269">
        <ele>295</ele>
        <time>2019-08-13T10:47:55.763Z</time>
      </trkpt>
      <trkpt lat="44.69491" lon="1.47275">
        <ele>295</ele>
        <time>2019-08-13T10:47:59.839Z</time>
      </trkpt>
      <trkpt lat="44.69488" lon="1.47281">
        <ele>295</ele>
        <time>2019-08-13T10:48:04.768Z</time>
      </trkpt>
      <trkpt lat="44.69484" lon="1.47284">
        <ele>286</ele>
        <time>2019-08-13T10:48:09.763Z</time>
      </trkpt>
      <trkpt lat="44.6948" lon="1.47287">
        <ele>286</ele>
        <time>2019-08-13T10:48:13.766Z</time>
      </trkpt>
      <trkpt lat="44.69476" lon="1.47291">
        <ele>286</ele>
        <time>2019-08-13T10:48:17.775Z</time>
      </trkpt>
      <trkpt lat="44.6947" lon="1.47298">
        <ele>291</ele>
        <time>2019-08-13T10:48:22.772Z</time>
      </trkpt>
      <trkpt lat="44.69463" lon="1.47303">
        <ele>291</ele>
        <time>2019-08-13T10:48:27.871Z</time>
      </trkpt>
      <trkpt lat="44.6946" lon="1.47306">
        <ele>291</ele>
        <time>2019-08-13T10:48:32.765Z</time>
      </trkpt>
      <trkpt lat="44.69458" lon="1.47308">
        <ele>291</ele>
        <time>2019-08-13T10:48:36.754Z</time>
      </trkpt>
      <trkpt lat="44.69456" lon="1.47314">
        <ele>285</ele>
        <time>2019-08-13T10:48:41.772Z</time>
      </trkpt>
      <trkpt lat="44.69451" lon="1.47319">
        <ele>285</ele>
        <time>2019-08-13T10:48:46.765Z</time>
      </trkpt>
      <trkpt lat="44.69448" lon="1.47323">
        <ele>288</ele>
        <time>2019-08-13T10:48:51.769Z</time>
      </trkpt>
      <trkpt lat="44.69445" lon="1.47328">
        <ele>288</ele>
        <time>2019-08-13T10:48:55.804Z</time>
      </trkpt>
      <trkpt lat="44.69441" lon="1.47334">
        <ele>288</ele>
        <time>2019-08-13T10:49:00.756Z</time>
      </trkpt>
      <trkpt lat="44.69435" lon="1.4734">
        <ele>288</ele>
        <time>2019-08-13T10:49:05.762Z</time>
      </trkpt>
      <trkpt lat="44.69431" lon="1.47345">
        <ele>288</ele>
        <time>2019-08-13T10:49:09.841Z</time>
      </trkpt>
      <trkpt lat="44.69424" lon="1.47349">
        <ele>285</ele>
        <time>2019-08-13T10:49:14.774Z</time>
      </trkpt>
      <trkpt lat="44.69418" lon="1.47352">
        <ele>285</ele>
        <time>2019-08-13T10:49:19.809Z</time>
      </trkpt>
      <trkpt lat="44.69414" lon="1.47357">
        <ele>285</ele>
        <time>2019-08-13T10:49:23.837Z</time>
      </trkpt>
      <trkpt lat="44.69408" lon="1.47362">
        <ele>285</ele>
        <time>2019-08-13T10:49:28.757Z</time>
      </trkpt>
      <trkpt lat="44.69404" lon="1.47366">
        <ele>285</ele>
        <time>2019-08-13T10:49:33.777Z</time>
      </trkpt>
      <trkpt lat="44.694" lon="1.47368">
        <ele>280</ele>
        <time>2019-08-13T10:49:37.801Z</time>
      </trkpt>
      <trkpt lat="44.69393" lon="1.47371">
        <ele>280</ele>
        <time>2019-08-13T10:49:42.764Z</time>
      </trkpt>
      <trkpt lat="44.69388" lon="1.47374">
        <ele>280</ele>
        <time>2019-08-13T10:49:46.771Z</time>
      </trkpt>
      <trkpt lat="44.69381" lon="1.47378">
        <ele>286</ele>
        <time>2019-08-13T10:49:51.765Z</time>
      </trkpt>
      <trkpt lat="44.69377" lon="1.4738">
        <ele>286</ele>
        <time>2019-08-13T10:49:55.785Z</time>
      </trkpt>
      <trkpt lat="44.69372" lon="1.47383">
        <ele>282</ele>
        <time>2019-08-13T10:50:00.756Z</time>
      </trkpt>
      <trkpt lat="44.69367" lon="1.47388">
        <ele>282</ele>
        <time>2019-08-13T10:50:05.767Z</time>
      </trkpt>
      <trkpt lat="44.69362" lon="1.47392">
        <ele>282</ele>
        <time>2019-08-13T10:50:09.790Z</time>
      </trkpt>
      <trkpt lat="44.69356" lon="1.47394">
        <ele>282</ele>
        <time>2019-08-13T10:50:13.806Z</time>
      </trkpt>
      <trkpt lat="44.69349" lon="1.47398">
        <ele>282</ele>
        <time>2019-08-13T10:50:18.769Z</time>
      </trkpt>
      <trkpt lat="44.69343" lon="1.47402">
        <ele>279</ele>
        <time>2019-08-13T10:50:23.822Z</time>
      </trkpt>
      <trkpt lat="44.69337" lon="1.47406">
        <ele>282</ele>
        <time>2019-08-13T10:50:28.761Z</time>
      </trkpt>
      <trkpt lat="44.69331" lon="1.47408">
        <ele>282</ele>
        <time>2019-08-13T10:50:33.819Z</time>
      </trkpt>
      <trkpt lat="44.69325" lon="1.47411">
        <ele>282</ele>
        <time>2019-08-13T10:50:38.760Z</time>
      </trkpt>
      <trkpt lat="44.69321" lon="1.47412">
        <ele>282</ele>
        <time>2019-08-13T10:50:42.750Z</time>
      </trkpt>
      <trkpt lat="44.69317" lon="1.47413">
        <ele>279</ele>
        <time>2019-08-13T10:50:46.768Z</time>
      </trkpt>
      <trkpt lat="44.69315" lon="1.47414">
        <ele>279</ele>
        <time>2019-08-13T10:50:50.764Z</time>
      </trkpt>
      <trkpt lat="44.69309" lon="1.47417">
        <ele>279</ele>
        <time>2019-08-13T10:50:55.767Z</time>
      </trkpt>
      <trkpt lat="44.69305" lon="1.47418">
        <ele>279</ele>
        <time>2019-08-13T10:50:59.793Z</time>
      </trkpt>
      <trkpt lat="44.69301" lon="1.47419">
        <ele>279</ele>
        <time>2019-08-13T10:51:04.761Z</time>
      </trkpt>
      <trkpt lat="44.69296" lon="1.47423">
        <ele>279</ele>
        <time>2019-08-13T10:51:09.785Z</time>
      </trkpt>
      <trkpt lat="44.69288" lon="1.47427">
        <ele>278</ele>
        <time>2019-08-13T10:51:14.767Z</time>
      </trkpt>
      <trkpt lat="44.69282" lon="1.47429">
        <ele>278</ele>
        <time>2019-08-13T10:51:19.789Z</time>
      </trkpt>
      <trkpt lat="44.69277" lon="1.4743">
        <ele>278</ele>
        <time>2019-08-13T10:51:23.763Z</time>
      </trkpt>
      <trkpt lat="44.69271" lon="1.47433">
        <ele>281</ele>
        <time>2019-08-13T10:51:28.765Z</time>
      </trkpt>
      <trkpt lat="44.69264" lon="1.47436">
        <ele>281</ele>
        <time>2019-08-13T10:51:33.787Z</time>
      </trkpt>
      <trkpt lat="44.69259" lon="1.47438">
        <ele>276</ele>
        <time>2019-08-13T10:51:37.779Z</time>
      </trkpt>
      <trkpt lat="44.69254" lon="1.47442">
        <ele>276</ele>
        <time>2019-08-13T10:51:42.763Z</time>
      </trkpt>
      <trkpt lat="44.69251" lon="1.47445">
        <ele>276</ele>
        <time>2019-08-13T10:51:46.766Z</time>
      </trkpt>
      <trkpt lat="44.69246" lon="1.47448">
        <ele>276</ele>
        <time>2019-08-13T10:51:50.772Z</time>
      </trkpt>
      <trkpt lat="44.69239" lon="1.47453">
        <ele>276</ele>
        <time>2019-08-13T10:51:55.766Z</time>
      </trkpt>
      <trkpt lat="44.69234" lon="1.47457">
        <ele>272</ele>
        <time>2019-08-13T10:52:00.766Z</time>
      </trkpt>
      <trkpt lat="44.69229" lon="1.47462">
        <ele>274</ele>
        <time>2019-08-13T10:52:04.763Z</time>
      </trkpt>
      <trkpt lat="44.69222" lon="1.47467">
        <ele>274</ele>
        <time>2019-08-13T10:52:09.739Z</time>
      </trkpt>
      <trkpt lat="44.69218" lon="1.47471">
        <ele>274</ele>
        <time>2019-08-13T10:52:13.760Z</time>
      </trkpt>
      <trkpt lat="44.69213" lon="1.47476">
        <ele>274</ele>
        <time>2019-08-13T10:52:18.759Z</time>
      </trkpt>
      <trkpt lat="44.69206" lon="1.47479">
        <ele>271</ele>
        <time>2019-08-13T10:52:23.754Z</time>
      </trkpt>
      <trkpt lat="44.69199" lon="1.47483">
        <ele>271</ele>
        <time>2019-08-13T10:52:28.742Z</time>
      </trkpt>
      <trkpt lat="44.69194" lon="1.47488">
        <ele>275</ele>
        <time>2019-08-13T10:52:33.765Z</time>
      </trkpt>
      <trkpt lat="44.6919" lon="1.47493">
        <ele>275</ele>
        <time>2019-08-13T10:52:38.756Z</time>
      </trkpt>
      <trkpt lat="44.69182" lon="1.47499">
        <ele>275</ele>
        <time>2019-08-13T10:52:43.791Z</time>
      </trkpt>
      <trkpt lat="44.69176" lon="1.47504">
        <ele>272</ele>
        <time>2019-08-13T10:52:48.767Z</time>
      </trkpt>
      <trkpt lat="44.6917" lon="1.47508">
        <ele>272</ele>
        <time>2019-08-13T10:52:53.765Z</time>
      </trkpt>
      <trkpt lat="44.69165" lon="1.47511">
        <ele>272</ele>
        <time>2019-08-13T10:52:57.793Z</time>
      </trkpt>
      <trkpt lat="44.69159" lon="1.47518">
        <ele>275</ele>
        <time>2019-08-13T10:53:02.754Z</time>
      </trkpt>
      <trkpt lat="44.69155" lon="1.47524">
        <ele>275</ele>
        <time>2019-08-13T10:53:07.759Z</time>
      </trkpt>
      <trkpt lat="44.6915" lon="1.47528">
        <ele>271</ele>
        <time>2019-08-13T10:53:11.768Z</time>
      </trkpt>
      <trkpt lat="44.69146" lon="1.47533">
        <ele>271</ele>
        <time>2019-08-13T10:53:16.670Z</time>
      </trkpt>
      <trkpt lat="44.69142" lon="1.47537">
        <ele>271</ele>
        <time>2019-08-13T10:53:20.756Z</time>
      </trkpt>
      <trkpt lat="44.69139" lon="1.47542">
        <ele>271</ele>
        <time>2019-08-13T10:53:24.766Z</time>
      </trkpt>
      <trkpt lat="44.69137" lon="1.47547">
        <ele>275</ele>
        <time>2019-08-13T10:53:28.773Z</time>
      </trkpt>
      <trkpt lat="44.69134" lon="1.47553">
        <ele>275</ele>
        <time>2019-08-13T10:53:33.776Z</time>
      </trkpt>
      <trkpt lat="44.69132" lon="1.47557">
        <ele>275</ele>
        <time>2019-08-13T10:53:38.763Z</time>
      </trkpt>
      <trkpt lat="44.69126" lon="1.47565">
        <ele>275</ele>
        <time>2019-08-13T10:53:43.754Z</time>
      </trkpt>
      <trkpt lat="44.69123" lon="1.47569">
        <ele>273</ele>
        <time>2019-08-13T10:53:47.760Z</time>
      </trkpt>
      <trkpt lat="44.69119" lon="1.47574">
        <ele>276</ele>
        <time>2019-08-13T10:53:52.761Z</time>
      </trkpt>
      <trkpt lat="44.69115" lon="1.47578">
        <ele>276</ele>
        <time>2019-08-13T10:53:56.760Z</time>
      </trkpt>
      <trkpt lat="44.69108" lon="1.47587">
        <ele>276</ele>
        <time>2019-08-13T10:54:01.758Z</time>
      </trkpt>
      <trkpt lat="44.69103" lon="1.47594">
        <ele>276</ele>
        <time>2019-08-13T10:54:06.769Z</time>
      </trkpt>
      <trkpt lat="44.69097" lon="1.47597">
        <ele>273</ele>
        <time>2019-08-13T10:54:11.756Z</time>
      </trkpt>
      <trkpt lat="44.69093" lon="1.47598">
        <ele>276</ele>
        <time>2019-08-13T10:54:15.765Z</time>
      </trkpt>
      <trkpt lat="44.69089" lon="1.47602">
        <ele>276</ele>
        <time>2019-08-13T10:54:20.763Z</time>
      </trkpt>
      <trkpt lat="44.69083" lon="1.47606">
        <ele>276</ele>
        <time>2019-08-13T10:54:25.765Z</time>
      </trkpt>
      <trkpt lat="44.69077" lon="1.47608">
        <ele>276</ele>
        <time>2019-08-13T10:54:30.759Z</time>
      </trkpt>
      <trkpt lat="44.69071" lon="1.47611">
        <ele>276</ele>
        <time>2019-08-13T10:54:34.768Z</time>
      </trkpt>
      <trkpt lat="44.69063" lon="1.47618">
        <ele>273</ele>
        <time>2019-08-13T10:54:39.775Z</time>
      </trkpt>
      <trkpt lat="44.69058" lon="1.47618">
        <ele>273</ele>
        <time>2019-08-13T10:54:44.769Z</time>
      </trkpt>
      <trkpt lat="44.69053" lon="1.47618">
        <ele>273</ele>
        <time>2019-08-13T10:54:49.775Z</time>
      </trkpt>
      <trkpt lat="44.69046" lon="1.47622">
        <ele>273</ele>
        <time>2019-08-13T10:54:54.773Z</time>
      </trkpt>
      <trkpt lat="44.69039" lon="1.47627">
        <ele>273</ele>
        <time>2019-08-13T10:54:59.758Z</time>
      </trkpt>
      <trkpt lat="44.69033" lon="1.47633">
        <ele>273</ele>
        <time>2019-08-13T10:55:43.749Z</time>
      </trkpt>
      <trkpt lat="44.69033" lon="1.47633">
        <ele>273</ele>
        <time>2019-08-13T10:55:47.761Z</time>
      </trkpt>
      <trkpt lat="44.69033" lon="1.47632">
        <ele>273</ele>
        <time>2019-08-13T10:55:52.745Z</time>
      </trkpt>
      <trkpt lat="44.69032" lon="1.47633">
        <ele>273</ele>
        <time>2019-08-13T10:55:56.757Z</time>
      </trkpt>
      <trkpt lat="44.69026" lon="1.47635">
        <ele>273</ele>
        <time>2019-08-13T10:56:00.757Z</time>
      </trkpt>
      <trkpt lat="44.6902" lon="1.4764">
        <ele>273</ele>
        <time>2019-08-13T10:56:05.760Z</time>
      </trkpt>
      <trkpt lat="44.69015" lon="1.47644">
        <ele>273</ele>
        <time>2019-08-13T10:56:10.766Z</time>
      </trkpt>
      <trkpt lat="44.69012" lon="1.47647">
        <ele>269</ele>
        <time>2019-08-13T10:56:15.741Z</time>
      </trkpt>
      <trkpt lat="44.6901" lon="1.47648">
        <ele>269</ele>
        <time>2019-08-13T10:56:19.770Z</time>
      </trkpt>
      <trkpt lat="44.69005" lon="1.47651">
        <ele>269</ele>
        <time>2019-08-13T10:56:24.763Z</time>
      </trkpt>
      <trkpt lat="44.69001" lon="1.47655">
        <ele>272</ele>
        <time>2019-08-13T10:56:28.764Z</time>
      </trkpt>
      <trkpt lat="44.69" lon="1.47654">
        <ele>272</ele>
        <time>2019-08-13T10:56:33.762Z</time>
      </trkpt>
      <trkpt lat="44.69" lon="1.47654">
        <ele>272</ele>
        <time>2019-08-13T10:56:38.763Z</time>
      </trkpt>
      <trkpt lat="44.68996" lon="1.47657">
        <ele>272</ele>
        <time>2019-08-13T10:56:43.762Z</time>
      </trkpt>
      <trkpt lat="44.68992" lon="1.4766">
        <ele>272</ele>
        <time>2019-08-13T10:56:47.765Z</time>
      </trkpt>
      <trkpt lat="44.68987" lon="1.47665">
        <ele>272</ele>
        <time>2019-08-13T10:56:51.756Z</time>
      </trkpt>
      <trkpt lat="44.68981" lon="1.4767">
        <ele>269</ele>
        <time>2019-08-13T10:56:56.760Z</time>
      </trkpt>
      <trkpt lat="44.68977" lon="1.47677">
        <ele>269</ele>
        <time>2019-08-13T10:57:00.762Z</time>
      </trkpt>
      <trkpt lat="44.68972" lon="1.47684">
        <ele>272</ele>
        <time>2019-08-13T10:57:05.747Z</time>
      </trkpt>
      <trkpt lat="44.68968" lon="1.47689">
        <ele>272</ele>
        <time>2019-08-13T10:57:09.766Z</time>
      </trkpt>
      <trkpt lat="44.68962" lon="1.47695">
        <ele>272</ele>
        <time>2019-08-13T10:57:14.769Z</time>
      </trkpt>
      <trkpt lat="44.68957" lon="1.47702">
        <ele>271</ele>
        <time>2019-08-13T10:57:19.763Z</time>
      </trkpt>
      <trkpt lat="44.68951" lon="1.4771">
        <ele>272</ele>
        <time>2019-08-13T10:57:24.764Z</time>
      </trkpt>
      <trkpt lat="44.68949" lon="1.47716">
        <ele>272</ele>
        <time>2019-08-13T10:57:28.772Z</time>
      </trkpt>
      <trkpt lat="44.68946" lon="1.47726">
        <ele>272</ele>
        <time>2019-08-13T10:57:33.767Z</time>
      </trkpt>
      <trkpt lat="44.68945" lon="1.47734">
        <ele>272</ele>
        <time>2019-08-13T10:57:38.757Z</time>
      </trkpt>
      <trkpt lat="44.68942" lon="1.47741">
        <ele>274</ele>
        <time>2019-08-13T10:57:43.760Z</time>
      </trkpt>
      <trkpt lat="44.6894" lon="1.47746">
        <ele>274</ele>
        <time>2019-08-13T10:57:47.779Z</time>
      </trkpt>
      <trkpt lat="44.68937" lon="1.47751">
        <ele>274</ele>
        <time>2019-08-13T10:57:52.761Z</time>
      </trkpt>
      <trkpt lat="44.68936" lon="1.47752">
        <ele>274</ele>
        <time>2019-08-13T10:57:56.761Z</time>
      </trkpt>
      <trkpt lat="44.68935" lon="1.47752">
        <ele>274</ele>
        <time>2019-08-13T10:58:01.764Z</time>
      </trkpt>
      <trkpt lat="44.6893" lon="1.47753">
        <ele>268</ele>
        <time>2019-08-13T10:58:06.767Z</time>
      </trkpt>
      <trkpt lat="44.68927" lon="1.47756">
        <ele>268</ele>
        <time>2019-08-13T10:58:11.768Z</time>
      </trkpt>
      <trkpt lat="44.68926" lon="1.47757">
        <ele>268</ele>
        <time>2019-08-13T10:58:15.748Z</time>
      </trkpt>
      <trkpt lat="44.68924" lon="1.47758">
        <ele>268</ele>
        <time>2019-08-13T10:58:24.751Z</time>
      </trkpt>
      <trkpt lat="44.68923" lon="1.47758">
        <ele>268</ele>
        <time>2019-08-13T10:58:29.754Z</time>
      </trkpt>
      <trkpt lat="44.68922" lon="1.4776">
        <ele>268</ele>
        <time>2019-08-13T10:58:34.750Z</time>
      </trkpt>
      <trkpt lat="44.6892" lon="1.47763">
        <ele>268</ele>
        <time>2019-08-13T10:58:38.756Z</time>
      </trkpt>
      <trkpt lat="44.68915" lon="1.47767">
        <ele>271</ele>
        <time>2019-08-13T10:58:43.751Z</time>
      </trkpt>
      <trkpt lat="44.68906" lon="1.47774">
        <ele>271</ele>
        <time>2019-08-13T10:58:48.761Z</time>
      </trkpt>
      <trkpt lat="44.68898" lon="1.4778">
        <ele>265</ele>
        <time>2019-08-13T10:58:53.766Z</time>
      </trkpt>
      <trkpt lat="44.68894" lon="1.47783">
        <ele>265</ele>
        <time>2019-08-13T10:58:57.775Z</time>
      </trkpt>
      <trkpt lat="44.68889" lon="1.47787">
        <ele>265</ele>
        <time>2019-08-13T10:59:02.743Z</time>
      </trkpt>
      <trkpt lat="44.68884" lon="1.47791">
        <ele>265</ele>
        <time>2019-08-13T10:59:06.762Z</time>
      </trkpt>
      <trkpt lat="44.6888" lon="1.47795">
        <ele>270</ele>
        <time>2019-08-13T10:59:11.769Z</time>
      </trkpt>
      <trkpt lat="44.68876" lon="1.478">
        <ele>270</ele>
        <time>2019-08-13T10:59:16.766Z</time>
      </trkpt>
      <trkpt lat="44.68871" lon="1.47807">
        <ele>264</ele>
        <time>2019-08-13T10:59:21.758Z</time>
      </trkpt>
      <trkpt lat="44.68866" lon="1.47814">
        <ele>264</ele>
        <time>2019-08-13T10:59:26.768Z</time>
      </trkpt>
      <trkpt lat="44.68861" lon="1.4782">
        <ele>267</ele>
        <time>2019-08-13T10:59:31.759Z</time>
      </trkpt>
      <trkpt lat="44.68857" lon="1.47827">
        <ele>267</ele>
        <time>2019-08-13T10:59:36.767Z</time>
      </trkpt>
      <trkpt lat="44.68853" lon="1.47835">
        <ele>267</ele>
        <time>2019-08-13T10:59:41.759Z</time>
      </trkpt>
      <trkpt lat="44.68848" lon="1.47842">
        <ele>267</ele>
        <time>2019-08-13T10:59:45.766Z</time>
      </trkpt>
      <trkpt lat="44.68844" lon="1.4785">
        <ele>265</ele>
        <time>2019-08-13T10:59:50.765Z</time>
      </trkpt>
      <trkpt lat="44.68841" lon="1.47858">
        <ele>265</ele>
        <time>2019-08-13T10:59:55.765Z</time>
      </trkpt>
      <trkpt lat="44.68838" lon="1.47865">
        <ele>265</ele>
        <time>2019-08-13T10:59:59.776Z</time>
      </trkpt>
      <trkpt lat="44.68833" lon="1.47874">
        <ele>265</ele>
        <time>2019-08-13T11:00:04.767Z</time>
      </trkpt>
      <trkpt lat="44.68831" lon="1.47879">
        <ele>268</ele>
        <time>2019-08-13T11:00:08.769Z</time>
      </trkpt>
      <trkpt lat="44.68828" lon="1.47886">
        <ele>268</ele>
        <time>2019-08-13T11:00:13.762Z</time>
      </trkpt>
      <trkpt lat="44.68826" lon="1.47891">
        <ele>268</ele>
        <time>2019-08-13T11:00:17.771Z</time>
      </trkpt>
      <trkpt lat="44.68822" lon="1.47898">
        <ele>268</ele>
        <time>2019-08-13T11:00:22.771Z</time>
      </trkpt>
      <trkpt lat="44.68818" lon="1.47904">
        <ele>264</ele>
        <time>2019-08-13T11:00:27.760Z</time>
      </trkpt>
      <trkpt lat="44.68814" lon="1.47911">
        <ele>264</ele>
        <time>2019-08-13T11:00:31.766Z</time>
      </trkpt>
      <trkpt lat="44.68812" lon="1.47916">
        <ele>264</ele>
        <time>2019-08-13T11:00:35.770Z</time>
      </trkpt>
      <trkpt lat="44.68808" lon="1.47921">
        <ele>264</ele>
        <time>2019-08-13T11:00:40.770Z</time>
      </trkpt>
      <trkpt lat="44.68805" lon="1.47925">
        <ele>264</ele>
        <time>2019-08-13T11:00:45.766Z</time>
      </trkpt>
      <trkpt lat="44.68801" lon="1.47931">
        <ele>267</ele>
        <time>2019-08-13T11:00:50.773Z</time>
      </trkpt>
      <trkpt lat="44.68797" lon="1.47937">
        <ele>267</ele>
        <time>2019-08-13T11:00:55.749Z</time>
      </trkpt>
      <trkpt lat="44.68794" lon="1.47943">
        <ele>267</ele>
        <time>2019-08-13T11:00:59.765Z</time>
      </trkpt>
      <trkpt lat="44.6879" lon="1.47951">
        <ele>261</ele>
        <time>2019-08-13T11:01:04.763Z</time>
      </trkpt>
      <trkpt lat="44.68786" lon="1.4796">
        <ele>264</ele>
        <time>2019-08-13T11:01:09.766Z</time>
      </trkpt>
      <trkpt lat="44.6878" lon="1.47967">
        <ele>264</ele>
        <time>2019-08-13T11:01:13.762Z</time>
      </trkpt>
      <trkpt lat="44.68775" lon="1.47976">
        <ele>264</ele>
        <time>2019-08-13T11:01:18.765Z</time>
      </trkpt>
      <trkpt lat="44.6877" lon="1.47982">
        <ele>264</ele>
        <time>2019-08-13T11:01:22.768Z</time>
      </trkpt>
      <trkpt lat="44.68768" lon="1.47985">
        <ele>264</ele>
        <time>2019-08-13T11:01:27.771Z</time>
      </trkpt>
      <trkpt lat="44.68764" lon="1.4799">
        <ele>270</ele>
        <time>2019-08-13T11:01:32.771Z</time>
      </trkpt>
      <trkpt lat="44.68761" lon="1.47994">
        <ele>263</ele>
        <time>2019-08-13T11:01:37.774Z</time>
      </trkpt>
      <trkpt lat="44.68757" lon="1.47999">
        <ele>263</ele>
        <time>2019-08-13T11:01:42.749Z</time>
      </trkpt>
      <trkpt lat="44.68755" lon="1.48003">
        <ele>263</ele>
        <time>2019-08-13T11:01:46.769Z</time>
      </trkpt>
      <trkpt lat="44.6875" lon="1.48009">
        <ele>263</ele>
        <time>2019-08-13T11:01:51.770Z</time>
      </trkpt>
      <trkpt lat="44.68746" lon="1.48013">
        <ele>263</ele>
        <time>2019-08-13T11:01:55.773Z</time>
      </trkpt>
      <trkpt lat="44.68742" lon="1.48019">
        <ele>267</ele>
        <time>2019-08-13T11:02:00.757Z</time>
      </trkpt>
      <trkpt lat="44.68737" lon="1.48023">
        <ele>267</ele>
        <time>2019-08-13T11:02:04.776Z</time>
      </trkpt>
      <trkpt lat="44.68732" lon="1.4803">
        <ele>261</ele>
        <time>2019-08-13T11:02:09.772Z</time>
      </trkpt>
      <trkpt lat="44.68728" lon="1.48036">
        <ele>261</ele>
        <time>2019-08-13T11:02:14.769Z</time>
      </trkpt>
      <trkpt lat="44.68722" lon="1.48042">
        <ele>264</ele>
        <time>2019-08-13T11:02:19.765Z</time>
      </trkpt>
      <trkpt lat="44.68717" lon="1.48051">
        <ele>264</ele>
        <time>2019-08-13T11:02:24.766Z</time>
      </trkpt>
      <trkpt lat="44.68711" lon="1.48058">
        <ele>264</ele>
        <time>2019-08-13T11:02:29.761Z</time>
      </trkpt>
      <trkpt lat="44.68707" lon="1.48068">
        <ele>259</ele>
        <time>2019-08-13T11:02:34.769Z</time>
      </trkpt>
      <trkpt lat="44.68703" lon="1.48074">
        <ele>262</ele>
        <time>2019-08-13T11:02:38.770Z</time>
      </trkpt>
      <trkpt lat="44.68702" lon="1.48077">
        <ele>262</ele>
        <time>2019-08-13T11:02:42.773Z</time>
      </trkpt>
      <trkpt lat="44.68699" lon="1.48082">
        <ele>262</ele>
        <time>2019-08-13T11:02:47.768Z</time>
      </trkpt>
      <trkpt lat="44.68695" lon="1.48087">
        <ele>262</ele>
        <time>2019-08-13T11:02:52.759Z</time>
      </trkpt>
      <trkpt lat="44.68691" lon="1.48095">
        <ele>262</ele>
        <time>2019-08-13T11:02:56.765Z</time>
      </trkpt>
      <trkpt lat="44.68687" lon="1.48102">
        <ele>264</ele>
        <time>2019-08-13T11:03:01.774Z</time>
      </trkpt>
      <trkpt lat="44.68682" lon="1.4811">
        <ele>264</ele>
        <time>2019-08-13T11:03:06.780Z</time>
      </trkpt>
      <trkpt lat="44.68677" lon="1.48119">
        <ele>259</ele>
        <time>2019-08-13T11:03:11.765Z</time>
      </trkpt>
      <trkpt lat="44.68672" lon="1.48129">
        <ele>260</ele>
        <time>2019-08-13T11:03:16.761Z</time>
      </trkpt>
      <trkpt lat="44.68668" lon="1.48138">
        <ele>260</ele>
        <time>2019-08-13T11:03:21.761Z</time>
      </trkpt>
      <trkpt lat="44.68662" lon="1.48144">
        <ele>260</ele>
        <time>2019-08-13T11:03:26.767Z</time>
      </trkpt>
      <trkpt lat="44.68657" lon="1.48149">
        <ele>260</ele>
        <time>2019-08-13T11:03:31.770Z</time>
      </trkpt>
      <trkpt lat="44.68653" lon="1.48153">
        <ele>263</ele>
        <time>2019-08-13T11:03:36.759Z</time>
      </trkpt>
      <trkpt lat="44.6865" lon="1.48156">
        <ele>258</ele>
        <time>2019-08-13T11:03:40.777Z</time>
      </trkpt>
      <trkpt lat="44.68647" lon="1.48162">
        <ele>258</ele>
        <time>2019-08-13T11:03:45.771Z</time>
      </trkpt>
      <trkpt lat="44.68644" lon="1.48167">
        <ele>258</ele>
        <time>2019-08-13T11:03:50.770Z</time>
      </trkpt>
      <trkpt lat="44.68642" lon="1.48172">
        <ele>258</ele>
        <time>2019-08-13T11:03:54.756Z</time>
      </trkpt>
      <trkpt lat="44.68637" lon="1.48175">
        <ele>258</ele>
        <time>2019-08-13T11:03:59.768Z</time>
      </trkpt>
      <trkpt lat="44.68633" lon="1.48178">
        <ele>258</ele>
        <time>2019-08-13T11:04:03.763Z</time>
      </trkpt>
      <trkpt lat="44.68627" lon="1.48181">
        <ele>262</ele>
        <time>2019-08-13T11:04:07.763Z</time>
      </trkpt>
      <trkpt lat="44.6862" lon="1.48185">
        <ele>257</ele>
        <time>2019-08-13T11:04:12.763Z</time>
      </trkpt>
      <trkpt lat="44.68616" lon="1.48187">
        <ele>257</ele>
        <time>2019-08-13T11:04:17.775Z</time>
      </trkpt>
      <trkpt lat="44.68612" lon="1.48191">
        <ele>257</ele>
        <time>2019-08-13T11:04:22.777Z</time>
      </trkpt>
      <trkpt lat="44.68604" lon="1.48196">
        <ele>257</ele>
        <time>2019-08-13T11:04:27.767Z</time>
      </trkpt>
      <trkpt lat="44.68594" lon="1.48202">
        <ele>253</ele>
        <time>2019-08-13T11:04:32.772Z</time>
      </trkpt>
      <trkpt lat="44.68588" lon="1.48204">
        <ele>253</ele>
        <time>2019-08-13T11:04:37.771Z</time>
      </trkpt>
      <trkpt lat="44.68582" lon="1.48204">
        <ele>253</ele>
        <time>2019-08-13T11:04:42.764Z</time>
      </trkpt>
      <trkpt lat="44.68576" lon="1.48202">
        <ele>253</ele>
        <time>2019-08-13T11:04:47.770Z</time>
      </trkpt>
      <trkpt lat="44.68573" lon="1.48197">
        <ele>253</ele>
        <time>2019-08-13T11:04:51.774Z</time>
      </trkpt>
      <trkpt lat="44.68572" lon="1.48188">
        <ele>253</ele>
        <time>2019-08-13T11:04:56.764Z</time>
      </trkpt>
      <trkpt lat="44.68572" lon="1.48179">
        <ele>251</ele>
        <time>2019-08-13T11:05:01.761Z</time>
      </trkpt>
      <trkpt lat="44.68572" lon="1.48167">
        <ele>251</ele>
        <time>2019-08-13T11:05:06.769Z</time>
      </trkpt>
      <trkpt lat="44.68571" lon="1.48162">
        <ele>251</ele>
        <time>2019-08-13T11:05:10.778Z</time>
      </trkpt>
      <trkpt lat="44.6857" lon="1.48154">
        <ele>251</ele>
        <time>2019-08-13T11:05:15.779Z</time>
      </trkpt>
      <trkpt lat="44.68567" lon="1.48149">
        <ele>253</ele>
        <time>2019-08-13T11:05:20.758Z</time>
      </trkpt>
      <trkpt lat="44.68562" lon="1.48142">
        <ele>253</ele>
        <time>2019-08-13T11:05:24.769Z</time>
      </trkpt>
      <trkpt lat="44.68557" lon="1.4814">
        <ele>253</ele>
        <time>2019-08-13T11:05:29.768Z</time>
      </trkpt>
      <trkpt lat="44.68554" lon="1.48139">
        <ele>253</ele>
        <time>2019-08-13T11:05:34.757Z</time>
      </trkpt>
      <trkpt lat="44.68551" lon="1.48139">
        <ele>253</ele>
        <time>2019-08-13T11:05:39.759Z</time>
      </trkpt>
      <trkpt lat="44.68547" lon="1.48139">
        <ele>253</ele>
        <time>2019-08-13T11:05:43.771Z</time>
      </trkpt>
      <trkpt lat="44.68536" lon="1.48138">
        <ele>254</ele>
        <time>2019-08-13T11:05:48.773Z</time>
      </trkpt>
      <trkpt lat="44.68527" lon="1.48138">
        <ele>254</ele>
        <time>2019-08-13T11:05:53.768Z</time>
      </trkpt>
      <trkpt lat="44.68521" lon="1.48136">
        <ele>254</ele>
        <time>2019-08-13T11:05:58.767Z</time>
      </trkpt>
      <trkpt lat="44.68515" lon="1.48137">
        <ele>254</ele>
        <time>2019-08-13T11:06:02.772Z</time>
      </trkpt>
      <trkpt lat="44.68508" lon="1.48138">
        <ele>255</ele>
        <time>2019-08-13T11:06:07.752Z</time>
      </trkpt>
      <trkpt lat="44.68504" lon="1.48138">
        <ele>255</ele>
        <time>2019-08-13T11:06:11.774Z</time>
      </trkpt>
      <trkpt lat="44.68498" lon="1.48135">
        <ele>255</ele>
        <time>2019-08-13T11:06:16.765Z</time>
      </trkpt>
      <trkpt lat="44.68493" lon="1.48134">
        <ele>255</ele>
        <time>2019-08-13T11:06:21.770Z</time>
      </trkpt>
      <trkpt lat="44.68489" lon="1.48132">
        <ele>255</ele>
        <time>2019-08-13T11:06:26.766Z</time>
      </trkpt>
      <trkpt lat="44.68485" lon="1.48131">
        <ele>254</ele>
        <time>2019-08-13T11:06:30.768Z</time>
      </trkpt>
      <trkpt lat="44.68481" lon="1.48131">
        <ele>254</ele>
        <time>2019-08-13T11:06:35.765Z</time>
      </trkpt>
      <trkpt lat="44.68476" lon="1.48132">
        <ele>254</ele>
        <time>2019-08-13T11:06:39.775Z</time>
      </trkpt>
      <trkpt lat="44.6847" lon="1.48133">
        <ele>254</ele>
        <time>2019-08-13T11:06:44.762Z</time>
      </trkpt>
      <trkpt lat="44.68465" lon="1.48132">
        <ele>254</ele>
        <time>2019-08-13T11:06:48.767Z</time>
      </trkpt>
      <trkpt lat="44.6846" lon="1.48137">
        <ele>254</ele>
        <time>2019-08-13T11:06:53.772Z</time>
      </trkpt>
      <trkpt lat="44.68454" lon="1.48139">
        <ele>253</ele>
        <time>2019-08-13T11:06:58.770Z</time>
      </trkpt>
      <trkpt lat="44.68447" lon="1.48141">
        <ele>253</ele>
        <time>2019-08-13T11:07:03.766Z</time>
      </trkpt>
      <trkpt lat="44.6844" lon="1.48142">
        <ele>253</ele>
        <time>2019-08-13T11:07:07.772Z</time>
      </trkpt>
      <trkpt lat="44.68433" lon="1.48143">
        <ele>253</ele>
        <time>2019-08-13T11:07:12.770Z</time>
      </trkpt>
      <trkpt lat="44.68426" lon="1.48145">
        <ele>255</ele>
        <time>2019-08-13T11:07:17.767Z</time>
      </trkpt>
      <trkpt lat="44.68418" lon="1.4815">
        <ele>255</ele>
        <time>2019-08-13T11:07:22.774Z</time>
      </trkpt>
      <trkpt lat="44.68412" lon="1.48151">
        <ele>255</ele>
        <time>2019-08-13T11:07:27.760Z</time>
      </trkpt>
      <trkpt lat="44.68404" lon="1.48155">
        <ele>249</ele>
        <time>2019-08-13T11:07:32.760Z</time>
      </trkpt>
      <trkpt lat="44.684" lon="1.48157">
        <ele>249</ele>
        <time>2019-08-13T11:07:36.769Z</time>
      </trkpt>
      <trkpt lat="44.68394" lon="1.48158">
        <ele>249</ele>
        <time>2019-08-13T11:07:41.765Z</time>
      </trkpt>
      <trkpt lat="44.68389" lon="1.48156">
        <ele>249</ele>
        <time>2019-08-13T11:07:46.761Z</time>
      </trkpt>
      <trkpt lat="44.68383" lon="1.48156">
        <ele>249</ele>
        <time>2019-08-13T11:07:51.769Z</time>
      </trkpt>
      <trkpt lat="44.68378" lon="1.48154">
        <ele>249</ele>
        <time>2019-08-13T11:07:56.757Z</time>
      </trkpt>
      <trkpt lat="44.68373" lon="1.48151">
        <ele>250</ele>
        <time>2019-08-13T11:08:01.769Z</time>
      </trkpt>
      <trkpt lat="44.68369" lon="1.48149">
        <ele>250</ele>
        <time>2019-08-13T11:08:05.769Z</time>
      </trkpt>
      <trkpt lat="44.68365" lon="1.48146">
        <ele>250</ele>
        <time>2019-08-13T11:08:10.732Z</time>
      </trkpt>
      <trkpt lat="44.68364" lon="1.48146">
        <ele>250</ele>
        <time>2019-08-13T11:08:14.758Z</time>
      </trkpt>
      <trkpt lat="44.68361" lon="1.48144">
        <ele>250</ele>
        <time>2019-08-13T11:08:18.752Z</time>
      </trkpt>
      <trkpt lat="44.68355" lon="1.48139">
        <ele>250</ele>
        <time>2019-08-13T11:08:23.748Z</time>
      </trkpt>
      <trkpt lat="44.68352" lon="1.48136">
        <ele>250</ele>
        <time>2019-08-13T11:08:27.768Z</time>
      </trkpt>
      <trkpt lat="44.68349" lon="1.48132">
        <ele>250</ele>
        <time>2019-08-13T11:08:31.772Z</time>
      </trkpt>
      <trkpt lat="44.68343" lon="1.48126">
        <ele>244</ele>
        <time>2019-08-13T11:08:36.753Z</time>
      </trkpt>
      <trkpt lat="44.68339" lon="1.48123">
        <ele>249</ele>
        <time>2019-08-13T11:08:40.752Z</time>
      </trkpt>
      <trkpt lat="44.68335" lon="1.48118">
        <ele>249</ele>
        <time>2019-08-13T11:08:45.769Z</time>
      </trkpt>
      <trkpt lat="44.68328" lon="1.48115">
        <ele>249</ele>
        <time>2019-08-13T11:08:50.747Z</time>
      </trkpt>
      <trkpt lat="44.68324" lon="1.4811">
        <ele>249</ele>
        <time>2019-08-13T11:08:54.745Z</time>
      </trkpt>
      <trkpt lat="44.6832" lon="1.48105">
        <ele>249</ele>
        <time>2019-08-13T11:08:59.772Z</time>
      </trkpt>
      <trkpt lat="44.68314" lon="1.48099">
        <ele>244</ele>
        <time>2019-08-13T11:09:04.753Z</time>
      </trkpt>
      <trkpt lat="44.68309" lon="1.48095">
        <ele>250</ele>
        <time>2019-08-13T11:09:09.772Z</time>
      </trkpt>
      <trkpt lat="44.68304" lon="1.48089">
        <ele>250</ele>
        <time>2019-08-13T11:09:14.756Z</time>
      </trkpt>
      <trkpt lat="44.68299" lon="1.48081">
        <ele>250</ele>
        <time>2019-08-13T11:09:19.781Z</time>
      </trkpt>
      <trkpt lat="44.68293" lon="1.48073">
        <ele>250</ele>
        <time>2019-08-13T11:09:24.752Z</time>
      </trkpt>
      <trkpt lat="44.68288" lon="1.48067">
        <ele>252</ele>
        <time>2019-08-13T11:09:28.757Z</time>
      </trkpt>
      <trkpt lat="44.68284" lon="1.48064">
        <ele>252</ele>
        <time>2019-08-13T11:09:33.759Z</time>
      </trkpt>
      <trkpt lat="44.6828" lon="1.48059">
        <ele>252</ele>
        <time>2019-08-13T11:09:38.759Z</time>
      </trkpt>
      <trkpt lat="44.68277" lon="1.48052">
        <ele>252</ele>
        <time>2019-08-13T11:09:42.749Z</time>
      </trkpt>
      <trkpt lat="44.68273" lon="1.48047">
        <ele>252</ele>
        <time>2019-08-13T11:09:47.770Z</time>
      </trkpt>
      <trkpt lat="44.6827" lon="1.48043">
        <ele>252</ele>
        <time>2019-08-13T11:09:52.749Z</time>
      </trkpt>
      <trkpt lat="44.68266" lon="1.48038">
        <ele>256</ele>
        <time>2019-08-13T11:09:56.769Z</time>
      </trkpt>
      <trkpt lat="44.68261" lon="1.4803">
        <ele>252</ele>
        <time>2019-08-13T11:10:01.762Z</time>
      </trkpt>
      <trkpt lat="44.68256" lon="1.48026">
        <ele>252</ele>
        <time>2019-08-13T11:10:05.781Z</time>
      </trkpt>
      <trkpt lat="44.68251" lon="1.48022">
        <ele>252</ele>
        <time>2019-08-13T11:10:10.741Z</time>
      </trkpt>
      <trkpt lat="44.68246" lon="1.48016">
        <ele>252</ele>
        <time>2019-08-13T11:10:15.758Z</time>
      </trkpt>
      <trkpt lat="44.68241" lon="1.48011">
        <ele>256</ele>
        <time>2019-08-13T11:10:19.773Z</time>
      </trkpt>
      <trkpt lat="44.68236" lon="1.48004">
        <ele>251</ele>
        <time>2019-08-13T11:10:24.781Z</time>
      </trkpt>
      <trkpt lat="44.68229" lon="1.47997">
        <ele>251</ele>
        <time>2019-08-13T11:10:29.770Z</time>
      </trkpt>
      <trkpt lat="44.68224" lon="1.47995">
        <ele>251</ele>
        <time>2019-08-13T11:10:34.750Z</time>
      </trkpt>
      <trkpt lat="44.68216" lon="1.47992">
        <ele>251</ele>
        <time>2019-08-13T11:10:39.763Z</time>
      </trkpt>
      <trkpt lat="44.68209" lon="1.47987">
        <ele>251</ele>
        <time>2019-08-13T11:10:44.747Z</time>
      </trkpt>
      <trkpt lat="44.68204" lon="1.47984">
        <ele>252</ele>
        <time>2019-08-13T11:10:48.749Z</time>
      </trkpt>
      <trkpt lat="44.68197" lon="1.47979">
        <ele>252</ele>
        <time>2019-08-13T11:10:53.761Z</time>
      </trkpt>
      <trkpt lat="44.68192" lon="1.47975">
        <ele>252</ele>
        <time>2019-08-13T11:10:58.759Z</time>
      </trkpt>
      <trkpt lat="44.68189" lon="1.47969">
        <ele>252</ele>
        <time>2019-08-13T11:11:03.759Z</time>
      </trkpt>
      <trkpt lat="44.68184" lon="1.47963">
        <ele>252</ele>
        <time>2019-08-13T11:11:08.758Z</time>
      </trkpt>
      <trkpt lat="44.6818" lon="1.47958">
        <ele>254</ele>
        <time>2019-08-13T11:11:13.748Z</time>
      </trkpt>
      <trkpt lat="44.68177" lon="1.47953">
        <ele>254</ele>
        <time>2019-08-13T11:11:18.753Z</time>
      </trkpt>
      <trkpt lat="44.68173" lon="1.47949">
        <ele>254</ele>
        <time>2019-08-13T11:11:23.772Z</time>
      </trkpt>
      <trkpt lat="44.68167" lon="1.47945">
        <ele>254</ele>
        <time>2019-08-13T11:11:28.738Z</time>
      </trkpt>
      <trkpt lat="44.68162" lon="1.47942">
        <ele>254</ele>
        <time>2019-08-13T11:11:32.757Z</time>
      </trkpt>
      <trkpt lat="44.68154" lon="1.47935">
        <ele>254</ele>
        <time>2019-08-13T11:11:37.755Z</time>
      </trkpt>
      <trkpt lat="44.68148" lon="1.47933">
        <ele>249</ele>
        <time>2019-08-13T11:11:41.764Z</time>
      </trkpt>
      <trkpt lat="44.68145" lon="1.4793">
        <ele>253</ele>
        <time>2019-08-13T11:11:45.775Z</time>
      </trkpt>
      <trkpt lat="44.68138" lon="1.47923">
        <ele>253</ele>
        <time>2019-08-13T11:11:50.795Z</time>
      </trkpt>
      <trkpt lat="44.68131" lon="1.4792">
        <ele>253</ele>
        <time>2019-08-13T11:11:55.761Z</time>
      </trkpt>
      <trkpt lat="44.68126" lon="1.47916">
        <ele>253</ele>
        <time>2019-08-13T11:11:59.771Z</time>
      </trkpt>
      <trkpt lat="44.68122" lon="1.47912">
        <ele>249</ele>
        <time>2019-08-13T11:12:04.769Z</time>
      </trkpt>
      <trkpt lat="44.68117" lon="1.47909">
        <ele>249</ele>
        <time>2019-08-13T11:12:09.766Z</time>
      </trkpt>
      <trkpt lat="44.68111" lon="1.47902">
        <ele>254</ele>
        <time>2019-08-13T11:12:14.751Z</time>
      </trkpt>
      <trkpt lat="44.68104" lon="1.47896">
        <ele>254</ele>
        <time>2019-08-13T11:12:19.761Z</time>
      </trkpt>
      <trkpt lat="44.68098" lon="1.47892">
        <ele>254</ele>
        <time>2019-08-13T11:12:23.773Z</time>
      </trkpt>
      <trkpt lat="44.68092" lon="1.47887">
        <ele>251</ele>
        <time>2019-08-13T11:12:28.773Z</time>
      </trkpt>
      <trkpt lat="44.68084" lon="1.47883">
        <ele>251</ele>
        <time>2019-08-13T11:12:33.765Z</time>
      </trkpt>
      <trkpt lat="44.68082" lon="1.47882">
        <ele>251</ele>
        <time>2019-08-13T11:12:37.766Z</time>
      </trkpt>
      <trkpt lat="44.68082" lon="1.47882">
        <ele>251</ele>
        <time>2019-08-13T11:12:42.776Z</time>
      </trkpt>
      <trkpt lat="44.68079" lon="1.47888">
        <ele>251</ele>
        <time>2019-08-13T11:12:47.761Z</time>
      </trkpt>
      <trkpt lat="44.68078" lon="1.47896">
        <ele>251</ele>
        <time>2019-08-13T11:12:51.771Z</time>
      </trkpt>
      <trkpt lat="44.68077" lon="1.47903">
        <ele>247</ele>
        <time>2019-08-13T11:12:56.802Z</time>
      </trkpt>
      <trkpt lat="44.68075" lon="1.47911">
        <ele>247</ele>
        <time>2019-08-13T11:13:01.771Z</time>
      </trkpt>
      <trkpt lat="44.68073" lon="1.47922">
        <ele>247</ele>
        <time>2019-08-13T11:13:06.757Z</time>
      </trkpt>
      <trkpt lat="44.68073" lon="1.47929">
        <ele>247</ele>
        <time>2019-08-13T11:13:10.763Z</time>
      </trkpt>
      <trkpt lat="44.68073" lon="1.47931">
        <ele>241</ele>
        <time>2019-08-13T11:13:15.754Z</time>
      </trkpt>
      <trkpt lat="44.68072" lon="1.47939">
        <ele>241</ele>
        <time>2019-08-13T11:13:20.788Z</time>
      </trkpt>
      <trkpt lat="44.68069" lon="1.4795">
        <ele>240</ele>
        <time>2019-08-13T11:13:25.772Z</time>
      </trkpt>
      <trkpt lat="44.68067" lon="1.47958">
        <ele>237</ele>
        <time>2019-08-13T11:13:29.762Z</time>
      </trkpt>
      <trkpt lat="44.68065" lon="1.47967">
        <ele>237</ele>
        <time>2019-08-13T11:13:33.769Z</time>
      </trkpt>
      <trkpt lat="44.68063" lon="1.47978">
        <ele>237</ele>
        <time>2019-08-13T11:13:38.765Z</time>
      </trkpt>
      <trkpt lat="44.68062" lon="1.47988">
        <ele>236</ele>
        <time>2019-08-13T11:13:43.772Z</time>
      </trkpt>
      <trkpt lat="44.68063" lon="1.4799">
        <ele>236</ele>
        <time>2019-08-13T11:13:48.770Z</time>
      </trkpt>
      <trkpt lat="44.68066" lon="1.47989">
        <ele>236</ele>
        <time>2019-08-13T11:14:16.771Z</time>
      </trkpt>
      <trkpt lat="44.68066" lon="1.47991">
        <ele>236</ele>
        <time>2019-08-13T11:14:18.742Z</time>
      </trkpt>
      <trkpt lat="44.68071" lon="1.47986">
        <ele>238</ele>
        <time>2019-08-13T12:23:42.359Z</time>
      </trkpt>
      <trkpt lat="44.68071" lon="1.47974">
        <ele>238</ele>
        <time>2019-08-13T12:23:47.533Z</time>
      </trkpt>
      <trkpt lat="44.68073" lon="1.47967">
        <ele>238</ele>
        <time>2019-08-13T12:23:52.514Z</time>
      </trkpt>
      <trkpt lat="44.68074" lon="1.47961">
        <ele>238</ele>
        <time>2019-08-13T12:23:56.554Z</time>
      </trkpt>
      <trkpt lat="44.68076" lon="1.47955">
        <ele>241</ele>
        <time>2019-08-13T12:24:01.517Z</time>
      </trkpt>
      <trkpt lat="44.68079" lon="1.47948">
        <ele>241</ele>
        <time>2019-08-13T12:24:06.526Z</time>
      </trkpt>
      <trkpt lat="44.6808" lon="1.47943">
        <ele>241</ele>
        <time>2019-08-13T12:24:11.528Z</time>
      </trkpt>
      <trkpt lat="44.68082" lon="1.47936">
        <ele>241</ele>
        <time>2019-08-13T12:24:16.518Z</time>
      </trkpt>
      <trkpt lat="44.68083" lon="1.47932">
        <ele>241</ele>
        <time>2019-08-13T12:24:21.519Z</time>
      </trkpt>
      <trkpt lat="44.68082" lon="1.47928">
        <ele>247</ele>
        <time>2019-08-13T12:24:25.528Z</time>
      </trkpt>
      <trkpt lat="44.68083" lon="1.47922">
        <ele>247</ele>
        <time>2019-08-13T12:24:30.501Z</time>
      </trkpt>
      <trkpt lat="44.68084" lon="1.47916">
        <ele>247</ele>
        <time>2019-08-13T12:24:34.512Z</time>
      </trkpt>
      <trkpt lat="44.68083" lon="1.4791">
        <ele>247</ele>
        <time>2019-08-13T12:24:38.552Z</time>
      </trkpt>
      <trkpt lat="44.68082" lon="1.47903">
        <ele>247</ele>
        <time>2019-08-13T12:24:43.523Z</time>
      </trkpt>
      <trkpt lat="44.68082" lon="1.47902">
        <ele>251</ele>
        <time>2019-08-13T12:24:48.538Z</time>
      </trkpt>
      <trkpt lat="44.68082" lon="1.47901">
        <ele>251</ele>
        <time>2019-08-13T12:24:52.540Z</time>
      </trkpt>
      <trkpt lat="44.68081" lon="1.479">
        <ele>251</ele>
        <time>2019-08-13T12:24:56.556Z</time>
      </trkpt>
      <trkpt lat="44.6808" lon="1.47892">
        <ele>251</ele>
        <time>2019-08-13T12:25:01.522Z</time>
      </trkpt>
      <trkpt lat="44.68077" lon="1.47885">
        <ele>251</ele>
        <time>2019-08-13T12:25:06.523Z</time>
      </trkpt>
      <trkpt lat="44.68079" lon="1.4788">
        <ele>251</ele>
        <time>2019-08-13T12:26:02.558Z</time>
      </trkpt>
      <trkpt lat="44.68079" lon="1.4788">
        <ele>251</ele>
        <time>2019-08-13T12:26:07.520Z</time>
      </trkpt>
      <trkpt lat="44.68078" lon="1.47876">
        <ele>251</ele>
        <time>2019-08-13T12:26:11.514Z</time>
      </trkpt>
      <trkpt lat="44.68077" lon="1.47872">
        <ele>255</ele>
        <time>2019-08-13T12:26:15.531Z</time>
      </trkpt>
      <trkpt lat="44.6807" lon="1.47871">
        <ele>255</ele>
        <time>2019-08-13T12:26:20.534Z</time>
      </trkpt>
      <trkpt lat="44.68064" lon="1.47868">
        <ele>252</ele>
        <time>2019-08-13T12:26:25.524Z</time>
      </trkpt>
      <trkpt lat="44.68059" lon="1.47865">
        <ele>252</ele>
        <time>2019-08-13T12:26:30.560Z</time>
      </trkpt>
      <trkpt lat="44.68053" lon="1.47861">
        <ele>252</ele>
        <time>2019-08-13T12:26:35.517Z</time>
      </trkpt>
      <trkpt lat="44.68049" lon="1.47858">
        <ele>252</ele>
        <time>2019-08-13T12:26:40.531Z</time>
      </trkpt>
      <trkpt lat="44.68048" lon="1.47858">
        <ele>252</ele>
        <time>2019-08-13T12:26:45.525Z</time>
      </trkpt>
      <trkpt lat="44.68044" lon="1.47857">
        <ele>252</ele>
        <time>2019-08-13T12:26:49.525Z</time>
      </trkpt>
      <trkpt lat="44.68038" lon="1.47853">
        <ele>248</ele>
        <time>2019-08-13T12:26:54.510Z</time>
      </trkpt>
      <trkpt lat="44.68035" lon="1.47851">
        <ele>248</ele>
        <time>2019-08-13T12:26:58.530Z</time>
      </trkpt>
      <trkpt lat="44.68034" lon="1.47847">
        <ele>253</ele>
        <time>2019-08-13T12:29:01.520Z</time>
      </trkpt>
      <trkpt lat="44.68029" lon="1.47844">
        <ele>253</ele>
        <time>2019-08-13T12:29:06.534Z</time>
      </trkpt>
      <trkpt lat="44.68024" lon="1.47841">
        <ele>253</ele>
        <time>2019-08-13T12:29:11.521Z</time>
      </trkpt>
      <trkpt lat="44.68018" lon="1.47838">
        <ele>253</ele>
        <time>2019-08-13T12:29:15.537Z</time>
      </trkpt>
      <trkpt lat="44.68013" lon="1.47834">
        <ele>247</ele>
        <time>2019-08-13T12:29:19.526Z</time>
      </trkpt>
      <trkpt lat="44.68008" lon="1.47829">
        <ele>247</ele>
        <time>2019-08-13T12:29:24.520Z</time>
      </trkpt>
      <trkpt lat="44.68003" lon="1.47826">
        <ele>247</ele>
        <time>2019-08-13T12:29:28.559Z</time>
      </trkpt>
      <trkpt lat="44.67998" lon="1.4782">
        <ele>247</ele>
        <time>2019-08-13T12:29:33.523Z</time>
      </trkpt>
      <trkpt lat="44.67992" lon="1.47816">
        <ele>250</ele>
        <time>2019-08-13T12:29:38.597Z</time>
      </trkpt>
      <trkpt lat="44.67987" lon="1.47811">
        <ele>250</ele>
        <time>2019-08-13T12:29:43.541Z</time>
      </trkpt>
      <trkpt lat="44.67982" lon="1.47806">
        <ele>245</ele>
        <time>2019-08-13T12:29:48.527Z</time>
      </trkpt>
      <trkpt lat="44.67977" lon="1.47802">
        <ele>245</ele>
        <time>2019-08-13T12:29:53.521Z</time>
      </trkpt>
      <trkpt lat="44.67971" lon="1.47798">
        <ele>245</ele>
        <time>2019-08-13T12:29:58.525Z</time>
      </trkpt>
      <trkpt lat="44.67967" lon="1.47795">
        <ele>245</ele>
        <time>2019-08-13T12:30:02.523Z</time>
      </trkpt>
      <trkpt lat="44.67961" lon="1.47791">
        <ele>248</ele>
        <time>2019-08-13T12:30:07.521Z</time>
      </trkpt>
      <trkpt lat="44.67956" lon="1.47787">
        <ele>246</ele>
        <time>2019-08-13T12:30:11.521Z</time>
      </trkpt>
      <trkpt lat="44.6795" lon="1.47781">
        <ele>246</ele>
        <time>2019-08-13T12:30:16.536Z</time>
      </trkpt>
      <trkpt lat="44.67946" lon="1.47778">
        <ele>246</ele>
        <time>2019-08-13T12:30:20.528Z</time>
      </trkpt>
      <trkpt lat="44.6794" lon="1.47772">
        <ele>246</ele>
        <time>2019-08-13T12:30:25.526Z</time>
      </trkpt>
      <trkpt lat="44.67935" lon="1.47768">
        <ele>246</ele>
        <time>2019-08-13T12:30:30.539Z</time>
      </trkpt>
      <trkpt lat="44.67931" lon="1.47763">
        <ele>245</ele>
        <time>2019-08-13T12:30:35.530Z</time>
      </trkpt>
      <trkpt lat="44.67926" lon="1.47759">
        <ele>245</ele>
        <time>2019-08-13T12:30:39.536Z</time>
      </trkpt>
      <trkpt lat="44.6792" lon="1.47755">
        <ele>245</ele>
        <time>2019-08-13T12:30:44.533Z</time>
      </trkpt>
      <trkpt lat="44.67916" lon="1.47752">
        <ele>245</ele>
        <time>2019-08-13T12:30:48.542Z</time>
      </trkpt>
      <trkpt lat="44.67911" lon="1.47748">
        <ele>245</ele>
        <time>2019-08-13T12:30:53.531Z</time>
      </trkpt>
      <trkpt lat="44.67906" lon="1.47744">
        <ele>245</ele>
        <time>2019-08-13T12:30:58.530Z</time>
      </trkpt>
      <trkpt lat="44.67901" lon="1.4774">
        <ele>241</ele>
        <time>2019-08-13T12:31:03.525Z</time>
      </trkpt>
      <trkpt lat="44.67896" lon="1.47738">
        <ele>241</ele>
        <time>2019-08-13T12:31:07.531Z</time>
      </trkpt>
      <trkpt lat="44.67891" lon="1.47734">
        <ele>243</ele>
        <time>2019-08-13T12:31:12.525Z</time>
      </trkpt>
      <trkpt lat="44.67885" lon="1.4773">
        <ele>243</ele>
        <time>2019-08-13T12:31:17.533Z</time>
      </trkpt>
      <trkpt lat="44.6788" lon="1.47725">
        <ele>243</ele>
        <time>2019-08-13T12:31:22.518Z</time>
      </trkpt>
      <trkpt lat="44.67876" lon="1.47721">
        <ele>243</ele>
        <time>2019-08-13T12:31:26.532Z</time>
      </trkpt>
      <trkpt lat="44.67871" lon="1.47716">
        <ele>239</ele>
        <time>2019-08-13T12:31:31.522Z</time>
      </trkpt>
      <trkpt lat="44.67866" lon="1.47713">
        <ele>239</ele>
        <time>2019-08-13T12:31:36.533Z</time>
      </trkpt>
      <trkpt lat="44.6786" lon="1.47709">
        <ele>239</ele>
        <time>2019-08-13T12:31:41.517Z</time>
      </trkpt>
      <trkpt lat="44.67853" lon="1.47704">
        <ele>240</ele>
        <time>2019-08-13T12:31:46.540Z</time>
      </trkpt>
      <trkpt lat="44.67847" lon="1.477">
        <ele>239</ele>
        <time>2019-08-13T12:31:51.524Z</time>
      </trkpt>
      <trkpt lat="44.67841" lon="1.47695">
        <ele>239</ele>
        <time>2019-08-13T12:31:56.523Z</time>
      </trkpt>
      <trkpt lat="44.67836" lon="1.47691">
        <ele>239</ele>
        <time>2019-08-13T12:32:00.535Z</time>
      </trkpt>
      <trkpt lat="44.67829" lon="1.47685">
        <ele>239</ele>
        <time>2019-08-13T12:32:05.524Z</time>
      </trkpt>
      <trkpt lat="44.67825" lon="1.4768">
        <ele>241</ele>
        <time>2019-08-13T12:32:09.524Z</time>
      </trkpt>
      <trkpt lat="44.6782" lon="1.47675">
        <ele>241</ele>
        <time>2019-08-13T12:32:14.521Z</time>
      </trkpt>
      <trkpt lat="44.67817" lon="1.4767">
        <ele>240</ele>
        <time>2019-08-13T12:32:18.544Z</time>
      </trkpt>
      <trkpt lat="44.67812" lon="1.47665">
        <ele>240</ele>
        <time>2019-08-13T12:32:23.534Z</time>
      </trkpt>
      <trkpt lat="44.67806" lon="1.47659">
        <ele>240</ele>
        <time>2019-08-13T12:32:28.532Z</time>
      </trkpt>
      <trkpt lat="44.67802" lon="1.47654">
        <ele>240</ele>
        <time>2019-08-13T12:32:32.542Z</time>
      </trkpt>
      <trkpt lat="44.67799" lon="1.4765">
        <ele>243</ele>
        <time>2019-08-13T12:32:37.514Z</time>
      </trkpt>
      <trkpt lat="44.67797" lon="1.47648">
        <ele>243</ele>
        <time>2019-08-13T12:32:41.525Z</time>
      </trkpt>
      <trkpt lat="44.67793" lon="1.47642">
        <ele>243</ele>
        <time>2019-08-13T12:32:46.525Z</time>
      </trkpt>
      <trkpt lat="44.6779" lon="1.47636">
        <ele>241</ele>
        <time>2019-08-13T12:32:50.528Z</time>
      </trkpt>
      <trkpt lat="44.67786" lon="1.47629">
        <ele>241</ele>
        <time>2019-08-13T12:32:55.525Z</time>
      </trkpt>
      <trkpt lat="44.6778" lon="1.47622">
        <ele>245</ele>
        <time>2019-08-13T12:33:00.541Z</time>
      </trkpt>
      <trkpt lat="44.67777" lon="1.47615">
        <ele>245</ele>
        <time>2019-08-13T12:33:05.533Z</time>
      </trkpt>
      <trkpt lat="44.67776" lon="1.47607">
        <ele>245</ele>
        <time>2019-08-13T12:33:10.521Z</time>
      </trkpt>
      <trkpt lat="44.67772" lon="1.476">
        <ele>245</ele>
        <time>2019-08-13T12:33:15.530Z</time>
      </trkpt>
      <trkpt lat="44.67769" lon="1.47595">
        <ele>249</ele>
        <time>2019-08-13T12:33:19.527Z</time>
      </trkpt>
      <trkpt lat="44.67765" lon="1.4759">
        <ele>249</ele>
        <time>2019-08-13T12:33:24.519Z</time>
      </trkpt>
      <trkpt lat="44.6776" lon="1.47584">
        <ele>244</ele>
        <time>2019-08-13T12:33:29.536Z</time>
      </trkpt>
      <trkpt lat="44.67756" lon="1.4758">
        <ele>244</ele>
        <time>2019-08-13T12:33:33.532Z</time>
      </trkpt>
      <trkpt lat="44.67749" lon="1.47576">
        <ele>244</ele>
        <time>2019-08-13T12:33:38.521Z</time>
      </trkpt>
      <trkpt lat="44.67745" lon="1.47572">
        <ele>244</ele>
        <time>2019-08-13T12:33:42.529Z</time>
      </trkpt>
      <trkpt lat="44.67738" lon="1.47569">
        <ele>248</ele>
        <time>2019-08-13T12:33:47.515Z</time>
      </trkpt>
      <trkpt lat="44.67733" lon="1.47566">
        <ele>243</ele>
        <time>2019-08-13T12:33:51.533Z</time>
      </trkpt>
      <trkpt lat="44.67726" lon="1.47561">
        <ele>243</ele>
        <time>2019-08-13T12:33:56.520Z</time>
      </trkpt>
      <trkpt lat="44.67721" lon="1.47554">
        <ele>243</ele>
        <time>2019-08-13T12:34:01.525Z</time>
      </trkpt>
      <trkpt lat="44.67719" lon="1.47547">
        <ele>243</ele>
        <time>2019-08-13T12:34:05.532Z</time>
      </trkpt>
      <trkpt lat="44.67716" lon="1.47541">
        <ele>247</ele>
        <time>2019-08-13T12:34:10.530Z</time>
      </trkpt>
      <trkpt lat="44.67713" lon="1.47536">
        <ele>247</ele>
        <time>2019-08-13T12:34:15.525Z</time>
      </trkpt>
      <trkpt lat="44.6771" lon="1.47532">
        <ele>247</ele>
        <time>2019-08-13T12:34:19.536Z</time>
      </trkpt>
      <trkpt lat="44.67705" lon="1.47525">
        <ele>243</ele>
        <time>2019-08-13T12:34:24.516Z</time>
      </trkpt>
      <trkpt lat="44.67699" lon="1.47517">
        <ele>243</ele>
        <time>2019-08-13T12:34:29.537Z</time>
      </trkpt>
      <trkpt lat="44.67694" lon="1.47511">
        <ele>247</ele>
        <time>2019-08-13T12:34:34.520Z</time>
      </trkpt>
      <trkpt lat="44.67691" lon="1.47506">
        <ele>247</ele>
        <time>2019-08-13T12:34:38.519Z</time>
      </trkpt>
      <trkpt lat="44.67688" lon="1.47501">
        <ele>247</ele>
        <time>2019-08-13T12:34:42.538Z</time>
      </trkpt>
      <trkpt lat="44.67684" lon="1.47495">
        <ele>247</ele>
        <time>2019-08-13T12:34:47.530Z</time>
      </trkpt>
      <trkpt lat="44.67679" lon="1.47488">
        <ele>241</ele>
        <time>2019-08-13T12:34:52.537Z</time>
      </trkpt>
      <trkpt lat="44.67674" lon="1.47482">
        <ele>244</ele>
        <time>2019-08-13T12:34:57.519Z</time>
      </trkpt>
      <trkpt lat="44.67671" lon="1.47477">
        <ele>244</ele>
        <time>2019-08-13T12:35:01.530Z</time>
      </trkpt>
      <trkpt lat="44.67667" lon="1.47472">
        <ele>244</ele>
        <time>2019-08-13T12:35:05.527Z</time>
      </trkpt>
      <trkpt lat="44.67661" lon="1.47466">
        <ele>244</ele>
        <time>2019-08-13T12:35:10.535Z</time>
      </trkpt>
      <trkpt lat="44.67655" lon="1.4746">
        <ele>244</ele>
        <time>2019-08-13T12:35:15.531Z</time>
      </trkpt>
      <trkpt lat="44.6765" lon="1.47455">
        <ele>241</ele>
        <time>2019-08-13T12:35:20.526Z</time>
      </trkpt>
      <trkpt lat="44.67646" lon="1.47449">
        <ele>241</ele>
        <time>2019-08-13T12:35:25.537Z</time>
      </trkpt>
      <trkpt lat="44.6764" lon="1.47442">
        <ele>241</ele>
        <time>2019-08-13T12:35:30.537Z</time>
      </trkpt>
      <trkpt lat="44.67635" lon="1.47436">
        <ele>241</ele>
        <time>2019-08-13T12:35:35.537Z</time>
      </trkpt>
      <trkpt lat="44.67629" lon="1.4743">
        <ele>244</ele>
        <time>2019-08-13T12:35:40.536Z</time>
      </trkpt>
      <trkpt lat="44.67625" lon="1.47425">
        <ele>244</ele>
        <time>2019-08-13T12:35:45.526Z</time>
      </trkpt>
      <trkpt lat="44.67622" lon="1.47422">
        <ele>240</ele>
        <time>2019-08-13T12:35:49.526Z</time>
      </trkpt>
      <trkpt lat="44.67615" lon="1.47418">
        <ele>240</ele>
        <time>2019-08-13T12:35:54.512Z</time>
      </trkpt>
      <trkpt lat="44.6761" lon="1.47415">
        <ele>240</ele>
        <time>2019-08-13T12:35:59.530Z</time>
      </trkpt>
      <trkpt lat="44.67603" lon="1.4741">
        <ele>240</ele>
        <time>2019-08-13T12:36:04.521Z</time>
      </trkpt>
      <trkpt lat="44.67598" lon="1.47406">
        <ele>240</ele>
        <time>2019-08-13T12:36:08.529Z</time>
      </trkpt>
      <trkpt lat="44.67592" lon="1.47401">
        <ele>241</ele>
        <time>2019-08-13T12:36:13.537Z</time>
      </trkpt>
      <trkpt lat="44.67588" lon="1.47396">
        <ele>241</ele>
        <time>2019-08-13T12:36:18.521Z</time>
      </trkpt>
      <trkpt lat="44.67583" lon="1.47391">
        <ele>241</ele>
        <time>2019-08-13T12:36:22.523Z</time>
      </trkpt>
      <trkpt lat="44.6758" lon="1.47388">
        <ele>241</ele>
        <time>2019-08-13T12:36:26.536Z</time>
      </trkpt>
      <trkpt lat="44.67575" lon="1.47382">
        <ele>241</ele>
        <time>2019-08-13T12:36:31.527Z</time>
      </trkpt>
      <trkpt lat="44.67567" lon="1.47376">
        <ele>237</ele>
        <time>2019-08-13T12:36:36.524Z</time>
      </trkpt>
      <trkpt lat="44.67562" lon="1.47372">
        <ele>240</ele>
        <time>2019-08-13T12:36:41.527Z</time>
      </trkpt>
      <trkpt lat="44.67558" lon="1.47368">
        <ele>240</ele>
        <time>2019-08-13T12:36:45.523Z</time>
      </trkpt>
      <trkpt lat="44.67552" lon="1.47364">
        <ele>240</ele>
        <time>2019-08-13T12:36:50.533Z</time>
      </trkpt>
      <trkpt lat="44.67546" lon="1.47362">
        <ele>240</ele>
        <time>2019-08-13T12:36:55.526Z</time>
      </trkpt>
      <trkpt lat="44.6754" lon="1.4736">
        <ele>237</ele>
        <time>2019-08-13T12:37:00.525Z</time>
      </trkpt>
      <trkpt lat="44.67533" lon="1.47361">
        <ele>237</ele>
        <time>2019-08-13T12:37:05.535Z</time>
      </trkpt>
      <trkpt lat="44.67526" lon="1.4736">
        <ele>237</ele>
        <time>2019-08-13T12:37:10.529Z</time>
      </trkpt>
      <trkpt lat="44.67509" lon="1.47359">
        <ele>234</ele>
        <time>2019-08-13T12:37:28.529Z</time>
      </trkpt>
      <trkpt lat="44.67509" lon="1.47359">
        <ele>234</ele>
        <time>2019-08-13T12:37:33.510Z</time>
      </trkpt>
      <trkpt lat="44.67509" lon="1.47359">
        <ele>234</ele>
        <time>2019-08-13T12:37:37.518Z</time>
      </trkpt>
      <trkpt lat="44.67506" lon="1.4736">
        <ele>234</ele>
        <time>2019-08-13T12:37:41.519Z</time>
      </trkpt>
      <trkpt lat="44.67502" lon="1.47362">
        <ele>234</ele>
        <time>2019-08-13T12:37:45.532Z</time>
      </trkpt>
      <trkpt lat="44.67499" lon="1.47365">
        <ele>234</ele>
        <time>2019-08-13T12:37:50.536Z</time>
      </trkpt>
      <trkpt lat="44.67494" lon="1.47368">
        <ele>234</ele>
        <time>2019-08-13T12:37:55.522Z</time>
      </trkpt>
      <trkpt lat="44.67489" lon="1.47369">
        <ele>234</ele>
        <time>2019-08-13T12:37:59.541Z</time>
      </trkpt>
      <trkpt lat="44.67482" lon="1.47371">
        <ele>232</ele>
        <time>2019-08-13T12:38:04.517Z</time>
      </trkpt>
      <trkpt lat="44.67477" lon="1.47371">
        <ele>232</ele>
        <time>2019-08-13T12:38:08.526Z</time>
      </trkpt>
      <trkpt lat="44.67472" lon="1.47374">
        <ele>232</ele>
        <time>2019-08-13T12:38:13.515Z</time>
      </trkpt>
      <trkpt lat="44.67471" lon="1.47377">
        <ele>230</ele>
        <time>2019-08-13T12:38:17.532Z</time>
      </trkpt>
      <trkpt lat="44.6747" lon="1.47383">
        <ele>230</ele>
        <time>2019-08-13T12:38:22.531Z</time>
      </trkpt>
      <trkpt lat="44.67471" lon="1.47394">
        <ele>230</ele>
        <time>2019-08-13T12:38:27.523Z</time>
      </trkpt>
      <trkpt lat="44.67471" lon="1.47403">
        <ele>230</ele>
        <time>2019-08-13T12:38:31.522Z</time>
      </trkpt>
      <trkpt lat="44.67471" lon="1.47414">
        <ele>230</ele>
        <time>2019-08-13T12:38:36.528Z</time>
      </trkpt>
      <trkpt lat="44.67472" lon="1.47426">
        <ele>230</ele>
        <time>2019-08-13T12:38:41.529Z</time>
      </trkpt>
      <trkpt lat="44.6747" lon="1.47437">
        <ele>230</ele>
        <time>2019-08-13T12:38:46.505Z</time>
      </trkpt>
      <trkpt lat="44.67469" lon="1.47446">
        <ele>230</ele>
        <time>2019-08-13T12:38:50.548Z</time>
      </trkpt>
      <trkpt lat="44.67469" lon="1.47456">
        <ele>230</ele>
        <time>2019-08-13T12:38:55.520Z</time>
      </trkpt>
      <trkpt lat="44.6747" lon="1.47466">
        <ele>231</ele>
        <time>2019-08-13T12:39:00.528Z</time>
      </trkpt>
      <trkpt lat="44.6747" lon="1.47477">
        <ele>231</ele>
        <time>2019-08-13T12:39:05.533Z</time>
      </trkpt>
      <trkpt lat="44.6747" lon="1.47487">
        <ele>231</ele>
        <time>2019-08-13T12:39:10.521Z</time>
      </trkpt>
      <trkpt lat="44.67469" lon="1.47497">
        <ele>231</ele>
        <time>2019-08-13T12:39:15.531Z</time>
      </trkpt>
      <trkpt lat="44.6747" lon="1.47505">
        <ele>231</ele>
        <time>2019-08-13T12:39:19.530Z</time>
      </trkpt>
      <trkpt lat="44.6747" lon="1.47514">
        <ele>229</ele>
        <time>2019-08-13T12:39:24.511Z</time>
      </trkpt>
      <trkpt lat="44.6747" lon="1.47521">
        <ele>229</ele>
        <time>2019-08-13T12:39:28.518Z</time>
      </trkpt>
      <trkpt lat="44.67471" lon="1.47529">
        <ele>229</ele>
        <time>2019-08-13T12:39:32.534Z</time>
      </trkpt>
      <trkpt lat="44.67471" lon="1.47539">
        <ele>229</ele>
        <time>2019-08-13T12:39:37.537Z</time>
      </trkpt>
      <trkpt lat="44.67471" lon="1.4755">
        <ele>228</ele>
        <time>2019-08-13T12:39:42.534Z</time>
      </trkpt>
      <trkpt lat="44.67471" lon="1.47558">
        <ele>228</ele>
        <time>2019-08-13T12:39:46.527Z</time>
      </trkpt>
      <trkpt lat="44.67472" lon="1.47567">
        <ele>228</ele>
        <time>2019-08-13T12:39:51.528Z</time>
      </trkpt>
      <trkpt lat="44.67471" lon="1.47573">
        <ele>229</ele>
        <time>2019-08-13T12:39:55.532Z</time>
      </trkpt>
      <trkpt lat="44.6747" lon="1.47583">
        <ele>229</ele>
        <time>2019-08-13T12:40:00.536Z</time>
      </trkpt>
      <trkpt lat="44.6747" lon="1.47593">
        <ele>229</ele>
        <time>2019-08-13T12:40:05.532Z</time>
      </trkpt>
      <trkpt lat="44.6747" lon="1.47602">
        <ele>229</ele>
        <time>2019-08-13T12:40:10.525Z</time>
      </trkpt>
      <trkpt lat="44.6747" lon="1.4761">
        <ele>229</ele>
        <time>2019-08-13T12:40:14.527Z</time>
      </trkpt>
      <trkpt lat="44.67469" lon="1.47618">
        <ele>229</ele>
        <time>2019-08-13T12:40:18.535Z</time>
      </trkpt>
      <trkpt lat="44.67469" lon="1.47626">
        <ele>230</ele>
        <time>2019-08-13T12:40:22.547Z</time>
      </trkpt>
      <trkpt lat="44.67468" lon="1.47636">
        <ele>230</ele>
        <time>2019-08-13T12:40:27.521Z</time>
      </trkpt>
      <trkpt lat="44.67468" lon="1.47644">
        <ele>230</ele>
        <time>2019-08-13T12:40:31.512Z</time>
      </trkpt>
      <trkpt lat="44.67468" lon="1.47653">
        <ele>232</ele>
        <time>2019-08-13T12:40:36.530Z</time>
      </trkpt>
      <trkpt lat="44.67467" lon="1.47659">
        <ele>232</ele>
        <time>2019-08-13T12:40:41.521Z</time>
      </trkpt>
      <trkpt lat="44.67467" lon="1.47663">
        <ele>232</ele>
        <time>2019-08-13T12:40:45.515Z</time>
      </trkpt>
      <trkpt lat="44.67467" lon="1.4767">
        <ele>232</ele>
        <time>2019-08-13T12:40:50.518Z</time>
      </trkpt>
      <trkpt lat="44.67468" lon="1.47679">
        <ele>232</ele>
        <time>2019-08-13T12:40:55.511Z</time>
      </trkpt>
      <trkpt lat="44.6747" lon="1.47692">
        <ele>236</ele>
        <time>2019-08-13T12:41:00.521Z</time>
      </trkpt>
      <trkpt lat="44.67468" lon="1.47705">
        <ele>236</ele>
        <time>2019-08-13T12:41:05.527Z</time>
      </trkpt>
      <trkpt lat="44.67465" lon="1.47718">
        <ele>239</ele>
        <time>2019-08-13T12:41:10.531Z</time>
      </trkpt>
      <trkpt lat="44.67466" lon="1.47732">
        <ele>239</ele>
        <time>2019-08-13T12:41:14.531Z</time>
      </trkpt>
      <trkpt lat="44.67467" lon="1.47748">
        <ele>241</ele>
        <time>2019-08-13T12:41:19.527Z</time>
      </trkpt>
      <trkpt lat="44.67469" lon="1.47761">
        <ele>241</ele>
        <time>2019-08-13T12:41:24.531Z</time>
      </trkpt>
      <trkpt lat="44.67469" lon="1.47772">
        <ele>242</ele>
        <time>2019-08-13T12:41:29.511Z</time>
      </trkpt>
      <trkpt lat="44.67469" lon="1.47778">
        <ele>242</ele>
        <time>2019-08-13T12:41:33.531Z</time>
      </trkpt>
      <trkpt lat="44.67469" lon="1.47787">
        <ele>242</ele>
        <time>2019-08-13T12:41:38.527Z</time>
      </trkpt>
      <trkpt lat="44.67467" lon="1.47797">
        <ele>244</ele>
        <time>2019-08-13T12:41:43.523Z</time>
      </trkpt>
      <trkpt lat="44.67466" lon="1.47808">
        <ele>244</ele>
        <time>2019-08-13T12:41:48.526Z</time>
      </trkpt>
      <trkpt lat="44.67465" lon="1.47817">
        <ele>244</ele>
        <time>2019-08-13T12:41:52.525Z</time>
      </trkpt>
      <trkpt lat="44.67464" lon="1.47826">
        <ele>245</ele>
        <time>2019-08-13T12:41:56.528Z</time>
      </trkpt>
      <trkpt lat="44.67463" lon="1.47836">
        <ele>245</ele>
        <time>2019-08-13T12:42:01.511Z</time>
      </trkpt>
      <trkpt lat="44.67462" lon="1.47844">
        <ele>245</ele>
        <time>2019-08-13T12:42:05.515Z</time>
      </trkpt>
      <trkpt lat="44.67461" lon="1.47852">
        <ele>248</ele>
        <time>2019-08-13T12:42:10.519Z</time>
      </trkpt>
      <trkpt lat="44.67459" lon="1.47861">
        <ele>248</ele>
        <time>2019-08-13T12:42:15.510Z</time>
      </trkpt>
      <trkpt lat="44.67458" lon="1.47869">
        <ele>237</ele>
        <time>2019-08-13T12:42:19.516Z</time>
      </trkpt>
      <trkpt lat="44.67457" lon="1.47878">
        <ele>238</ele>
        <time>2019-08-13T12:42:23.533Z</time>
      </trkpt>
      <trkpt lat="44.67452" lon="1.47886">
        <ele>238</ele>
        <time>2019-08-13T12:42:28.534Z</time>
      </trkpt>
      <trkpt lat="44.6745" lon="1.47898">
        <ele>238</ele>
        <time>2019-08-13T12:42:33.510Z</time>
      </trkpt>
      <trkpt lat="44.67448" lon="1.47908">
        <ele>239</ele>
        <time>2019-08-13T12:42:38.508Z</time>
      </trkpt>
      <trkpt lat="44.67446" lon="1.47916">
        <ele>239</ele>
        <time>2019-08-13T12:42:43.507Z</time>
      </trkpt>
      <trkpt lat="44.67445" lon="1.47923">
        <ele>239</ele>
        <time>2019-08-13T12:42:47.539Z</time>
      </trkpt>
      <trkpt lat="44.67444" lon="1.47932">
        <ele>242</ele>
        <time>2019-08-13T12:42:52.524Z</time>
      </trkpt>
      <trkpt lat="44.67442" lon="1.47943">
        <ele>242</ele>
        <time>2019-08-13T12:42:57.502Z</time>
      </trkpt>
      <trkpt lat="44.6744" lon="1.47952">
        <ele>242</ele>
        <time>2019-08-13T12:43:01.511Z</time>
      </trkpt>
      <trkpt lat="44.67438" lon="1.47959">
        <ele>246</ele>
        <time>2019-08-13T12:43:05.508Z</time>
      </trkpt>
      <trkpt lat="44.67435" lon="1.47968">
        <ele>246</ele>
        <time>2019-08-13T12:43:10.512Z</time>
      </trkpt>
      <trkpt lat="44.67433" lon="1.47978">
        <ele>246</ele>
        <time>2019-08-13T12:43:15.514Z</time>
      </trkpt>
      <trkpt lat="44.67431" lon="1.47988">
        <ele>247</ele>
        <time>2019-08-13T12:43:20.524Z</time>
      </trkpt>
      <trkpt lat="44.6743" lon="1.47996">
        <ele>238</ele>
        <time>2019-08-13T12:43:24.527Z</time>
      </trkpt>
      <trkpt lat="44.67429" lon="1.48004">
        <ele>238</ele>
        <time>2019-08-13T12:43:29.526Z</time>
      </trkpt>
      <trkpt lat="44.67428" lon="1.48013">
        <ele>238</ele>
        <time>2019-08-13T12:43:34.517Z</time>
      </trkpt>
      <trkpt lat="44.67426" lon="1.48021">
        <ele>241</ele>
        <time>2019-08-13T12:43:38.526Z</time>
      </trkpt>
      <trkpt lat="44.67424" lon="1.48031">
        <ele>241</ele>
        <time>2019-08-13T12:43:43.514Z</time>
      </trkpt>
      <trkpt lat="44.67421" lon="1.48042">
        <ele>241</ele>
        <time>2019-08-13T12:43:48.536Z</time>
      </trkpt>
      <trkpt lat="44.67417" lon="1.4805">
        <ele>243</ele>
        <time>2019-08-13T12:43:53.513Z</time>
      </trkpt>
      <trkpt lat="44.67417" lon="1.48058">
        <ele>243</ele>
        <time>2019-08-13T12:43:58.512Z</time>
      </trkpt>
      <trkpt lat="44.67416" lon="1.48066">
        <ele>243</ele>
        <time>2019-08-13T12:44:02.525Z</time>
      </trkpt>
      <trkpt lat="44.67414" lon="1.48076">
        <ele>246</ele>
        <time>2019-08-13T12:44:07.524Z</time>
      </trkpt>
      <trkpt lat="44.6741" lon="1.48084">
        <ele>246</ele>
        <time>2019-08-13T12:44:12.536Z</time>
      </trkpt>
      <trkpt lat="44.67408" lon="1.48096">
        <ele>246</ele>
        <time>2019-08-13T12:44:17.520Z</time>
      </trkpt>
      <trkpt lat="44.67406" lon="1.48107">
        <ele>249</ele>
        <time>2019-08-13T12:44:22.533Z</time>
      </trkpt>
      <trkpt lat="44.67404" lon="1.48118">
        <ele>249</ele>
        <time>2019-08-13T12:44:27.518Z</time>
      </trkpt>
      <trkpt lat="44.67401" lon="1.48125">
        <ele>239</ele>
        <time>2019-08-13T12:44:31.518Z</time>
      </trkpt>
      <trkpt lat="44.67399" lon="1.48137">
        <ele>239</ele>
        <time>2019-08-13T12:44:36.520Z</time>
      </trkpt>
      <trkpt lat="44.67398" lon="1.48146">
        <ele>239</ele>
        <time>2019-08-13T12:44:41.528Z</time>
      </trkpt>
      <trkpt lat="44.67398" lon="1.48154">
        <ele>240</ele>
        <time>2019-08-13T12:44:45.512Z</time>
      </trkpt>
      <trkpt lat="44.67398" lon="1.48163">
        <ele>240</ele>
        <time>2019-08-13T12:44:50.519Z</time>
      </trkpt>
      <trkpt lat="44.67398" lon="1.48171">
        <ele>240</ele>
        <time>2019-08-13T12:44:54.539Z</time>
      </trkpt>
      <trkpt lat="44.67399" lon="1.48181">
        <ele>241</ele>
        <time>2019-08-13T12:44:59.522Z</time>
      </trkpt>
      <trkpt lat="44.67398" lon="1.48191">
        <ele>241</ele>
        <time>2019-08-13T12:45:04.513Z</time>
      </trkpt>
      <trkpt lat="44.67398" lon="1.48201">
        <ele>241</ele>
        <time>2019-08-13T12:45:09.515Z</time>
      </trkpt>
      <trkpt lat="44.67397" lon="1.48211">
        <ele>241</ele>
        <time>2019-08-13T12:45:14.529Z</time>
      </trkpt>
      <trkpt lat="44.67397" lon="1.48222">
        <ele>241</ele>
        <time>2019-08-13T12:45:19.534Z</time>
      </trkpt>
      <trkpt lat="44.67397" lon="1.48231">
        <ele>241</ele>
        <time>2019-08-13T12:45:24.537Z</time>
      </trkpt>
      <trkpt lat="44.67398" lon="1.48241">
        <ele>242</ele>
        <time>2019-08-13T12:45:29.522Z</time>
      </trkpt>
      <trkpt lat="44.67399" lon="1.48249">
        <ele>242</ele>
        <time>2019-08-13T12:45:33.519Z</time>
      </trkpt>
      <trkpt lat="44.67399" lon="1.48259">
        <ele>242</ele>
        <time>2019-08-13T12:45:38.527Z</time>
      </trkpt>
      <trkpt lat="44.67399" lon="1.48267">
        <ele>242</ele>
        <time>2019-08-13T12:45:42.543Z</time>
      </trkpt>
      <trkpt lat="44.67399" lon="1.48277">
        <ele>242</ele>
        <time>2019-08-13T12:45:47.512Z</time>
      </trkpt>
      <trkpt lat="44.674" lon="1.48285">
        <ele>242</ele>
        <time>2019-08-13T12:45:51.523Z</time>
      </trkpt>
      <trkpt lat="44.674" lon="1.48294">
        <ele>242</ele>
        <time>2019-08-13T12:45:56.521Z</time>
      </trkpt>
      <trkpt lat="44.67402" lon="1.48303">
        <ele>242</ele>
        <time>2019-08-13T12:46:00.526Z</time>
      </trkpt>
      <trkpt lat="44.67402" lon="1.48313">
        <ele>242</ele>
        <time>2019-08-13T12:46:05.520Z</time>
      </trkpt>
      <trkpt lat="44.67402" lon="1.4832">
        <ele>242</ele>
        <time>2019-08-13T12:46:10.525Z</time>
      </trkpt>
      <trkpt lat="44.67402" lon="1.48326">
        <ele>242</ele>
        <time>2019-08-13T12:46:29.517Z</time>
      </trkpt>
      <trkpt lat="44.67399" lon="1.48332">
        <ele>242</ele>
        <time>2019-08-13T12:46:34.519Z</time>
      </trkpt>
      <trkpt lat="44.674" lon="1.48342">
        <ele>242</ele>
        <time>2019-08-13T12:46:39.527Z</time>
      </trkpt>
      <trkpt lat="44.674" lon="1.48342">
        <ele>242</ele>
        <time>2019-08-13T12:46:44.528Z</time>
      </trkpt>
      <trkpt lat="44.674" lon="1.48343">
        <ele>242</ele>
        <time>2019-08-13T12:46:49.516Z</time>
      </trkpt>
      <trkpt lat="44.67402" lon="1.48352">
        <ele>240</ele>
        <time>2019-08-13T12:46:53.517Z</time>
      </trkpt>
      <trkpt lat="44.67405" lon="1.48363">
        <ele>249</ele>
        <time>2019-08-13T12:46:58.523Z</time>
      </trkpt>
      <trkpt lat="44.67407" lon="1.48372">
        <ele>249</ele>
        <time>2019-08-13T12:47:03.543Z</time>
      </trkpt>
      <trkpt lat="44.67409" lon="1.48383">
        <ele>247</ele>
        <time>2019-08-13T12:47:08.526Z</time>
      </trkpt>
      <trkpt lat="44.67409" lon="1.48394">
        <ele>247</ele>
        <time>2019-08-13T12:47:13.521Z</time>
      </trkpt>
      <trkpt lat="44.6741" lon="1.48406">
        <ele>247</ele>
        <time>2019-08-13T12:47:18.529Z</time>
      </trkpt>
      <trkpt lat="44.67412" lon="1.48417">
        <ele>247</ele>
        <time>2019-08-13T12:47:23.518Z</time>
      </trkpt>
      <trkpt lat="44.67413" lon="1.48427">
        <ele>247</ele>
        <time>2019-08-13T12:47:28.533Z</time>
      </trkpt>
      <trkpt lat="44.67414" lon="1.48433">
        <ele>246</ele>
        <time>2019-08-13T12:47:32.537Z</time>
      </trkpt>
      <trkpt lat="44.67412" lon="1.48439">
        <ele>246</ele>
        <time>2019-08-13T12:47:37.522Z</time>
      </trkpt>
      <trkpt lat="44.67412" lon="1.48447">
        <ele>246</ele>
        <time>2019-08-13T12:47:42.520Z</time>
      </trkpt>
      <trkpt lat="44.67414" lon="1.48459">
        <ele>245</ele>
        <time>2019-08-13T12:47:47.518Z</time>
      </trkpt>
      <trkpt lat="44.67415" lon="1.48467">
        <ele>245</ele>
        <time>2019-08-13T12:47:51.541Z</time>
      </trkpt>
      <trkpt lat="44.67417" lon="1.48477">
        <ele>245</ele>
        <time>2019-08-13T12:47:56.519Z</time>
      </trkpt>
      <trkpt lat="44.6742" lon="1.48486">
        <ele>245</ele>
        <time>2019-08-13T12:48:00.519Z</time>
      </trkpt>
      <trkpt lat="44.67422" lon="1.48495">
        <ele>246</ele>
        <time>2019-08-13T12:48:05.529Z</time>
      </trkpt>
      <trkpt lat="44.67425" lon="1.48505">
        <ele>246</ele>
        <time>2019-08-13T12:48:10.527Z</time>
      </trkpt>
      <trkpt lat="44.67425" lon="1.48514">
        <ele>244</ele>
        <time>2019-08-13T12:48:15.523Z</time>
      </trkpt>
      <trkpt lat="44.67427" lon="1.48524">
        <ele>244</ele>
        <time>2019-08-13T12:48:20.525Z</time>
      </trkpt>
      <trkpt lat="44.6743" lon="1.48533">
        <ele>244</ele>
        <time>2019-08-13T12:48:24.537Z</time>
      </trkpt>
      <trkpt lat="44.67433" lon="1.48542">
        <ele>253</ele>
        <time>2019-08-13T12:48:29.529Z</time>
      </trkpt>
      <trkpt lat="44.67435" lon="1.48548">
        <ele>249</ele>
        <time>2019-08-13T12:48:33.534Z</time>
      </trkpt>
      <trkpt lat="44.67437" lon="1.48557">
        <ele>249</ele>
        <time>2019-08-13T12:48:38.522Z</time>
      </trkpt>
      <trkpt lat="44.67439" lon="1.48566">
        <ele>249</ele>
        <time>2019-08-13T12:48:43.526Z</time>
      </trkpt>
      <trkpt lat="44.67442" lon="1.48573">
        <ele>245</ele>
        <time>2019-08-13T12:48:47.538Z</time>
      </trkpt>
      <trkpt lat="44.67443" lon="1.48584">
        <ele>245</ele>
        <time>2019-08-13T12:48:52.531Z</time>
      </trkpt>
      <trkpt lat="44.67444" lon="1.48594">
        <ele>245</ele>
        <time>2019-08-13T12:48:57.530Z</time>
      </trkpt>
      <trkpt lat="44.67446" lon="1.48602">
        <ele>243</ele>
        <time>2019-08-13T12:49:01.565Z</time>
      </trkpt>
      <trkpt lat="44.67447" lon="1.4861">
        <ele>243</ele>
        <time>2019-08-13T12:49:05.529Z</time>
      </trkpt>
      <trkpt lat="44.67448" lon="1.48621">
        <ele>243</ele>
        <time>2019-08-13T12:49:10.522Z</time>
      </trkpt>
      <trkpt lat="44.67449" lon="1.4863">
        <ele>243</ele>
        <time>2019-08-13T12:49:14.532Z</time>
      </trkpt>
      <trkpt lat="44.6745" lon="1.48641">
        <ele>243</ele>
        <time>2019-08-13T12:49:19.538Z</time>
      </trkpt>
      <trkpt lat="44.67451" lon="1.48651">
        <ele>243</ele>
        <time>2019-08-13T12:49:24.518Z</time>
      </trkpt>
      <trkpt lat="44.67452" lon="1.4866">
        <ele>243</ele>
        <time>2019-08-13T12:49:29.527Z</time>
      </trkpt>
      <trkpt lat="44.67454" lon="1.48669">
        <ele>243</ele>
        <time>2019-08-13T12:49:34.528Z</time>
      </trkpt>
      <trkpt lat="44.67455" lon="1.48679">
        <ele>243</ele>
        <time>2019-08-13T12:49:39.539Z</time>
      </trkpt>
      <trkpt lat="44.67455" lon="1.48687">
        <ele>241</ele>
        <time>2019-08-13T12:49:43.552Z</time>
      </trkpt>
      <trkpt lat="44.67455" lon="1.48698">
        <ele>241</ele>
        <time>2019-08-13T12:49:48.534Z</time>
      </trkpt>
      <trkpt lat="44.67456" lon="1.48709">
        <ele>242</ele>
        <time>2019-08-13T12:49:53.555Z</time>
      </trkpt>
      <trkpt lat="44.67457" lon="1.48717">
        <ele>242</ele>
        <time>2019-08-13T12:49:57.526Z</time>
      </trkpt>
      <trkpt lat="44.67458" lon="1.48729">
        <ele>252</ele>
        <time>2019-08-13T12:50:02.526Z</time>
      </trkpt>
      <trkpt lat="44.67459" lon="1.48738">
        <ele>254</ele>
        <time>2019-08-13T12:50:07.513Z</time>
      </trkpt>
      <trkpt lat="44.67459" lon="1.48745">
        <ele>254</ele>
        <time>2019-08-13T12:50:11.521Z</time>
      </trkpt>
      <trkpt lat="44.67461" lon="1.48754">
        <ele>254</ele>
        <time>2019-08-13T12:50:16.504Z</time>
      </trkpt>
      <trkpt lat="44.67461" lon="1.48764">
        <ele>254</ele>
        <time>2019-08-13T12:50:21.525Z</time>
      </trkpt>
      <trkpt lat="44.67462" lon="1.48775">
        <ele>254</ele>
        <time>2019-08-13T12:50:26.520Z</time>
      </trkpt>
      <trkpt lat="44.67463" lon="1.48782">
        <ele>254</ele>
        <time>2019-08-13T12:50:30.531Z</time>
      </trkpt>
      <trkpt lat="44.67463" lon="1.48791">
        <ele>254</ele>
        <time>2019-08-13T12:50:35.533Z</time>
      </trkpt>
      <trkpt lat="44.67463" lon="1.48802">
        <ele>252</ele>
        <time>2019-08-13T12:50:40.518Z</time>
      </trkpt>
      <trkpt lat="44.67463" lon="1.4881">
        <ele>252</ele>
        <time>2019-08-13T12:50:44.533Z</time>
      </trkpt>
      <trkpt lat="44.67464" lon="1.4882">
        <ele>252</ele>
        <time>2019-08-13T12:50:49.517Z</time>
      </trkpt>
      <trkpt lat="44.67464" lon="1.48826">
        <ele>252</ele>
        <time>2019-08-13T12:50:53.526Z</time>
      </trkpt>
      <trkpt lat="44.67464" lon="1.48836">
        <ele>252</ele>
        <time>2019-08-13T12:50:58.530Z</time>
      </trkpt>
      <trkpt lat="44.67464" lon="1.48846">
        <ele>252</ele>
        <time>2019-08-13T12:51:03.531Z</time>
      </trkpt>
      <trkpt lat="44.67461" lon="1.48853">
        <ele>251</ele>
        <time>2019-08-13T12:51:08.526Z</time>
      </trkpt>
      <trkpt lat="44.67448" lon="1.48849">
        <ele>241</ele>
        <time>2019-08-13T12:51:13.555Z</time>
      </trkpt>
      <trkpt lat="44.6744" lon="1.48849">
        <ele>241</ele>
        <time>2019-08-13T12:51:18.533Z</time>
      </trkpt>
      <trkpt lat="44.67431" lon="1.48849">
        <ele>241</ele>
        <time>2019-08-13T12:51:23.529Z</time>
      </trkpt>
      <trkpt lat="44.67426" lon="1.4885">
        <ele>236</ele>
        <time>2019-08-13T12:51:27.541Z</time>
      </trkpt>
      <trkpt lat="44.67419" lon="1.48849">
        <ele>236</ele>
        <time>2019-08-13T12:51:32.529Z</time>
      </trkpt>
      <trkpt lat="44.67413" lon="1.48847">
        <ele>236</ele>
        <time>2019-08-13T12:51:36.520Z</time>
      </trkpt>
      <trkpt lat="44.67406" lon="1.48846">
        <ele>237</ele>
        <time>2019-08-13T12:51:41.555Z</time>
      </trkpt>
      <trkpt lat="44.674" lon="1.48846">
        <ele>236</ele>
        <time>2019-08-13T12:51:46.518Z</time>
      </trkpt>
      <trkpt lat="44.67395" lon="1.48844">
        <ele>236</ele>
        <time>2019-08-13T12:51:50.533Z</time>
      </trkpt>
      <trkpt lat="44.67388" lon="1.48842">
        <ele>236</ele>
        <time>2019-08-13T12:51:55.520Z</time>
      </trkpt>
      <trkpt lat="44.67382" lon="1.4884">
        <ele>236</ele>
        <time>2019-08-13T12:51:59.525Z</time>
      </trkpt>
      <trkpt lat="44.67375" lon="1.48835">
        <ele>236</ele>
        <time>2019-08-13T12:52:04.526Z</time>
      </trkpt>
      <trkpt lat="44.67368" lon="1.4883">
        <ele>236</ele>
        <time>2019-08-13T12:52:09.527Z</time>
      </trkpt>
      <trkpt lat="44.67362" lon="1.48825">
        <ele>236</ele>
        <time>2019-08-13T12:52:14.515Z</time>
      </trkpt>
      <trkpt lat="44.67357" lon="1.48819">
        <ele>236</ele>
        <time>2019-08-13T12:52:18.522Z</time>
      </trkpt>
      <trkpt lat="44.6735" lon="1.48814">
        <ele>235</ele>
        <time>2019-08-13T12:52:23.530Z</time>
      </trkpt>
      <trkpt lat="44.67343" lon="1.48809">
        <ele>235</ele>
        <time>2019-08-13T12:52:28.528Z</time>
      </trkpt>
      <trkpt lat="44.67337" lon="1.48809">
        <ele>235</ele>
        <time>2019-08-13T12:52:33.528Z</time>
      </trkpt>
      <trkpt lat="44.67331" lon="1.48808">
        <ele>235</ele>
        <time>2019-08-13T12:52:37.538Z</time>
      </trkpt>
      <trkpt lat="44.67325" lon="1.48808">
        <ele>235</ele>
        <time>2019-08-13T12:52:42.520Z</time>
      </trkpt>
      <trkpt lat="44.67319" lon="1.4881">
        <ele>235</ele>
        <time>2019-08-13T12:52:46.534Z</time>
      </trkpt>
      <trkpt lat="44.67311" lon="1.48812">
        <ele>235</ele>
        <time>2019-08-13T12:52:51.535Z</time>
      </trkpt>
      <trkpt lat="44.67303" lon="1.48814">
        <ele>235</ele>
        <time>2019-08-13T12:52:56.533Z</time>
      </trkpt>
      <trkpt lat="44.67296" lon="1.48816">
        <ele>235</ele>
        <time>2019-08-13T12:53:01.535Z</time>
      </trkpt>
      <trkpt lat="44.67289" lon="1.48816">
        <ele>235</ele>
        <time>2019-08-13T12:53:06.526Z</time>
      </trkpt>
      <trkpt lat="44.67284" lon="1.48814">
        <ele>235</ele>
        <time>2019-08-13T12:53:10.535Z</time>
      </trkpt>
      <trkpt lat="44.67279" lon="1.48816">
        <ele>235</ele>
        <time>2019-08-13T12:53:15.535Z</time>
      </trkpt>
      <trkpt lat="44.67279" lon="1.48824">
        <ele>236</ele>
        <time>2019-08-13T12:53:20.533Z</time>
      </trkpt>
      <trkpt lat="44.6728" lon="1.48835">
        <ele>236</ele>
        <time>2019-08-13T12:53:25.522Z</time>
      </trkpt>
      <trkpt lat="44.6728" lon="1.48842">
        <ele>236</ele>
        <time>2019-08-13T12:53:29.527Z</time>
      </trkpt>
      <trkpt lat="44.6728" lon="1.48851">
        <ele>236</ele>
        <time>2019-08-13T12:53:34.529Z</time>
      </trkpt>
      <trkpt lat="44.67279" lon="1.48861">
        <ele>236</ele>
        <time>2019-08-13T12:53:39.526Z</time>
      </trkpt>
      <trkpt lat="44.67279" lon="1.48872">
        <ele>236</ele>
        <time>2019-08-13T12:53:44.536Z</time>
      </trkpt>
      <trkpt lat="44.67278" lon="1.48883">
        <ele>236</ele>
        <time>2019-08-13T12:53:49.539Z</time>
      </trkpt>
      <trkpt lat="44.67276" lon="1.48893">
        <ele>236</ele>
        <time>2019-08-13T12:53:54.534Z</time>
      </trkpt>
      <trkpt lat="44.67276" lon="1.48902">
        <ele>236</ele>
        <time>2019-08-13T12:53:58.531Z</time>
      </trkpt>
      <trkpt lat="44.67275" lon="1.48912">
        <ele>237</ele>
        <time>2019-08-13T12:54:03.522Z</time>
      </trkpt>
      <trkpt lat="44.67275" lon="1.4892">
        <ele>237</ele>
        <time>2019-08-13T12:54:08.531Z</time>
      </trkpt>
      <trkpt lat="44.67275" lon="1.4893">
        <ele>237</ele>
        <time>2019-08-13T12:54:13.529Z</time>
      </trkpt>
      <trkpt lat="44.67274" lon="1.4894">
        <ele>237</ele>
        <time>2019-08-13T12:54:18.529Z</time>
      </trkpt>
      <trkpt lat="44.67273" lon="1.4895">
        <ele>237</ele>
        <time>2019-08-13T12:54:23.526Z</time>
      </trkpt>
      <trkpt lat="44.67273" lon="1.48961">
        <ele>237</ele>
        <time>2019-08-13T12:54:28.526Z</time>
      </trkpt>
      <trkpt lat="44.67272" lon="1.48971">
        <ele>237</ele>
        <time>2019-08-13T12:54:33.524Z</time>
      </trkpt>
      <trkpt lat="44.6727" lon="1.48981">
        <ele>237</ele>
        <time>2019-08-13T12:54:38.534Z</time>
      </trkpt>
      <trkpt lat="44.67269" lon="1.4899">
        <ele>237</ele>
        <time>2019-08-13T12:54:43.525Z</time>
      </trkpt>
      <trkpt lat="44.67269" lon="1.49">
        <ele>237</ele>
        <time>2019-08-13T12:54:48.531Z</time>
      </trkpt>
      <trkpt lat="44.67269" lon="1.4901">
        <ele>237</ele>
        <time>2019-08-13T12:54:53.529Z</time>
      </trkpt>
      <trkpt lat="44.67268" lon="1.49022">
        <ele>237</ele>
        <time>2019-08-13T12:54:58.519Z</time>
      </trkpt>
      <trkpt lat="44.67269" lon="1.49032">
        <ele>237</ele>
        <time>2019-08-13T12:55:03.521Z</time>
      </trkpt>
      <trkpt lat="44.67269" lon="1.49039">
        <ele>237</ele>
        <time>2019-08-13T12:55:07.542Z</time>
      </trkpt>
      <trkpt lat="44.67269" lon="1.49048">
        <ele>236</ele>
        <time>2019-08-13T12:55:12.538Z</time>
      </trkpt>
      <trkpt lat="44.67266" lon="1.49059">
        <ele>236</ele>
        <time>2019-08-13T12:55:17.535Z</time>
      </trkpt>
      <trkpt lat="44.67265" lon="1.49069">
        <ele>236</ele>
        <time>2019-08-13T12:55:22.526Z</time>
      </trkpt>
      <trkpt lat="44.67264" lon="1.49078">
        <ele>236</ele>
        <time>2019-08-13T12:55:26.532Z</time>
      </trkpt>
      <trkpt lat="44.67263" lon="1.49091">
        <ele>238</ele>
        <time>2019-08-13T12:55:31.525Z</time>
      </trkpt>
      <trkpt lat="44.67262" lon="1.49102">
        <ele>240</ele>
        <time>2019-08-13T12:55:36.532Z</time>
      </trkpt>
      <trkpt lat="44.67261" lon="1.49113">
        <ele>240</ele>
        <time>2019-08-13T12:55:41.532Z</time>
      </trkpt>
      <trkpt lat="44.67261" lon="1.49121">
        <ele>240</ele>
        <time>2019-08-13T12:55:45.536Z</time>
      </trkpt>
      <trkpt lat="44.67261" lon="1.4913">
        <ele>244</ele>
        <time>2019-08-13T12:55:50.520Z</time>
      </trkpt>
      <trkpt lat="44.67262" lon="1.49138">
        <ele>244</ele>
        <time>2019-08-13T12:55:55.516Z</time>
      </trkpt>
      <trkpt lat="44.67262" lon="1.49145">
        <ele>244</ele>
        <time>2019-08-13T12:56:00.519Z</time>
      </trkpt>
      <trkpt lat="44.67264" lon="1.49151">
        <ele>244</ele>
        <time>2019-08-13T12:56:05.528Z</time>
      </trkpt>
      <trkpt lat="44.67264" lon="1.49161">
        <ele>241</ele>
        <time>2019-08-13T12:56:10.527Z</time>
      </trkpt>
      <trkpt lat="44.67264" lon="1.49169">
        <ele>246</ele>
        <time>2019-08-13T12:56:14.518Z</time>
      </trkpt>
      <trkpt lat="44.67264" lon="1.49176">
        <ele>241</ele>
        <time>2019-08-13T12:56:18.524Z</time>
      </trkpt>
      <trkpt lat="44.67265" lon="1.49184">
        <ele>243</ele>
        <time>2019-08-13T12:56:22.538Z</time>
      </trkpt>
      <trkpt lat="44.67266" lon="1.49193">
        <ele>243</ele>
        <time>2019-08-13T12:56:27.502Z</time>
      </trkpt>
      <trkpt lat="44.67267" lon="1.49201">
        <ele>243</ele>
        <time>2019-08-13T12:56:31.524Z</time>
      </trkpt>
      <trkpt lat="44.67268" lon="1.49209">
        <ele>244</ele>
        <time>2019-08-13T12:56:35.535Z</time>
      </trkpt>
      <trkpt lat="44.6727" lon="1.49218">
        <ele>244</ele>
        <time>2019-08-13T12:56:40.523Z</time>
      </trkpt>
      <trkpt lat="44.67272" lon="1.49226">
        <ele>244</ele>
        <time>2019-08-13T12:56:44.540Z</time>
      </trkpt>
      <trkpt lat="44.67275" lon="1.49234">
        <ele>244</ele>
        <time>2019-08-13T12:56:49.530Z</time>
      </trkpt>
      <trkpt lat="44.67276" lon="1.49244">
        <ele>244</ele>
        <time>2019-08-13T12:56:54.522Z</time>
      </trkpt>
      <trkpt lat="44.67278" lon="1.49251">
        <ele>244</ele>
        <time>2019-08-13T12:56:58.522Z</time>
      </trkpt>
      <trkpt lat="44.67279" lon="1.49261">
        <ele>244</ele>
        <time>2019-08-13T12:57:03.527Z</time>
      </trkpt>
      <trkpt lat="44.6728" lon="1.49271">
        <ele>246</ele>
        <time>2019-08-13T12:57:08.525Z</time>
      </trkpt>
      <trkpt lat="44.67282" lon="1.49281">
        <ele>246</ele>
        <time>2019-08-13T12:57:13.523Z</time>
      </trkpt>
      <trkpt lat="44.67284" lon="1.49289">
        <ele>246</ele>
        <time>2019-08-13T12:57:17.549Z</time>
      </trkpt>
      <trkpt lat="44.67285" lon="1.493">
        <ele>248</ele>
        <time>2019-08-13T12:57:22.531Z</time>
      </trkpt>
      <trkpt lat="44.67286" lon="1.49312">
        <ele>248</ele>
        <time>2019-08-13T12:57:27.533Z</time>
      </trkpt>
      <trkpt lat="44.67287" lon="1.49323">
        <ele>254</ele>
        <time>2019-08-13T12:57:32.533Z</time>
      </trkpt>
      <trkpt lat="44.67288" lon="1.49332">
        <ele>254</ele>
        <time>2019-08-13T12:57:36.530Z</time>
      </trkpt>
      <trkpt lat="44.6729" lon="1.49342">
        <ele>254</ele>
        <time>2019-08-13T12:57:41.522Z</time>
      </trkpt>
      <trkpt lat="44.67291" lon="1.49347">
        <ele>254</ele>
        <time>2019-08-13T12:57:45.524Z</time>
      </trkpt>
      <trkpt lat="44.67294" lon="1.49355">
        <ele>250</ele>
        <time>2019-08-13T12:57:50.531Z</time>
      </trkpt>
      <trkpt lat="44.67295" lon="1.49364">
        <ele>250</ele>
        <time>2019-08-13T12:57:55.528Z</time>
      </trkpt>
      <trkpt lat="44.67294" lon="1.49375">
        <ele>250</ele>
        <time>2019-08-13T12:58:00.534Z</time>
      </trkpt>
      <trkpt lat="44.67296" lon="1.4938">
        <ele>254</ele>
        <time>2019-08-13T12:58:04.523Z</time>
      </trkpt>
      <trkpt lat="44.67297" lon="1.49386">
        <ele>254</ele>
        <time>2019-08-13T12:58:08.532Z</time>
      </trkpt>
      <trkpt lat="44.67299" lon="1.49395">
        <ele>254</ele>
        <time>2019-08-13T12:58:13.535Z</time>
      </trkpt>
      <trkpt lat="44.673" lon="1.49406">
        <ele>257</ele>
        <time>2019-08-13T12:58:18.522Z</time>
      </trkpt>
      <trkpt lat="44.67301" lon="1.49414">
        <ele>257</ele>
        <time>2019-08-13T12:58:22.522Z</time>
      </trkpt>
      <trkpt lat="44.67302" lon="1.49424">
        <ele>257</ele>
        <time>2019-08-13T12:58:27.526Z</time>
      </trkpt>
      <trkpt lat="44.67302" lon="1.49435">
        <ele>258</ele>
        <time>2019-08-13T12:58:32.505Z</time>
      </trkpt>
      <trkpt lat="44.67303" lon="1.49443">
        <ele>258</ele>
        <time>2019-08-13T12:58:36.510Z</time>
      </trkpt>
      <trkpt lat="44.673" lon="1.49451">
        <ele>258</ele>
        <time>2019-08-13T12:58:40.531Z</time>
      </trkpt>
      <trkpt lat="44.67298" lon="1.49458">
        <ele>260</ele>
        <time>2019-08-13T12:58:44.535Z</time>
      </trkpt>
      <trkpt lat="44.67296" lon="1.49469">
        <ele>260</ele>
        <time>2019-08-13T12:58:49.534Z</time>
      </trkpt>
      <trkpt lat="44.67294" lon="1.49476">
        <ele>260</ele>
        <time>2019-08-13T12:58:54.533Z</time>
      </trkpt>
      <trkpt lat="44.67295" lon="1.49483">
        <ele>260</ele>
        <time>2019-08-13T12:58:59.530Z</time>
      </trkpt>
      <trkpt lat="44.67295" lon="1.49491">
        <ele>261</ele>
        <time>2019-08-13T12:59:04.527Z</time>
      </trkpt>
      <trkpt lat="44.67297" lon="1.49499">
        <ele>261</ele>
        <time>2019-08-13T12:59:08.539Z</time>
      </trkpt>
      <trkpt lat="44.67299" lon="1.49509">
        <ele>261</ele>
        <time>2019-08-13T12:59:13.536Z</time>
      </trkpt>
      <trkpt lat="44.67301" lon="1.49516">
        <ele>264</ele>
        <time>2019-08-13T12:59:18.533Z</time>
      </trkpt>
      <trkpt lat="44.67304" lon="1.49523">
        <ele>264</ele>
        <time>2019-08-13T12:59:23.535Z</time>
      </trkpt>
      <trkpt lat="44.67307" lon="1.49532">
        <ele>264</ele>
        <time>2019-08-13T12:59:28.522Z</time>
      </trkpt>
      <trkpt lat="44.67309" lon="1.49538">
        <ele>264</ele>
        <time>2019-08-13T12:59:32.540Z</time>
      </trkpt>
      <trkpt lat="44.67312" lon="1.49546">
        <ele>266</ele>
        <time>2019-08-13T12:59:37.531Z</time>
      </trkpt>
      <trkpt lat="44.67314" lon="1.49552">
        <ele>266</ele>
        <time>2019-08-13T12:59:41.538Z</time>
      </trkpt>
      <trkpt lat="44.67314" lon="1.49553">
        <ele>266</ele>
        <time>2019-08-13T12:59:46.524Z</time>
      </trkpt>
      <trkpt lat="44.67314" lon="1.49555">
        <ele>266</ele>
        <time>2019-08-13T12:59:50.537Z</time>
      </trkpt>
      <trkpt lat="44.67318" lon="1.49563">
        <ele>266</ele>
        <time>2019-08-13T12:59:55.520Z</time>
      </trkpt>
      <trkpt lat="44.67321" lon="1.49571">
        <ele>262</ele>
        <time>2019-08-13T12:59:59.538Z</time>
      </trkpt>
      <trkpt lat="44.67324" lon="1.49581">
        <ele>262</ele>
        <time>2019-08-13T13:00:04.526Z</time>
      </trkpt>
      <trkpt lat="44.67327" lon="1.4959">
        <ele>262</ele>
        <time>2019-08-13T13:00:09.532Z</time>
      </trkpt>
      <trkpt lat="44.6733" lon="1.49599">
        <ele>265</ele>
        <time>2019-08-13T13:00:14.533Z</time>
      </trkpt>
      <trkpt lat="44.67334" lon="1.4961">
        <ele>265</ele>
        <time>2019-08-13T13:00:19.529Z</time>
      </trkpt>
      <trkpt lat="44.67337" lon="1.49622">
        <ele>265</ele>
        <time>2019-08-13T13:00:24.526Z</time>
      </trkpt>
      <trkpt lat="44.6734" lon="1.49634">
        <ele>268</ele>
        <time>2019-08-13T13:00:29.530Z</time>
      </trkpt>
      <trkpt lat="44.67341" lon="1.49643">
        <ele>268</ele>
        <time>2019-08-13T13:00:34.514Z</time>
      </trkpt>
      <trkpt lat="44.67344" lon="1.49654">
        <ele>270</ele>
        <time>2019-08-13T13:00:39.528Z</time>
      </trkpt>
      <trkpt lat="44.67347" lon="1.49663">
        <ele>270</ele>
        <time>2019-08-13T13:00:44.528Z</time>
      </trkpt>
      <trkpt lat="44.67349" lon="1.4967">
        <ele>261</ele>
        <time>2019-08-13T13:00:48.532Z</time>
      </trkpt>
      <trkpt lat="44.67355" lon="1.49676">
        <ele>261</ele>
        <time>2019-08-13T13:00:52.536Z</time>
      </trkpt>
      <trkpt lat="44.67361" lon="1.49686">
        <ele>263</ele>
        <time>2019-08-13T13:00:57.526Z</time>
      </trkpt>
      <trkpt lat="44.67367" lon="1.49699">
        <ele>263</ele>
        <time>2019-08-13T13:01:07.529Z</time>
      </trkpt>
      <trkpt lat="44.67367" lon="1.49699">
        <ele>263</ele>
        <time>2019-08-13T13:01:12.523Z</time>
      </trkpt>
      <trkpt lat="44.67368" lon="1.497">
        <ele>263</ele>
        <time>2019-08-13T13:01:16.527Z</time>
      </trkpt>
      <trkpt lat="44.67371" lon="1.49706">
        <ele>263</ele>
        <time>2019-08-13T13:01:21.535Z</time>
      </trkpt>
      <trkpt lat="44.67376" lon="1.49715">
        <ele>255</ele>
        <time>2019-08-13T13:01:26.534Z</time>
      </trkpt>
      <trkpt lat="44.6738" lon="1.49722">
        <ele>255</ele>
        <time>2019-08-13T13:01:30.525Z</time>
      </trkpt>
      <trkpt lat="44.67382" lon="1.49732">
        <ele>255</ele>
        <time>2019-08-13T13:01:35.520Z</time>
      </trkpt>
      <trkpt lat="44.67382" lon="1.49739">
        <ele>258</ele>
        <time>2019-08-13T13:01:40.522Z</time>
      </trkpt>
      <trkpt lat="44.67385" lon="1.49745">
        <ele>258</ele>
        <time>2019-08-13T13:01:44.534Z</time>
      </trkpt>
      <trkpt lat="44.67389" lon="1.49754">
        <ele>258</ele>
        <time>2019-08-13T13:01:49.524Z</time>
      </trkpt>
      <trkpt lat="44.67391" lon="1.49763">
        <ele>258</ele>
        <time>2019-08-13T13:01:54.522Z</time>
      </trkpt>
      <trkpt lat="44.67393" lon="1.49772">
        <ele>260</ele>
        <time>2019-08-13T13:01:59.526Z</time>
      </trkpt>
      <trkpt lat="44.67396" lon="1.49783">
        <ele>260</ele>
        <time>2019-08-13T13:02:04.520Z</time>
      </trkpt>
      <trkpt lat="44.67397" lon="1.49789">
        <ele>260</ele>
        <time>2019-08-13T13:02:08.537Z</time>
      </trkpt>
      <trkpt lat="44.67399" lon="1.49802">
        <ele>263</ele>
        <time>2019-08-13T13:02:13.524Z</time>
      </trkpt>
      <trkpt lat="44.67402" lon="1.49811">
        <ele>263</ele>
        <time>2019-08-13T13:02:17.537Z</time>
      </trkpt>
      <trkpt lat="44.67404" lon="1.49823">
        <ele>254</ele>
        <time>2019-08-13T13:02:22.524Z</time>
      </trkpt>
      <trkpt lat="44.67406" lon="1.49832">
        <ele>254</ele>
        <time>2019-08-13T13:02:27.527Z</time>
      </trkpt>
      <trkpt lat="44.6741" lon="1.49846">
        <ele>254</ele>
        <time>2019-08-13T13:02:32.531Z</time>
      </trkpt>
      <trkpt lat="44.67418" lon="1.49864">
        <ele>254</ele>
        <time>2019-08-13T13:02:37.534Z</time>
      </trkpt>
      <trkpt lat="44.67423" lon="1.49876">
        <ele>255</ele>
        <time>2019-08-13T13:02:42.525Z</time>
      </trkpt>
      <trkpt lat="44.67419" lon="1.49888">
        <ele>255</ele>
        <time>2019-08-13T13:03:20.529Z</time>
      </trkpt>
      <trkpt lat="44.67421" lon="1.49891">
        <ele>255</ele>
        <time>2019-08-13T13:03:25.526Z</time>
      </trkpt>
      <trkpt lat="44.67425" lon="1.49899">
        <ele>255</ele>
        <time>2019-08-13T13:03:30.520Z</time>
      </trkpt>
      <trkpt lat="44.67426" lon="1.49904">
        <ele>254</ele>
        <time>2019-08-13T13:03:35.535Z</time>
      </trkpt>
      <trkpt lat="44.67429" lon="1.49913">
        <ele>254</ele>
        <time>2019-08-13T13:03:40.529Z</time>
      </trkpt>
      <trkpt lat="44.6743" lon="1.49924">
        <ele>254</ele>
        <time>2019-08-13T13:03:45.569Z</time>
      </trkpt>
      <trkpt lat="44.6743" lon="1.49933">
        <ele>254</ele>
        <time>2019-08-13T13:03:50.519Z</time>
      </trkpt>
      <trkpt lat="44.67432" lon="1.49941">
        <ele>249</ele>
        <time>2019-08-13T13:03:54.531Z</time>
      </trkpt>
      <trkpt lat="44.67434" lon="1.49949">
        <ele>249</ele>
        <time>2019-08-13T13:03:58.526Z</time>
      </trkpt>
      <trkpt lat="44.67438" lon="1.49959">
        <ele>250</ele>
        <time>2019-08-13T13:04:03.531Z</time>
      </trkpt>
      <trkpt lat="44.67439" lon="1.49971">
        <ele>250</ele>
        <time>2019-08-13T13:04:08.520Z</time>
      </trkpt>
      <trkpt lat="44.6744" lon="1.49976">
        <ele>250</ele>
        <time>2019-08-13T13:04:13.533Z</time>
      </trkpt>
      <trkpt lat="44.67444" lon="1.49984">
        <ele>250</ele>
        <time>2019-08-13T13:04:18.529Z</time>
      </trkpt>
      <trkpt lat="44.67447" lon="1.49989">
        <ele>252</ele>
        <time>2019-08-13T13:04:23.552Z</time>
      </trkpt>
      <trkpt lat="44.6745" lon="1.49999">
        <ele>252</ele>
        <time>2019-08-13T13:04:28.531Z</time>
      </trkpt>
      <trkpt lat="44.67453" lon="1.5001">
        <ele>252</ele>
        <time>2019-08-13T13:04:33.518Z</time>
      </trkpt>
      <trkpt lat="44.67456" lon="1.50018">
        <ele>256</ele>
        <time>2019-08-13T13:04:37.528Z</time>
      </trkpt>
      <trkpt lat="44.67459" lon="1.50027">
        <ele>248</ele>
        <time>2019-08-13T13:04:42.506Z</time>
      </trkpt>
      <trkpt lat="44.67461" lon="1.50035">
        <ele>248</ele>
        <time>2019-08-13T13:04:46.533Z</time>
      </trkpt>
      <trkpt lat="44.67463" lon="1.50042">
        <ele>251</ele>
        <time>2019-08-13T13:04:51.528Z</time>
      </trkpt>
      <trkpt lat="44.67466" lon="1.5005">
        <ele>251</ele>
        <time>2019-08-13T13:04:55.578Z</time>
      </trkpt>
      <trkpt lat="44.67468" lon="1.50061">
        <ele>251</ele>
        <time>2019-08-13T13:05:00.527Z</time>
      </trkpt>
      <trkpt lat="44.6747" lon="1.50073">
        <ele>252</ele>
        <time>2019-08-13T13:05:05.583Z</time>
      </trkpt>
      <trkpt lat="44.67474" lon="1.50082">
        <ele>252</ele>
        <time>2019-08-13T13:05:10.534Z</time>
      </trkpt>
      <trkpt lat="44.67478" lon="1.50092">
        <ele>252</ele>
        <time>2019-08-13T13:05:14.529Z</time>
      </trkpt>
      <trkpt lat="44.67482" lon="1.50104">
        <ele>255</ele>
        <time>2019-08-13T13:05:19.528Z</time>
      </trkpt>
      <trkpt lat="44.67487" lon="1.50113">
        <ele>248</ele>
        <time>2019-08-13T13:05:23.528Z</time>
      </trkpt>
      <trkpt lat="44.6749" lon="1.50123">
        <ele>248</ele>
        <time>2019-08-13T13:05:28.531Z</time>
      </trkpt>
      <trkpt lat="44.67492" lon="1.50133">
        <ele>250</ele>
        <time>2019-08-13T13:05:32.525Z</time>
      </trkpt>
      <trkpt lat="44.67492" lon="1.50142">
        <ele>250</ele>
        <time>2019-08-13T13:05:37.534Z</time>
      </trkpt>
      <trkpt lat="44.67492" lon="1.5015">
        <ele>250</ele>
        <time>2019-08-13T13:05:42.525Z</time>
      </trkpt>
      <trkpt lat="44.67495" lon="1.50162">
        <ele>253</ele>
        <time>2019-08-13T13:05:47.537Z</time>
      </trkpt>
      <trkpt lat="44.67499" lon="1.50173">
        <ele>253</ele>
        <time>2019-08-13T13:05:52.513Z</time>
      </trkpt>
      <trkpt lat="44.67502" lon="1.50182">
        <ele>255</ele>
        <time>2019-08-13T13:05:56.527Z</time>
      </trkpt>
      <trkpt lat="44.67505" lon="1.50189">
        <ele>255</ele>
        <time>2019-08-13T13:06:00.525Z</time>
      </trkpt>
      <trkpt lat="44.67509" lon="1.50199">
        <ele>255</ele>
        <time>2019-08-13T13:06:05.538Z</time>
      </trkpt>
      <trkpt lat="44.67512" lon="1.50207">
        <ele>255</ele>
        <time>2019-08-13T13:06:09.541Z</time>
      </trkpt>
      <trkpt lat="44.67516" lon="1.50217">
        <ele>251</ele>
        <time>2019-08-13T13:06:14.528Z</time>
      </trkpt>
      <trkpt lat="44.67519" lon="1.50226">
        <ele>251</ele>
        <time>2019-08-13T13:06:19.538Z</time>
      </trkpt>
      <trkpt lat="44.67522" lon="1.50237">
        <ele>252</ele>
        <time>2019-08-13T13:06:24.534Z</time>
      </trkpt>
      <trkpt lat="44.67524" lon="1.50246">
        <ele>252</ele>
        <time>2019-08-13T13:06:28.525Z</time>
      </trkpt>
      <trkpt lat="44.67526" lon="1.50254">
        <ele>252</ele>
        <time>2019-08-13T13:06:33.529Z</time>
      </trkpt>
      <trkpt lat="44.67527" lon="1.5026">
        <ele>252</ele>
        <time>2019-08-13T13:06:37.536Z</time>
      </trkpt>
      <trkpt lat="44.67531" lon="1.5027">
        <ele>253</ele>
        <time>2019-08-13T13:06:42.523Z</time>
      </trkpt>
      <trkpt lat="44.67534" lon="1.50279">
        <ele>253</ele>
        <time>2019-08-13T13:06:47.529Z</time>
      </trkpt>
      <trkpt lat="44.67537" lon="1.50289">
        <ele>253</ele>
        <time>2019-08-13T13:06:52.526Z</time>
      </trkpt>
      <trkpt lat="44.6754" lon="1.50297">
        <ele>256</ele>
        <time>2019-08-13T13:06:56.531Z</time>
      </trkpt>
      <trkpt lat="44.67541" lon="1.50307">
        <ele>256</ele>
        <time>2019-08-13T13:07:01.511Z</time>
      </trkpt>
      <trkpt lat="44.67543" lon="1.50314">
        <ele>249</ele>
        <time>2019-08-13T13:07:05.529Z</time>
      </trkpt>
      <trkpt lat="44.67549" lon="1.50323">
        <ele>253</ele>
        <time>2019-08-13T13:07:10.529Z</time>
      </trkpt>
      <trkpt lat="44.67553" lon="1.50333">
        <ele>253</ele>
        <time>2019-08-13T13:07:15.507Z</time>
      </trkpt>
      <trkpt lat="44.67555" lon="1.50344">
        <ele>253</ele>
        <time>2019-08-13T13:07:20.529Z</time>
      </trkpt>
      <trkpt lat="44.67559" lon="1.50355">
        <ele>257</ele>
        <time>2019-08-13T13:07:25.533Z</time>
      </trkpt>
      <trkpt lat="44.67562" lon="1.50364">
        <ele>257</ele>
        <time>2019-08-13T13:07:30.526Z</time>
      </trkpt>
      <trkpt lat="44.67565" lon="1.50377">
        <ele>260</ele>
        <time>2019-08-13T13:07:35.531Z</time>
      </trkpt>
      <trkpt lat="44.67567" lon="1.50387">
        <ele>260</ele>
        <time>2019-08-13T13:07:40.543Z</time>
      </trkpt>
      <trkpt lat="44.67569" lon="1.50395">
        <ele>260</ele>
        <time>2019-08-13T13:07:44.532Z</time>
      </trkpt>
      <trkpt lat="44.67571" lon="1.50405">
        <ele>256</ele>
        <time>2019-08-13T13:07:48.540Z</time>
      </trkpt>
      <trkpt lat="44.67572" lon="1.50415">
        <ele>256</ele>
        <time>2019-08-13T13:07:53.528Z</time>
      </trkpt>
      <trkpt lat="44.67574" lon="1.50428">
        <ele>256</ele>
        <time>2019-08-13T13:07:58.524Z</time>
      </trkpt>
      <trkpt lat="44.67578" lon="1.50439">
        <ele>258</ele>
        <time>2019-08-13T13:08:03.524Z</time>
      </trkpt>
      <trkpt lat="44.6758" lon="1.50447">
        <ele>258</ele>
        <time>2019-08-13T13:08:07.543Z</time>
      </trkpt>
      <trkpt lat="44.67581" lon="1.50456">
        <ele>258</ele>
        <time>2019-08-13T13:08:12.513Z</time>
      </trkpt>
      <trkpt lat="44.67583" lon="1.50462">
        <ele>260</ele>
        <time>2019-08-13T13:08:16.543Z</time>
      </trkpt>
      <trkpt lat="44.67586" lon="1.5047">
        <ele>260</ele>
        <time>2019-08-13T13:08:21.526Z</time>
      </trkpt>
      <trkpt lat="44.67593" lon="1.50482">
        <ele>260</ele>
        <time>2019-08-13T13:08:26.569Z</time>
      </trkpt>
      <trkpt lat="44.67596" lon="1.50496">
        <ele>263</ele>
        <time>2019-08-13T13:08:31.518Z</time>
      </trkpt>
      <trkpt lat="44.67598" lon="1.50507">
        <ele>252</ele>
        <time>2019-08-13T13:08:36.583Z</time>
      </trkpt>
      <trkpt lat="44.67602" lon="1.50517">
        <ele>255</ele>
        <time>2019-08-13T13:08:41.520Z</time>
      </trkpt>
      <trkpt lat="44.67604" lon="1.50524">
        <ele>255</ele>
        <time>2019-08-13T13:08:45.533Z</time>
      </trkpt>
      <trkpt lat="44.67609" lon="1.50534">
        <ele>255</ele>
        <time>2019-08-13T13:08:50.545Z</time>
      </trkpt>
      <trkpt lat="44.67615" lon="1.50543">
        <ele>257</ele>
        <time>2019-08-13T13:08:55.515Z</time>
      </trkpt>
      <trkpt lat="44.67621" lon="1.50551">
        <ele>257</ele>
        <time>2019-08-13T13:08:59.518Z</time>
      </trkpt>
      <trkpt lat="44.67627" lon="1.50563">
        <ele>250</ele>
        <time>2019-08-13T13:09:04.530Z</time>
      </trkpt>
      <trkpt lat="44.67632" lon="1.50573">
        <ele>252</ele>
        <time>2019-08-13T13:09:09.529Z</time>
      </trkpt>
      <trkpt lat="44.67636" lon="1.50581">
        <ele>252</ele>
        <time>2019-08-13T13:09:13.508Z</time>
      </trkpt>
      <trkpt lat="44.6764" lon="1.50589">
        <ele>252</ele>
        <time>2019-08-13T13:09:17.527Z</time>
      </trkpt>
      <trkpt lat="44.67643" lon="1.50599">
        <ele>253</ele>
        <time>2019-08-13T13:09:22.535Z</time>
      </trkpt>
      <trkpt lat="44.67644" lon="1.50606">
        <ele>253</ele>
        <time>2019-08-13T13:09:26.524Z</time>
      </trkpt>
      <trkpt lat="44.67647" lon="1.50616">
        <ele>253</ele>
        <time>2019-08-13T13:09:31.534Z</time>
      </trkpt>
      <trkpt lat="44.67651" lon="1.50627">
        <ele>256</ele>
        <time>2019-08-13T13:09:36.532Z</time>
      </trkpt>
      <trkpt lat="44.67654" lon="1.50636">
        <ele>253</ele>
        <time>2019-08-13T13:09:41.522Z</time>
      </trkpt>
      <trkpt lat="44.67654" lon="1.50644">
        <ele>253</ele>
        <time>2019-08-13T13:09:45.536Z</time>
      </trkpt>
      <trkpt lat="44.67655" lon="1.50652">
        <ele>253</ele>
        <time>2019-08-13T13:09:50.554Z</time>
      </trkpt>
      <trkpt lat="44.67659" lon="1.50659">
        <ele>256</ele>
        <time>2019-08-13T13:09:54.536Z</time>
      </trkpt>
      <trkpt lat="44.67663" lon="1.50669">
        <ele>256</ele>
        <time>2019-08-13T13:09:59.525Z</time>
      </trkpt>
      <trkpt lat="44.67667" lon="1.50675">
        <ele>256</ele>
        <time>2019-08-13T13:10:03.530Z</time>
      </trkpt>
      <trkpt lat="44.67672" lon="1.50681">
        <ele>257</ele>
        <time>2019-08-13T13:10:08.531Z</time>
      </trkpt>
      <trkpt lat="44.67679" lon="1.50689">
        <ele>257</ele>
        <time>2019-08-13T13:10:13.535Z</time>
      </trkpt>
      <trkpt lat="44.67686" lon="1.50699">
        <ele>253</ele>
        <time>2019-08-13T13:10:18.583Z</time>
      </trkpt>
      <trkpt lat="44.6769" lon="1.50708">
        <ele>253</ele>
        <time>2019-08-13T13:10:22.531Z</time>
      </trkpt>
      <trkpt lat="44.67694" lon="1.50716">
        <ele>254</ele>
        <time>2019-08-13T13:10:26.544Z</time>
      </trkpt>
      <trkpt lat="44.67699" lon="1.50726">
        <ele>254</ele>
        <time>2019-08-13T13:10:31.536Z</time>
      </trkpt>
      <trkpt lat="44.67702" lon="1.50736">
        <ele>254</ele>
        <time>2019-08-13T13:10:36.535Z</time>
      </trkpt>
      <trkpt lat="44.67706" lon="1.50746">
        <ele>256</ele>
        <time>2019-08-13T13:10:41.534Z</time>
      </trkpt>
      <trkpt lat="44.6771" lon="1.50755">
        <ele>254</ele>
        <time>2019-08-13T13:10:46.533Z</time>
      </trkpt>
      <trkpt lat="44.67715" lon="1.50764">
        <ele>256</ele>
        <time>2019-08-13T13:10:51.523Z</time>
      </trkpt>
      <trkpt lat="44.67722" lon="1.50773">
        <ele>256</ele>
        <time>2019-08-13T13:10:56.542Z</time>
      </trkpt>
      <trkpt lat="44.67728" lon="1.5078">
        <ele>256</ele>
        <time>2019-08-13T13:11:01.533Z</time>
      </trkpt>
      <trkpt lat="44.67733" lon="1.50787">
        <ele>256</ele>
        <time>2019-08-13T13:11:06.526Z</time>
      </trkpt>
      <trkpt lat="44.67735" lon="1.50792">
        <ele>256</ele>
        <time>2019-08-13T13:11:10.537Z</time>
      </trkpt>
      <trkpt lat="44.67738" lon="1.50796">
        <ele>253</ele>
        <time>2019-08-13T13:11:15.526Z</time>
      </trkpt>
      <trkpt lat="44.67742" lon="1.50801">
        <ele>253</ele>
        <time>2019-08-13T13:11:20.527Z</time>
      </trkpt>
      <trkpt lat="44.67747" lon="1.50809">
        <ele>253</ele>
        <time>2019-08-13T13:11:24.552Z</time>
      </trkpt>
      <trkpt lat="44.67752" lon="1.50818">
        <ele>253</ele>
        <time>2019-08-13T13:11:29.520Z</time>
      </trkpt>
      <trkpt lat="44.67756" lon="1.50826">
        <ele>253</ele>
        <time>2019-08-13T13:11:33.530Z</time>
      </trkpt>
      <trkpt lat="44.6776" lon="1.50835">
        <ele>253</ele>
        <time>2019-08-13T13:11:38.532Z</time>
      </trkpt>
      <trkpt lat="44.67764" lon="1.50842">
        <ele>253</ele>
        <time>2019-08-13T13:11:43.529Z</time>
      </trkpt>
      <trkpt lat="44.67769" lon="1.50845">
        <ele>252</ele>
        <time>2019-08-13T13:11:48.532Z</time>
      </trkpt>
      <trkpt lat="44.67774" lon="1.50854">
        <ele>254</ele>
        <time>2019-08-13T13:11:53.523Z</time>
      </trkpt>
      <trkpt lat="44.67778" lon="1.50863">
        <ele>254</ele>
        <time>2019-08-13T13:11:58.534Z</time>
      </trkpt>
      <trkpt lat="44.6778" lon="1.50872">
        <ele>254</ele>
        <time>2019-08-13T13:12:02.558Z</time>
      </trkpt>
      <trkpt lat="44.67782" lon="1.50882">
        <ele>255</ele>
        <time>2019-08-13T13:12:07.540Z</time>
      </trkpt>
      <trkpt lat="44.67785" lon="1.50891">
        <ele>255</ele>
        <time>2019-08-13T13:12:12.530Z</time>
      </trkpt>
      <trkpt lat="44.67791" lon="1.50899">
        <ele>255</ele>
        <time>2019-08-13T13:12:17.516Z</time>
      </trkpt>
      <trkpt lat="44.67796" lon="1.50905">
        <ele>257</ele>
        <time>2019-08-13T13:12:21.529Z</time>
      </trkpt>
      <trkpt lat="44.67801" lon="1.5091">
        <ele>257</ele>
        <time>2019-08-13T13:12:25.535Z</time>
      </trkpt>
      <trkpt lat="44.67807" lon="1.50917">
        <ele>257</ele>
        <time>2019-08-13T13:12:30.541Z</time>
      </trkpt>
      <trkpt lat="44.67813" lon="1.50925">
        <ele>257</ele>
        <time>2019-08-13T13:12:35.525Z</time>
      </trkpt>
      <trkpt lat="44.67816" lon="1.50931">
        <ele>260</ele>
        <time>2019-08-13T13:12:39.526Z</time>
      </trkpt>
      <trkpt lat="44.67821" lon="1.50939">
        <ele>258</ele>
        <time>2019-08-13T13:12:44.538Z</time>
      </trkpt>
      <trkpt lat="44.67817" lon="1.50948">
        <ele>260</ele>
        <time>2019-08-13T13:14:29.514Z</time>
      </trkpt>
      <trkpt lat="44.67821" lon="1.50953">
        <ele>258</ele>
        <time>2019-08-13T13:14:33.530Z</time>
      </trkpt>
      <trkpt lat="44.67828" lon="1.50962">
        <ele>261</ele>
        <time>2019-08-13T13:14:38.514Z</time>
      </trkpt>
      <trkpt lat="44.67832" lon="1.50967">
        <ele>261</ele>
        <time>2019-08-13T13:14:42.538Z</time>
      </trkpt>
      <trkpt lat="44.67839" lon="1.50974">
        <ele>261</ele>
        <time>2019-08-13T13:14:47.522Z</time>
      </trkpt>
      <trkpt lat="44.67846" lon="1.50983">
        <ele>261</ele>
        <time>2019-08-13T13:14:52.522Z</time>
      </trkpt>
      <trkpt lat="44.6785" lon="1.50988">
        <ele>260</ele>
        <time>2019-08-13T13:14:56.528Z</time>
      </trkpt>
      <trkpt lat="44.67857" lon="1.50993">
        <ele>260</ele>
        <time>2019-08-13T13:15:01.535Z</time>
      </trkpt>
      <trkpt lat="44.67862" lon="1.50998">
        <ele>260</ele>
        <time>2019-08-13T13:15:06.528Z</time>
      </trkpt>
      <trkpt lat="44.67868" lon="1.51007">
        <ele>260</ele>
        <time>2019-08-13T13:15:11.522Z</time>
      </trkpt>
      <trkpt lat="44.67873" lon="1.51014">
        <ele>261</ele>
        <time>2019-08-13T13:15:15.538Z</time>
      </trkpt>
      <trkpt lat="44.67879" lon="1.5102">
        <ele>259</ele>
        <time>2019-08-13T13:15:20.510Z</time>
      </trkpt>
      <trkpt lat="44.67883" lon="1.51025">
        <ele>259</ele>
        <time>2019-08-13T13:15:24.524Z</time>
      </trkpt>
      <trkpt lat="44.67887" lon="1.51032">
        <ele>259</ele>
        <time>2019-08-13T13:15:29.515Z</time>
      </trkpt>
      <trkpt lat="44.67893" lon="1.51039">
        <ele>259</ele>
        <time>2019-08-13T13:15:34.523Z</time>
      </trkpt>
      <trkpt lat="44.67898" lon="1.51046">
        <ele>260</ele>
        <time>2019-08-13T13:15:39.526Z</time>
      </trkpt>
      <trkpt lat="44.67903" lon="1.51052">
        <ele>258</ele>
        <time>2019-08-13T13:15:43.537Z</time>
      </trkpt>
      <trkpt lat="44.6792" lon="1.51071">
        <ele>258</ele>
        <time>2019-08-13T13:16:03.519Z</time>
      </trkpt>
      <trkpt lat="44.67921" lon="1.51072">
        <ele>258</ele>
        <time>2019-08-13T13:16:07.529Z</time>
      </trkpt>
      <trkpt lat="44.67928" lon="1.51078">
        <ele>258</ele>
        <time>2019-08-13T13:16:11.537Z</time>
      </trkpt>
      <trkpt lat="44.67933" lon="1.51085">
        <ele>255</ele>
        <time>2019-08-13T13:16:16.539Z</time>
      </trkpt>
      <trkpt lat="44.67939" lon="1.51091">
        <ele>255</ele>
        <time>2019-08-13T13:16:21.515Z</time>
      </trkpt>
      <trkpt lat="44.67945" lon="1.51099">
        <ele>255</ele>
        <time>2019-08-13T13:16:26.530Z</time>
      </trkpt>
      <trkpt lat="44.67951" lon="1.51106">
        <ele>255</ele>
        <time>2019-08-13T13:16:31.517Z</time>
      </trkpt>
      <trkpt lat="44.67955" lon="1.51111">
        <ele>255</ele>
        <time>2019-08-13T13:16:35.523Z</time>
      </trkpt>
      <trkpt lat="44.67961" lon="1.51116">
        <ele>253</ele>
        <time>2019-08-13T13:16:40.536Z</time>
      </trkpt>
      <trkpt lat="44.67967" lon="1.51121">
        <ele>253</ele>
        <time>2019-08-13T13:16:45.522Z</time>
      </trkpt>
      <trkpt lat="44.67972" lon="1.51124">
        <ele>253</ele>
        <time>2019-08-13T13:16:49.527Z</time>
      </trkpt>
      <trkpt lat="44.67978" lon="1.51127">
        <ele>254</ele>
        <time>2019-08-13T13:16:53.521Z</time>
      </trkpt>
      <trkpt lat="44.67985" lon="1.51131">
        <ele>254</ele>
        <time>2019-08-13T13:16:58.521Z</time>
      </trkpt>
      <trkpt lat="44.67992" lon="1.51134">
        <ele>253</ele>
        <time>2019-08-13T13:17:03.510Z</time>
      </trkpt>
      <trkpt lat="44.67999" lon="1.51136">
        <ele>253</ele>
        <time>2019-08-13T13:17:07.522Z</time>
      </trkpt>
      <trkpt lat="44.68006" lon="1.5114">
        <ele>253</ele>
        <time>2019-08-13T13:17:12.514Z</time>
      </trkpt>
      <trkpt lat="44.68012" lon="1.51145">
        <ele>253</ele>
        <time>2019-08-13T13:17:17.538Z</time>
      </trkpt>
      <trkpt lat="44.68018" lon="1.5115">
        <ele>253</ele>
        <time>2019-08-13T13:17:22.528Z</time>
      </trkpt>
      <trkpt lat="44.68024" lon="1.51156">
        <ele>253</ele>
        <time>2019-08-13T13:17:27.519Z</time>
      </trkpt>
      <trkpt lat="44.68028" lon="1.51165">
        <ele>253</ele>
        <time>2019-08-13T13:17:32.534Z</time>
      </trkpt>
      <trkpt lat="44.68032" lon="1.51173">
        <ele>253</ele>
        <time>2019-08-13T13:17:37.529Z</time>
      </trkpt>
      <trkpt lat="44.68034" lon="1.51182">
        <ele>254</ele>
        <time>2019-08-13T13:17:42.534Z</time>
      </trkpt>
      <trkpt lat="44.68037" lon="1.51191">
        <ele>254</ele>
        <time>2019-08-13T13:17:47.531Z</time>
      </trkpt>
      <trkpt lat="44.68041" lon="1.51201">
        <ele>254</ele>
        <time>2019-08-13T13:17:52.526Z</time>
      </trkpt>
      <trkpt lat="44.68044" lon="1.51209">
        <ele>256</ele>
        <time>2019-08-13T13:17:57.524Z</time>
      </trkpt>
      <trkpt lat="44.6804" lon="1.5123">
        <ele>254</ele>
        <time>2019-08-13T13:18:39.531Z</time>
      </trkpt>
      <trkpt lat="44.68033" lon="1.51227">
        <ele>254</ele>
        <time>2019-08-13T13:18:44.523Z</time>
      </trkpt>
      <trkpt lat="44.68039" lon="1.51233">
        <ele>254</ele>
        <time>2019-08-13T13:18:49.521Z</time>
      </trkpt>
      <trkpt lat="44.68047" lon="1.51241">
        <ele>256</ele>
        <time>2019-08-13T13:18:54.532Z</time>
      </trkpt>
      <trkpt lat="44.68053" lon="1.5125">
        <ele>256</ele>
        <time>2019-08-13T13:18:59.526Z</time>
      </trkpt>
      <trkpt lat="44.68053" lon="1.51266">
        <ele>255</ele>
        <time>2019-08-13T13:19:04.532Z</time>
      </trkpt>
      <trkpt lat="44.6805" lon="1.51282">
        <ele>255</ele>
        <time>2019-08-13T13:19:09.526Z</time>
      </trkpt>
      <trkpt lat="44.6805" lon="1.51291">
        <ele>255</ele>
        <time>2019-08-13T13:19:13.525Z</time>
      </trkpt>
      <trkpt lat="44.6805" lon="1.51302">
        <ele>256</ele>
        <time>2019-08-13T13:19:18.517Z</time>
      </trkpt>
      <trkpt lat="44.68046" lon="1.51315">
        <ele>256</ele>
        <time>2019-08-13T13:19:31.519Z</time>
      </trkpt>
      <trkpt lat="44.68047" lon="1.51322">
        <ele>256</ele>
        <time>2019-08-13T13:19:35.526Z</time>
      </trkpt>
      <trkpt lat="44.68049" lon="1.51333">
        <ele>256</ele>
        <time>2019-08-13T13:19:40.517Z</time>
      </trkpt>
      <trkpt lat="44.68048" lon="1.51342">
        <ele>256</ele>
        <time>2019-08-13T13:19:45.518Z</time>
      </trkpt>
      <trkpt lat="44.68048" lon="1.51349">
        <ele>256</ele>
        <time>2019-08-13T13:19:49.525Z</time>
      </trkpt>
      <trkpt lat="44.68049" lon="1.51356">
        <ele>256</ele>
        <time>2019-08-13T13:19:53.530Z</time>
      </trkpt>
      <trkpt lat="44.68049" lon="1.51366">
        <ele>256</ele>
        <time>2019-08-13T13:19:58.534Z</time>
      </trkpt>
      <trkpt lat="44.68049" lon="1.51377">
        <ele>257</ele>
        <time>2019-08-13T13:20:03.527Z</time>
      </trkpt>
      <trkpt lat="44.6805" lon="1.51388">
        <ele>257</ele>
        <time>2019-08-13T13:20:08.531Z</time>
      </trkpt>
      <trkpt lat="44.68049" lon="1.514">
        <ele>257</ele>
        <time>2019-08-13T13:20:13.518Z</time>
      </trkpt>
      <trkpt lat="44.68046" lon="1.51409">
        <ele>258</ele>
        <time>2019-08-13T13:20:18.526Z</time>
      </trkpt>
      <trkpt lat="44.6804" lon="1.51416">
        <ele>257</ele>
        <time>2019-08-13T13:20:23.519Z</time>
      </trkpt>
      <trkpt lat="44.68036" lon="1.51422">
        <ele>257</ele>
        <time>2019-08-13T13:20:27.533Z</time>
      </trkpt>
      <trkpt lat="44.68028" lon="1.5143">
        <ele>257</ele>
        <time>2019-08-13T13:20:42.524Z</time>
      </trkpt>
      <trkpt lat="44.68025" lon="1.51432">
        <ele>260</ele>
        <time>2019-08-13T13:20:47.529Z</time>
      </trkpt>
      <trkpt lat="44.68024" lon="1.51432">
        <ele>260</ele>
        <time>2019-08-13T13:20:52.518Z</time>
      </trkpt>
      <trkpt lat="44.68024" lon="1.51433">
        <ele>260</ele>
        <time>2019-08-13T13:20:57.535Z</time>
      </trkpt>
      <trkpt lat="44.68023" lon="1.51438">
        <ele>260</ele>
        <time>2019-08-13T13:21:02.526Z</time>
      </trkpt>
      <trkpt lat="44.68021" lon="1.51445">
        <ele>260</ele>
        <time>2019-08-13T13:21:07.517Z</time>
      </trkpt>
      <trkpt lat="44.68018" lon="1.5145">
        <ele>260</ele>
        <time>2019-08-13T13:21:11.532Z</time>
      </trkpt>
      <trkpt lat="44.68014" lon="1.51455">
        <ele>261</ele>
        <time>2019-08-13T13:21:16.539Z</time>
      </trkpt>
      <trkpt lat="44.68011" lon="1.51459">
        <ele>265</ele>
        <time>2019-08-13T13:21:21.526Z</time>
      </trkpt>
      <trkpt lat="44.68007" lon="1.51459">
        <ele>265</ele>
        <time>2019-08-13T13:21:26.521Z</time>
      </trkpt>
      <trkpt lat="44.68006" lon="1.51457">
        <ele>261</ele>
        <time>2019-08-13T13:21:31.527Z</time>
      </trkpt>
      <trkpt lat="44.68005" lon="1.51459">
        <ele>265</ele>
        <time>2019-08-13T13:21:35.532Z</time>
      </trkpt>
      <trkpt lat="44.68003" lon="1.51467">
        <ele>265</ele>
        <time>2019-08-13T13:21:40.519Z</time>
      </trkpt>
      <trkpt lat="44.67999" lon="1.51477">
        <ele>265</ele>
        <time>2019-08-13T13:21:45.525Z</time>
      </trkpt>
      <trkpt lat="44.67997" lon="1.51487">
        <ele>267</ele>
        <time>2019-08-13T13:21:50.522Z</time>
      </trkpt>
      <trkpt lat="44.67995" lon="1.51493">
        <ele>267</ele>
        <time>2019-08-13T13:21:54.527Z</time>
      </trkpt>
      <trkpt lat="44.67991" lon="1.51499">
        <ele>267</ele>
        <time>2019-08-13T13:21:59.515Z</time>
      </trkpt>
      <trkpt lat="44.67986" lon="1.51503">
        <ele>267</ele>
        <time>2019-08-13T13:22:03.528Z</time>
      </trkpt>
      <trkpt lat="44.67981" lon="1.5151">
        <ele>268</ele>
        <time>2019-08-13T13:22:08.528Z</time>
      </trkpt>
      <trkpt lat="44.67976" lon="1.51517">
        <ele>270</ele>
        <time>2019-08-13T13:22:13.527Z</time>
      </trkpt>
      <trkpt lat="44.67974" lon="1.51523">
        <ele>270</ele>
        <time>2019-08-13T13:22:17.529Z</time>
      </trkpt>
      <trkpt lat="44.67971" lon="1.51533">
        <ele>270</ele>
        <time>2019-08-13T13:22:22.526Z</time>
      </trkpt>
      <trkpt lat="44.67967" lon="1.51541">
        <ele>270</ele>
        <time>2019-08-13T13:22:27.527Z</time>
      </trkpt>
      <trkpt lat="44.67963" lon="1.51547">
        <ele>271</ele>
        <time>2019-08-13T13:22:31.524Z</time>
      </trkpt>
      <trkpt lat="44.67958" lon="1.51556">
        <ele>272</ele>
        <time>2019-08-13T13:22:36.529Z</time>
      </trkpt>
      <trkpt lat="44.67954" lon="1.51564">
        <ele>272</ele>
        <time>2019-08-13T13:22:41.523Z</time>
      </trkpt>
      <trkpt lat="44.67952" lon="1.51574">
        <ele>272</ele>
        <time>2019-08-13T13:22:46.521Z</time>
      </trkpt>
      <trkpt lat="44.6795" lon="1.51582">
        <ele>272</ele>
        <time>2019-08-13T13:22:50.526Z</time>
      </trkpt>
      <trkpt lat="44.67949" lon="1.51588">
        <ele>272</ele>
        <time>2019-08-13T13:22:54.517Z</time>
      </trkpt>
      <trkpt lat="44.67947" lon="1.51594">
        <ele>272</ele>
        <time>2019-08-13T13:22:58.525Z</time>
      </trkpt>
      <trkpt lat="44.67946" lon="1.51602">
        <ele>273</ele>
        <time>2019-08-13T13:23:03.530Z</time>
      </trkpt>
      <trkpt lat="44.67945" lon="1.51611">
        <ele>273</ele>
        <time>2019-08-13T13:23:08.526Z</time>
      </trkpt>
      <trkpt lat="44.67944" lon="1.51621">
        <ele>273</ele>
        <time>2019-08-13T13:23:13.516Z</time>
      </trkpt>
      <trkpt lat="44.67943" lon="1.51628">
        <ele>274</ele>
        <time>2019-08-13T13:23:17.531Z</time>
      </trkpt>
      <trkpt lat="44.67941" lon="1.51636">
        <ele>274</ele>
        <time>2019-08-13T13:23:22.534Z</time>
      </trkpt>
      <trkpt lat="44.67939" lon="1.51648">
        <ele>274</ele>
        <time>2019-08-13T13:23:27.523Z</time>
      </trkpt>
      <trkpt lat="44.67938" lon="1.5166">
        <ele>274</ele>
        <time>2019-08-13T13:23:32.529Z</time>
      </trkpt>
      <trkpt lat="44.67936" lon="1.5167">
        <ele>274</ele>
        <time>2019-08-13T13:23:37.527Z</time>
      </trkpt>
      <trkpt lat="44.67933" lon="1.51676">
        <ele>274</ele>
        <time>2019-08-13T13:23:41.530Z</time>
      </trkpt>
      <trkpt lat="44.67929" lon="1.51683">
        <ele>278</ele>
        <time>2019-08-13T13:23:46.524Z</time>
      </trkpt>
      <trkpt lat="44.67926" lon="1.51692">
        <ele>278</ele>
        <time>2019-08-13T13:23:51.529Z</time>
      </trkpt>
      <trkpt lat="44.67926" lon="1.51702">
        <ele>278</ele>
        <time>2019-08-13T13:23:56.535Z</time>
      </trkpt>
      <trkpt lat="44.67923" lon="1.51712">
        <ele>278</ele>
        <time>2019-08-13T13:24:01.526Z</time>
      </trkpt>
      <trkpt lat="44.6792" lon="1.51721">
        <ele>278</ele>
        <time>2019-08-13T13:24:06.532Z</time>
      </trkpt>
      <trkpt lat="44.67919" lon="1.5173">
        <ele>278</ele>
        <time>2019-08-13T13:24:11.531Z</time>
      </trkpt>
      <trkpt lat="44.67917" lon="1.51738">
        <ele>278</ele>
        <time>2019-08-13T13:24:15.527Z</time>
      </trkpt>
      <trkpt lat="44.67915" lon="1.51748">
        <ele>278</ele>
        <time>2019-08-13T13:24:20.539Z</time>
      </trkpt>
      <trkpt lat="44.67912" lon="1.51756">
        <ele>278</ele>
        <time>2019-08-13T13:24:25.518Z</time>
      </trkpt>
      <trkpt lat="44.6791" lon="1.51761">
        <ele>278</ele>
        <time>2019-08-13T13:24:29.522Z</time>
      </trkpt>
      <trkpt lat="44.67909" lon="1.51768">
        <ele>278</ele>
        <time>2019-08-13T13:24:33.527Z</time>
      </trkpt>
      <trkpt lat="44.67907" lon="1.51779">
        <ele>278</ele>
        <time>2019-08-13T13:24:38.528Z</time>
      </trkpt>
      <trkpt lat="44.67904" lon="1.51789">
        <ele>278</ele>
        <time>2019-08-13T13:24:43.515Z</time>
      </trkpt>
      <trkpt lat="44.67902" lon="1.51798">
        <ele>280</ele>
        <time>2019-08-13T13:24:47.528Z</time>
      </trkpt>
      <trkpt lat="44.679" lon="1.51804">
        <ele>280</ele>
        <time>2019-08-13T13:24:51.519Z</time>
      </trkpt>
      <trkpt lat="44.67904" lon="1.5181">
        <ele>279</ele>
        <time>2019-08-13T13:24:56.519Z</time>
      </trkpt>
      <trkpt lat="44.67908" lon="1.51814">
        <ele>279</ele>
        <time>2019-08-13T13:25:00.534Z</time>
      </trkpt>
      <trkpt lat="44.67912" lon="1.51819">
        <ele>279</ele>
        <time>2019-08-13T13:25:04.533Z</time>
      </trkpt>
      <trkpt lat="44.67917" lon="1.51827">
        <ele>280</ele>
        <time>2019-08-13T13:25:09.527Z</time>
      </trkpt>
      <trkpt lat="44.6792" lon="1.51835">
        <ele>280</ele>
        <time>2019-08-13T13:25:14.533Z</time>
      </trkpt>
      <trkpt lat="44.67925" lon="1.51841">
        <ele>280</ele>
        <time>2019-08-13T13:25:19.539Z</time>
      </trkpt>
      <trkpt lat="44.67931" lon="1.51844">
        <ele>278</ele>
        <time>2019-08-13T13:25:24.538Z</time>
      </trkpt>
      <trkpt lat="44.67935" lon="1.5185">
        <ele>278</ele>
        <time>2019-08-13T13:25:29.531Z</time>
      </trkpt>
      <trkpt lat="44.67941" lon="1.51855">
        <ele>278</ele>
        <time>2019-08-13T13:25:34.522Z</time>
      </trkpt>
      <trkpt lat="44.67946" lon="1.51861">
        <ele>278</ele>
        <time>2019-08-13T13:25:39.516Z</time>
      </trkpt>
      <trkpt lat="44.6795" lon="1.51865">
        <ele>278</ele>
        <time>2019-08-13T13:25:44.526Z</time>
      </trkpt>
      <trkpt lat="44.67959" lon="1.51869">
        <ele>276</ele>
        <time>2019-08-13T13:25:49.522Z</time>
      </trkpt>
      <trkpt lat="44.67963" lon="1.51875">
        <ele>276</ele>
        <time>2019-08-13T13:25:53.501Z</time>
      </trkpt>
      <trkpt lat="44.67969" lon="1.51882">
        <ele>275</ele>
        <time>2019-08-13T13:25:58.504Z</time>
      </trkpt>
      <trkpt lat="44.67977" lon="1.51887">
        <ele>275</ele>
        <time>2019-08-13T13:26:02.522Z</time>
      </trkpt>
      <trkpt lat="44.67982" lon="1.51891">
        <ele>275</ele>
        <time>2019-08-13T13:26:06.527Z</time>
      </trkpt>
      <trkpt lat="44.67987" lon="1.51898">
        <ele>274</ele>
        <time>2019-08-13T13:26:11.527Z</time>
      </trkpt>
      <trkpt lat="44.6799" lon="1.51903">
        <ele>272</ele>
        <time>2019-08-13T13:26:16.542Z</time>
      </trkpt>
      <trkpt lat="44.67995" lon="1.51908">
        <ele>272</ele>
        <time>2019-08-13T13:26:21.520Z</time>
      </trkpt>
      <trkpt lat="44.68001" lon="1.51914">
        <ele>272</ele>
        <time>2019-08-13T13:26:26.514Z</time>
      </trkpt>
      <trkpt lat="44.68007" lon="1.51918">
        <ele>272</ele>
        <time>2019-08-13T13:26:31.524Z</time>
      </trkpt>
      <trkpt lat="44.68011" lon="1.51924">
        <ele>272</ele>
        <time>2019-08-13T13:26:36.527Z</time>
      </trkpt>
      <trkpt lat="44.68017" lon="1.51927">
        <ele>272</ele>
        <time>2019-08-13T13:26:41.530Z</time>
      </trkpt>
      <trkpt lat="44.68023" lon="1.51932">
        <ele>271</ele>
        <time>2019-08-13T13:26:46.521Z</time>
      </trkpt>
      <trkpt lat="44.68029" lon="1.51937">
        <ele>271</ele>
        <time>2019-08-13T13:26:51.521Z</time>
      </trkpt>
      <trkpt lat="44.68036" lon="1.51941">
        <ele>271</ele>
        <time>2019-08-13T13:26:56.526Z</time>
      </trkpt>
      <trkpt lat="44.68044" lon="1.51945">
        <ele>269</ele>
        <time>2019-08-13T13:27:01.532Z</time>
      </trkpt>
      <trkpt lat="44.68049" lon="1.51949">
        <ele>269</ele>
        <time>2019-08-13T13:27:06.504Z</time>
      </trkpt>
      <trkpt lat="44.68053" lon="1.51951">
        <ele>269</ele>
        <time>2019-08-13T13:27:10.514Z</time>
      </trkpt>
      <trkpt lat="44.68059" lon="1.51955">
        <ele>269</ele>
        <time>2019-08-13T13:27:15.522Z</time>
      </trkpt>
      <trkpt lat="44.68065" lon="1.51959">
        <ele>268</ele>
        <time>2019-08-13T13:27:19.542Z</time>
      </trkpt>
      <trkpt lat="44.68072" lon="1.51962">
        <ele>269</ele>
        <time>2019-08-13T13:27:24.533Z</time>
      </trkpt>
      <trkpt lat="44.68078" lon="1.51966">
        <ele>269</ele>
        <time>2019-08-13T13:27:29.527Z</time>
      </trkpt>
      <trkpt lat="44.68085" lon="1.51972">
        <ele>269</ele>
        <time>2019-08-13T13:27:34.516Z</time>
      </trkpt>
      <trkpt lat="44.68091" lon="1.51976">
        <ele>269</ele>
        <time>2019-08-13T13:27:39.534Z</time>
      </trkpt>
      <trkpt lat="44.68096" lon="1.51982">
        <ele>269</ele>
        <time>2019-08-13T13:27:44.533Z</time>
      </trkpt>
      <trkpt lat="44.68101" lon="1.5199">
        <ele>271</ele>
        <time>2019-08-13T13:27:49.529Z</time>
      </trkpt>
      <trkpt lat="44.68105" lon="1.51998">
        <ele>271</ele>
        <time>2019-08-13T13:27:54.524Z</time>
      </trkpt>
      <trkpt lat="44.68108" lon="1.52008">
        <ele>271</ele>
        <time>2019-08-13T13:27:59.510Z</time>
      </trkpt>
      <trkpt lat="44.68108" lon="1.52019">
        <ele>271</ele>
        <time>2019-08-13T13:28:04.528Z</time>
      </trkpt>
      <trkpt lat="44.68107" lon="1.52026">
        <ele>271</ele>
        <time>2019-08-13T13:28:09.527Z</time>
      </trkpt>
      <trkpt lat="44.68108" lon="1.52033">
        <ele>271</ele>
        <time>2019-08-13T13:28:14.530Z</time>
      </trkpt>
      <trkpt lat="44.68108" lon="1.52044">
        <ele>270</ele>
        <time>2019-08-13T13:28:19.526Z</time>
      </trkpt>
      <trkpt lat="44.68109" lon="1.52056">
        <ele>270</ele>
        <time>2019-08-13T13:28:23.528Z</time>
      </trkpt>
      <trkpt lat="44.68108" lon="1.52067">
        <ele>270</ele>
        <time>2019-08-13T13:28:28.526Z</time>
      </trkpt>
      <trkpt lat="44.68103" lon="1.52071">
        <ele>270</ele>
        <time>2019-08-13T13:28:33.532Z</time>
      </trkpt>
      <trkpt lat="44.68097" lon="1.52071">
        <ele>270</ele>
        <time>2019-08-13T13:28:38.525Z</time>
      </trkpt>
      <trkpt lat="44.6809" lon="1.5207">
        <ele>270</ele>
        <time>2019-08-13T13:28:43.525Z</time>
      </trkpt>
      <trkpt lat="44.68082" lon="1.5207">
        <ele>270</ele>
        <time>2019-08-13T13:28:48.521Z</time>
      </trkpt>
      <trkpt lat="44.68077" lon="1.52072">
        <ele>270</ele>
        <time>2019-08-13T13:28:52.526Z</time>
      </trkpt>
      <trkpt lat="44.68068" lon="1.52071">
        <ele>272</ele>
        <time>2019-08-13T13:28:57.518Z</time>
      </trkpt>
      <trkpt lat="44.68062" lon="1.52072">
        <ele>272</ele>
        <time>2019-08-13T13:29:02.528Z</time>
      </trkpt>
      <trkpt lat="44.68055" lon="1.52072">
        <ele>272</ele>
        <time>2019-08-13T13:29:07.522Z</time>
      </trkpt>
      <trkpt lat="44.6805" lon="1.52075">
        <ele>272</ele>
        <time>2019-08-13T13:29:11.527Z</time>
      </trkpt>
      <trkpt lat="44.68044" lon="1.52078">
        <ele>272</ele>
        <time>2019-08-13T13:29:16.520Z</time>
      </trkpt>
      <trkpt lat="44.68038" lon="1.52079">
        <ele>271</ele>
        <time>2019-08-13T13:29:21.527Z</time>
      </trkpt>
      <trkpt lat="44.68033" lon="1.52083">
        <ele>271</ele>
        <time>2019-08-13T13:29:25.522Z</time>
      </trkpt>
      <trkpt lat="44.68027" lon="1.52087">
        <ele>271</ele>
        <time>2019-08-13T13:29:30.523Z</time>
      </trkpt>
      <trkpt lat="44.68022" lon="1.5209">
        <ele>271</ele>
        <time>2019-08-13T13:29:34.524Z</time>
      </trkpt>
      <trkpt lat="44.68017" lon="1.52094">
        <ele>271</ele>
        <time>2019-08-13T13:29:38.520Z</time>
      </trkpt>
      <trkpt lat="44.68011" lon="1.52099">
        <ele>276</ele>
        <time>2019-08-13T13:29:43.512Z</time>
      </trkpt>
      <trkpt lat="44.68005" lon="1.52103">
        <ele>276</ele>
        <time>2019-08-13T13:29:48.527Z</time>
      </trkpt>
      <trkpt lat="44.67998" lon="1.52107">
        <ele>276</ele>
        <time>2019-08-13T13:29:53.511Z</time>
      </trkpt>
      <trkpt lat="44.67993" lon="1.52112">
        <ele>276</ele>
        <time>2019-08-13T13:29:57.526Z</time>
      </trkpt>
      <trkpt lat="44.67986" lon="1.52116">
        <ele>276</ele>
        <time>2019-08-13T13:30:02.526Z</time>
      </trkpt>
      <trkpt lat="44.67981" lon="1.5212">
        <ele>274</ele>
        <time>2019-08-13T13:30:07.522Z</time>
      </trkpt>
      <trkpt lat="44.67979" lon="1.52124">
        <ele>274</ele>
        <time>2019-08-13T13:30:11.530Z</time>
      </trkpt>
      <trkpt lat="44.67977" lon="1.52127">
        <ele>281</ele>
        <time>2019-08-13T13:30:15.525Z</time>
      </trkpt>
      <trkpt lat="44.67969" lon="1.52133">
        <ele>281</ele>
        <time>2019-08-13T13:30:20.528Z</time>
      </trkpt>
      <trkpt lat="44.6796" lon="1.52138">
        <ele>281</ele>
        <time>2019-08-13T13:30:25.522Z</time>
      </trkpt>
      <trkpt lat="44.67955" lon="1.52141">
        <ele>276</ele>
        <time>2019-08-13T13:30:29.527Z</time>
      </trkpt>
      <trkpt lat="44.6795" lon="1.52145">
        <ele>276</ele>
        <time>2019-08-13T13:30:34.521Z</time>
      </trkpt>
      <trkpt lat="44.67943" lon="1.52149">
        <ele>276</ele>
        <time>2019-08-13T13:30:39.526Z</time>
      </trkpt>
      <trkpt lat="44.67936" lon="1.52154">
        <ele>282</ele>
        <time>2019-08-13T13:30:44.524Z</time>
      </trkpt>
      <trkpt lat="44.67931" lon="1.52157">
        <ele>282</ele>
        <time>2019-08-13T13:30:49.523Z</time>
      </trkpt>
      <trkpt lat="44.67927" lon="1.5216">
        <ele>279</ele>
        <time>2019-08-13T13:30:53.520Z</time>
      </trkpt>
      <trkpt lat="44.67921" lon="1.52163">
        <ele>279</ele>
        <time>2019-08-13T13:30:58.515Z</time>
      </trkpt>
      <trkpt lat="44.67913" lon="1.52167">
        <ele>279</ele>
        <time>2019-08-13T13:31:03.523Z</time>
      </trkpt>
      <trkpt lat="44.67905" lon="1.52171">
        <ele>279</ele>
        <time>2019-08-13T13:31:08.520Z</time>
      </trkpt>
      <trkpt lat="44.679" lon="1.52176">
        <ele>276</ele>
        <time>2019-08-13T13:31:13.517Z</time>
      </trkpt>
      <trkpt lat="44.67896" lon="1.5218">
        <ele>276</ele>
        <time>2019-08-13T13:31:18.534Z</time>
      </trkpt>
      <trkpt lat="44.6789" lon="1.52184">
        <ele>283</ele>
        <time>2019-08-13T13:31:23.526Z</time>
      </trkpt>
      <trkpt lat="44.67885" lon="1.52189">
        <ele>283</ele>
        <time>2019-08-13T13:31:27.528Z</time>
      </trkpt>
      <trkpt lat="44.67879" lon="1.52194">
        <ele>283</ele>
        <time>2019-08-13T13:31:32.524Z</time>
      </trkpt>
      <trkpt lat="44.67875" lon="1.522">
        <ele>280</ele>
        <time>2019-08-13T13:31:36.529Z</time>
      </trkpt>
      <trkpt lat="44.67868" lon="1.52206">
        <ele>280</ele>
        <time>2019-08-13T13:31:41.517Z</time>
      </trkpt>
      <trkpt lat="44.67862" lon="1.5221">
        <ele>286</ele>
        <time>2019-08-13T13:31:45.511Z</time>
      </trkpt>
      <trkpt lat="44.67857" lon="1.52212">
        <ele>286</ele>
        <time>2019-08-13T13:31:49.523Z</time>
      </trkpt>
      <trkpt lat="44.67851" lon="1.52215">
        <ele>286</ele>
        <time>2019-08-13T13:31:54.520Z</time>
      </trkpt>
      <trkpt lat="44.67846" lon="1.52218">
        <ele>280</ele>
        <time>2019-08-13T13:31:58.550Z</time>
      </trkpt>
      <trkpt lat="44.67842" lon="1.52222">
        <ele>280</ele>
        <time>2019-08-13T13:32:03.512Z</time>
      </trkpt>
      <trkpt lat="44.67836" lon="1.52226">
        <ele>280</ele>
        <time>2019-08-13T13:32:07.513Z</time>
      </trkpt>
      <trkpt lat="44.67828" lon="1.52231">
        <ele>280</ele>
        <time>2019-08-13T13:32:12.523Z</time>
      </trkpt>
      <trkpt lat="44.67819" lon="1.52236">
        <ele>280</ele>
        <time>2019-08-13T13:32:17.565Z</time>
      </trkpt>
      <trkpt lat="44.67813" lon="1.5224">
        <ele>280</ele>
        <time>2019-08-13T13:32:22.518Z</time>
      </trkpt>
      <trkpt lat="44.67807" lon="1.52244">
        <ele>280</ele>
        <time>2019-08-13T13:32:27.525Z</time>
      </trkpt>
      <trkpt lat="44.678" lon="1.5225">
        <ele>280</ele>
        <time>2019-08-13T13:32:32.526Z</time>
      </trkpt>
      <trkpt lat="44.67794" lon="1.52257">
        <ele>280</ele>
        <time>2019-08-13T13:32:37.523Z</time>
      </trkpt>
      <trkpt lat="44.67788" lon="1.52263">
        <ele>275</ele>
        <time>2019-08-13T13:32:42.519Z</time>
      </trkpt>
      <trkpt lat="44.67783" lon="1.52269">
        <ele>278</ele>
        <time>2019-08-13T13:32:47.531Z</time>
      </trkpt>
      <trkpt lat="44.67778" lon="1.52275">
        <ele>278</ele>
        <time>2019-08-13T13:32:52.537Z</time>
      </trkpt>
      <trkpt lat="44.67774" lon="1.5228">
        <ele>278</ele>
        <time>2019-08-13T13:32:56.509Z</time>
      </trkpt>
      <trkpt lat="44.67769" lon="1.52287">
        <ele>278</ele>
        <time>2019-08-13T13:33:01.518Z</time>
      </trkpt>
      <trkpt lat="44.67764" lon="1.52295">
        <ele>283</ele>
        <time>2019-08-13T13:33:06.524Z</time>
      </trkpt>
      <trkpt lat="44.67758" lon="1.52303">
        <ele>279</ele>
        <time>2019-08-13T13:33:11.515Z</time>
      </trkpt>
      <trkpt lat="44.67752" lon="1.5231">
        <ele>279</ele>
        <time>2019-08-13T13:33:16.524Z</time>
      </trkpt>
      <trkpt lat="44.67748" lon="1.52318">
        <ele>279</ele>
        <time>2019-08-13T13:33:21.514Z</time>
      </trkpt>
      <trkpt lat="44.67747" lon="1.52326">
        <ele>282</ele>
        <time>2019-08-13T13:33:25.525Z</time>
      </trkpt>
      <trkpt lat="44.67743" lon="1.52335">
        <ele>282</ele>
        <time>2019-08-13T13:33:30.527Z</time>
      </trkpt>
      <trkpt lat="44.6774" lon="1.52345">
        <ele>282</ele>
        <time>2019-08-13T13:33:35.535Z</time>
      </trkpt>
      <trkpt lat="44.67736" lon="1.52354">
        <ele>280</ele>
        <time>2019-08-13T13:33:40.519Z</time>
      </trkpt>
      <trkpt lat="44.67733" lon="1.5236">
        <ele>280</ele>
        <time>2019-08-13T13:33:45.538Z</time>
      </trkpt>
      <trkpt lat="44.67729" lon="1.52367">
        <ele>280</ele>
        <time>2019-08-13T13:33:50.525Z</time>
      </trkpt>
      <trkpt lat="44.67723" lon="1.52373">
        <ele>280</ele>
        <time>2019-08-13T13:33:55.533Z</time>
      </trkpt>
      <trkpt lat="44.67716" lon="1.52379">
        <ele>283</ele>
        <time>2019-08-13T13:34:00.535Z</time>
      </trkpt>
      <trkpt lat="44.6771" lon="1.52385">
        <ele>283</ele>
        <time>2019-08-13T13:34:05.520Z</time>
      </trkpt>
      <trkpt lat="44.67705" lon="1.52393">
        <ele>279</ele>
        <time>2019-08-13T13:34:09.532Z</time>
      </trkpt>
      <trkpt lat="44.67699" lon="1.524">
        <ele>279</ele>
        <time>2019-08-13T13:34:14.518Z</time>
      </trkpt>
      <trkpt lat="44.67693" lon="1.52409">
        <ele>280</ele>
        <time>2019-08-13T13:34:19.517Z</time>
      </trkpt>
      <trkpt lat="44.6769" lon="1.52417">
        <ele>280</ele>
        <time>2019-08-13T13:34:23.536Z</time>
      </trkpt>
      <trkpt lat="44.67687" lon="1.52423">
        <ele>280</ele>
        <time>2019-08-13T13:34:27.512Z</time>
      </trkpt>
      <trkpt lat="44.67683" lon="1.52431">
        <ele>282</ele>
        <time>2019-08-13T13:34:32.513Z</time>
      </trkpt>
      <trkpt lat="44.67679" lon="1.52441">
        <ele>277</ele>
        <time>2019-08-13T13:34:37.571Z</time>
      </trkpt>
      <trkpt lat="44.67674" lon="1.52449">
        <ele>277</ele>
        <time>2019-08-13T13:34:42.518Z</time>
      </trkpt>
      <trkpt lat="44.6767" lon="1.52458">
        <ele>277</ele>
        <time>2019-08-13T13:34:47.523Z</time>
      </trkpt>
      <trkpt lat="44.67667" lon="1.52464">
        <ele>279</ele>
        <time>2019-08-13T13:34:51.524Z</time>
      </trkpt>
      <trkpt lat="44.67664" lon="1.52473">
        <ele>279</ele>
        <time>2019-08-13T13:34:56.527Z</time>
      </trkpt>
      <trkpt lat="44.67662" lon="1.52481">
        <ele>279</ele>
        <time>2019-08-13T13:35:00.519Z</time>
      </trkpt>
      <trkpt lat="44.67659" lon="1.52491">
        <ele>281</ele>
        <time>2019-08-13T13:35:05.531Z</time>
      </trkpt>
      <trkpt lat="44.67657" lon="1.52502">
        <ele>281</ele>
        <time>2019-08-13T13:35:10.522Z</time>
      </trkpt>
      <trkpt lat="44.67656" lon="1.52511">
        <ele>281</ele>
        <time>2019-08-13T13:35:15.530Z</time>
      </trkpt>
      <trkpt lat="44.67653" lon="1.52521">
        <ele>285</ele>
        <time>2019-08-13T13:35:20.522Z</time>
      </trkpt>
      <trkpt lat="44.6765" lon="1.52531">
        <ele>278</ele>
        <time>2019-08-13T13:35:25.522Z</time>
      </trkpt>
      <trkpt lat="44.67646" lon="1.5254">
        <ele>278</ele>
        <time>2019-08-13T13:35:30.501Z</time>
      </trkpt>
      <trkpt lat="44.67644" lon="1.52549">
        <ele>281</ele>
        <time>2019-08-13T13:35:35.523Z</time>
      </trkpt>
      <trkpt lat="44.67643" lon="1.52559">
        <ele>281</ele>
        <time>2019-08-13T13:35:40.526Z</time>
      </trkpt>
      <trkpt lat="44.67642" lon="1.52566">
        <ele>281</ele>
        <time>2019-08-13T13:35:45.524Z</time>
      </trkpt>
      <trkpt lat="44.67639" lon="1.52575">
        <ele>282</ele>
        <time>2019-08-13T13:35:50.516Z</time>
      </trkpt>
      <trkpt lat="44.67638" lon="1.52584">
        <ele>282</ele>
        <time>2019-08-13T13:35:55.526Z</time>
      </trkpt>
      <trkpt lat="44.67636" lon="1.52594">
        <ele>282</ele>
        <time>2019-08-13T13:36:00.545Z</time>
      </trkpt>
      <trkpt lat="44.67635" lon="1.52604">
        <ele>284</ele>
        <time>2019-08-13T13:36:05.535Z</time>
      </trkpt>
      <trkpt lat="44.67632" lon="1.52612">
        <ele>284</ele>
        <time>2019-08-13T13:36:10.516Z</time>
      </trkpt>
      <trkpt lat="44.6763" lon="1.52623">
        <ele>284</ele>
        <time>2019-08-13T13:36:15.523Z</time>
      </trkpt>
      <trkpt lat="44.67626" lon="1.52632">
        <ele>286</ele>
        <time>2019-08-13T13:36:20.514Z</time>
      </trkpt>
      <trkpt lat="44.67618" lon="1.52632">
        <ele>280</ele>
        <time>2019-08-13T13:36:25.516Z</time>
      </trkpt>
      <trkpt lat="44.67611" lon="1.52628">
        <ele>280</ele>
        <time>2019-08-13T13:36:30.529Z</time>
      </trkpt>
      <trkpt lat="44.67602" lon="1.52623">
        <ele>277</ele>
        <time>2019-08-13T13:36:35.521Z</time>
      </trkpt>
      <trkpt lat="44.67594" lon="1.52621">
        <ele>278</ele>
        <time>2019-08-13T13:36:39.526Z</time>
      </trkpt>
      <trkpt lat="44.6759" lon="1.52625">
        <ele>278</ele>
        <time>2019-08-13T13:36:44.513Z</time>
      </trkpt>
      <trkpt lat="44.67588" lon="1.52633">
        <ele>280</ele>
        <time>2019-08-13T13:36:49.529Z</time>
      </trkpt>
      <trkpt lat="44.67585" lon="1.52645">
        <ele>280</ele>
        <time>2019-08-13T13:36:54.527Z</time>
      </trkpt>
      <trkpt lat="44.67582" lon="1.52654">
        <ele>280</ele>
        <time>2019-08-13T13:36:58.520Z</time>
      </trkpt>
      <trkpt lat="44.67579" lon="1.52663">
        <ele>280</ele>
        <time>2019-08-13T13:37:02.572Z</time>
      </trkpt>
      <trkpt lat="44.67577" lon="1.52674">
        <ele>280</ele>
        <time>2019-08-13T13:37:07.580Z</time>
      </trkpt>
      <trkpt lat="44.67572" lon="1.52682">
        <ele>280</ele>
        <time>2019-08-13T13:37:12.516Z</time>
      </trkpt>
      <trkpt lat="44.67566" lon="1.52688">
        <ele>277</ele>
        <time>2019-08-13T13:37:17.563Z</time>
      </trkpt>
      <trkpt lat="44.67561" lon="1.52694">
        <ele>277</ele>
        <time>2019-08-13T13:37:22.523Z</time>
      </trkpt>
      <trkpt lat="44.67556" lon="1.527">
        <ele>277</ele>
        <time>2019-08-13T13:37:27.513Z</time>
      </trkpt>
      <trkpt lat="44.6755" lon="1.52705">
        <ele>277</ele>
        <time>2019-08-13T13:37:32.508Z</time>
      </trkpt>
      <trkpt lat="44.67546" lon="1.52712">
        <ele>278</ele>
        <time>2019-08-13T13:37:37.524Z</time>
      </trkpt>
      <trkpt lat="44.6754" lon="1.5272">
        <ele>275</ele>
        <time>2019-08-13T13:37:42.518Z</time>
      </trkpt>
      <trkpt lat="44.67536" lon="1.52727">
        <ele>275</ele>
        <time>2019-08-13T13:37:47.513Z</time>
      </trkpt>
      <trkpt lat="44.67532" lon="1.5273">
        <ele>275</ele>
        <time>2019-08-13T13:37:52.524Z</time>
      </trkpt>
      <trkpt lat="44.67528" lon="1.52737">
        <ele>276</ele>
        <time>2019-08-13T13:37:57.508Z</time>
      </trkpt>
      <trkpt lat="44.67524" lon="1.52742">
        <ele>276</ele>
        <time>2019-08-13T13:38:02.528Z</time>
      </trkpt>
      <trkpt lat="44.67515" lon="1.52743">
        <ele>276</ele>
        <time>2019-08-13T13:38:07.524Z</time>
      </trkpt>
      <trkpt lat="44.67512" lon="1.52736">
        <ele>275</ele>
        <time>2019-08-13T13:38:12.520Z</time>
      </trkpt>
      <trkpt lat="44.67511" lon="1.52731">
        <ele>275</ele>
        <time>2019-08-13T13:38:17.516Z</time>
      </trkpt>
      <trkpt lat="44.6751" lon="1.5273">
        <ele>275</ele>
        <time>2019-08-13T13:38:22.518Z</time>
      </trkpt>
      <trkpt lat="44.6751" lon="1.5273">
        <ele>275</ele>
        <time>2019-08-13T13:38:27.513Z</time>
      </trkpt>
      <trkpt lat="44.67507" lon="1.52737">
        <ele>276</ele>
        <time>2019-08-13T13:38:32.523Z</time>
      </trkpt>
      <trkpt lat="44.67504" lon="1.52745">
        <ele>276</ele>
        <time>2019-08-13T13:38:37.522Z</time>
      </trkpt>
      <trkpt lat="44.675" lon="1.52752">
        <ele>276</ele>
        <time>2019-08-13T13:38:42.522Z</time>
      </trkpt>
      <trkpt lat="44.67495" lon="1.52761">
        <ele>276</ele>
        <time>2019-08-13T13:38:47.516Z</time>
      </trkpt>
      <trkpt lat="44.67491" lon="1.52766">
        <ele>276</ele>
        <time>2019-08-13T13:38:52.510Z</time>
      </trkpt>
      <trkpt lat="44.67484" lon="1.5277">
        <ele>278</ele>
        <time>2019-08-13T13:38:57.523Z</time>
      </trkpt>
      <trkpt lat="44.67479" lon="1.52778">
        <ele>278</ele>
        <time>2019-08-13T13:39:02.523Z</time>
      </trkpt>
      <trkpt lat="44.67474" lon="1.52786">
        <ele>278</ele>
        <time>2019-08-13T13:39:07.513Z</time>
      </trkpt>
      <trkpt lat="44.67469" lon="1.52792">
        <ele>280</ele>
        <time>2019-08-13T13:39:12.505Z</time>
      </trkpt>
      <trkpt lat="44.67465" lon="1.52797">
        <ele>280</ele>
        <time>2019-08-13T13:39:16.521Z</time>
      </trkpt>
      <trkpt lat="44.67461" lon="1.52804">
        <ele>280</ele>
        <time>2019-08-13T13:39:20.510Z</time>
      </trkpt>
      <trkpt lat="44.67456" lon="1.52812">
        <ele>281</ele>
        <time>2019-08-13T13:39:25.512Z</time>
      </trkpt>
      <trkpt lat="44.6745" lon="1.52817">
        <ele>281</ele>
        <time>2019-08-13T13:39:30.528Z</time>
      </trkpt>
      <trkpt lat="44.67445" lon="1.52821">
        <ele>281</ele>
        <time>2019-08-13T13:39:35.520Z</time>
      </trkpt>
      <trkpt lat="44.6744" lon="1.52825">
        <ele>281</ele>
        <time>2019-08-13T13:39:40.534Z</time>
      </trkpt>
      <trkpt lat="44.67432" lon="1.52831">
        <ele>281</ele>
        <time>2019-08-13T13:39:45.514Z</time>
      </trkpt>
      <trkpt lat="44.67425" lon="1.52837">
        <ele>280</ele>
        <time>2019-08-13T13:39:50.530Z</time>
      </trkpt>
      <trkpt lat="44.6742" lon="1.52843">
        <ele>280</ele>
        <time>2019-08-13T13:39:55.521Z</time>
      </trkpt>
      <trkpt lat="44.67415" lon="1.52849">
        <ele>280</ele>
        <time>2019-08-13T13:40:00.533Z</time>
      </trkpt>
      <trkpt lat="44.67413" lon="1.52855">
        <ele>280</ele>
        <time>2019-08-13T13:40:05.523Z</time>
      </trkpt>
      <trkpt lat="44.67414" lon="1.5286">
        <ele>280</ele>
        <time>2019-08-13T13:40:10.525Z</time>
      </trkpt>
      <trkpt lat="44.6742" lon="1.52865">
        <ele>280</ele>
        <time>2019-08-13T13:40:15.518Z</time>
      </trkpt>
      <trkpt lat="44.67425" lon="1.5287">
        <ele>280</ele>
        <time>2019-08-13T13:40:20.511Z</time>
      </trkpt>
      <trkpt lat="44.6743" lon="1.52879">
        <ele>280</ele>
        <time>2019-08-13T13:40:25.523Z</time>
      </trkpt>
      <trkpt lat="44.67436" lon="1.52889">
        <ele>281</ele>
        <time>2019-08-13T13:40:30.539Z</time>
      </trkpt>
      <trkpt lat="44.67439" lon="1.52898">
        <ele>281</ele>
        <time>2019-08-13T13:40:35.515Z</time>
      </trkpt>
      <trkpt lat="44.67441" lon="1.52904">
        <ele>282</ele>
        <time>2019-08-13T13:40:39.522Z</time>
      </trkpt>
      <trkpt lat="44.67445" lon="1.52911">
        <ele>282</ele>
        <time>2019-08-13T13:40:44.523Z</time>
      </trkpt>
      <trkpt lat="44.67447" lon="1.52917">
        <ele>282</ele>
        <time>2019-08-13T13:40:48.519Z</time>
      </trkpt>
      <trkpt lat="44.67448" lon="1.52926">
        <ele>282</ele>
        <time>2019-08-13T13:40:52.514Z</time>
      </trkpt>
      <trkpt lat="44.67446" lon="1.52933">
        <ele>282</ele>
        <time>2019-08-13T13:40:57.522Z</time>
      </trkpt>
      <trkpt lat="44.67441" lon="1.5294">
        <ele>282</ele>
        <time>2019-08-13T13:41:02.509Z</time>
      </trkpt>
      <trkpt lat="44.67438" lon="1.52948">
        <ele>282</ele>
        <time>2019-08-13T13:41:06.528Z</time>
      </trkpt>
      <trkpt lat="44.67432" lon="1.52958">
        <ele>282</ele>
        <time>2019-08-13T13:41:11.532Z</time>
      </trkpt>
      <trkpt lat="44.67426" lon="1.52964">
        <ele>282</ele>
        <time>2019-08-13T13:41:16.527Z</time>
      </trkpt>
      <trkpt lat="44.67422" lon="1.5297">
        <ele>282</ele>
        <time>2019-08-13T13:41:21.521Z</time>
      </trkpt>
      <trkpt lat="44.6742" lon="1.52976">
        <ele>282</ele>
        <time>2019-08-13T13:41:25.524Z</time>
      </trkpt>
      <trkpt lat="44.67413" lon="1.52981">
        <ele>282</ele>
        <time>2019-08-13T13:41:30.527Z</time>
      </trkpt>
      <trkpt lat="44.67406" lon="1.52986">
        <ele>284</ele>
        <time>2019-08-13T13:41:35.516Z</time>
      </trkpt>
      <trkpt lat="44.67401" lon="1.52991">
        <ele>282</ele>
        <time>2019-08-13T13:41:40.513Z</time>
      </trkpt>
      <trkpt lat="44.67396" lon="1.52996">
        <ele>282</ele>
        <time>2019-08-13T13:41:44.511Z</time>
      </trkpt>
      <trkpt lat="44.67392" lon="1.53004">
        <ele>282</ele>
        <time>2019-08-13T13:41:49.513Z</time>
      </trkpt>
      <trkpt lat="44.67389" lon="1.53011">
        <ele>282</ele>
        <time>2019-08-13T13:41:54.521Z</time>
      </trkpt>
      <trkpt lat="44.67385" lon="1.53017">
        <ele>284</ele>
        <time>2019-08-13T13:41:58.520Z</time>
      </trkpt>
      <trkpt lat="44.6738" lon="1.53023">
        <ele>284</ele>
        <time>2019-08-13T13:42:03.509Z</time>
      </trkpt>
      <trkpt lat="44.67378" lon="1.5303">
        <ele>284</ele>
        <time>2019-08-13T13:42:07.521Z</time>
      </trkpt>
      <trkpt lat="44.67376" lon="1.53035">
        <ele>284</ele>
        <time>2019-08-13T13:42:11.535Z</time>
      </trkpt>
      <trkpt lat="44.67371" lon="1.53044">
        <ele>283</ele>
        <time>2019-08-13T13:42:16.519Z</time>
      </trkpt>
      <trkpt lat="44.67367" lon="1.53044">
        <ele>283</ele>
        <time>2019-08-13T13:42:21.533Z</time>
      </trkpt>
      <trkpt lat="44.67366" lon="1.53044">
        <ele>283</ele>
        <time>2019-08-13T13:42:26.522Z</time>
      </trkpt>
      <trkpt lat="44.67361" lon="1.53053">
        <ele>283</ele>
        <time>2019-08-13T13:46:40.507Z</time>
      </trkpt>
      <trkpt lat="44.67361" lon="1.53054">
        <ele>283</ele>
        <time>2019-08-13T13:46:45.505Z</time>
      </trkpt>
      <trkpt lat="44.67361" lon="1.53056">
        <ele>283</ele>
        <time>2019-08-13T13:46:49.498Z</time>
      </trkpt>
      <trkpt lat="44.6736" lon="1.53055">
        <ele>283</ele>
        <time>2019-08-13T13:46:54.508Z</time>
      </trkpt>
      <trkpt lat="44.67359" lon="1.53057">
        <ele>283</ele>
        <time>2019-08-13T13:46:59.506Z</time>
      </trkpt>
      <trkpt lat="44.6736" lon="1.53056">
        <ele>283</ele>
        <time>2019-08-13T13:47:18.505Z</time>
      </trkpt>
      <trkpt lat="44.67357" lon="1.53063">
        <ele>283</ele>
        <time>2019-08-13T13:47:23.517Z</time>
      </trkpt>
      <trkpt lat="44.67354" lon="1.53068">
        <ele>283</ele>
        <time>2019-08-13T13:47:27.528Z</time>
      </trkpt>
      <trkpt lat="44.67347" lon="1.53074">
        <ele>281</ele>
        <time>2019-08-13T13:47:32.529Z</time>
      </trkpt>
      <trkpt lat="44.67342" lon="1.53082">
        <ele>281</ele>
        <time>2019-08-13T13:47:37.518Z</time>
      </trkpt>
      <trkpt lat="44.67339" lon="1.53088">
        <ele>281</ele>
        <time>2019-08-13T13:47:41.527Z</time>
      </trkpt>
      <trkpt lat="44.67336" lon="1.53092">
        <ele>281</ele>
        <time>2019-08-13T13:47:45.521Z</time>
      </trkpt>
      <trkpt lat="44.67331" lon="1.53097">
        <ele>283</ele>
        <time>2019-08-13T13:47:50.509Z</time>
      </trkpt>
      <trkpt lat="44.67327" lon="1.53103">
        <ele>283</ele>
        <time>2019-08-13T13:47:54.526Z</time>
      </trkpt>
      <trkpt lat="44.67323" lon="1.5311">
        <ele>283</ele>
        <time>2019-08-13T13:47:59.524Z</time>
      </trkpt>
      <trkpt lat="44.67318" lon="1.53114">
        <ele>283</ele>
        <time>2019-08-13T13:48:04.517Z</time>
      </trkpt>
      <trkpt lat="44.67315" lon="1.53119">
        <ele>283</ele>
        <time>2019-08-13T13:48:08.514Z</time>
      </trkpt>
      <trkpt lat="44.67312" lon="1.53124">
        <ele>283</ele>
        <time>2019-08-13T13:48:12.522Z</time>
      </trkpt>
      <trkpt lat="44.67307" lon="1.53131">
        <ele>284</ele>
        <time>2019-08-13T13:48:17.522Z</time>
      </trkpt>
      <trkpt lat="44.67301" lon="1.53139">
        <ele>284</ele>
        <time>2019-08-13T13:48:22.502Z</time>
      </trkpt>
      <trkpt lat="44.67298" lon="1.53145">
        <ele>284</ele>
        <time>2019-08-13T13:48:26.521Z</time>
      </trkpt>
      <trkpt lat="44.67294" lon="1.53151">
        <ele>284</ele>
        <time>2019-08-13T13:48:30.518Z</time>
      </trkpt>
      <trkpt lat="44.6729" lon="1.53157">
        <ele>283</ele>
        <time>2019-08-13T13:48:35.518Z</time>
      </trkpt>
      <trkpt lat="44.67285" lon="1.53166">
        <ele>283</ele>
        <time>2019-08-13T13:48:40.525Z</time>
      </trkpt>
      <trkpt lat="44.67279" lon="1.53173">
        <ele>283</ele>
        <time>2019-08-13T13:48:45.509Z</time>
      </trkpt>
      <trkpt lat="44.67274" lon="1.53178">
        <ele>283</ele>
        <time>2019-08-13T13:48:49.512Z</time>
      </trkpt>
      <trkpt lat="44.6727" lon="1.53182">
        <ele>284</ele>
        <time>2019-08-13T13:48:53.515Z</time>
      </trkpt>
      <trkpt lat="44.67265" lon="1.53188">
        <ele>284</ele>
        <time>2019-08-13T13:48:58.522Z</time>
      </trkpt>
      <trkpt lat="44.6726" lon="1.53195">
        <ele>284</ele>
        <time>2019-08-13T13:49:03.517Z</time>
      </trkpt>
      <trkpt lat="44.67256" lon="1.53203">
        <ele>284</ele>
        <time>2019-08-13T13:49:08.514Z</time>
      </trkpt>
      <trkpt lat="44.67252" lon="1.53209">
        <ele>286</ele>
        <time>2019-08-13T13:49:13.521Z</time>
      </trkpt>
      <trkpt lat="44.67246" lon="1.53215">
        <ele>286</ele>
        <time>2019-08-13T13:49:18.523Z</time>
      </trkpt>
      <trkpt lat="44.67242" lon="1.53221">
        <ele>286</ele>
        <time>2019-08-13T13:49:23.525Z</time>
      </trkpt>
      <trkpt lat="44.67238" lon="1.53228">
        <ele>286</ele>
        <time>2019-08-13T13:49:27.523Z</time>
      </trkpt>
      <trkpt lat="44.67235" lon="1.53234">
        <ele>285</ele>
        <time>2019-08-13T13:49:31.527Z</time>
      </trkpt>
      <trkpt lat="44.67231" lon="1.53241">
        <ele>287</ele>
        <time>2019-08-13T13:49:36.528Z</time>
      </trkpt>
      <trkpt lat="44.67228" lon="1.53249">
        <ele>287</ele>
        <time>2019-08-13T13:49:41.501Z</time>
      </trkpt>
      <trkpt lat="44.67223" lon="1.53255">
        <ele>287</ele>
        <time>2019-08-13T13:49:45.514Z</time>
      </trkpt>
      <trkpt lat="44.67218" lon="1.53259">
        <ele>287</ele>
        <time>2019-08-13T13:49:49.528Z</time>
      </trkpt>
      <trkpt lat="44.67213" lon="1.53266">
        <ele>291</ele>
        <time>2019-08-13T13:49:54.526Z</time>
      </trkpt>
      <trkpt lat="44.67211" lon="1.53272">
        <ele>291</ele>
        <time>2019-08-13T13:49:59.522Z</time>
      </trkpt>
      <trkpt lat="44.67207" lon="1.53279">
        <ele>285</ele>
        <time>2019-08-13T13:50:04.524Z</time>
      </trkpt>
      <trkpt lat="44.67202" lon="1.53286">
        <ele>285</ele>
        <time>2019-08-13T13:50:09.526Z</time>
      </trkpt>
      <trkpt lat="44.67199" lon="1.53292">
        <ele>288</ele>
        <time>2019-08-13T13:50:13.517Z</time>
      </trkpt>
      <trkpt lat="44.67193" lon="1.53297">
        <ele>288</ele>
        <time>2019-08-13T13:50:18.521Z</time>
      </trkpt>
      <trkpt lat="44.67188" lon="1.53304">
        <ele>288</ele>
        <time>2019-08-13T13:50:23.518Z</time>
      </trkpt>
      <trkpt lat="44.67183" lon="1.53311">
        <ele>288</ele>
        <time>2019-08-13T13:50:28.519Z</time>
      </trkpt>
      <trkpt lat="44.67179" lon="1.53315">
        <ele>284</ele>
        <time>2019-08-13T13:50:32.531Z</time>
      </trkpt>
      <trkpt lat="44.67172" lon="1.53321">
        <ele>286</ele>
        <time>2019-08-13T13:50:37.525Z</time>
      </trkpt>
      <trkpt lat="44.67169" lon="1.53328">
        <ele>286</ele>
        <time>2019-08-13T13:50:41.528Z</time>
      </trkpt>
      <trkpt lat="44.67165" lon="1.53336">
        <ele>286</ele>
        <time>2019-08-13T13:50:46.507Z</time>
      </trkpt>
      <trkpt lat="44.67161" lon="1.5334">
        <ele>286</ele>
        <time>2019-08-13T13:50:50.527Z</time>
      </trkpt>
      <trkpt lat="44.67154" lon="1.53342">
        <ele>286</ele>
        <time>2019-08-13T13:50:55.513Z</time>
      </trkpt>
      <trkpt lat="44.67149" lon="1.53343">
        <ele>285</ele>
        <time>2019-08-13T13:50:59.522Z</time>
      </trkpt>
      <trkpt lat="44.67144" lon="1.53347">
        <ele>285</ele>
        <time>2019-08-13T13:51:03.515Z</time>
      </trkpt>
      <trkpt lat="44.67138" lon="1.53353">
        <ele>288</ele>
        <time>2019-08-13T13:51:08.522Z</time>
      </trkpt>
      <trkpt lat="44.67133" lon="1.5336">
        <ele>288</ele>
        <time>2019-08-13T13:51:13.519Z</time>
      </trkpt>
      <trkpt lat="44.67128" lon="1.53367">
        <ele>288</ele>
        <time>2019-08-13T13:51:18.512Z</time>
      </trkpt>
      <trkpt lat="44.67124" lon="1.53372">
        <ele>287</ele>
        <time>2019-08-13T13:51:22.518Z</time>
      </trkpt>
      <trkpt lat="44.67118" lon="1.53378">
        <ele>292</ele>
        <time>2019-08-13T13:51:27.522Z</time>
      </trkpt>
      <trkpt lat="44.67112" lon="1.53386">
        <ele>292</ele>
        <time>2019-08-13T13:51:32.521Z</time>
      </trkpt>
      <trkpt lat="44.67107" lon="1.53391">
        <ele>292</ele>
        <time>2019-08-13T13:51:37.526Z</time>
      </trkpt>
      <trkpt lat="44.67102" lon="1.53395">
        <ele>292</ele>
        <time>2019-08-13T13:51:42.488Z</time>
      </trkpt>
      <trkpt lat="44.67098" lon="1.53401">
        <ele>292</ele>
        <time>2019-08-13T13:51:46.527Z</time>
      </trkpt>
      <trkpt lat="44.67092" lon="1.53408">
        <ele>293</ele>
        <time>2019-08-13T13:51:51.519Z</time>
      </trkpt>
      <trkpt lat="44.67087" lon="1.53414">
        <ele>293</ele>
        <time>2019-08-13T13:51:56.520Z</time>
      </trkpt>
      <trkpt lat="44.67082" lon="1.53418">
        <ele>293</ele>
        <time>2019-08-13T13:52:00.514Z</time>
      </trkpt>
      <trkpt lat="44.67076" lon="1.53425">
        <ele>293</ele>
        <time>2019-08-13T13:52:05.522Z</time>
      </trkpt>
      <trkpt lat="44.67073" lon="1.53428">
        <ele>293</ele>
        <time>2019-08-13T13:52:09.519Z</time>
      </trkpt>
      <trkpt lat="44.67068" lon="1.53435">
        <ele>291</ele>
        <time>2019-08-13T13:52:14.518Z</time>
      </trkpt>
      <trkpt lat="44.67065" lon="1.53442">
        <ele>291</ele>
        <time>2019-08-13T13:52:18.523Z</time>
      </trkpt>
      <trkpt lat="44.67061" lon="1.53451">
        <ele>291</ele>
        <time>2019-08-13T13:52:23.514Z</time>
      </trkpt>
      <trkpt lat="44.67055" lon="1.5346">
        <ele>294</ele>
        <time>2019-08-13T13:52:28.511Z</time>
      </trkpt>
      <trkpt lat="44.67053" lon="1.53467">
        <ele>294</ele>
        <time>2019-08-13T13:52:32.513Z</time>
      </trkpt>
      <trkpt lat="44.67048" lon="1.53473">
        <ele>294</ele>
        <time>2019-08-13T13:52:37.498Z</time>
      </trkpt>
      <trkpt lat="44.67044" lon="1.53478">
        <ele>294</ele>
        <time>2019-08-13T13:52:41.520Z</time>
      </trkpt>
      <trkpt lat="44.67041" lon="1.53486">
        <ele>288</ele>
        <time>2019-08-13T13:52:45.523Z</time>
      </trkpt>
      <trkpt lat="44.67037" lon="1.53494">
        <ele>290</ele>
        <time>2019-08-13T13:52:50.526Z</time>
      </trkpt>
      <trkpt lat="44.67033" lon="1.53499">
        <ele>290</ele>
        <time>2019-08-13T13:52:55.504Z</time>
      </trkpt>
      <trkpt lat="44.6703" lon="1.53507">
        <ele>290</ele>
        <time>2019-08-13T13:53:00.533Z</time>
      </trkpt>
      <trkpt lat="44.67024" lon="1.53515">
        <ele>294</ele>
        <time>2019-08-13T13:53:05.516Z</time>
      </trkpt>
      <trkpt lat="44.6702" lon="1.53522">
        <ele>294</ele>
        <time>2019-08-13T13:53:09.526Z</time>
      </trkpt>
      <trkpt lat="44.67015" lon="1.53529">
        <ele>294</ele>
        <time>2019-08-13T13:53:14.515Z</time>
      </trkpt>
      <trkpt lat="44.67009" lon="1.53532">
        <ele>290</ele>
        <time>2019-08-13T13:53:19.512Z</time>
      </trkpt>
      <trkpt lat="44.67005" lon="1.53536">
        <ele>290</ele>
        <time>2019-08-13T13:53:23.525Z</time>
      </trkpt>
      <trkpt lat="44.66999" lon="1.53541">
        <ele>290</ele>
        <time>2019-08-13T13:53:27.515Z</time>
      </trkpt>
      <trkpt lat="44.66993" lon="1.53548">
        <ele>294</ele>
        <time>2019-08-13T13:53:32.531Z</time>
      </trkpt>
      <trkpt lat="44.66988" lon="1.53554">
        <ele>294</ele>
        <time>2019-08-13T13:53:37.507Z</time>
      </trkpt>
      <trkpt lat="44.66984" lon="1.53557">
        <ele>293</ele>
        <time>2019-08-13T13:53:41.523Z</time>
      </trkpt>
      <trkpt lat="44.66979" lon="1.53561">
        <ele>293</ele>
        <time>2019-08-13T13:53:45.518Z</time>
      </trkpt>
      <trkpt lat="44.66972" lon="1.53567">
        <ele>293</ele>
        <time>2019-08-13T13:53:50.526Z</time>
      </trkpt>
      <trkpt lat="44.66965" lon="1.53572">
        <ele>295</ele>
        <time>2019-08-13T13:53:55.514Z</time>
      </trkpt>
      <trkpt lat="44.66959" lon="1.53578">
        <ele>295</ele>
        <time>2019-08-13T13:54:00.547Z</time>
      </trkpt>
      <trkpt lat="44.66953" lon="1.53582">
        <ele>292</ele>
        <time>2019-08-13T13:54:05.525Z</time>
      </trkpt>
      <trkpt lat="44.66947" lon="1.53586">
        <ele>292</ele>
        <time>2019-08-13T13:54:10.518Z</time>
      </trkpt>
      <trkpt lat="44.66942" lon="1.53591">
        <ele>292</ele>
        <time>2019-08-13T13:54:14.529Z</time>
      </trkpt>
      <trkpt lat="44.66935" lon="1.53597">
        <ele>298</ele>
        <time>2019-08-13T13:54:19.518Z</time>
      </trkpt>
      <trkpt lat="44.6693" lon="1.53602">
        <ele>294</ele>
        <time>2019-08-13T13:54:23.522Z</time>
      </trkpt>
      <trkpt lat="44.66923" lon="1.53606">
        <ele>294</ele>
        <time>2019-08-13T13:54:28.527Z</time>
      </trkpt>
      <trkpt lat="44.66918" lon="1.53608">
        <ele>294</ele>
        <time>2019-08-13T13:54:33.522Z</time>
      </trkpt>
      <trkpt lat="44.66914" lon="1.53612">
        <ele>294</ele>
        <time>2019-08-13T13:54:37.519Z</time>
      </trkpt>
      <trkpt lat="44.66908" lon="1.53617">
        <ele>294</ele>
        <time>2019-08-13T13:54:42.519Z</time>
      </trkpt>
      <trkpt lat="44.66902" lon="1.53622">
        <ele>293</ele>
        <time>2019-08-13T13:54:46.511Z</time>
      </trkpt>
      <trkpt lat="44.66896" lon="1.53628">
        <ele>298</ele>
        <time>2019-08-13T13:54:51.516Z</time>
      </trkpt>
      <trkpt lat="44.6689" lon="1.53633">
        <ele>298</ele>
        <time>2019-08-13T13:54:56.523Z</time>
      </trkpt>
      <trkpt lat="44.66883" lon="1.53635">
        <ele>298</ele>
        <time>2019-08-13T13:55:01.523Z</time>
      </trkpt>
      <trkpt lat="44.66877" lon="1.53639">
        <ele>298</ele>
        <time>2019-08-13T13:55:05.523Z</time>
      </trkpt>
      <trkpt lat="44.6687" lon="1.53644">
        <ele>295</ele>
        <time>2019-08-13T13:55:10.528Z</time>
      </trkpt>
      <trkpt lat="44.66865" lon="1.5365">
        <ele>295</ele>
        <time>2019-08-13T13:55:15.528Z</time>
      </trkpt>
      <trkpt lat="44.66861" lon="1.53656">
        <ele>300</ele>
        <time>2019-08-13T13:55:20.521Z</time>
      </trkpt>
      <trkpt lat="44.66856" lon="1.5366">
        <ele>300</ele>
        <time>2019-08-13T13:55:25.517Z</time>
      </trkpt>
      <trkpt lat="44.66849" lon="1.53666">
        <ele>300</ele>
        <time>2019-08-13T13:55:30.519Z</time>
      </trkpt>
      <trkpt lat="44.66842" lon="1.53672">
        <ele>295</ele>
        <time>2019-08-13T13:55:35.518Z</time>
      </trkpt>
      <trkpt lat="44.66836" lon="1.53678">
        <ele>295</ele>
        <time>2019-08-13T13:55:40.528Z</time>
      </trkpt>
      <trkpt lat="44.6683" lon="1.53682">
        <ele>299</ele>
        <time>2019-08-13T13:55:45.525Z</time>
      </trkpt>
      <trkpt lat="44.66823" lon="1.53687">
        <ele>299</ele>
        <time>2019-08-13T13:55:50.515Z</time>
      </trkpt>
      <trkpt lat="44.66817" lon="1.53693">
        <ele>294</ele>
        <time>2019-08-13T13:55:55.511Z</time>
      </trkpt>
      <trkpt lat="44.6681" lon="1.53697">
        <ele>294</ele>
        <time>2019-08-13T13:56:00.521Z</time>
      </trkpt>
      <trkpt lat="44.66805" lon="1.53701">
        <ele>294</ele>
        <time>2019-08-13T13:56:05.517Z</time>
      </trkpt>
      <trkpt lat="44.66801" lon="1.53704">
        <ele>294</ele>
        <time>2019-08-13T13:56:09.511Z</time>
      </trkpt>
      <trkpt lat="44.66795" lon="1.5371">
        <ele>296</ele>
        <time>2019-08-13T13:56:14.519Z</time>
      </trkpt>
      <trkpt lat="44.6679" lon="1.53717">
        <ele>293</ele>
        <time>2019-08-13T13:56:19.532Z</time>
      </trkpt>
      <trkpt lat="44.66785" lon="1.53725">
        <ele>293</ele>
        <time>2019-08-13T13:56:24.511Z</time>
      </trkpt>
      <trkpt lat="44.66782" lon="1.53732">
        <ele>293</ele>
        <time>2019-08-13T13:56:29.511Z</time>
      </trkpt>
      <trkpt lat="44.66781" lon="1.53742">
        <ele>295</ele>
        <time>2019-08-13T13:56:34.519Z</time>
      </trkpt>
      <trkpt lat="44.66781" lon="1.53752">
        <ele>295</ele>
        <time>2019-08-13T13:56:39.520Z</time>
      </trkpt>
      <trkpt lat="44.66781" lon="1.5376">
        <ele>295</ele>
        <time>2019-08-13T13:56:44.517Z</time>
      </trkpt>
      <trkpt lat="44.66778" lon="1.53771">
        <ele>296</ele>
        <time>2019-08-13T13:56:49.510Z</time>
      </trkpt>
      <trkpt lat="44.66774" lon="1.53775">
        <ele>296</ele>
        <time>2019-08-13T13:56:53.528Z</time>
      </trkpt>
      <trkpt lat="44.66771" lon="1.53779">
        <ele>296</ele>
        <time>2019-08-13T13:56:58.523Z</time>
      </trkpt>
      <trkpt lat="44.66769" lon="1.53786">
        <ele>296</ele>
        <time>2019-08-13T13:57:03.522Z</time>
      </trkpt>
      <trkpt lat="44.66766" lon="1.53782">
        <ele>296</ele>
        <time>2019-08-13T13:57:08.523Z</time>
      </trkpt>
      <trkpt lat="44.66762" lon="1.53779">
        <ele>294</ele>
        <time>2019-08-13T13:57:13.518Z</time>
      </trkpt>
      <trkpt lat="44.66757" lon="1.53779">
        <ele>294</ele>
        <time>2019-08-13T13:57:18.526Z</time>
      </trkpt>
      <trkpt lat="44.6675" lon="1.53778">
        <ele>294</ele>
        <time>2019-08-13T13:57:22.512Z</time>
      </trkpt>
      <trkpt lat="44.66743" lon="1.53777">
        <ele>294</ele>
        <time>2019-08-13T13:57:27.523Z</time>
      </trkpt>
      <trkpt lat="44.66738" lon="1.53775">
        <ele>294</ele>
        <time>2019-08-13T13:57:31.529Z</time>
      </trkpt>
      <trkpt lat="44.66732" lon="1.53772">
        <ele>296</ele>
        <time>2019-08-13T13:57:36.535Z</time>
      </trkpt>
      <trkpt lat="44.66725" lon="1.53765">
        <ele>296</ele>
        <time>2019-08-13T13:57:41.520Z</time>
      </trkpt>
      <trkpt lat="44.66716" lon="1.53761">
        <ele>293</ele>
        <time>2019-08-13T13:57:46.522Z</time>
      </trkpt>
      <trkpt lat="44.66707" lon="1.53761">
        <ele>297</ele>
        <time>2019-08-13T13:57:51.521Z</time>
      </trkpt>
      <trkpt lat="44.66696" lon="1.53762">
        <ele>297</ele>
        <time>2019-08-13T13:57:56.519Z</time>
      </trkpt>
      <trkpt lat="44.66687" lon="1.53762">
        <ele>297</ele>
        <time>2019-08-13T13:58:01.511Z</time>
      </trkpt>
      <trkpt lat="44.66681" lon="1.5376">
        <ele>297</ele>
        <time>2019-08-13T13:58:05.510Z</time>
      </trkpt>
      <trkpt lat="44.66675" lon="1.53761">
        <ele>300</ele>
        <time>2019-08-13T13:58:09.514Z</time>
      </trkpt>
      <trkpt lat="44.6667" lon="1.5376">
        <ele>300</ele>
        <time>2019-08-13T13:58:14.511Z</time>
      </trkpt>
      <trkpt lat="44.66664" lon="1.53762">
        <ele>300</ele>
        <time>2019-08-13T14:00:09.521Z</time>
      </trkpt>
      <trkpt lat="44.66664" lon="1.5376">
        <ele>300</ele>
        <time>2019-08-13T14:00:14.578Z</time>
      </trkpt>
      <trkpt lat="44.66664" lon="1.53759">
        <ele>300</ele>
        <time>2019-08-13T14:00:19.487Z</time>
      </trkpt>
      <trkpt lat="44.66663" lon="1.53757">
        <ele>300</ele>
        <time>2019-08-13T14:00:24.514Z</time>
      </trkpt>
      <trkpt lat="44.66663" lon="1.53757">
        <ele>300</ele>
        <time>2019-08-13T14:00:29.505Z</time>
      </trkpt>
      <trkpt lat="44.66662" lon="1.53755">
        <ele>300</ele>
        <time>2019-08-13T14:00:34.513Z</time>
      </trkpt>
      <trkpt lat="44.66661" lon="1.53755">
        <ele>300</ele>
        <time>2019-08-13T14:00:39.510Z</time>
      </trkpt>
      <trkpt lat="44.66657" lon="1.53756">
        <ele>300</ele>
        <time>2019-08-13T14:00:44.518Z</time>
      </trkpt>
      <trkpt lat="44.66653" lon="1.5375">
        <ele>299</ele>
        <time>2019-08-13T14:00:49.511Z</time>
      </trkpt>
      <trkpt lat="44.66651" lon="1.53742">
        <ele>299</ele>
        <time>2019-08-13T14:00:53.519Z</time>
      </trkpt>
      <trkpt lat="44.66651" lon="1.53746">
        <ele>299</ele>
        <time>2019-08-13T14:00:58.516Z</time>
      </trkpt>
      <trkpt lat="44.66652" lon="1.53751">
        <ele>299</ele>
        <time>2019-08-13T14:01:02.519Z</time>
      </trkpt>
      <trkpt lat="44.66655" lon="1.5376">
        <ele>300</ele>
        <time>2019-08-13T14:01:07.527Z</time>
      </trkpt>
      <trkpt lat="44.66659" lon="1.53771">
        <ele>304</ele>
        <time>2019-08-13T14:01:37.535Z</time>
      </trkpt>
      <trkpt lat="44.66652" lon="1.53771">
        <ele>304</ele>
        <time>2019-08-13T14:01:42.510Z</time>
      </trkpt>
      <trkpt lat="44.66649" lon="1.53777">
        <ele>304</ele>
        <time>2019-08-13T14:01:47.521Z</time>
      </trkpt>
      <trkpt lat="44.66648" lon="1.5379">
        <ele>304</ele>
        <time>2019-08-13T14:01:52.521Z</time>
      </trkpt>
      <trkpt lat="44.66652" lon="1.53801">
        <ele>310</ele>
        <time>2019-08-13T14:01:57.523Z</time>
      </trkpt>
      <trkpt lat="44.66656" lon="1.53809">
        <ele>308</ele>
        <time>2019-08-13T14:02:02.513Z</time>
      </trkpt>
      <trkpt lat="44.6666" lon="1.53818">
        <ele>308</ele>
        <time>2019-08-13T14:02:07.515Z</time>
      </trkpt>
      <trkpt lat="44.66662" lon="1.53823">
        <ele>312</ele>
        <time>2019-08-13T14:02:11.514Z</time>
      </trkpt>
      <trkpt lat="44.66661" lon="1.5383">
        <ele>312</ele>
        <time>2019-08-13T14:02:16.510Z</time>
      </trkpt>
      <trkpt lat="44.66657" lon="1.53838">
        <ele>312</ele>
        <time>2019-08-13T14:02:21.512Z</time>
      </trkpt>
      <trkpt lat="44.66654" lon="1.53843">
        <ele>312</ele>
        <time>2019-08-13T14:02:25.520Z</time>
      </trkpt>
      <trkpt lat="44.6665" lon="1.53851">
        <ele>318</ele>
        <time>2019-08-13T14:02:30.517Z</time>
      </trkpt>
      <trkpt lat="44.66645" lon="1.53859">
        <ele>318</ele>
        <time>2019-08-13T14:02:35.516Z</time>
      </trkpt>
      <trkpt lat="44.66639" lon="1.53861">
        <ele>318</ele>
        <time>2019-08-13T14:02:40.516Z</time>
      </trkpt>
      <trkpt lat="44.66634" lon="1.53867">
        <ele>318</ele>
        <time>2019-08-13T14:02:45.526Z</time>
      </trkpt>
      <trkpt lat="44.66629" lon="1.53872">
        <ele>318</ele>
        <time>2019-08-13T14:02:50.516Z</time>
      </trkpt>
      <trkpt lat="44.66627" lon="1.53877">
        <ele>320</ele>
        <time>2019-08-13T14:02:55.521Z</time>
      </trkpt>
      <trkpt lat="44.66625" lon="1.5388">
        <ele>323</ele>
        <time>2019-08-13T14:02:59.521Z</time>
      </trkpt>
      <trkpt lat="44.6662" lon="1.53885">
        <ele>323</ele>
        <time>2019-08-13T14:03:04.511Z</time>
      </trkpt>
      <trkpt lat="44.66615" lon="1.53896">
        <ele>323</ele>
        <time>2019-08-13T14:03:09.526Z</time>
      </trkpt>
      <trkpt lat="44.66611" lon="1.53903">
        <ele>326</ele>
        <time>2019-08-13T14:03:14.499Z</time>
      </trkpt>
      <trkpt lat="44.66607" lon="1.53908">
        <ele>326</ele>
        <time>2019-08-13T14:03:18.532Z</time>
      </trkpt>
      <trkpt lat="44.66602" lon="1.53912">
        <ele>326</ele>
        <time>2019-08-13T14:03:23.518Z</time>
      </trkpt>
      <trkpt lat="44.66599" lon="1.53916">
        <ele>326</ele>
        <time>2019-08-13T14:03:28.509Z</time>
      </trkpt>
      <trkpt lat="44.66595" lon="1.53923">
        <ele>328</ele>
        <time>2019-08-13T14:03:32.531Z</time>
      </trkpt>
      <trkpt lat="44.66592" lon="1.53929">
        <ele>328</ele>
        <time>2019-08-13T14:03:36.525Z</time>
      </trkpt>
      <trkpt lat="44.66589" lon="1.53939">
        <ele>330</ele>
        <time>2019-08-13T14:03:41.526Z</time>
      </trkpt>
      <trkpt lat="44.66586" lon="1.53947">
        <ele>330</ele>
        <time>2019-08-13T14:03:46.517Z</time>
      </trkpt>
      <trkpt lat="44.66581" lon="1.5396">
        <ele>332</ele>
        <time>2019-08-13T14:03:51.515Z</time>
      </trkpt>
      <trkpt lat="44.66576" lon="1.53968">
        <ele>332</ele>
        <time>2019-08-13T14:03:56.508Z</time>
      </trkpt>
      <trkpt lat="44.66571" lon="1.53973">
        <ele>332</ele>
        <time>2019-08-13T14:04:00.518Z</time>
      </trkpt>
      <trkpt lat="44.66568" lon="1.53984">
        <ele>337</ele>
        <time>2019-08-13T14:04:05.508Z</time>
      </trkpt>
      <trkpt lat="44.66564" lon="1.53991">
        <ele>340</ele>
        <time>2019-08-13T14:04:09.525Z</time>
      </trkpt>
      <trkpt lat="44.66559" lon="1.53997">
        <ele>340</ele>
        <time>2019-08-13T14:04:14.520Z</time>
      </trkpt>
      <trkpt lat="44.66555" lon="1.54005">
        <ele>340</ele>
        <time>2019-08-13T14:04:19.549Z</time>
      </trkpt>
      <trkpt lat="44.66552" lon="1.54011">
        <ele>340</ele>
        <time>2019-08-13T14:04:24.528Z</time>
      </trkpt>
      <trkpt lat="44.66548" lon="1.54018">
        <ele>341</ele>
        <time>2019-08-13T14:04:28.522Z</time>
      </trkpt>
      <trkpt lat="44.66547" lon="1.54026">
        <ele>341</ele>
        <time>2019-08-13T14:04:33.512Z</time>
      </trkpt>
      <trkpt lat="44.66542" lon="1.54034">
        <ele>341</ele>
        <time>2019-08-13T14:04:38.516Z</time>
      </trkpt>
      <trkpt lat="44.66539" lon="1.54041">
        <ele>347</ele>
        <time>2019-08-13T14:04:43.519Z</time>
      </trkpt>
      <trkpt lat="44.66535" lon="1.5404">
        <ele>347</ele>
        <time>2019-08-13T14:04:48.534Z</time>
      </trkpt>
      <trkpt lat="44.66535" lon="1.5404">
        <ele>347</ele>
        <time>2019-08-13T14:04:53.519Z</time>
      </trkpt>
      <trkpt lat="44.66536" lon="1.54042">
        <ele>349</ele>
        <time>2019-08-13T14:04:57.516Z</time>
      </trkpt>
      <trkpt lat="44.66537" lon="1.54052">
        <ele>349</ele>
        <time>2019-08-13T14:05:01.514Z</time>
      </trkpt>
      <trkpt lat="44.66537" lon="1.54061">
        <ele>349</ele>
        <time>2019-08-13T14:05:05.525Z</time>
      </trkpt>
      <trkpt lat="44.66535" lon="1.54071">
        <ele>349</ele>
        <time>2019-08-13T14:05:10.508Z</time>
      </trkpt>
      <trkpt lat="44.66533" lon="1.54078">
        <ele>349</ele>
        <time>2019-08-13T14:05:14.567Z</time>
      </trkpt>
      <trkpt lat="44.6653" lon="1.54087">
        <ele>349</ele>
        <time>2019-08-13T14:05:19.514Z</time>
      </trkpt>
      <trkpt lat="44.66528" lon="1.54095">
        <ele>349</ele>
        <time>2019-08-13T14:05:23.515Z</time>
      </trkpt>
      <trkpt lat="44.66526" lon="1.54104">
        <ele>348</ele>
        <time>2019-08-13T14:05:28.508Z</time>
      </trkpt>
      <trkpt lat="44.66524" lon="1.54111">
        <ele>348</ele>
        <time>2019-08-13T14:05:32.523Z</time>
      </trkpt>
      <trkpt lat="44.66522" lon="1.54121">
        <ele>348</ele>
        <time>2019-08-13T14:05:37.507Z</time>
      </trkpt>
      <trkpt lat="44.6652" lon="1.54128">
        <ele>347</ele>
        <time>2019-08-13T14:05:41.512Z</time>
      </trkpt>
      <trkpt lat="44.66513" lon="1.54136">
        <ele>353</ele>
        <time>2019-08-13T14:06:29.510Z</time>
      </trkpt>
      <trkpt lat="44.66513" lon="1.54136">
        <ele>353</ele>
        <time>2019-08-13T14:06:33.511Z</time>
      </trkpt>
      <trkpt lat="44.66512" lon="1.54136">
        <ele>353</ele>
        <time>2019-08-13T14:06:37.507Z</time>
      </trkpt>
      <trkpt lat="44.66512" lon="1.54136">
        <ele>353</ele>
        <time>2019-08-13T14:06:41.510Z</time>
      </trkpt>
      <trkpt lat="44.6651" lon="1.54135">
        <ele>353</ele>
        <time>2019-08-13T14:06:45.508Z</time>
      </trkpt>
      <trkpt lat="44.66509" lon="1.54135">
        <ele>353</ele>
        <time>2019-08-13T14:07:07.509Z</time>
      </trkpt>
      <trkpt lat="44.66509" lon="1.54136">
        <ele>353</ele>
        <time>2019-08-13T14:07:12.502Z</time>
      </trkpt>
      <trkpt lat="44.6651" lon="1.54138">
        <ele>353</ele>
        <time>2019-08-13T14:07:17.516Z</time>
      </trkpt>
      <trkpt lat="44.66511" lon="1.54146">
        <ele>353</ele>
        <time>2019-08-13T14:07:22.519Z</time>
      </trkpt>
      <trkpt lat="44.66511" lon="1.54153">
        <ele>352</ele>
        <time>2019-08-13T14:07:26.522Z</time>
      </trkpt>
      <trkpt lat="44.6651" lon="1.54161">
        <ele>352</ele>
        <time>2019-08-13T14:07:31.518Z</time>
      </trkpt>
      <trkpt lat="44.66508" lon="1.54169">
        <ele>352</ele>
        <time>2019-08-13T14:07:35.530Z</time>
      </trkpt>
      <trkpt lat="44.66506" lon="1.54174">
        <ele>352</ele>
        <time>2019-08-13T14:07:40.528Z</time>
      </trkpt>
      <trkpt lat="44.66506" lon="1.54177">
        <ele>352</ele>
        <time>2019-08-13T14:07:44.523Z</time>
      </trkpt>
      <trkpt lat="44.66505" lon="1.54182">
        <ele>352</ele>
        <time>2019-08-13T14:07:48.509Z</time>
      </trkpt>
      <trkpt lat="44.66501" lon="1.5419">
        <ele>352</ele>
        <time>2019-08-13T14:07:53.507Z</time>
      </trkpt>
      <trkpt lat="44.66497" lon="1.54198">
        <ele>352</ele>
        <time>2019-08-13T14:07:58.515Z</time>
      </trkpt>
      <trkpt lat="44.66493" lon="1.5421">
        <ele>351</ele>
        <time>2019-08-13T14:08:03.523Z</time>
      </trkpt>
      <trkpt lat="44.66491" lon="1.54221">
        <ele>351</ele>
        <time>2019-08-13T14:08:08.525Z</time>
      </trkpt>
      <trkpt lat="44.6649" lon="1.54228">
        <ele>351</ele>
        <time>2019-08-13T14:08:13.520Z</time>
      </trkpt>
      <trkpt lat="44.6649" lon="1.54236">
        <ele>350</ele>
        <time>2019-08-13T14:08:18.531Z</time>
      </trkpt>
      <trkpt lat="44.66488" lon="1.54241">
        <ele>350</ele>
        <time>2019-08-13T14:08:23.528Z</time>
      </trkpt>
      <trkpt lat="44.66486" lon="1.54247">
        <ele>350</ele>
        <time>2019-08-13T14:08:28.511Z</time>
      </trkpt>
      <trkpt lat="44.66483" lon="1.54258">
        <ele>352</ele>
        <time>2019-08-13T14:08:33.514Z</time>
      </trkpt>
      <trkpt lat="44.66479" lon="1.54265">
        <ele>353</ele>
        <time>2019-08-13T14:08:38.513Z</time>
      </trkpt>
      <trkpt lat="44.66476" lon="1.5427">
        <ele>353</ele>
        <time>2019-08-13T14:08:43.513Z</time>
      </trkpt>
      <trkpt lat="44.66471" lon="1.54278">
        <ele>353</ele>
        <time>2019-08-13T14:08:48.513Z</time>
      </trkpt>
      <trkpt lat="44.66468" lon="1.54286">
        <ele>353</ele>
        <time>2019-08-13T14:08:53.509Z</time>
      </trkpt>
      <trkpt lat="44.66467" lon="1.54291">
        <ele>353</ele>
        <time>2019-08-13T14:08:58.505Z</time>
      </trkpt>
      <trkpt lat="44.66461" lon="1.54301">
        <ele>353</ele>
        <time>2019-08-13T14:09:03.512Z</time>
      </trkpt>
      <trkpt lat="44.66456" lon="1.54309">
        <ele>356</ele>
        <time>2019-08-13T14:09:07.519Z</time>
      </trkpt>
      <trkpt lat="44.66454" lon="1.54319">
        <ele>356</ele>
        <time>2019-08-13T14:09:12.517Z</time>
      </trkpt>
      <trkpt lat="44.6645" lon="1.54327">
        <ele>355</ele>
        <time>2019-08-13T14:09:16.518Z</time>
      </trkpt>
      <trkpt lat="44.66445" lon="1.54336">
        <ele>355</ele>
        <time>2019-08-13T14:09:21.508Z</time>
      </trkpt>
      <trkpt lat="44.66442" lon="1.54342">
        <ele>355</ele>
        <time>2019-08-13T14:09:25.512Z</time>
      </trkpt>
      <trkpt lat="44.66438" lon="1.54353">
        <ele>354</ele>
        <time>2019-08-13T14:09:30.518Z</time>
      </trkpt>
      <trkpt lat="44.66434" lon="1.5436">
        <ele>354</ele>
        <time>2019-08-13T14:09:35.509Z</time>
      </trkpt>
      <trkpt lat="44.66428" lon="1.54364">
        <ele>354</ele>
        <time>2019-08-13T14:09:40.510Z</time>
      </trkpt>
      <trkpt lat="44.66425" lon="1.54368">
        <ele>354</ele>
        <time>2019-08-13T14:09:44.515Z</time>
      </trkpt>
      <trkpt lat="44.6642" lon="1.54373">
        <ele>354</ele>
        <time>2019-08-13T14:09:48.524Z</time>
      </trkpt>
      <trkpt lat="44.66416" lon="1.54382">
        <ele>354</ele>
        <time>2019-08-13T14:09:53.527Z</time>
      </trkpt>
      <trkpt lat="44.66412" lon="1.54388">
        <ele>354</ele>
        <time>2019-08-13T14:09:58.510Z</time>
      </trkpt>
      <trkpt lat="44.66411" lon="1.54398">
        <ele>354</ele>
        <time>2019-08-13T14:10:03.513Z</time>
      </trkpt>
      <trkpt lat="44.66408" lon="1.54395">
        <ele>354</ele>
        <time>2019-08-13T14:10:08.516Z</time>
      </trkpt>
      <trkpt lat="44.66404" lon="1.54399">
        <ele>354</ele>
        <time>2019-08-13T14:10:13.524Z</time>
      </trkpt>
      <trkpt lat="44.66398" lon="1.54404">
        <ele>356</ele>
        <time>2019-08-13T14:10:18.556Z</time>
      </trkpt>
      <trkpt lat="44.66391" lon="1.54407">
        <ele>356</ele>
        <time>2019-08-13T14:10:23.512Z</time>
      </trkpt>
      <trkpt lat="44.66385" lon="1.5441">
        <ele>356</ele>
        <time>2019-08-13T14:10:28.511Z</time>
      </trkpt>
      <trkpt lat="44.66381" lon="1.54418">
        <ele>356</ele>
        <time>2019-08-13T14:10:33.507Z</time>
      </trkpt>
      <trkpt lat="44.66376" lon="1.54421">
        <ele>356</ele>
        <time>2019-08-13T14:10:37.516Z</time>
      </trkpt>
      <trkpt lat="44.66372" lon="1.54424">
        <ele>356</ele>
        <time>2019-08-13T14:10:41.515Z</time>
      </trkpt>
      <trkpt lat="44.66366" lon="1.5443">
        <ele>356</ele>
        <time>2019-08-13T14:10:46.508Z</time>
      </trkpt>
      <trkpt lat="44.66361" lon="1.54437">
        <ele>358</ele>
        <time>2019-08-13T14:10:51.528Z</time>
      </trkpt>
      <trkpt lat="44.66355" lon="1.54443">
        <ele>358</ele>
        <time>2019-08-13T14:10:56.528Z</time>
      </trkpt>
      <trkpt lat="44.66352" lon="1.54448">
        <ele>358</ele>
        <time>2019-08-13T14:11:00.540Z</time>
      </trkpt>
      <trkpt lat="44.66347" lon="1.54457">
        <ele>358</ele>
        <time>2019-08-13T14:11:05.519Z</time>
      </trkpt>
      <trkpt lat="44.66342" lon="1.54462">
        <ele>360</ele>
        <time>2019-08-13T14:11:10.536Z</time>
      </trkpt>
      <trkpt lat="44.66335" lon="1.54471">
        <ele>360</ele>
        <time>2019-08-13T14:11:15.528Z</time>
      </trkpt>
      <trkpt lat="44.6633" lon="1.54478">
        <ele>360</ele>
        <time>2019-08-13T14:11:20.509Z</time>
      </trkpt>
      <trkpt lat="44.66326" lon="1.54485">
        <ele>360</ele>
        <time>2019-08-13T14:11:24.543Z</time>
      </trkpt>
      <trkpt lat="44.66323" lon="1.54489">
        <ele>360</ele>
        <time>2019-08-13T14:11:28.505Z</time>
      </trkpt>
      <trkpt lat="44.6632" lon="1.54495">
        <ele>360</ele>
        <time>2019-08-13T14:11:33.520Z</time>
      </trkpt>
      <trkpt lat="44.66315" lon="1.545">
        <ele>360</ele>
        <time>2019-08-13T14:11:38.517Z</time>
      </trkpt>
      <trkpt lat="44.66312" lon="1.54506">
        <ele>360</ele>
        <time>2019-08-13T14:11:43.520Z</time>
      </trkpt>
      <trkpt lat="44.66307" lon="1.54515">
        <ele>361</ele>
        <time>2019-08-13T14:11:48.518Z</time>
      </trkpt>
      <trkpt lat="44.66302" lon="1.5452">
        <ele>361</ele>
        <time>2019-08-13T14:11:53.518Z</time>
      </trkpt>
      <trkpt lat="44.66298" lon="1.54528">
        <ele>361</ele>
        <time>2019-08-13T14:11:58.512Z</time>
      </trkpt>
      <trkpt lat="44.66292" lon="1.54537">
        <ele>361</ele>
        <time>2019-08-13T14:12:03.516Z</time>
      </trkpt>
      <trkpt lat="44.66287" lon="1.5454">
        <ele>363</ele>
        <time>2019-08-13T14:12:08.525Z</time>
      </trkpt>
      <trkpt lat="44.66283" lon="1.54546">
        <ele>364</ele>
        <time>2019-08-13T14:12:13.525Z</time>
      </trkpt>
      <trkpt lat="44.66279" lon="1.54553">
        <ele>364</ele>
        <time>2019-08-13T14:12:18.522Z</time>
      </trkpt>
      <trkpt lat="44.66274" lon="1.5456">
        <ele>364</ele>
        <time>2019-08-13T14:12:23.520Z</time>
      </trkpt>
      <trkpt lat="44.66269" lon="1.54566">
        <ele>364</ele>
        <time>2019-08-13T14:12:28.521Z</time>
      </trkpt>
      <trkpt lat="44.66263" lon="1.54574">
        <ele>365</ele>
        <time>2019-08-13T14:12:33.504Z</time>
      </trkpt>
      <trkpt lat="44.66258" lon="1.54583">
        <ele>365</ele>
        <time>2019-08-13T14:12:38.523Z</time>
      </trkpt>
      <trkpt lat="44.66253" lon="1.5459">
        <ele>365</ele>
        <time>2019-08-13T14:12:43.522Z</time>
      </trkpt>
      <trkpt lat="44.66247" lon="1.54597">
        <ele>365</ele>
        <time>2019-08-13T14:12:48.521Z</time>
      </trkpt>
      <trkpt lat="44.66244" lon="1.54601">
        <ele>365</ele>
        <time>2019-08-13T14:12:53.509Z</time>
      </trkpt>
      <trkpt lat="44.66241" lon="1.54609">
        <ele>365</ele>
        <time>2019-08-13T14:12:58.524Z</time>
      </trkpt>
      <trkpt lat="44.66238" lon="1.54613">
        <ele>365</ele>
        <time>2019-08-13T14:13:03.523Z</time>
      </trkpt>
      <trkpt lat="44.66236" lon="1.54615">
        <ele>367</ele>
        <time>2019-08-13T14:13:07.520Z</time>
      </trkpt>
      <trkpt lat="44.6623" lon="1.54619">
        <ele>367</ele>
        <time>2019-08-13T14:13:12.548Z</time>
      </trkpt>
      <trkpt lat="44.66224" lon="1.54623">
        <ele>367</ele>
        <time>2019-08-13T14:13:17.519Z</time>
      </trkpt>
      <trkpt lat="44.6622" lon="1.54627">
        <ele>369</ele>
        <time>2019-08-13T14:13:22.519Z</time>
      </trkpt>
      <trkpt lat="44.66217" lon="1.54629">
        <ele>369</ele>
        <time>2019-08-13T14:13:26.522Z</time>
      </trkpt>
      <trkpt lat="44.66212" lon="1.54634">
        <ele>369</ele>
        <time>2019-08-13T14:13:31.526Z</time>
      </trkpt>
      <trkpt lat="44.66205" lon="1.54639">
        <ele>371</ele>
        <time>2019-08-13T14:13:36.500Z</time>
      </trkpt>
      <trkpt lat="44.662" lon="1.54645">
        <ele>371</ele>
        <time>2019-08-13T14:13:41.524Z</time>
      </trkpt>
      <trkpt lat="44.66194" lon="1.54654">
        <ele>372</ele>
        <time>2019-08-13T14:13:46.521Z</time>
      </trkpt>
      <trkpt lat="44.6619" lon="1.5466">
        <ele>372</ele>
        <time>2019-08-13T14:13:51.520Z</time>
      </trkpt>
      <trkpt lat="44.66187" lon="1.54666">
        <ele>372</ele>
        <time>2019-08-13T14:13:56.522Z</time>
      </trkpt>
      <trkpt lat="44.66184" lon="1.54674">
        <ele>372</ele>
        <time>2019-08-13T14:14:01.518Z</time>
      </trkpt>
      <trkpt lat="44.66179" lon="1.54684">
        <ele>370</ele>
        <time>2019-08-13T14:14:06.512Z</time>
      </trkpt>
      <trkpt lat="44.66178" lon="1.5469">
        <ele>370</ele>
        <time>2019-08-13T14:14:10.519Z</time>
      </trkpt>
      <trkpt lat="44.66173" lon="1.54699">
        <ele>370</ele>
        <time>2019-08-13T14:14:14.510Z</time>
      </trkpt>
      <trkpt lat="44.66169" lon="1.5471">
        <ele>368</ele>
        <time>2019-08-13T14:14:19.517Z</time>
      </trkpt>
      <trkpt lat="44.66165" lon="1.54721">
        <ele>368</ele>
        <time>2019-08-13T14:14:24.520Z</time>
      </trkpt>
      <trkpt lat="44.66162" lon="1.54727">
        <ele>368</ele>
        <time>2019-08-13T14:14:28.516Z</time>
      </trkpt>
      <trkpt lat="44.6616" lon="1.54733">
        <ele>368</ele>
        <time>2019-08-13T14:14:33.525Z</time>
      </trkpt>
      <trkpt lat="44.66156" lon="1.5474">
        <ele>364</ele>
        <time>2019-08-13T14:14:38.516Z</time>
      </trkpt>
      <trkpt lat="44.66151" lon="1.54748">
        <ele>368</ele>
        <time>2019-08-13T14:14:43.515Z</time>
      </trkpt>
      <trkpt lat="44.66147" lon="1.54757">
        <ele>368</ele>
        <time>2019-08-13T14:14:48.518Z</time>
      </trkpt>
      <trkpt lat="44.66143" lon="1.54768">
        <ele>370</ele>
        <time>2019-08-13T14:14:53.526Z</time>
      </trkpt>
      <trkpt lat="44.6614" lon="1.54778">
        <ele>370</ele>
        <time>2019-08-13T14:14:58.513Z</time>
      </trkpt>
      <trkpt lat="44.66136" lon="1.54786">
        <ele>370</ele>
        <time>2019-08-13T14:15:03.518Z</time>
      </trkpt>
      <trkpt lat="44.66132" lon="1.54793">
        <ele>371</ele>
        <time>2019-08-13T14:15:08.510Z</time>
      </trkpt>
      <trkpt lat="44.66128" lon="1.54801">
        <ele>371</ele>
        <time>2019-08-13T14:15:13.508Z</time>
      </trkpt>
      <trkpt lat="44.66125" lon="1.54807">
        <ele>375</ele>
        <time>2019-08-13T14:15:18.516Z</time>
      </trkpt>
      <trkpt lat="44.66121" lon="1.54812">
        <ele>375</ele>
        <time>2019-08-13T14:15:23.530Z</time>
      </trkpt>
      <trkpt lat="44.66116" lon="1.54816">
        <ele>375</ele>
        <time>2019-08-13T14:15:28.524Z</time>
      </trkpt>
      <trkpt lat="44.66108" lon="1.54823">
        <ele>377</ele>
        <time>2019-08-13T14:15:43.535Z</time>
      </trkpt>
      <trkpt lat="44.66109" lon="1.54826">
        <ele>377</ele>
        <time>2019-08-13T14:15:48.521Z</time>
      </trkpt>
      <trkpt lat="44.66107" lon="1.54832">
        <ele>377</ele>
        <time>2019-08-13T14:15:53.520Z</time>
      </trkpt>
      <trkpt lat="44.66104" lon="1.54841">
        <ele>377</ele>
        <time>2019-08-13T14:15:58.528Z</time>
      </trkpt>
      <trkpt lat="44.661" lon="1.54849">
        <ele>377</ele>
        <time>2019-08-13T14:16:03.527Z</time>
      </trkpt>
      <trkpt lat="44.66096" lon="1.54856">
        <ele>381</ele>
        <time>2019-08-13T14:16:08.512Z</time>
      </trkpt>
      <trkpt lat="44.6609" lon="1.54856">
        <ele>381</ele>
        <time>2019-08-13T14:16:13.528Z</time>
      </trkpt>
      <trkpt lat="44.66083" lon="1.54862">
        <ele>381</ele>
        <time>2019-08-13T14:16:18.514Z</time>
      </trkpt>
      <trkpt lat="44.66079" lon="1.54871">
        <ele>381</ele>
        <time>2019-08-13T14:16:23.524Z</time>
      </trkpt>
      <trkpt lat="44.66075" lon="1.5488">
        <ele>382</ele>
        <time>2019-08-13T14:16:28.522Z</time>
      </trkpt>
      <trkpt lat="44.66069" lon="1.54885">
        <ele>385</ele>
        <time>2019-08-13T14:16:33.518Z</time>
      </trkpt>
      <trkpt lat="44.66062" lon="1.54889">
        <ele>385</ele>
        <time>2019-08-13T14:16:38.530Z</time>
      </trkpt>
      <trkpt lat="44.66058" lon="1.54895">
        <ele>385</ele>
        <time>2019-08-13T14:16:43.523Z</time>
      </trkpt>
      <trkpt lat="44.66054" lon="1.549">
        <ele>385</ele>
        <time>2019-08-13T14:16:48.511Z</time>
      </trkpt>
      <trkpt lat="44.66048" lon="1.54901">
        <ele>385</ele>
        <time>2019-08-13T14:16:53.513Z</time>
      </trkpt>
      <trkpt lat="44.66044" lon="1.54904">
        <ele>388</ele>
        <time>2019-08-13T14:16:58.525Z</time>
      </trkpt>
      <trkpt lat="44.66041" lon="1.54907">
        <ele>390</ele>
        <time>2019-08-13T14:17:03.519Z</time>
      </trkpt>
      <trkpt lat="44.66036" lon="1.54913">
        <ele>390</ele>
        <time>2019-08-13T14:17:08.524Z</time>
      </trkpt>
      <trkpt lat="44.66031" lon="1.54917">
        <ele>390</ele>
        <time>2019-08-13T14:17:13.523Z</time>
      </trkpt>
      <trkpt lat="44.66025" lon="1.54925">
        <ele>390</ele>
        <time>2019-08-13T14:17:18.526Z</time>
      </trkpt>
      <trkpt lat="44.66019" lon="1.54928">
        <ele>390</ele>
        <time>2019-08-13T14:17:23.518Z</time>
      </trkpt>
      <trkpt lat="44.66014" lon="1.5493">
        <ele>390</ele>
        <time>2019-08-13T14:17:28.526Z</time>
      </trkpt>
      <trkpt lat="44.66009" lon="1.54933">
        <ele>390</ele>
        <time>2019-08-13T14:17:33.523Z</time>
      </trkpt>
      <trkpt lat="44.66006" lon="1.54935">
        <ele>390</ele>
        <time>2019-08-13T14:17:38.532Z</time>
      </trkpt>
      <trkpt lat="44.66001" lon="1.5494">
        <ele>390</ele>
        <time>2019-08-13T14:17:43.532Z</time>
      </trkpt>
      <trkpt lat="44.65996" lon="1.54947">
        <ele>390</ele>
        <time>2019-08-13T14:17:48.526Z</time>
      </trkpt>
      <trkpt lat="44.65991" lon="1.54947">
        <ele>390</ele>
        <time>2019-08-13T14:17:53.523Z</time>
      </trkpt>
      <trkpt lat="44.65985" lon="1.54951">
        <ele>389</ele>
        <time>2019-08-13T14:17:58.520Z</time>
      </trkpt>
      <trkpt lat="44.65981" lon="1.54956">
        <ele>389</ele>
        <time>2019-08-13T14:18:03.523Z</time>
      </trkpt>
      <trkpt lat="44.65975" lon="1.54963">
        <ele>389</ele>
        <time>2019-08-13T14:18:08.507Z</time>
      </trkpt>
      <trkpt lat="44.6597" lon="1.5497">
        <ele>389</ele>
        <time>2019-08-13T14:18:12.521Z</time>
      </trkpt>
      <trkpt lat="44.65964" lon="1.54974">
        <ele>389</ele>
        <time>2019-08-13T14:18:17.527Z</time>
      </trkpt>
      <trkpt lat="44.65958" lon="1.54978">
        <ele>392</ele>
        <time>2019-08-13T14:18:22.540Z</time>
      </trkpt>
      <trkpt lat="44.65954" lon="1.5498">
        <ele>392</ele>
        <time>2019-08-13T14:18:27.517Z</time>
      </trkpt>
      <trkpt lat="44.6595" lon="1.54981">
        <ele>392</ele>
        <time>2019-08-13T14:18:31.522Z</time>
      </trkpt>
      <trkpt lat="44.65945" lon="1.54982">
        <ele>392</ele>
        <time>2019-08-13T14:18:36.517Z</time>
      </trkpt>
      <trkpt lat="44.6594" lon="1.54983">
        <ele>392</ele>
        <time>2019-08-13T14:18:40.543Z</time>
      </trkpt>
      <trkpt lat="44.65934" lon="1.54987">
        <ele>392</ele>
        <time>2019-08-13T14:18:45.534Z</time>
      </trkpt>
      <trkpt lat="44.65927" lon="1.5499">
        <ele>393</ele>
        <time>2019-08-13T14:18:50.505Z</time>
      </trkpt>
      <trkpt lat="44.65921" lon="1.54992">
        <ele>393</ele>
        <time>2019-08-13T14:18:54.516Z</time>
      </trkpt>
      <trkpt lat="44.65915" lon="1.54993">
        <ele>393</ele>
        <time>2019-08-13T14:18:58.557Z</time>
      </trkpt>
      <trkpt lat="44.6591" lon="1.54993">
        <ele>393</ele>
        <time>2019-08-13T14:19:03.514Z</time>
      </trkpt>
      <trkpt lat="44.65903" lon="1.54995">
        <ele>393</ele>
        <time>2019-08-13T14:19:08.523Z</time>
      </trkpt>
      <trkpt lat="44.65897" lon="1.54995">
        <ele>395</ele>
        <time>2019-08-13T14:19:13.522Z</time>
      </trkpt>
      <trkpt lat="44.65891" lon="1.54999">
        <ele>395</ele>
        <time>2019-08-13T14:19:18.560Z</time>
      </trkpt>
      <trkpt lat="44.65877" lon="1.54991">
        <ele>395</ele>
        <time>2019-08-13T14:20:03.525Z</time>
      </trkpt>
      <trkpt lat="44.65877" lon="1.54992">
        <ele>395</ele>
        <time>2019-08-13T14:20:08.516Z</time>
      </trkpt>
      <trkpt lat="44.65876" lon="1.54992">
        <ele>395</ele>
        <time>2019-08-13T14:20:13.519Z</time>
      </trkpt>
      <trkpt lat="44.65875" lon="1.54993">
        <ele>395</ele>
        <time>2019-08-13T14:20:18.512Z</time>
      </trkpt>
      <trkpt lat="44.65875" lon="1.54994">
        <ele>396</ele>
        <time>2019-08-13T14:20:23.508Z</time>
      </trkpt>
      <trkpt lat="44.65872" lon="1.54996">
        <ele>396</ele>
        <time>2019-08-13T14:25:41.510Z</time>
      </trkpt>
      <trkpt lat="44.65871" lon="1.54996">
        <ele>396</ele>
        <time>2019-08-13T14:25:46.518Z</time>
      </trkpt>
      <trkpt lat="44.6587" lon="1.54996">
        <ele>396</ele>
        <time>2019-08-13T14:25:51.521Z</time>
      </trkpt>
      <trkpt lat="44.65866" lon="1.54997">
        <ele>396</ele>
        <time>2019-08-13T14:25:56.521Z</time>
      </trkpt>
      <trkpt lat="44.6586" lon="1.54996">
        <ele>396</ele>
        <time>2019-08-13T14:26:01.527Z</time>
      </trkpt>
      <trkpt lat="44.65852" lon="1.54999">
        <ele>396</ele>
        <time>2019-08-13T14:26:06.523Z</time>
      </trkpt>
      <trkpt lat="44.65845" lon="1.55001">
        <ele>398</ele>
        <time>2019-08-13T14:26:11.520Z</time>
      </trkpt>
      <trkpt lat="44.65839" lon="1.55004">
        <ele>398</ele>
        <time>2019-08-13T14:26:16.514Z</time>
      </trkpt>
      <trkpt lat="44.65833" lon="1.55006">
        <ele>398</ele>
        <time>2019-08-13T14:26:21.540Z</time>
      </trkpt>
      <trkpt lat="44.65827" lon="1.55007">
        <ele>398</ele>
        <time>2019-08-13T14:26:26.518Z</time>
      </trkpt>
      <trkpt lat="44.6582" lon="1.55008">
        <ele>398</ele>
        <time>2019-08-13T14:26:31.534Z</time>
      </trkpt>
      <trkpt lat="44.65815" lon="1.5501">
        <ele>398</ele>
        <time>2019-08-13T14:26:36.531Z</time>
      </trkpt>
      <trkpt lat="44.65808" lon="1.55014">
        <ele>398</ele>
        <time>2019-08-13T14:26:41.518Z</time>
      </trkpt>
      <trkpt lat="44.65802" lon="1.55016">
        <ele>397</ele>
        <time>2019-08-13T14:26:46.531Z</time>
      </trkpt>
      <trkpt lat="44.65796" lon="1.55019">
        <ele>397</ele>
        <time>2019-08-13T14:26:51.518Z</time>
      </trkpt>
      <trkpt lat="44.65789" lon="1.55024">
        <ele>398</ele>
        <time>2019-08-13T14:26:56.523Z</time>
      </trkpt>
      <trkpt lat="44.65785" lon="1.55026">
        <ele>398</ele>
        <time>2019-08-13T14:27:01.505Z</time>
      </trkpt>
      <trkpt lat="44.65781" lon="1.55029">
        <ele>398</ele>
        <time>2019-08-13T14:27:05.526Z</time>
      </trkpt>
      <trkpt lat="44.65775" lon="1.55032">
        <ele>398</ele>
        <time>2019-08-13T14:27:10.515Z</time>
      </trkpt>
      <trkpt lat="44.65769" lon="1.55036">
        <ele>398</ele>
        <time>2019-08-13T14:27:15.538Z</time>
      </trkpt>
      <trkpt lat="44.65763" lon="1.55039">
        <ele>399</ele>
        <time>2019-08-13T14:27:19.522Z</time>
      </trkpt>
      <trkpt lat="44.65759" lon="1.55042">
        <ele>398</ele>
        <time>2019-08-13T14:27:23.522Z</time>
      </trkpt>
      <trkpt lat="44.65753" lon="1.55047">
        <ele>398</ele>
        <time>2019-08-13T14:27:28.525Z</time>
      </trkpt>
      <trkpt lat="44.65748" lon="1.55047">
        <ele>398</ele>
        <time>2019-08-13T14:27:33.522Z</time>
      </trkpt>
      <trkpt lat="44.65743" lon="1.55051">
        <ele>398</ele>
        <time>2019-08-13T14:27:38.513Z</time>
      </trkpt>
      <trkpt lat="44.65738" lon="1.55055">
        <ele>398</ele>
        <time>2019-08-13T14:27:42.521Z</time>
      </trkpt>
      <trkpt lat="44.65734" lon="1.55058">
        <ele>402</ele>
        <time>2019-08-13T14:27:47.516Z</time>
      </trkpt>
      <trkpt lat="44.6573" lon="1.55064">
        <ele>402</ele>
        <time>2019-08-13T14:27:51.548Z</time>
      </trkpt>
      <trkpt lat="44.65725" lon="1.55066">
        <ele>402</ele>
        <time>2019-08-13T14:27:56.526Z</time>
      </trkpt>
      <trkpt lat="44.65718" lon="1.55072">
        <ele>401</ele>
        <time>2019-08-13T14:28:01.517Z</time>
      </trkpt>
      <trkpt lat="44.65714" lon="1.5508">
        <ele>401</ele>
        <time>2019-08-13T14:28:06.528Z</time>
      </trkpt>
      <trkpt lat="44.65708" lon="1.55078">
        <ele>404</ele>
        <time>2019-08-13T14:28:11.538Z</time>
      </trkpt>
      <trkpt lat="44.65703" lon="1.5508">
        <ele>404</ele>
        <time>2019-08-13T14:28:16.539Z</time>
      </trkpt>
      <trkpt lat="44.65697" lon="1.55088">
        <ele>404</ele>
        <time>2019-08-13T14:28:21.519Z</time>
      </trkpt>
      <trkpt lat="44.65692" lon="1.55097">
        <ele>404</ele>
        <time>2019-08-13T14:28:26.526Z</time>
      </trkpt>
      <trkpt lat="44.65685" lon="1.55102">
        <ele>401</ele>
        <time>2019-08-13T14:28:31.518Z</time>
      </trkpt>
      <trkpt lat="44.65679" lon="1.55106">
        <ele>406</ele>
        <time>2019-08-13T14:28:36.515Z</time>
      </trkpt>
      <trkpt lat="44.65673" lon="1.55112">
        <ele>406</ele>
        <time>2019-08-13T14:28:41.517Z</time>
      </trkpt>
      <trkpt lat="44.65667" lon="1.55113">
        <ele>406</ele>
        <time>2019-08-13T14:28:46.521Z</time>
      </trkpt>
      <trkpt lat="44.65663" lon="1.55119">
        <ele>406</ele>
        <time>2019-08-13T14:28:51.541Z</time>
      </trkpt>
      <trkpt lat="44.65656" lon="1.55128">
        <ele>404</ele>
        <time>2019-08-13T14:28:56.527Z</time>
      </trkpt>
      <trkpt lat="44.65654" lon="1.55134">
        <ele>404</ele>
        <time>2019-08-13T14:29:01.512Z</time>
      </trkpt>
      <trkpt lat="44.6565" lon="1.5513">
        <ele>408</ele>
        <time>2019-08-13T14:29:05.520Z</time>
      </trkpt>
      <trkpt lat="44.65643" lon="1.55131">
        <ele>408</ele>
        <time>2019-08-13T14:29:10.519Z</time>
      </trkpt>
      <trkpt lat="44.65639" lon="1.55133">
        <ele>408</ele>
        <time>2019-08-13T14:29:15.527Z</time>
      </trkpt>
      <trkpt lat="44.65635" lon="1.55138">
        <ele>408</ele>
        <time>2019-08-13T14:29:19.519Z</time>
      </trkpt>
      <trkpt lat="44.65628" lon="1.55144">
        <ele>408</ele>
        <time>2019-08-13T14:29:24.530Z</time>
      </trkpt>
      <trkpt lat="44.65624" lon="1.55145">
        <ele>410</ele>
        <time>2019-08-13T14:29:28.529Z</time>
      </trkpt>
      <trkpt lat="44.65618" lon="1.5515">
        <ele>410</ele>
        <time>2019-08-13T14:29:33.514Z</time>
      </trkpt>
      <trkpt lat="44.65612" lon="1.55153">
        <ele>410</ele>
        <time>2019-08-13T14:29:38.565Z</time>
      </trkpt>
      <trkpt lat="44.65605" lon="1.55155">
        <ele>410</ele>
        <time>2019-08-13T14:29:43.530Z</time>
      </trkpt>
      <trkpt lat="44.65601" lon="1.55164">
        <ele>410</ele>
        <time>2019-08-13T14:29:48.516Z</time>
      </trkpt>
      <trkpt lat="44.65594" lon="1.5517">
        <ele>412</ele>
        <time>2019-08-13T14:29:53.527Z</time>
      </trkpt>
      <trkpt lat="44.65588" lon="1.55173">
        <ele>412</ele>
        <time>2019-08-13T14:29:58.553Z</time>
      </trkpt>
      <trkpt lat="44.65583" lon="1.55174">
        <ele>412</ele>
        <time>2019-08-13T14:30:03.522Z</time>
      </trkpt>
      <trkpt lat="44.65579" lon="1.55176">
        <ele>412</ele>
        <time>2019-08-13T14:30:08.521Z</time>
      </trkpt>
      <trkpt lat="44.65574" lon="1.5518">
        <ele>412</ele>
        <time>2019-08-13T14:30:13.527Z</time>
      </trkpt>
      <trkpt lat="44.65569" lon="1.55187">
        <ele>413</ele>
        <time>2019-08-13T14:30:18.522Z</time>
      </trkpt>
      <trkpt lat="44.65565" lon="1.55195">
        <ele>413</ele>
        <time>2019-08-13T14:30:23.527Z</time>
      </trkpt>
      <trkpt lat="44.6556" lon="1.55201">
        <ele>413</ele>
        <time>2019-08-13T14:30:28.527Z</time>
      </trkpt>
      <trkpt lat="44.65554" lon="1.5521">
        <ele>413</ele>
        <time>2019-08-13T14:30:33.530Z</time>
      </trkpt>
      <trkpt lat="44.6555" lon="1.55218">
        <ele>413</ele>
        <time>2019-08-13T14:30:37.529Z</time>
      </trkpt>
      <trkpt lat="44.65546" lon="1.55227">
        <ele>413</ele>
        <time>2019-08-13T14:30:41.521Z</time>
      </trkpt>
      <trkpt lat="44.65542" lon="1.55239">
        <ele>412</ele>
        <time>2019-08-13T14:30:46.546Z</time>
      </trkpt>
      <trkpt lat="44.6554" lon="1.55248">
        <ele>413</ele>
        <time>2019-08-13T14:30:51.522Z</time>
      </trkpt>
      <trkpt lat="44.65538" lon="1.55259">
        <ele>413</ele>
        <time>2019-08-13T14:30:56.519Z</time>
      </trkpt>
      <trkpt lat="44.65533" lon="1.5526">
        <ele>413</ele>
        <time>2019-08-13T14:31:01.522Z</time>
      </trkpt>
      <trkpt lat="44.6553" lon="1.55267">
        <ele>412</ele>
        <time>2019-08-13T14:31:06.521Z</time>
      </trkpt>
      <trkpt lat="44.65527" lon="1.55276">
        <ele>412</ele>
        <time>2019-08-13T14:31:11.515Z</time>
      </trkpt>
      <trkpt lat="44.65524" lon="1.55283">
        <ele>412</ele>
        <time>2019-08-13T14:31:15.523Z</time>
      </trkpt>
      <trkpt lat="44.65521" lon="1.55287">
        <ele>412</ele>
        <time>2019-08-13T14:31:19.521Z</time>
      </trkpt>
      <trkpt lat="44.65517" lon="1.55293">
        <ele>412</ele>
        <time>2019-08-13T14:31:24.499Z</time>
      </trkpt>
      <trkpt lat="44.65514" lon="1.55299">
        <ele>412</ele>
        <time>2019-08-13T14:31:28.514Z</time>
      </trkpt>
      <trkpt lat="44.65511" lon="1.55305">
        <ele>411</ele>
        <time>2019-08-13T14:31:33.514Z</time>
      </trkpt>
      <trkpt lat="44.65508" lon="1.5531">
        <ele>411</ele>
        <time>2019-08-13T14:31:37.518Z</time>
      </trkpt>
      <trkpt lat="44.65505" lon="1.55316">
        <ele>411</ele>
        <time>2019-08-13T14:31:42.513Z</time>
      </trkpt>
      <trkpt lat="44.65503" lon="1.55319">
        <ele>411</ele>
        <time>2019-08-13T14:31:47.524Z</time>
      </trkpt>
      <trkpt lat="44.65504" lon="1.55321">
        <ele>411</ele>
        <time>2019-08-13T14:32:25.491Z</time>
      </trkpt>
      <trkpt lat="44.65504" lon="1.55322">
        <ele>411</ele>
        <time>2019-08-13T14:32:29.513Z</time>
      </trkpt>
      <trkpt lat="44.65504" lon="1.55325">
        <ele>411</ele>
        <time>2019-08-13T14:32:34.518Z</time>
      </trkpt>
      <trkpt lat="44.65503" lon="1.5533">
        <ele>411</ele>
        <time>2019-08-13T14:32:39.525Z</time>
      </trkpt>
      <trkpt lat="44.655" lon="1.55335">
        <ele>411</ele>
        <time>2019-08-13T14:32:44.522Z</time>
      </trkpt>
      <trkpt lat="44.65496" lon="1.55339">
        <ele>411</ele>
        <time>2019-08-13T14:32:48.523Z</time>
      </trkpt>
      <trkpt lat="44.65492" lon="1.55342">
        <ele>411</ele>
        <time>2019-08-13T14:32:53.522Z</time>
      </trkpt>
      <trkpt lat="44.65487" lon="1.55347">
        <ele>411</ele>
        <time>2019-08-13T14:32:57.507Z</time>
      </trkpt>
      <trkpt lat="44.65483" lon="1.5535">
        <ele>411</ele>
        <time>2019-08-13T14:33:02.518Z</time>
      </trkpt>
      <trkpt lat="44.6548" lon="1.55353">
        <ele>411</ele>
        <time>2019-08-13T14:33:06.529Z</time>
      </trkpt>
      <trkpt lat="44.65475" lon="1.55359">
        <ele>411</ele>
        <time>2019-08-13T14:33:11.526Z</time>
      </trkpt>
      <trkpt lat="44.65472" lon="1.55363">
        <ele>411</ele>
        <time>2019-08-13T14:33:15.522Z</time>
      </trkpt>
      <trkpt lat="44.65469" lon="1.55367">
        <ele>411</ele>
        <time>2019-08-13T14:33:19.526Z</time>
      </trkpt>
      <trkpt lat="44.65462" lon="1.55371">
        <ele>411</ele>
        <time>2019-08-13T14:33:24.526Z</time>
      </trkpt>
      <trkpt lat="44.65457" lon="1.55375">
        <ele>413</ele>
        <time>2019-08-13T14:33:29.523Z</time>
      </trkpt>
      <trkpt lat="44.65453" lon="1.5538">
        <ele>413</ele>
        <time>2019-08-13T14:33:33.520Z</time>
      </trkpt>
      <trkpt lat="44.65447" lon="1.55386">
        <ele>413</ele>
        <time>2019-08-13T14:33:38.530Z</time>
      </trkpt>
      <trkpt lat="44.65442" lon="1.55391">
        <ele>413</ele>
        <time>2019-08-13T14:33:43.523Z</time>
      </trkpt>
      <trkpt lat="44.6544" lon="1.55396">
        <ele>413</ele>
        <time>2019-08-13T14:33:47.524Z</time>
      </trkpt>
      <trkpt lat="44.65432" lon="1.55402">
        <ele>413</ele>
        <time>2019-08-13T14:33:52.517Z</time>
      </trkpt>
      <trkpt lat="44.65425" lon="1.55407">
        <ele>416</ele>
        <time>2019-08-13T14:33:57.521Z</time>
      </trkpt>
      <trkpt lat="44.6542" lon="1.55411">
        <ele>416</ele>
        <time>2019-08-13T14:34:02.519Z</time>
      </trkpt>
      <trkpt lat="44.65415" lon="1.55417">
        <ele>416</ele>
        <time>2019-08-13T14:34:07.513Z</time>
      </trkpt>
      <trkpt lat="44.65409" lon="1.55422">
        <ele>416</ele>
        <time>2019-08-13T14:34:12.496Z</time>
      </trkpt>
      <trkpt lat="44.65403" lon="1.55427">
        <ele>416</ele>
        <time>2019-08-13T14:34:16.522Z</time>
      </trkpt>
      <trkpt lat="44.654" lon="1.55431">
        <ele>415</ele>
        <time>2019-08-13T14:34:20.528Z</time>
      </trkpt>
      <trkpt lat="44.65398" lon="1.55435">
        <ele>415</ele>
        <time>2019-08-13T14:34:25.524Z</time>
      </trkpt>
      <trkpt lat="44.65393" lon="1.55444">
        <ele>415</ele>
        <time>2019-08-13T14:34:30.541Z</time>
      </trkpt>
      <trkpt lat="44.65387" lon="1.55448">
        <ele>415</ele>
        <time>2019-08-13T14:34:35.511Z</time>
      </trkpt>
      <trkpt lat="44.65382" lon="1.55451">
        <ele>415</ele>
        <time>2019-08-13T14:34:39.505Z</time>
      </trkpt>
      <trkpt lat="44.65375" lon="1.5546">
        <ele>414</ele>
        <time>2019-08-13T14:34:44.527Z</time>
      </trkpt>
      <trkpt lat="44.65369" lon="1.55465">
        <ele>413</ele>
        <time>2019-08-13T14:34:49.519Z</time>
      </trkpt>
      <trkpt lat="44.65365" lon="1.55473">
        <ele>413</ele>
        <time>2019-08-13T14:34:53.514Z</time>
      </trkpt>
      <trkpt lat="44.65362" lon="1.55481">
        <ele>413</ele>
        <time>2019-08-13T14:34:57.512Z</time>
      </trkpt>
      <trkpt lat="44.65359" lon="1.55484">
        <ele>413</ele>
        <time>2019-08-13T14:35:02.523Z</time>
      </trkpt>
      <trkpt lat="44.65355" lon="1.55487">
        <ele>413</ele>
        <time>2019-08-13T14:35:07.503Z</time>
      </trkpt>
      <trkpt lat="44.6535" lon="1.55497">
        <ele>413</ele>
        <time>2019-08-13T14:35:12.528Z</time>
      </trkpt>
      <trkpt lat="44.65345" lon="1.55506">
        <ele>412</ele>
        <time>2019-08-13T14:35:17.526Z</time>
      </trkpt>
      <trkpt lat="44.65342" lon="1.55512">
        <ele>412</ele>
        <time>2019-08-13T14:35:22.524Z</time>
      </trkpt>
      <trkpt lat="44.6534" lon="1.55516">
        <ele>412</ele>
        <time>2019-08-13T14:35:26.528Z</time>
      </trkpt>
      <trkpt lat="44.65338" lon="1.55523">
        <ele>412</ele>
        <time>2019-08-13T14:35:31.531Z</time>
      </trkpt>
      <trkpt lat="44.65335" lon="1.55529">
        <ele>412</ele>
        <time>2019-08-13T14:35:36.533Z</time>
      </trkpt>
      <trkpt lat="44.65331" lon="1.55533">
        <ele>412</ele>
        <time>2019-08-13T14:35:41.510Z</time>
      </trkpt>
      <trkpt lat="44.65327" lon="1.55541">
        <ele>412</ele>
        <time>2019-08-13T14:35:45.524Z</time>
      </trkpt>
      <trkpt lat="44.65324" lon="1.5555">
        <ele>412</ele>
        <time>2019-08-13T14:35:50.529Z</time>
      </trkpt>
      <trkpt lat="44.65322" lon="1.55556">
        <ele>412</ele>
        <time>2019-08-13T14:35:55.512Z</time>
      </trkpt>
      <trkpt lat="44.6532" lon="1.55562">
        <ele>412</ele>
        <time>2019-08-13T14:35:59.519Z</time>
      </trkpt>
      <trkpt lat="44.65318" lon="1.55571">
        <ele>414</ele>
        <time>2019-08-13T14:36:04.513Z</time>
      </trkpt>
      <trkpt lat="44.65314" lon="1.55579">
        <ele>414</ele>
        <time>2019-08-13T14:36:08.530Z</time>
      </trkpt>
      <trkpt lat="44.65311" lon="1.5559">
        <ele>414</ele>
        <time>2019-08-13T14:36:13.503Z</time>
      </trkpt>
      <trkpt lat="44.65307" lon="1.556">
        <ele>416</ele>
        <time>2019-08-13T14:36:17.520Z</time>
      </trkpt>
      <trkpt lat="44.65305" lon="1.55608">
        <ele>416</ele>
        <time>2019-08-13T14:36:22.519Z</time>
      </trkpt>
      <trkpt lat="44.65304" lon="1.55616">
        <ele>416</ele>
        <time>2019-08-13T14:36:27.517Z</time>
      </trkpt>
      <trkpt lat="44.65303" lon="1.55623">
        <ele>416</ele>
        <time>2019-08-13T14:36:32.519Z</time>
      </trkpt>
      <trkpt lat="44.65302" lon="1.55631">
        <ele>416</ele>
        <time>2019-08-13T14:36:37.504Z</time>
      </trkpt>
      <trkpt lat="44.65303" lon="1.55642">
        <ele>416</ele>
        <time>2019-08-13T14:36:42.517Z</time>
      </trkpt>
      <trkpt lat="44.65302" lon="1.55653">
        <ele>417</ele>
        <time>2019-08-13T14:36:47.504Z</time>
      </trkpt>
      <trkpt lat="44.65301" lon="1.55665">
        <ele>417</ele>
        <time>2019-08-13T14:36:56.524Z</time>
      </trkpt>
      <trkpt lat="44.65301" lon="1.55667">
        <ele>417</ele>
        <time>2019-08-13T14:37:01.520Z</time>
      </trkpt>
      <trkpt lat="44.65301" lon="1.55667">
        <ele>417</ele>
        <time>2019-08-13T14:37:06.521Z</time>
      </trkpt>
      <trkpt lat="44.65301" lon="1.55668">
        <ele>417</ele>
        <time>2019-08-13T14:37:11.515Z</time>
      </trkpt>
      <trkpt lat="44.653" lon="1.55674">
        <ele>417</ele>
        <time>2019-08-13T14:37:15.506Z</time>
      </trkpt>
      <trkpt lat="44.653" lon="1.55684">
        <ele>418</ele>
        <time>2019-08-13T14:37:20.525Z</time>
      </trkpt>
      <trkpt lat="44.653" lon="1.55693">
        <ele>418</ele>
        <time>2019-08-13T14:37:25.506Z</time>
      </trkpt>
      <trkpt lat="44.65299" lon="1.557">
        <ele>418</ele>
        <time>2019-08-13T14:37:30.521Z</time>
      </trkpt>
      <trkpt lat="44.65297" lon="1.55708">
        <ele>418</ele>
        <time>2019-08-13T14:37:35.501Z</time>
      </trkpt>
      <trkpt lat="44.65295" lon="1.55716">
        <ele>419</ele>
        <time>2019-08-13T14:37:39.506Z</time>
      </trkpt>
      <trkpt lat="44.65291" lon="1.55729">
        <ele>421</ele>
        <time>2019-08-13T14:37:44.526Z</time>
      </trkpt>
      <trkpt lat="44.65287" lon="1.55742">
        <ele>422</ele>
        <time>2019-08-13T14:37:49.509Z</time>
      </trkpt>
      <trkpt lat="44.65284" lon="1.5575">
        <ele>422</ele>
        <time>2019-08-13T14:37:54.518Z</time>
      </trkpt>
      <trkpt lat="44.65282" lon="1.55754">
        <ele>422</ele>
        <time>2019-08-13T14:37:58.520Z</time>
      </trkpt>
      <trkpt lat="44.65279" lon="1.55757">
        <ele>422</ele>
        <time>2019-08-13T14:38:02.513Z</time>
      </trkpt>
      <trkpt lat="44.65273" lon="1.55765">
        <ele>423</ele>
        <time>2019-08-13T14:38:07.498Z</time>
      </trkpt>
      <trkpt lat="44.6527" lon="1.55766">
        <ele>423</ele>
        <time>2019-08-13T14:38:11.506Z</time>
      </trkpt>
      <trkpt lat="44.65265" lon="1.55768">
        <ele>423</ele>
        <time>2019-08-13T14:38:16.512Z</time>
      </trkpt>
      <trkpt lat="44.65261" lon="1.55771">
        <ele>424</ele>
        <time>2019-08-13T14:38:20.522Z</time>
      </trkpt>
      <trkpt lat="44.65258" lon="1.55775">
        <ele>424</ele>
        <time>2019-08-13T14:38:24.515Z</time>
      </trkpt>
      <trkpt lat="44.65252" lon="1.5578">
        <ele>424</ele>
        <time>2019-08-13T14:38:29.512Z</time>
      </trkpt>
      <trkpt lat="44.65246" lon="1.55787">
        <ele>424</ele>
        <time>2019-08-13T14:38:34.516Z</time>
      </trkpt>
      <trkpt lat="44.6524" lon="1.55793">
        <ele>426</ele>
        <time>2019-08-13T14:38:39.513Z</time>
      </trkpt>
      <trkpt lat="44.65233" lon="1.55795">
        <ele>428</ele>
        <time>2019-08-13T14:38:44.518Z</time>
      </trkpt>
      <trkpt lat="44.65227" lon="1.55797">
        <ele>428</ele>
        <time>2019-08-13T14:38:49.500Z</time>
      </trkpt>
      <trkpt lat="44.65222" lon="1.55798">
        <ele>428</ele>
        <time>2019-08-13T14:38:53.505Z</time>
      </trkpt>
      <trkpt lat="44.65217" lon="1.55799">
        <ele>428</ele>
        <time>2019-08-13T14:38:58.522Z</time>
      </trkpt>
      <trkpt lat="44.65214" lon="1.55802">
        <ele>428</ele>
        <time>2019-08-13T14:39:02.524Z</time>
      </trkpt>
      <trkpt lat="44.65208" lon="1.55808">
        <ele>430</ele>
        <time>2019-08-13T14:39:07.507Z</time>
      </trkpt>
      <trkpt lat="44.65203" lon="1.55817">
        <ele>430</ele>
        <time>2019-08-13T14:39:12.516Z</time>
      </trkpt>
      <trkpt lat="44.65196" lon="1.55826">
        <ele>431</ele>
        <time>2019-08-13T14:39:17.504Z</time>
      </trkpt>
      <trkpt lat="44.65191" lon="1.55833">
        <ele>431</ele>
        <time>2019-08-13T14:39:21.511Z</time>
      </trkpt>
      <trkpt lat="44.65189" lon="1.55838">
        <ele>431</ele>
        <time>2019-08-13T14:39:25.520Z</time>
      </trkpt>
      <trkpt lat="44.65186" lon="1.55845">
        <ele>431</ele>
        <time>2019-08-13T14:39:30.520Z</time>
      </trkpt>
      <trkpt lat="44.65183" lon="1.55855">
        <ele>433</ele>
        <time>2019-08-13T14:39:35.511Z</time>
      </trkpt>
      <trkpt lat="44.6518" lon="1.55866">
        <ele>432</ele>
        <time>2019-08-13T14:39:40.509Z</time>
      </trkpt>
      <trkpt lat="44.65178" lon="1.55875">
        <ele>432</ele>
        <time>2019-08-13T14:39:44.519Z</time>
      </trkpt>
      <trkpt lat="44.65175" lon="1.5588">
        <ele>432</ele>
        <time>2019-08-13T14:39:49.514Z</time>
      </trkpt>
      <trkpt lat="44.65174" lon="1.55885">
        <ele>432</ele>
        <time>2019-08-13T14:39:53.540Z</time>
      </trkpt>
      <trkpt lat="44.65172" lon="1.5589">
        <ele>432</ele>
        <time>2019-08-13T14:39:58.530Z</time>
      </trkpt>
      <trkpt lat="44.65172" lon="1.55892">
        <ele>432</ele>
        <time>2019-08-13T14:40:03.509Z</time>
      </trkpt>
      <trkpt lat="44.65172" lon="1.55892">
        <ele>432</ele>
        <time>2019-08-13T14:40:08.517Z</time>
      </trkpt>
      <trkpt lat="44.65172" lon="1.55893">
        <ele>432</ele>
        <time>2019-08-13T14:40:41.502Z</time>
      </trkpt>
      <trkpt lat="44.65173" lon="1.55895">
        <ele>432</ele>
        <time>2019-08-13T14:40:45.500Z</time>
      </trkpt>
      <trkpt lat="44.65172" lon="1.559">
        <ele>432</ele>
        <time>2019-08-13T14:40:50.515Z</time>
      </trkpt>
      <trkpt lat="44.65168" lon="1.55911">
        <ele>432</ele>
        <time>2019-08-13T14:40:55.511Z</time>
      </trkpt>
      <trkpt lat="44.65166" lon="1.55923">
        <ele>432</ele>
        <time>2019-08-13T14:41:00.524Z</time>
      </trkpt>
      <trkpt lat="44.65163" lon="1.5593">
        <ele>432</ele>
        <time>2019-08-13T14:41:04.529Z</time>
      </trkpt>
      <trkpt lat="44.6516" lon="1.55939">
        <ele>431</ele>
        <time>2019-08-13T14:41:09.503Z</time>
      </trkpt>
      <trkpt lat="44.65157" lon="1.55946">
        <ele>431</ele>
        <time>2019-08-13T14:41:13.531Z</time>
      </trkpt>
      <trkpt lat="44.65155" lon="1.55955">
        <ele>431</ele>
        <time>2019-08-13T14:41:17.532Z</time>
      </trkpt>
      <trkpt lat="44.65154" lon="1.55965">
        <ele>429</ele>
        <time>2019-08-13T14:41:22.517Z</time>
      </trkpt>
      <trkpt lat="44.65153" lon="1.55973">
        <ele>427</ele>
        <time>2019-08-13T14:41:26.523Z</time>
      </trkpt>
      <trkpt lat="44.6515" lon="1.55982">
        <ele>427</ele>
        <time>2019-08-13T14:41:30.527Z</time>
      </trkpt>
      <trkpt lat="44.65147" lon="1.55993">
        <ele>426</ele>
        <time>2019-08-13T14:41:35.528Z</time>
      </trkpt>
      <trkpt lat="44.65144" lon="1.56002">
        <ele>426</ele>
        <time>2019-08-13T14:41:40.521Z</time>
      </trkpt>
      <trkpt lat="44.6514" lon="1.56008">
        <ele>426</ele>
        <time>2019-08-13T14:41:45.500Z</time>
      </trkpt>
      <trkpt lat="44.65137" lon="1.56016">
        <ele>424</ele>
        <time>2019-08-13T14:41:49.500Z</time>
      </trkpt>
      <trkpt lat="44.65135" lon="1.56024">
        <ele>424</ele>
        <time>2019-08-13T14:41:53.525Z</time>
      </trkpt>
      <trkpt lat="44.65131" lon="1.56031">
        <ele>424</ele>
        <time>2019-08-13T14:41:57.535Z</time>
      </trkpt>
      <trkpt lat="44.65126" lon="1.56038">
        <ele>424</ele>
        <time>2019-08-13T14:42:02.515Z</time>
      </trkpt>
      <trkpt lat="44.65122" lon="1.56045">
        <ele>417</ele>
        <time>2019-08-13T14:42:07.508Z</time>
      </trkpt>
      <trkpt lat="44.65119" lon="1.56051">
        <ele>417</ele>
        <time>2019-08-13T14:42:11.523Z</time>
      </trkpt>
      <trkpt lat="44.65115" lon="1.56059">
        <ele>417</ele>
        <time>2019-08-13T14:42:16.528Z</time>
      </trkpt>
      <trkpt lat="44.65113" lon="1.56067">
        <ele>417</ele>
        <time>2019-08-13T14:42:20.519Z</time>
      </trkpt>
      <trkpt lat="44.6511" lon="1.56073">
        <ele>415</ele>
        <time>2019-08-13T14:42:24.527Z</time>
      </trkpt>
      <trkpt lat="44.65105" lon="1.5608">
        <ele>415</ele>
        <time>2019-08-13T14:42:29.520Z</time>
      </trkpt>
      <trkpt lat="44.65096" lon="1.56094">
        <ele>410</ele>
        <time>2019-08-13T14:42:38.528Z</time>
      </trkpt>
      <trkpt lat="44.65095" lon="1.56096">
        <ele>410</ele>
        <time>2019-08-13T14:42:43.509Z</time>
      </trkpt>
      <trkpt lat="44.65095" lon="1.56096">
        <ele>410</ele>
        <time>2019-08-13T14:42:48.515Z</time>
      </trkpt>
      <trkpt lat="44.65095" lon="1.56096">
        <ele>410</ele>
        <time>2019-08-13T14:42:53.495Z</time>
      </trkpt>
      <trkpt lat="44.65095" lon="1.56097">
        <ele>409</ele>
        <time>2019-08-13T14:42:57.525Z</time>
      </trkpt>
      <trkpt lat="44.65094" lon="1.561">
        <ele>409</ele>
        <time>2019-08-13T14:43:01.512Z</time>
      </trkpt>
      <trkpt lat="44.6509" lon="1.56106">
        <ele>409</ele>
        <time>2019-08-13T14:43:06.513Z</time>
      </trkpt>
      <trkpt lat="44.65086" lon="1.56112">
        <ele>409</ele>
        <time>2019-08-13T14:43:10.522Z</time>
      </trkpt>
      <trkpt lat="44.6508" lon="1.56121">
        <ele>409</ele>
        <time>2019-08-13T14:43:15.525Z</time>
      </trkpt>
      <trkpt lat="44.65074" lon="1.5613">
        <ele>413</ele>
        <time>2019-08-13T14:43:20.512Z</time>
      </trkpt>
      <trkpt lat="44.65069" lon="1.5614">
        <ele>413</ele>
        <time>2019-08-13T14:43:25.501Z</time>
      </trkpt>
      <trkpt lat="44.65063" lon="1.56147">
        <ele>413</ele>
        <time>2019-08-13T14:43:30.516Z</time>
      </trkpt>
      <trkpt lat="44.65057" lon="1.56154">
        <ele>417</ele>
        <time>2019-08-13T14:43:35.522Z</time>
      </trkpt>
      <trkpt lat="44.6505" lon="1.56161">
        <ele>417</ele>
        <time>2019-08-13T14:43:40.527Z</time>
      </trkpt>
      <trkpt lat="44.65045" lon="1.56168">
        <ele>417</ele>
        <time>2019-08-13T14:43:45.511Z</time>
      </trkpt>
      <trkpt lat="44.65042" lon="1.56172">
        <ele>417</ele>
        <time>2019-08-13T14:43:49.517Z</time>
      </trkpt>
      <trkpt lat="44.65038" lon="1.56175">
        <ele>419</ele>
        <time>2019-08-13T14:43:54.520Z</time>
      </trkpt>
      <trkpt lat="44.65037" lon="1.56175">
        <ele>419</ele>
        <time>2019-08-13T14:43:59.516Z</time>
      </trkpt>
      <trkpt lat="44.65039" lon="1.56183">
        <ele>424</ele>
        <time>2019-08-13T14:44:04.522Z</time>
      </trkpt>
      <trkpt lat="44.65037" lon="1.56185">
        <ele>424</ele>
        <time>2019-08-13T14:44:08.533Z</time>
      </trkpt>
      <trkpt lat="44.65035" lon="1.56188">
        <ele>424</ele>
        <time>2019-08-13T14:44:13.518Z</time>
      </trkpt>
      <trkpt lat="44.65031" lon="1.56194">
        <ele>424</ele>
        <time>2019-08-13T14:44:17.513Z</time>
      </trkpt>
      <trkpt lat="44.65026" lon="1.56199">
        <ele>424</ele>
        <time>2019-08-13T14:44:21.541Z</time>
      </trkpt>
      <trkpt lat="44.65021" lon="1.56204">
        <ele>424</ele>
        <time>2019-08-13T14:44:26.517Z</time>
      </trkpt>
      <trkpt lat="44.65016" lon="1.56206">
        <ele>424</ele>
        <time>2019-08-13T14:44:31.518Z</time>
      </trkpt>
      <trkpt lat="44.65012" lon="1.56211">
        <ele>425</ele>
        <time>2019-08-13T14:44:36.506Z</time>
      </trkpt>
      <trkpt lat="44.65007" lon="1.56216">
        <ele>425</ele>
        <time>2019-08-13T14:44:40.513Z</time>
      </trkpt>
      <trkpt lat="44.65002" lon="1.56226">
        <ele>425</ele>
        <time>2019-08-13T14:44:45.514Z</time>
      </trkpt>
      <trkpt lat="44.64998" lon="1.56232">
        <ele>425</ele>
        <time>2019-08-13T14:44:50.520Z</time>
      </trkpt>
      <trkpt lat="44.64995" lon="1.56236">
        <ele>424</ele>
        <time>2019-08-13T14:44:54.527Z</time>
      </trkpt>
      <trkpt lat="44.64991" lon="1.56243">
        <ele>424</ele>
        <time>2019-08-13T14:44:59.519Z</time>
      </trkpt>
      <trkpt lat="44.6499" lon="1.56249">
        <ele>424</ele>
        <time>2019-08-13T14:45:04.528Z</time>
      </trkpt>
      <trkpt lat="44.64986" lon="1.56255">
        <ele>424</ele>
        <time>2019-08-13T14:45:09.521Z</time>
      </trkpt>
      <trkpt lat="44.64981" lon="1.56265">
        <ele>423</ele>
        <time>2019-08-13T14:45:14.523Z</time>
      </trkpt>
      <trkpt lat="44.64977" lon="1.56269">
        <ele>423</ele>
        <time>2019-08-13T14:45:19.518Z</time>
      </trkpt>
      <trkpt lat="44.64976" lon="1.56273">
        <ele>423</ele>
        <time>2019-08-13T14:45:24.531Z</time>
      </trkpt>
      <trkpt lat="44.64974" lon="1.5628">
        <ele>423</ele>
        <time>2019-08-13T14:45:29.508Z</time>
      </trkpt>
      <trkpt lat="44.64972" lon="1.5629">
        <ele>423</ele>
        <time>2019-08-13T14:45:34.512Z</time>
      </trkpt>
      <trkpt lat="44.6497" lon="1.563">
        <ele>424</ele>
        <time>2019-08-13T14:45:38.529Z</time>
      </trkpt>
      <trkpt lat="44.64968" lon="1.56308">
        <ele>424</ele>
        <time>2019-08-13T14:45:42.555Z</time>
      </trkpt>
      <trkpt lat="44.64964" lon="1.56315">
        <ele>424</ele>
        <time>2019-08-13T14:45:47.513Z</time>
      </trkpt>
      <trkpt lat="44.64962" lon="1.56324">
        <ele>424</ele>
        <time>2019-08-13T14:45:52.516Z</time>
      </trkpt>
      <trkpt lat="44.6496" lon="1.56334">
        <ele>424</ele>
        <time>2019-08-13T14:45:57.518Z</time>
      </trkpt>
      <trkpt lat="44.64959" lon="1.56342">
        <ele>424</ele>
        <time>2019-08-13T14:46:02.518Z</time>
      </trkpt>
      <trkpt lat="44.64959" lon="1.56346">
        <ele>424</ele>
        <time>2019-08-13T14:46:06.521Z</time>
      </trkpt>
      <trkpt lat="44.6496" lon="1.56353">
        <ele>424</ele>
        <time>2019-08-13T14:46:11.515Z</time>
      </trkpt>
      <trkpt lat="44.64959" lon="1.56361">
        <ele>424</ele>
        <time>2019-08-13T14:46:16.515Z</time>
      </trkpt>
      <trkpt lat="44.64958" lon="1.5637">
        <ele>428</ele>
        <time>2019-08-13T14:46:20.518Z</time>
      </trkpt>
      <trkpt lat="44.64956" lon="1.56372">
        <ele>428</ele>
        <time>2019-08-13T14:46:25.517Z</time>
      </trkpt>
      <trkpt lat="44.64957" lon="1.56372">
        <ele>428</ele>
        <time>2019-08-13T14:46:30.519Z</time>
      </trkpt>
      <trkpt lat="44.64958" lon="1.56379">
        <ele>429</ele>
        <time>2019-08-13T14:46:34.517Z</time>
      </trkpt>
      <trkpt lat="44.64955" lon="1.56394">
        <ele>429</ele>
        <time>2019-08-13T14:46:39.511Z</time>
      </trkpt>
      <trkpt lat="44.64953" lon="1.56404">
        <ele>429</ele>
        <time>2019-08-13T14:46:43.517Z</time>
      </trkpt>
      <trkpt lat="44.64952" lon="1.56416">
        <ele>429</ele>
        <time>2019-08-13T14:46:48.523Z</time>
      </trkpt>
      <trkpt lat="44.64952" lon="1.56424">
        <ele>429</ele>
        <time>2019-08-13T14:46:53.515Z</time>
      </trkpt>
      <trkpt lat="44.64952" lon="1.56435">
        <ele>429</ele>
        <time>2019-08-13T14:46:58.499Z</time>
      </trkpt>
      <trkpt lat="44.64951" lon="1.56442">
        <ele>429</ele>
        <time>2019-08-13T14:47:02.524Z</time>
      </trkpt>
      <trkpt lat="44.64948" lon="1.56451">
        <ele>429</ele>
        <time>2019-08-13T14:47:06.528Z</time>
      </trkpt>
      <trkpt lat="44.64945" lon="1.56461">
        <ele>430</ele>
        <time>2019-08-13T14:47:11.504Z</time>
      </trkpt>
      <trkpt lat="44.64945" lon="1.56467">
        <ele>430</ele>
        <time>2019-08-13T14:47:15.534Z</time>
      </trkpt>
      <trkpt lat="44.64944" lon="1.56477">
        <ele>430</ele>
        <time>2019-08-13T14:47:20.520Z</time>
      </trkpt>
      <trkpt lat="44.64944" lon="1.56483">
        <ele>430</ele>
        <time>2019-08-13T14:47:24.518Z</time>
      </trkpt>
      <trkpt lat="44.64946" lon="1.56489">
        <ele>431</ele>
        <time>2019-08-13T14:47:28.536Z</time>
      </trkpt>
      <trkpt lat="44.64946" lon="1.56495">
        <ele>431</ele>
        <time>2019-08-13T14:47:33.518Z</time>
      </trkpt>
      <trkpt lat="44.64945" lon="1.56501">
        <ele>431</ele>
        <time>2019-08-13T14:47:37.508Z</time>
      </trkpt>
      <trkpt lat="44.64942" lon="1.56509">
        <ele>431</ele>
        <time>2019-08-13T14:47:41.518Z</time>
      </trkpt>
      <trkpt lat="44.6494" lon="1.56519">
        <ele>433</ele>
        <time>2019-08-13T14:47:46.522Z</time>
      </trkpt>
      <trkpt lat="44.64938" lon="1.56528">
        <ele>433</ele>
        <time>2019-08-13T14:47:50.519Z</time>
      </trkpt>
      <trkpt lat="44.64938" lon="1.56538">
        <ele>433</ele>
        <time>2019-08-13T14:47:55.541Z</time>
      </trkpt>
      <trkpt lat="44.64936" lon="1.56548">
        <ele>434</ele>
        <time>2019-08-13T14:48:00.528Z</time>
      </trkpt>
      <trkpt lat="44.64935" lon="1.56559">
        <ele>434</ele>
        <time>2019-08-13T14:48:05.531Z</time>
      </trkpt>
      <trkpt lat="44.64935" lon="1.56567">
        <ele>434</ele>
        <time>2019-08-13T14:48:10.520Z</time>
      </trkpt>
      <trkpt lat="44.64936" lon="1.56573">
        <ele>435</ele>
        <time>2019-08-13T14:48:15.537Z</time>
      </trkpt>
      <trkpt lat="44.64934" lon="1.56583">
        <ele>435</ele>
        <time>2019-08-13T14:48:20.510Z</time>
      </trkpt>
      <trkpt lat="44.64933" lon="1.56589">
        <ele>435</ele>
        <time>2019-08-13T14:48:24.526Z</time>
      </trkpt>
      <trkpt lat="44.64934" lon="1.56595">
        <ele>435</ele>
        <time>2019-08-13T14:48:29.536Z</time>
      </trkpt>
      <trkpt lat="44.64934" lon="1.56602">
        <ele>438</ele>
        <time>2019-08-13T14:48:33.522Z</time>
      </trkpt>
      <trkpt lat="44.64934" lon="1.56607">
        <ele>438</ele>
        <time>2019-08-13T14:48:37.531Z</time>
      </trkpt>
      <trkpt lat="44.64936" lon="1.56614">
        <ele>438</ele>
        <time>2019-08-13T14:48:42.519Z</time>
      </trkpt>
      <trkpt lat="44.64936" lon="1.56624">
        <ele>438</ele>
        <time>2019-08-13T14:48:47.544Z</time>
      </trkpt>
      <trkpt lat="44.64935" lon="1.56636">
        <ele>440</ele>
        <time>2019-08-13T14:48:52.515Z</time>
      </trkpt>
      <trkpt lat="44.64936" lon="1.56643">
        <ele>440</ele>
        <time>2019-08-13T14:48:57.533Z</time>
      </trkpt>
      <trkpt lat="44.64939" lon="1.56649">
        <ele>440</ele>
        <time>2019-08-13T14:49:02.522Z</time>
      </trkpt>
      <trkpt lat="44.64938" lon="1.56662">
        <ele>441</ele>
        <time>2019-08-13T14:49:07.537Z</time>
      </trkpt>
      <trkpt lat="44.64938" lon="1.56673">
        <ele>441</ele>
        <time>2019-08-13T14:49:12.520Z</time>
      </trkpt>
      <trkpt lat="44.64937" lon="1.56682">
        <ele>441</ele>
        <time>2019-08-13T14:49:17.525Z</time>
      </trkpt>
      <trkpt lat="44.64937" lon="1.5669">
        <ele>441</ele>
        <time>2019-08-13T14:49:22.527Z</time>
      </trkpt>
      <trkpt lat="44.64938" lon="1.56696">
        <ele>441</ele>
        <time>2019-08-13T14:49:27.527Z</time>
      </trkpt>
      <trkpt lat="44.64936" lon="1.56705">
        <ele>441</ele>
        <time>2019-08-13T14:49:32.515Z</time>
      </trkpt>
      <trkpt lat="44.64934" lon="1.56708">
        <ele>441</ele>
        <time>2019-08-13T14:49:36.522Z</time>
      </trkpt>
      <trkpt lat="44.64934" lon="1.56708">
        <ele>441</ele>
        <time>2019-08-13T14:49:40.530Z</time>
      </trkpt>
      <trkpt lat="44.64934" lon="1.56708">
        <ele>441</ele>
        <time>2019-08-13T14:49:45.521Z</time>
      </trkpt>
      <trkpt lat="44.64939" lon="1.5671">
        <ele>443</ele>
        <time>2019-08-13T14:49:50.523Z</time>
      </trkpt>
      <trkpt lat="44.64946" lon="1.56709">
        <ele>443</ele>
        <time>2019-08-13T14:49:55.551Z</time>
      </trkpt>
      <trkpt lat="44.64951" lon="1.5671">
        <ele>443</ele>
        <time>2019-08-13T14:50:00.515Z</time>
      </trkpt>
      <trkpt lat="44.64953" lon="1.56716">
        <ele>443</ele>
        <time>2019-08-13T14:50:04.525Z</time>
      </trkpt>
      <trkpt lat="44.64948" lon="1.5672">
        <ele>443</ele>
        <time>2019-08-13T14:50:09.536Z</time>
      </trkpt>
      <trkpt lat="44.6494" lon="1.56724">
        <ele>443</ele>
        <time>2019-08-13T14:50:14.537Z</time>
      </trkpt>
      <trkpt lat="44.64931" lon="1.56728">
        <ele>443</ele>
        <time>2019-08-13T14:50:19.566Z</time>
      </trkpt>
      <trkpt lat="44.64923" lon="1.56732">
        <ele>445</ele>
        <time>2019-08-13T14:50:24.517Z</time>
      </trkpt>
      <trkpt lat="44.64917" lon="1.56736">
        <ele>445</ele>
        <time>2019-08-13T14:50:29.550Z</time>
      </trkpt>
      <trkpt lat="44.64913" lon="1.56739">
        <ele>445</ele>
        <time>2019-08-13T14:50:34.518Z</time>
      </trkpt>
      <trkpt lat="44.64908" lon="1.56742">
        <ele>445</ele>
        <time>2019-08-13T14:50:38.533Z</time>
      </trkpt>
      <trkpt lat="44.649" lon="1.56747">
        <ele>446</ele>
        <time>2019-08-13T14:50:43.527Z</time>
      </trkpt>
      <trkpt lat="44.64896" lon="1.56754">
        <ele>446</ele>
        <time>2019-08-13T14:50:47.517Z</time>
      </trkpt>
      <trkpt lat="44.64891" lon="1.56759">
        <ele>446</ele>
        <time>2019-08-13T14:50:52.523Z</time>
      </trkpt>
      <trkpt lat="44.6488" lon="1.56768">
        <ele>446</ele>
        <time>2019-08-13T14:51:15.545Z</time>
      </trkpt>
      <trkpt lat="44.64883" lon="1.56775">
        <ele>446</ele>
        <time>2019-08-13T14:51:20.522Z</time>
      </trkpt>
      <trkpt lat="44.64886" lon="1.56786">
        <ele>446</ele>
        <time>2019-08-13T14:51:25.574Z</time>
      </trkpt>
      <trkpt lat="44.64887" lon="1.56788">
        <ele>446</ele>
        <time>2019-08-13T14:51:30.522Z</time>
      </trkpt>
      <trkpt lat="44.64888" lon="1.56794">
        <ele>446</ele>
        <time>2019-08-13T14:51:35.541Z</time>
      </trkpt>
      <trkpt lat="44.64886" lon="1.56802">
        <ele>446</ele>
        <time>2019-08-13T14:51:39.524Z</time>
      </trkpt>
      <trkpt lat="44.64886" lon="1.56809">
        <ele>446</ele>
        <time>2019-08-13T14:51:44.514Z</time>
      </trkpt>
      <trkpt lat="44.64885" lon="1.56816">
        <ele>446</ele>
        <time>2019-08-13T14:51:49.518Z</time>
      </trkpt>
      <trkpt lat="44.64886" lon="1.56827">
        <ele>445</ele>
        <time>2019-08-13T14:51:54.520Z</time>
      </trkpt>
      <trkpt lat="44.64887" lon="1.56829">
        <ele>445</ele>
        <time>2019-08-13T14:54:30.512Z</time>
      </trkpt>
      <trkpt lat="44.64889" lon="1.5683">
        <ele>445</ele>
        <time>2019-08-13T14:54:35.513Z</time>
      </trkpt>
      <trkpt lat="44.64888" lon="1.56836">
        <ele>445</ele>
        <time>2019-08-13T14:54:40.488Z</time>
      </trkpt>
      <trkpt lat="44.6488" lon="1.56856">
        <ele>443</ele>
        <time>2019-08-13T14:54:45.520Z</time>
      </trkpt>
      <trkpt lat="44.64879" lon="1.56865">
        <ele>443</ele>
        <time>2019-08-13T14:54:49.513Z</time>
      </trkpt>
      <trkpt lat="44.64878" lon="1.5687">
        <ele>443</ele>
        <time>2019-08-13T14:54:54.526Z</time>
      </trkpt>
      <trkpt lat="44.64872" lon="1.56874">
        <ele>445</ele>
        <time>2019-08-13T14:54:59.514Z</time>
      </trkpt>
      <trkpt lat="44.6487" lon="1.56864">
        <ele>445</ele>
        <time>2019-08-13T14:55:03.510Z</time>
      </trkpt>
      <trkpt lat="44.64867" lon="1.56854">
        <ele>445</ele>
        <time>2019-08-13T14:55:08.527Z</time>
      </trkpt>
      <trkpt lat="44.64867" lon="1.56844">
        <ele>446</ele>
        <time>2019-08-13T14:55:13.523Z</time>
      </trkpt>
      <trkpt lat="44.64864" lon="1.56839">
        <ele>446</ele>
        <time>2019-08-13T14:55:18.520Z</time>
      </trkpt>
      <trkpt lat="44.64862" lon="1.5683">
        <ele>446</ele>
        <time>2019-08-13T14:55:23.525Z</time>
      </trkpt>
      <trkpt lat="44.64859" lon="1.56823">
        <ele>446</ele>
        <time>2019-08-13T14:55:28.531Z</time>
      </trkpt>
      <trkpt lat="44.64855" lon="1.56817">
        <ele>447</ele>
        <time>2019-08-13T14:55:33.529Z</time>
      </trkpt>
      <trkpt lat="44.64847" lon="1.56814">
        <ele>449</ele>
        <time>2019-08-13T14:55:38.521Z</time>
      </trkpt>
      <trkpt lat="44.64842" lon="1.56812">
        <ele>449</ele>
        <time>2019-08-13T14:55:43.527Z</time>
      </trkpt>
      <trkpt lat="44.64836" lon="1.56812">
        <ele>449</ele>
        <time>2019-08-13T14:55:48.528Z</time>
      </trkpt>
      <trkpt lat="44.6483" lon="1.56814">
        <ele>449</ele>
        <time>2019-08-13T14:55:53.522Z</time>
      </trkpt>
      <trkpt lat="44.64825" lon="1.5681">
        <ele>449</ele>
        <time>2019-08-13T14:55:57.526Z</time>
      </trkpt>
      <trkpt lat="44.64818" lon="1.56807">
        <ele>449</ele>
        <time>2019-08-13T14:56:02.514Z</time>
      </trkpt>
      <trkpt lat="44.64814" lon="1.56813">
        <ele>449</ele>
        <time>2019-08-13T14:56:06.523Z</time>
      </trkpt>
      <trkpt lat="44.6481" lon="1.56813">
        <ele>449</ele>
        <time>2019-08-13T14:56:11.524Z</time>
      </trkpt>
      <trkpt lat="44.64807" lon="1.5681">
        <ele>449</ele>
        <time>2019-08-13T14:56:15.520Z</time>
      </trkpt>
      <trkpt lat="44.64805" lon="1.56803">
        <ele>449</ele>
        <time>2019-08-13T14:56:19.523Z</time>
      </trkpt>
      <trkpt lat="44.64801" lon="1.568">
        <ele>449</ele>
        <time>2019-08-13T14:56:24.527Z</time>
      </trkpt>
      <trkpt lat="44.64795" lon="1.56797">
        <ele>449</ele>
        <time>2019-08-13T14:56:29.509Z</time>
      </trkpt>
      <trkpt lat="44.6479" lon="1.56798">
        <ele>448</ele>
        <time>2019-08-13T14:56:34.523Z</time>
      </trkpt>
      <trkpt lat="44.64787" lon="1.56804">
        <ele>448</ele>
        <time>2019-08-13T14:56:38.526Z</time>
      </trkpt>
      <trkpt lat="44.6478" lon="1.56809">
        <ele>448</ele>
        <time>2019-08-13T14:56:43.514Z</time>
      </trkpt>
      <trkpt lat="44.64772" lon="1.56812">
        <ele>448</ele>
        <time>2019-08-13T14:56:48.508Z</time>
      </trkpt>
      <trkpt lat="44.64764" lon="1.56812">
        <ele>448</ele>
        <time>2019-08-13T14:56:53.512Z</time>
      </trkpt>
      <trkpt lat="44.6476" lon="1.56805">
        <ele>448</ele>
        <time>2019-08-13T14:56:58.514Z</time>
      </trkpt>
      <trkpt lat="44.64761" lon="1.568">
        <ele>448</ele>
        <time>2019-08-13T14:57:03.521Z</time>
      </trkpt>
      <trkpt lat="44.64756" lon="1.56797">
        <ele>448</ele>
        <time>2019-08-13T14:57:08.526Z</time>
      </trkpt>
      <trkpt lat="44.64748" lon="1.56807">
        <ele>448</ele>
        <time>2019-08-13T14:57:13.532Z</time>
      </trkpt>
      <trkpt lat="44.64741" lon="1.56819">
        <ele>448</ele>
        <time>2019-08-13T14:57:18.508Z</time>
      </trkpt>
      <trkpt lat="44.64736" lon="1.56823">
        <ele>449</ele>
        <time>2019-08-13T14:57:23.514Z</time>
      </trkpt>
      <trkpt lat="44.64726" lon="1.56832">
        <ele>449</ele>
        <time>2019-08-13T14:57:27.526Z</time>
      </trkpt>
      <trkpt lat="44.64721" lon="1.56835">
        <ele>449</ele>
        <time>2019-08-13T14:57:31.519Z</time>
      </trkpt>
      <trkpt lat="44.64719" lon="1.56842">
        <ele>449</ele>
        <time>2019-08-13T14:57:36.522Z</time>
      </trkpt>
      <trkpt lat="44.64715" lon="1.56844">
        <ele>449</ele>
        <time>2019-08-13T14:57:41.509Z</time>
      </trkpt>
      <trkpt lat="44.64712" lon="1.56848">
        <ele>448</ele>
        <time>2019-08-13T14:57:45.520Z</time>
      </trkpt>
      <trkpt lat="44.64713" lon="1.56857">
        <ele>448</ele>
        <time>2019-08-13T14:57:50.516Z</time>
      </trkpt>
      <trkpt lat="44.6471" lon="1.5686">
        <ele>448</ele>
        <time>2019-08-13T14:57:54.523Z</time>
      </trkpt>
      <trkpt lat="44.64712" lon="1.56868">
        <ele>448</ele>
        <time>2019-08-13T14:57:59.519Z</time>
      </trkpt>
      <trkpt lat="44.64713" lon="1.56869">
        <ele>448</ele>
        <time>2019-08-13T14:58:04.523Z</time>
      </trkpt>
      <trkpt lat="44.64712" lon="1.5687">
        <ele>448</ele>
        <time>2019-08-13T14:58:08.519Z</time>
      </trkpt>
      <trkpt lat="44.64709" lon="1.56876">
        <ele>446</ele>
        <time>2019-08-13T14:58:12.521Z</time>
      </trkpt>
      <trkpt lat="44.64707" lon="1.56884">
        <ele>448</ele>
        <time>2019-08-13T14:58:17.515Z</time>
      </trkpt>
      <trkpt lat="44.6471" lon="1.56893">
        <ele>446</ele>
        <time>2019-08-13T14:58:22.523Z</time>
      </trkpt>
      <trkpt lat="44.64708" lon="1.56901">
        <ele>446</ele>
        <time>2019-08-13T14:58:26.527Z</time>
      </trkpt>
      <trkpt lat="44.64707" lon="1.56908">
        <ele>446</ele>
        <time>2019-08-13T14:58:31.514Z</time>
      </trkpt>
      <trkpt lat="44.64707" lon="1.56909">
        <ele>446</ele>
        <time>2019-08-13T14:58:36.517Z</time>
      </trkpt>
      <trkpt lat="44.64709" lon="1.56902">
        <ele>446</ele>
        <time>2019-08-13T14:58:41.510Z</time>
      </trkpt>
      <trkpt lat="44.64714" lon="1.56896">
        <ele>446</ele>
        <time>2019-08-13T14:58:46.518Z</time>
      </trkpt>
      <trkpt lat="44.64725" lon="1.56898">
        <ele>446</ele>
        <time>2019-08-13T14:58:51.517Z</time>
      </trkpt>
      <trkpt lat="44.64732" lon="1.56904">
        <ele>442</ele>
        <time>2019-08-13T14:58:56.525Z</time>
      </trkpt>
      <trkpt lat="44.64736" lon="1.5691">
        <ele>442</ele>
        <time>2019-08-13T14:59:01.489Z</time>
      </trkpt>
      <trkpt lat="44.64737" lon="1.56916">
        <ele>439</ele>
        <time>2019-08-13T14:59:05.519Z</time>
      </trkpt>
      <trkpt lat="44.64733" lon="1.56917">
        <ele>442</ele>
        <time>2019-08-13T14:59:10.520Z</time>
      </trkpt>
      <trkpt lat="44.64728" lon="1.5692">
        <ele>442</ele>
        <time>2019-08-13T14:59:15.525Z</time>
      </trkpt>
      <trkpt lat="44.64723" lon="1.5693">
        <ele>442</ele>
        <time>2019-08-13T14:59:43.513Z</time>
      </trkpt>
      <trkpt lat="44.64724" lon="1.56934">
        <ele>439</ele>
        <time>2019-08-13T14:59:48.514Z</time>
      </trkpt>
      <trkpt lat="44.64723" lon="1.56933">
        <ele>439</ele>
        <time>2019-08-13T14:59:52.525Z</time>
      </trkpt>
      <trkpt lat="44.64723" lon="1.56934">
        <ele>439</ele>
        <time>2019-08-13T14:59:56.514Z</time>
      </trkpt>
      <trkpt lat="44.64722" lon="1.56935">
        <ele>439</ele>
        <time>2019-08-13T15:00:01.510Z</time>
      </trkpt>
    </trkseg>
  </trk>
</gpx>